<?xml version='1.0' encoding='UTF-8'?><gpx version="1.1" creator="JPX - https://github.com/jenetics/jpx" xmlns="http://www.topografix.com/GPX/1/1"><trk><trkseg><trkpt lat="44.1850645" lon="12.1150206"><ele>29.0</ele><time>2026-04-16T12:09:26.551Z</time></trkpt><trkpt lat="44.1851236" lon="12.1150766"><ele>29.0</ele><time>2026-04-16T12:09:49.171Z</time></trkpt><trkpt lat="44.18514" lon="12.114845"><ele>29.0</ele><time>2026-04-16T12:10:12.09Z</time></trkpt><trkpt lat="44.1850917" lon="12.1147783"><ele>29.0</ele><time>2026-04-16T12:10:15.09Z</time></trkpt><trkpt lat="44.185025" lon="12.1147267"><ele>29.0</ele><time>2026-04-16T12:10:18.09Z</time></trkpt><trkpt lat="44.1849683" lon="12.114665"><ele>28.833333333333332</ele><time>2026-04-16T12:10:21.09Z</time></trkpt><trkpt lat="44.18494" lon="12.1145717"><ele>28.666666666666664</ele><time>2026-04-16T12:10:25.09Z</time></trkpt><trkpt lat="44.18497" lon="12.114465"><ele>28.5</ele><time>2026-04-16T12:10:27.09Z</time></trkpt><trkpt lat="44.185" lon="12.1143617"><ele>28.333333333333336</ele><time>2026-04-16T12:10:29.09Z</time></trkpt><trkpt lat="44.185035" lon="12.1142517"><ele>28.166666666666668</ele><time>2026-04-16T12:10:31.09Z</time></trkpt><trkpt lat="44.18505" lon="12.1141633"><ele>28.0</ele><time>2026-04-16T12:10:33.09Z</time></trkpt><trkpt lat="44.1850017" lon="12.1140817"><ele>27.833333333333336</ele><time>2026-04-16T12:10:35.09Z</time></trkpt><trkpt lat="44.1849483" lon="12.114005"><ele>27.666666666666668</ele><time>2026-04-16T12:10:37.09Z</time></trkpt><trkpt lat="44.1848917" lon="12.1139367"><ele>27.5</ele><time>2026-04-16T12:10:39.09Z</time></trkpt><trkpt lat="44.184825" lon="12.1138783"><ele>27.333333333333336</ele><time>2026-04-16T12:10:41.09Z</time></trkpt><trkpt lat="44.1847617" lon="12.113805"><ele>27.166666666666668</ele><time>2026-04-16T12:10:43.09Z</time></trkpt><trkpt lat="44.1846917" lon="12.1137283"><ele>27.0</ele><time>2026-04-16T12:10:45.09Z</time></trkpt><trkpt lat="44.1846233" lon="12.1136317"><ele>27.0</ele><time>2026-04-16T12:10:47.09Z</time></trkpt><trkpt lat="44.1845533" lon="12.11354"><ele>27.0</ele><time>2026-04-16T12:10:49.09Z</time></trkpt><trkpt lat="44.1844767" lon="12.1134667"><ele>27.0</ele><time>2026-04-16T12:10:51.09Z</time></trkpt><trkpt lat="44.1844117" lon="12.1134017"><ele>27.0</ele><time>2026-04-16T12:10:53.09Z</time></trkpt><trkpt lat="44.1843467" lon="12.1133283"><ele>27.0</ele><time>2026-04-16T12:10:55.09Z</time></trkpt><trkpt lat="44.1842917" lon="12.1132467"><ele>27.0</ele><time>2026-04-16T12:10:57.09Z</time></trkpt><trkpt lat="44.1842067" lon="12.1131883"><ele>27.0</ele><time>2026-04-16T12:11:01.586Z</time></trkpt><trkpt lat="44.184145" lon="12.1131017"><ele>27.000000000000004</ele><time>2026-04-16T12:11:03.086Z</time></trkpt><trkpt lat="44.1840583" lon="12.11304"><ele>27.000000000000004</ele><time>2026-04-16T12:11:05.086Z</time></trkpt><trkpt lat="44.1839567" lon="12.1129633"><ele>27.0</ele><time>2026-04-16T12:11:07.086Z</time></trkpt><trkpt lat="44.183875" lon="12.11284"><ele>27.0</ele><time>2026-04-16T12:11:09.086Z</time></trkpt><trkpt lat="44.18379" lon="12.1127567"><ele>27.0</ele><time>2026-04-16T12:11:11.086Z</time></trkpt><trkpt lat="44.1837083" lon="12.1126933"><ele>27.000000000000004</ele><time>2026-04-16T12:11:13.086Z</time></trkpt><trkpt lat="44.183625" lon="12.1126317"><ele>27.000000000000004</ele><time>2026-04-16T12:11:15.086Z</time></trkpt><trkpt lat="44.18353" lon="12.1125567"><ele>27.0</ele><time>2026-04-16T12:11:17.086Z</time></trkpt><trkpt lat="44.1834417" lon="12.1124917"><ele>27.0</ele><time>2026-04-16T12:11:19.086Z</time></trkpt><trkpt lat="44.1833467" lon="12.1124233"><ele>27.0</ele><time>2026-04-16T12:11:21.086Z</time></trkpt><trkpt lat="44.1832567" lon="12.1123483"><ele>27.000000000000004</ele><time>2026-04-16T12:11:23.086Z</time></trkpt><trkpt lat="44.183155" lon="12.1122767"><ele>27.000000000000004</ele><time>2026-04-16T12:11:25.086Z</time></trkpt><trkpt lat="44.183055" lon="12.11221"><ele>27.0</ele><time>2026-04-16T12:11:27.086Z</time></trkpt><trkpt lat="44.1829567" lon="12.1121433"><ele>27.0</ele><time>2026-04-16T12:11:29.086Z</time></trkpt><trkpt lat="44.1828583" lon="12.112085"><ele>27.0</ele><time>2026-04-16T12:11:31.086Z</time></trkpt><trkpt lat="44.18276" lon="12.1120183"><ele>27.000000000000004</ele><time>2026-04-16T12:11:33.087Z</time></trkpt><trkpt lat="44.1826617" lon="12.1119483"><ele>27.000000000000004</ele><time>2026-04-16T12:11:35.086Z</time></trkpt><trkpt lat="44.18257" lon="12.11188"><ele>27.0</ele><time>2026-04-16T12:11:37.086Z</time></trkpt><trkpt lat="44.1825083" lon="12.11184"><ele>27.0</ele><time>2026-04-16T12:11:38.086Z</time></trkpt><trkpt lat="44.1824083" lon="12.111755"><ele>27.25</ele><time>2026-04-16T12:11:40.086Z</time></trkpt><trkpt lat="44.1823067" lon="12.1116583"><ele>27.5</ele><time>2026-04-16T12:11:42.087Z</time></trkpt><trkpt lat="44.1822" lon="12.111575"><ele>27.75</ele><time>2026-04-16T12:11:44.087Z</time></trkpt><trkpt lat="44.1820983" lon="12.11149"><ele>28.0</ele><time>2026-04-16T12:11:46.087Z</time></trkpt><trkpt lat="44.1819967" lon="12.111415"><ele>28.0</ele><time>2026-04-16T12:11:48.087Z</time></trkpt><trkpt lat="44.1818933" lon="12.1113367"><ele>28.0</ele><time>2026-04-16T12:11:50.087Z</time></trkpt><trkpt lat="44.181795" lon="12.1112617"><ele>28.0</ele><time>2026-04-16T12:11:52.087Z</time></trkpt><trkpt lat="44.1817" lon="12.1111917"><ele>28.0</ele><time>2026-04-16T12:11:54.087Z</time></trkpt><trkpt lat="44.1816" lon="12.1111133"><ele>28.25</ele><time>2026-04-16T12:11:56.087Z</time></trkpt><trkpt lat="44.1814967" lon="12.1110383"><ele>28.5</ele><time>2026-04-16T12:11:58.087Z</time></trkpt><trkpt lat="44.1813917" lon="12.11097"><ele>28.75</ele><time>2026-04-16T12:12:00.087Z</time></trkpt><trkpt lat="44.18128" lon="12.1109083"><ele>29.0</ele><time>2026-04-16T12:12:02.087Z</time></trkpt><trkpt lat="44.1811667" lon="12.1108367"><ele>29.0</ele><time>2026-04-16T12:12:04.087Z</time></trkpt><trkpt lat="44.18106" lon="12.1107517"><ele>29.0</ele><time>2026-04-16T12:12:06.087Z</time></trkpt><trkpt lat="44.180955" lon="12.110665"><ele>29.0</ele><time>2026-04-16T12:12:08.087Z</time></trkpt><trkpt lat="44.18085" lon="12.1105733"><ele>29.0</ele><time>2026-04-16T12:12:10.087Z</time></trkpt><trkpt lat="44.180745" lon="12.1104883"><ele>29.2</ele><time>2026-04-16T12:12:12.087Z</time></trkpt><trkpt lat="44.1806383" lon="12.1104017"><ele>29.4</ele><time>2026-04-16T12:12:14.087Z</time></trkpt><trkpt lat="44.1805833" lon="12.1103583"><ele>29.6</ele><time>2026-04-16T12:12:15.087Z</time></trkpt><trkpt lat="44.1804767" lon="12.1102817"><ele>29.8</ele><time>2026-04-16T12:12:17.087Z</time></trkpt><trkpt lat="44.1803717" lon="12.1102017"><ele>30.0</ele><time>2026-04-16T12:12:19.087Z</time></trkpt><trkpt lat="44.18027" lon="12.1101167"><ele>30.0</ele><time>2026-04-16T12:12:21.088Z</time></trkpt><trkpt lat="44.1801667" lon="12.110025"><ele>30.0</ele><time>2026-04-16T12:12:23.087Z</time></trkpt><trkpt lat="44.1801117" lon="12.10998"><ele>30.0</ele><time>2026-04-16T12:12:24.087Z</time></trkpt><trkpt lat="44.1800567" lon="12.1099367"><ele>30.0</ele><time>2026-04-16T12:12:25.087Z</time></trkpt><trkpt lat="44.17995" lon="12.10985"><ele>30.0</ele><time>2026-04-16T12:12:27.087Z</time></trkpt><trkpt lat="44.1798483" lon="12.109765"><ele>30.2</ele><time>2026-04-16T12:12:29.087Z</time></trkpt><trkpt lat="44.179745" lon="12.109675"><ele>30.4</ele><time>2026-04-16T12:12:31.087Z</time></trkpt><trkpt lat="44.1796917" lon="12.109625"><ele>30.6</ele><time>2026-04-16T12:12:32.087Z</time></trkpt><trkpt lat="44.1795933" lon="12.109525"><ele>30.8</ele><time>2026-04-16T12:12:34.087Z</time></trkpt><trkpt lat="44.1794867" lon="12.1094283"><ele>31.0</ele><time>2026-04-16T12:12:36.087Z</time></trkpt><trkpt lat="44.179385" lon="12.1093267"><ele>31.0</ele><time>2026-04-16T12:12:38.087Z</time></trkpt><trkpt lat="44.179285" lon="12.1092267"><ele>31.0</ele><time>2026-04-16T12:12:40.087Z</time></trkpt><trkpt lat="44.1791817" lon="12.10913"><ele>31.0</ele><time>2026-04-16T12:12:42.087Z</time></trkpt><trkpt lat="44.1790783" lon="12.109035"><ele>31.0</ele><time>2026-04-16T12:12:44.087Z</time></trkpt><trkpt lat="44.1789833" lon="12.1089433"><ele>30.75</ele><time>2026-04-16T12:12:46.087Z</time></trkpt><trkpt lat="44.1788867" lon="12.1088467"><ele>30.5</ele><time>2026-04-16T12:12:48.087Z</time></trkpt><trkpt lat="44.1787933" lon="12.1087567"><ele>30.25</ele><time>2026-04-16T12:12:50.087Z</time></trkpt><trkpt lat="44.178705" lon="12.10867"><ele>30.0</ele><time>2026-04-16T12:12:52.087Z</time></trkpt><trkpt lat="44.1786117" lon="12.1085833"><ele>30.0</ele><time>2026-04-16T12:12:54.087Z</time></trkpt><trkpt lat="44.1785033" lon="12.1085017"><ele>30.0</ele><time>2026-04-16T12:12:56.087Z</time></trkpt><trkpt lat="44.1784467" lon="12.1084567"><ele>30.0</ele><time>2026-04-16T12:12:57.088Z</time></trkpt><trkpt lat="44.17835" lon="12.10837"><ele>30.0</ele><time>2026-04-16T12:12:59.087Z</time></trkpt><trkpt lat="44.1782617" lon="12.1082833"><ele>30.0</ele><time>2026-04-16T12:13:01.087Z</time></trkpt><trkpt lat="44.178165" lon="12.1082017"><ele>30.166666666666668</ele><time>2026-04-16T12:13:03.087Z</time></trkpt><trkpt lat="44.17806" lon="12.1081067"><ele>30.333333333333336</ele><time>2026-04-16T12:13:05.087Z</time></trkpt><trkpt lat="44.1780067" lon="12.1080567"><ele>30.5</ele><time>2026-04-16T12:13:06.087Z</time></trkpt><trkpt lat="44.1779033" lon="12.10795"><ele>30.666666666666668</ele><time>2026-04-16T12:13:08.087Z</time></trkpt><trkpt lat="44.1778533" lon="12.10789"><ele>30.833333333333336</ele><time>2026-04-16T12:13:09.087Z</time></trkpt><trkpt lat="44.1778017" lon="12.1078367"><ele>31.0</ele><time>2026-04-16T12:13:10.087Z</time></trkpt><trkpt lat="44.1777517" lon="12.10778"><ele>31.000000000000004</ele><time>2026-04-16T12:13:11.087Z</time></trkpt><trkpt lat="44.1777017" lon="12.107725"><ele>31.0</ele><time>2026-04-16T12:13:12.087Z</time></trkpt><trkpt lat="44.177595" lon="12.1076333"><ele>31.0</ele><time>2026-04-16T12:13:14.088Z</time></trkpt><trkpt lat="44.1775417" lon="12.107585"><ele>31.0</ele><time>2026-04-16T12:13:15.087Z</time></trkpt><trkpt lat="44.1774883" lon="12.1075383"><ele>31.000000000000004</ele><time>2026-04-16T12:13:16.087Z</time></trkpt><trkpt lat="44.17739" lon="12.10745"><ele>31.0</ele><time>2026-04-16T12:13:18.087Z</time></trkpt><trkpt lat="44.1773017" lon="12.1073583"><ele>31.166666666666668</ele><time>2026-04-16T12:13:20.087Z</time></trkpt><trkpt lat="44.1771983" lon="12.1072817"><ele>31.333333333333336</ele><time>2026-04-16T12:13:22.087Z</time></trkpt><trkpt lat="44.1770967" lon="12.10719"><ele>31.5</ele><time>2026-04-16T12:13:24.087Z</time></trkpt><trkpt lat="44.17704" lon="12.10715"><ele>31.666666666666664</ele><time>2026-04-16T12:13:25.087Z</time></trkpt><trkpt lat="44.1769833" lon="12.1071067"><ele>31.833333333333332</ele><time>2026-04-16T12:13:26.087Z</time></trkpt><trkpt lat="44.1769267" lon="12.1070583"><ele>32.0</ele><time>2026-04-16T12:13:27.087Z</time></trkpt><trkpt lat="44.17687" lon="12.10701"><ele>32.0</ele><time>2026-04-16T12:13:28.087Z</time></trkpt><trkpt lat="44.176765" lon="12.1069133"><ele>32.0</ele><time>2026-04-16T12:13:30.087Z</time></trkpt><trkpt lat="44.1766633" lon="12.106815"><ele>32.0</ele><time>2026-04-16T12:13:32.087Z</time></trkpt><trkpt lat="44.1765617" lon="12.1067367"><ele>32.0</ele><time>2026-04-16T12:13:34.087Z</time></trkpt><trkpt lat="44.1764617" lon="12.1066783"><ele>31.999999999999996</ele><time>2026-04-16T12:13:36.087Z</time></trkpt><trkpt lat="44.1763667" lon="12.1066133"><ele>32.0</ele><time>2026-04-16T12:13:38.087Z</time></trkpt><trkpt lat="44.1762617" lon="12.1065217"><ele>32.0</ele><time>2026-04-16T12:13:40.087Z</time></trkpt><trkpt lat="44.1762117" lon="12.1064683"><ele>32.0</ele><time>2026-04-16T12:13:41.088Z</time></trkpt><trkpt lat="44.1761633" lon="12.1064117"><ele>31.999999999999996</ele><time>2026-04-16T12:13:42.088Z</time></trkpt><trkpt lat="44.1761117" lon="12.1063467"><ele>32.0</ele><time>2026-04-16T12:13:43.088Z</time></trkpt><trkpt lat="44.1760183" lon="12.1062517"><ele>32.0</ele><time>2026-04-16T12:13:45.087Z</time></trkpt><trkpt lat="44.1759283" lon="12.106185"><ele>32.0</ele><time>2026-04-16T12:13:47.087Z</time></trkpt><trkpt lat="44.17584" lon="12.1061717"><ele>32.0</ele><time>2026-04-16T12:13:49.087Z</time></trkpt><trkpt lat="44.1757883" lon="12.10624"><ele>32.0</ele><time>2026-04-16T12:13:51.087Z</time></trkpt><trkpt lat="44.1757567" lon="12.1063433"><ele>32.0</ele><time>2026-04-16T12:13:53.087Z</time></trkpt><trkpt lat="44.1756867" lon="12.106475"><ele>32.33333333333333</ele><time>2026-04-16T12:13:55.087Z</time></trkpt><trkpt lat="44.175605" lon="12.10661"><ele>32.666666666666664</ele><time>2026-04-16T12:13:57.088Z</time></trkpt><trkpt lat="44.1755617" lon="12.1066817"><ele>33.0</ele><time>2026-04-16T12:13:58.088Z</time></trkpt><trkpt lat="44.175515" lon="12.1067517"><ele>33.333333333333336</ele><time>2026-04-16T12:13:59.087Z</time></trkpt><trkpt lat="44.175475" lon="12.1068233"><ele>33.66666666666667</ele><time>2026-04-16T12:14:00.087Z</time></trkpt><trkpt lat="44.175405" lon="12.10696"><ele>34.0</ele><time>2026-04-16T12:14:02.087Z</time></trkpt><trkpt lat="44.1753417" lon="12.1070833"><ele>34.0</ele><time>2026-04-16T12:14:04.087Z</time></trkpt><trkpt lat="44.1752567" lon="12.107175"><ele>34.0</ele><time>2026-04-16T12:14:06.087Z</time></trkpt><trkpt lat="44.1751917" lon="12.1071933"><ele>34.0</ele><time>2026-04-16T12:14:07.087Z</time></trkpt><trkpt lat="44.1751" lon="12.1070983"><ele>34.0</ele><time>2026-04-16T12:14:09.087Z</time></trkpt><trkpt lat="44.1750383" lon="12.1069467"><ele>34.0</ele><time>2026-04-16T12:14:11.087Z</time></trkpt><trkpt lat="44.1750083" lon="12.1068683"><ele>33.99999999999999</ele><time>2026-04-16T12:14:12.087Z</time></trkpt><trkpt lat="44.1749783" lon="12.1067867"><ele>34.0</ele><time>2026-04-16T12:14:13.087Z</time></trkpt><trkpt lat="44.1749433" lon="12.1067"><ele>34.0</ele><time>2026-04-16T12:14:14.087Z</time></trkpt><trkpt lat="44.1749083" lon="12.106615"><ele>34.0</ele><time>2026-04-16T12:14:15.087Z</time></trkpt><trkpt lat="44.174875" lon="12.106535"><ele>34.0</ele><time>2026-04-16T12:14:16.087Z</time></trkpt><trkpt lat="44.1748433" lon="12.1064567"><ele>33.99999999999999</ele><time>2026-04-16T12:14:17.087Z</time></trkpt><trkpt lat="44.1748133" lon="12.1063733"><ele>34.0</ele><time>2026-04-16T12:14:18.087Z</time></trkpt><trkpt lat="44.17478" lon="12.10629"><ele>33.857142857142854</ele><time>2026-04-16T12:14:19.087Z</time></trkpt><trkpt lat="44.1747483" lon="12.1062083"><ele>33.714285714285715</ele><time>2026-04-16T12:14:20.087Z</time></trkpt><trkpt lat="44.1747167" lon="12.1061217"><ele>33.57142857142857</ele><time>2026-04-16T12:14:21.087Z</time></trkpt><trkpt lat="44.1746867" lon="12.1060317"><ele>33.42857142857143</ele><time>2026-04-16T12:14:22.087Z</time></trkpt><trkpt lat="44.1746517" lon="12.1059383"><ele>33.285714285714285</ele><time>2026-04-16T12:14:23.087Z</time></trkpt><trkpt lat="44.1746167" lon="12.1058467"><ele>33.14285714285714</ele><time>2026-04-16T12:14:24.087Z</time></trkpt><trkpt lat="44.17458" lon="12.10576"><ele>33.0</ele><time>2026-04-16T12:14:25.087Z</time></trkpt><trkpt lat="44.1745467" lon="12.1056767"><ele>33.0</ele><time>2026-04-16T12:14:26.087Z</time></trkpt><trkpt lat="44.1745167" lon="12.1055983"><ele>33.0</ele><time>2026-04-16T12:14:27.087Z</time></trkpt><trkpt lat="44.1744783" lon="12.1055083"><ele>33.0</ele><time>2026-04-16T12:14:28.087Z</time></trkpt><trkpt lat="44.174415" lon="12.1053617"><ele>33.0</ele><time>2026-04-16T12:14:30.087Z</time></trkpt><trkpt lat="44.1743283" lon="12.10523"><ele>33.0</ele><time>2026-04-16T12:14:32.087Z</time></trkpt><trkpt lat="44.174275" lon="12.1051783"><ele>33.0</ele><time>2026-04-16T12:14:33.087Z</time></trkpt><trkpt lat="44.174225" lon="12.1051183"><ele>33.0</ele><time>2026-04-16T12:14:34.087Z</time></trkpt><trkpt lat="44.17418" lon="12.105045"><ele>33.0</ele><time>2026-04-16T12:14:35.087Z</time></trkpt><trkpt lat="44.174145" lon="12.1049667"><ele>33.0</ele><time>2026-04-16T12:14:36.087Z</time></trkpt><trkpt lat="44.1741117" lon="12.1048917"><ele>33.0</ele><time>2026-04-16T12:14:37.088Z</time></trkpt><trkpt lat="44.1740783" lon="12.10481"><ele>33.0</ele><time>2026-04-16T12:14:38.087Z</time></trkpt><trkpt lat="44.1740483" lon="12.1047267"><ele>33.0</ele><time>2026-04-16T12:14:39.087Z</time></trkpt><trkpt lat="44.1740283" lon="12.104635"><ele>33.25</ele><time>2026-04-16T12:14:40.087Z</time></trkpt><trkpt lat="44.174015" lon="12.10447"><ele>33.5</ele><time>2026-04-16T12:14:42.087Z</time></trkpt><trkpt lat="44.1739967" lon="12.1043167"><ele>33.75</ele><time>2026-04-16T12:14:44.087Z</time></trkpt><trkpt lat="44.1739617" lon="12.10417"><ele>34.0</ele><time>2026-04-16T12:14:46.087Z</time></trkpt><trkpt lat="44.17391" lon="12.1040233"><ele>34.0</ele><time>2026-04-16T12:14:48.087Z</time></trkpt><trkpt lat="44.1738383" lon="12.1039083"><ele>34.0</ele><time>2026-04-16T12:14:50.087Z</time></trkpt><trkpt lat="44.1737533" lon="12.1037933"><ele>34.0</ele><time>2026-04-16T12:14:52.087Z</time></trkpt><trkpt lat="44.17367" lon="12.1036817"><ele>34.0</ele><time>2026-04-16T12:14:54.087Z</time></trkpt><trkpt lat="44.17362" lon="12.1036217"><ele>34.0</ele><time>2026-04-16T12:14:55.087Z</time></trkpt><trkpt lat="44.1735683" lon="12.103555"><ele>33.99999999999999</ele><time>2026-04-16T12:14:56.088Z</time></trkpt><trkpt lat="44.1735183" lon="12.103485"><ele>34.0</ele><time>2026-04-16T12:14:57.088Z</time></trkpt><trkpt lat="44.1734683" lon="12.1034183"><ele>34.0</ele><time>2026-04-16T12:14:58.087Z</time></trkpt><trkpt lat="44.1734217" lon="12.1033583"><ele>34.0</ele><time>2026-04-16T12:14:59.087Z</time></trkpt><trkpt lat="44.1733683" lon="12.1032833"><ele>34.0</ele><time>2026-04-16T12:15:00.087Z</time></trkpt><trkpt lat="44.1733167" lon="12.1032183"><ele>33.99999999999999</ele><time>2026-04-16T12:15:01.087Z</time></trkpt><trkpt lat="44.173265" lon="12.1031517"><ele>34.0</ele><time>2026-04-16T12:15:02.087Z</time></trkpt><trkpt lat="44.1732167" lon="12.1030817"><ele>33.857142857142854</ele><time>2026-04-16T12:15:03.088Z</time></trkpt><trkpt lat="44.1731633" lon="12.1030167"><ele>33.714285714285715</ele><time>2026-04-16T12:15:04.087Z</time></trkpt><trkpt lat="44.17311" lon="12.10295"><ele>33.57142857142857</ele><time>2026-04-16T12:15:05.087Z</time></trkpt><trkpt lat="44.1730583" lon="12.102885"><ele>33.42857142857143</ele><time>2026-04-16T12:15:06.087Z</time></trkpt><trkpt lat="44.173005" lon="12.102815"><ele>33.285714285714285</ele><time>2026-04-16T12:15:07.088Z</time></trkpt><trkpt lat="44.172955" lon="12.1027517"><ele>33.14285714285714</ele><time>2026-04-16T12:15:08.088Z</time></trkpt><trkpt lat="44.1729017" lon="12.1026833"><ele>33.0</ele><time>2026-04-16T12:15:09.087Z</time></trkpt><trkpt lat="44.17285" lon="12.10262"><ele>33.0</ele><time>2026-04-16T12:15:10.088Z</time></trkpt><trkpt lat="44.1727983" lon="12.1025533"><ele>33.0</ele><time>2026-04-16T12:15:11.087Z</time></trkpt><trkpt lat="44.1727467" lon="12.10249"><ele>33.0</ele><time>2026-04-16T12:15:12.087Z</time></trkpt><trkpt lat="44.1726983" lon="12.1024217"><ele>33.0</ele><time>2026-04-16T12:15:13.088Z</time></trkpt><trkpt lat="44.1726483" lon="12.1023567"><ele>33.0</ele><time>2026-04-16T12:15:14.087Z</time></trkpt><trkpt lat="44.1726017" lon="12.1022917"><ele>33.0</ele><time>2026-04-16T12:15:15.087Z</time></trkpt><trkpt lat="44.1725533" lon="12.1022267"><ele>33.0</ele><time>2026-04-16T12:15:16.087Z</time></trkpt><trkpt lat="44.1725033" lon="12.10216"><ele>33.0</ele><time>2026-04-16T12:15:17.087Z</time></trkpt><trkpt lat="44.172455" lon="12.102095"><ele>33.0</ele><time>2026-04-16T12:15:18.087Z</time></trkpt><trkpt lat="44.1724067" lon="12.1020267"><ele>33.0</ele><time>2026-04-16T12:15:19.087Z</time></trkpt><trkpt lat="44.17236" lon="12.10196"><ele>33.0</ele><time>2026-04-16T12:15:20.087Z</time></trkpt><trkpt lat="44.1723083" lon="12.1018983"><ele>33.0</ele><time>2026-04-16T12:15:21.087Z</time></trkpt><trkpt lat="44.1722617" lon="12.1018383"><ele>33.0</ele><time>2026-04-16T12:15:22.087Z</time></trkpt><trkpt lat="44.1722117" lon="12.1017717"><ele>33.0</ele><time>2026-04-16T12:15:23.087Z</time></trkpt><trkpt lat="44.17216" lon="12.101705"><ele>33.166666666666664</ele><time>2026-04-16T12:15:24.087Z</time></trkpt><trkpt lat="44.1721083" lon="12.1016433"><ele>33.333333333333336</ele><time>2026-04-16T12:15:25.087Z</time></trkpt><trkpt lat="44.1720567" lon="12.1015733"><ele>33.5</ele><time>2026-04-16T12:15:26.087Z</time></trkpt><trkpt lat="44.1719667" lon="12.1014367"><ele>33.66666666666667</ele><time>2026-04-16T12:15:28.087Z</time></trkpt><trkpt lat="44.1719183" lon="12.1013717"><ele>33.833333333333336</ele><time>2026-04-16T12:15:29.087Z</time></trkpt><trkpt lat="44.17187" lon="12.1013067"><ele>34.0</ele><time>2026-04-16T12:15:30.087Z</time></trkpt><trkpt lat="44.17182" lon="12.1012333"><ele>33.99999999999999</ele><time>2026-04-16T12:15:31.087Z</time></trkpt><trkpt lat="44.1717683" lon="12.1011583"><ele>34.0</ele><time>2026-04-16T12:15:32.087Z</time></trkpt><trkpt lat="44.1717167" lon="12.1010833"><ele>34.0</ele><time>2026-04-16T12:15:33.087Z</time></trkpt><trkpt lat="44.1716633" lon="12.1010167"><ele>34.0</ele><time>2026-04-16T12:15:34.087Z</time></trkpt><trkpt lat="44.1716167" lon="12.1009483"><ele>34.0</ele><time>2026-04-16T12:15:35.087Z</time></trkpt><trkpt lat="44.1715667" lon="12.10088"><ele>33.99999999999999</ele><time>2026-04-16T12:15:36.088Z</time></trkpt><trkpt lat="44.17152" lon="12.100815"><ele>34.0</ele><time>2026-04-16T12:15:37.087Z</time></trkpt><trkpt lat="44.1714683" lon="12.1007383"><ele>34.285714285714285</ele><time>2026-04-16T12:15:38.087Z</time></trkpt><trkpt lat="44.17142" lon="12.100665"><ele>34.57142857142857</ele><time>2026-04-16T12:15:39.087Z</time></trkpt><trkpt lat="44.17137" lon="12.10059"><ele>34.85714285714286</ele><time>2026-04-16T12:15:40.087Z</time></trkpt><trkpt lat="44.1713217" lon="12.1005233"><ele>35.14285714285714</ele><time>2026-04-16T12:15:41.087Z</time></trkpt><trkpt lat="44.1712733" lon="12.1004633"><ele>35.42857142857143</ele><time>2026-04-16T12:15:42.087Z</time></trkpt><trkpt lat="44.1712233" lon="12.1004083"><ele>35.714285714285715</ele><time>2026-04-16T12:15:43.087Z</time></trkpt><trkpt lat="44.171175" lon="12.1003467"><ele>36.0</ele><time>2026-04-16T12:15:44.087Z</time></trkpt><trkpt lat="44.1711283" lon="12.100285"><ele>36.0</ele><time>2026-04-16T12:15:45.087Z</time></trkpt><trkpt lat="44.17108" lon="12.1002217"><ele>36.0</ele><time>2026-04-16T12:15:46.087Z</time></trkpt><trkpt lat="44.17103" lon="12.100155"><ele>36.0</ele><time>2026-04-16T12:15:47.088Z</time></trkpt><trkpt lat="44.170985" lon="12.1000867"><ele>36.0</ele><time>2026-04-16T12:15:48.087Z</time></trkpt><trkpt lat="44.1709417" lon="12.10002"><ele>36.0</ele><time>2026-04-16T12:15:49.087Z</time></trkpt><trkpt lat="44.1708517" lon="12.099885"><ele>36.0</ele><time>2026-04-16T12:15:51.087Z</time></trkpt><trkpt lat="44.1708083" lon="12.099815"><ele>35.833333333333336</ele><time>2026-04-16T12:15:52.087Z</time></trkpt><trkpt lat="44.1707467" lon="12.0997567"><ele>35.666666666666664</ele><time>2026-04-16T12:15:53.087Z</time></trkpt><trkpt lat="44.170695" lon="12.099695"><ele>35.5</ele><time>2026-04-16T12:15:54.087Z</time></trkpt><trkpt lat="44.1706417" lon="12.0996367"><ele>35.33333333333333</ele><time>2026-04-16T12:15:55.087Z</time></trkpt><trkpt lat="44.1705467" lon="12.0995433"><ele>35.166666666666664</ele><time>2026-04-16T12:15:57.087Z</time></trkpt><trkpt lat="44.1705" lon="12.0994733"><ele>35.0</ele><time>2026-04-16T12:15:58.087Z</time></trkpt><trkpt lat="44.1704517" lon="12.0993983"><ele>35.0</ele><time>2026-04-16T12:15:59.087Z</time></trkpt><trkpt lat="44.1704" lon="12.09932"><ele>35.0</ele><time>2026-04-16T12:16:00.087Z</time></trkpt><trkpt lat="44.1703383" lon="12.099245"><ele>35.0</ele><time>2026-04-16T12:16:01.088Z</time></trkpt><trkpt lat="44.170265" lon="12.0991767"><ele>35.0</ele><time>2026-04-16T12:16:02.087Z</time></trkpt><trkpt lat="44.1701933" lon="12.0991083"><ele>35.0</ele><time>2026-04-16T12:16:03.087Z</time></trkpt><trkpt lat="44.1701267" lon="12.0990383"><ele>35.0</ele><time>2026-04-16T12:16:04.087Z</time></trkpt><trkpt lat="44.17006" lon="12.09897"><ele>34.83333333333333</ele><time>2026-04-16T12:16:05.087Z</time></trkpt><trkpt lat="44.1699917" lon="12.0989"><ele>34.666666666666664</ele><time>2026-04-16T12:16:06.087Z</time></trkpt><trkpt lat="44.169915" lon="12.098835"><ele>34.5</ele><time>2026-04-16T12:16:07.087Z</time></trkpt><trkpt lat="44.1698383" lon="12.0987733"><ele>34.333333333333336</ele><time>2026-04-16T12:16:08.087Z</time></trkpt><trkpt lat="44.1697633" lon="12.0987083"><ele>34.16666666666667</ele><time>2026-04-16T12:16:09.088Z</time></trkpt><trkpt lat="44.1696867" lon="12.0986483"><ele>34.0</ele><time>2026-04-16T12:16:10.087Z</time></trkpt><trkpt lat="44.1696083" lon="12.0985983"><ele>33.99999999999999</ele><time>2026-04-16T12:16:11.087Z</time></trkpt><trkpt lat="44.16954" lon="12.0985583"><ele>34.0</ele><time>2026-04-16T12:16:12.087Z</time></trkpt><trkpt lat="44.1694617" lon="12.0985283"><ele>34.0</ele><time>2026-04-16T12:16:13.087Z</time></trkpt><trkpt lat="44.1693917" lon="12.0985017"><ele>34.0</ele><time>2026-04-16T12:16:14.087Z</time></trkpt><trkpt lat="44.1693167" lon="12.09849"><ele>34.0</ele><time>2026-04-16T12:16:15.087Z</time></trkpt><trkpt lat="44.1692467" lon="12.098475"><ele>33.99999999999999</ele><time>2026-04-16T12:16:16.087Z</time></trkpt><trkpt lat="44.1691817" lon="12.0984683"><ele>34.0</ele><time>2026-04-16T12:16:17.087Z</time></trkpt><trkpt lat="44.1691183" lon="12.0984733"><ele>34.4</ele><time>2026-04-16T12:16:18.087Z</time></trkpt><trkpt lat="44.169005" lon="12.0984833"><ele>34.8</ele><time>2026-04-16T12:16:20.087Z</time></trkpt><trkpt lat="44.1689" lon="12.0984967"><ele>35.2</ele><time>2026-04-16T12:16:22.087Z</time></trkpt><trkpt lat="44.1688017" lon="12.098505"><ele>35.6</ele><time>2026-04-16T12:16:24.087Z</time></trkpt><trkpt lat="44.1686917" lon="12.098485"><ele>36.0</ele><time>2026-04-16T12:16:26.087Z</time></trkpt><trkpt lat="44.16859" lon="12.09842"><ele>36.0</ele><time>2026-04-16T12:16:28.088Z</time></trkpt><trkpt lat="44.16849" lon="12.0983217"><ele>36.0</ele><time>2026-04-16T12:16:30.087Z</time></trkpt><trkpt lat="44.1684" lon="12.0982217"><ele>36.0</ele><time>2026-04-16T12:16:32.087Z</time></trkpt><trkpt lat="44.16835" lon="12.0981583"><ele>36.0</ele><time>2026-04-16T12:16:33.087Z</time></trkpt><trkpt lat="44.1683" lon="12.0980983"><ele>36.0</ele><time>2026-04-16T12:16:34.087Z</time></trkpt><trkpt lat="44.168195" lon="12.098015"><ele>35.6</ele><time>2026-04-16T12:16:36.087Z</time></trkpt><trkpt lat="44.168085" lon="12.098"><ele>35.2</ele><time>2026-04-16T12:16:38.087Z</time></trkpt><trkpt lat="44.1679817" lon="12.0980433"><ele>34.8</ele><time>2026-04-16T12:16:40.087Z</time></trkpt><trkpt lat="44.1679017" lon="12.0981267"><ele>34.4</ele><time>2026-04-16T12:16:42.088Z</time></trkpt><trkpt lat="44.1678267" lon="12.0982317"><ele>34.0</ele><time>2026-04-16T12:16:44.087Z</time></trkpt><trkpt lat="44.1677567" lon="12.098355"><ele>34.0</ele><time>2026-04-16T12:16:46.087Z</time></trkpt><trkpt lat="44.1676883" lon="12.0984783"><ele>34.0</ele><time>2026-04-16T12:16:48.087Z</time></trkpt><trkpt lat="44.1676483" lon="12.09855"><ele>34.0</ele><time>2026-04-16T12:16:49.088Z</time></trkpt><trkpt lat="44.1675783" lon="12.09868"><ele>34.0</ele><time>2026-04-16T12:16:51.087Z</time></trkpt><trkpt lat="44.1675233" lon="12.0988017"><ele>34.0</ele><time>2026-04-16T12:16:53.087Z</time></trkpt><trkpt lat="44.1674717" lon="12.0989117"><ele>34.0</ele><time>2026-04-16T12:16:55.088Z</time></trkpt><trkpt lat="44.16741" lon="12.0990267"><ele>34.0</ele><time>2026-04-16T12:16:57.087Z</time></trkpt><trkpt lat="44.1673333" lon="12.0991383"><ele>34.0</ele><time>2026-04-16T12:16:59.087Z</time></trkpt><trkpt lat="44.1672667" lon="12.0992483"><ele>34.0</ele><time>2026-04-16T12:17:01.087Z</time></trkpt><trkpt lat="44.1672033" lon="12.0993517"><ele>34.0</ele><time>2026-04-16T12:17:03.087Z</time></trkpt><trkpt lat="44.167145" lon="12.099455"><ele>34.0</ele><time>2026-04-16T12:17:05.087Z</time></trkpt><trkpt lat="44.1670933" lon="12.0995617"><ele>34.0</ele><time>2026-04-16T12:17:07.088Z</time></trkpt><trkpt lat="44.1670467" lon="12.0996667"><ele>34.0</ele><time>2026-04-16T12:17:09.087Z</time></trkpt><trkpt lat="44.1669917" lon="12.0997817"><ele>34.0</ele><time>2026-04-16T12:17:11.087Z</time></trkpt><trkpt lat="44.1669333" lon="12.0999083"><ele>34.0</ele><time>2026-04-16T12:17:13.087Z</time></trkpt><trkpt lat="44.1668833" lon="12.10004"><ele>33.8</ele><time>2026-04-16T12:17:15.087Z</time></trkpt><trkpt lat="44.1668283" lon="12.1001733"><ele>33.599999999999994</ele><time>2026-04-16T12:17:17.088Z</time></trkpt><trkpt lat="44.1667283" lon="12.1002833"><ele>33.4</ele><time>2026-04-16T12:17:19.087Z</time></trkpt><trkpt lat="44.166655" lon="12.1003267"><ele>33.199999999999996</ele><time>2026-04-16T12:17:20.087Z</time></trkpt><trkpt lat="44.16658" lon="12.1003417"><ele>33.0</ele><time>2026-04-16T12:17:21.087Z</time></trkpt><trkpt lat="44.1665183" lon="12.1003183"><ele>33.0</ele><time>2026-04-16T12:17:22.087Z</time></trkpt><trkpt lat="44.1664533" lon="12.1002867"><ele>33.0</ele><time>2026-04-16T12:17:23.087Z</time></trkpt><trkpt lat="44.1663933" lon="12.1002517"><ele>33.0</ele><time>2026-04-16T12:17:24.087Z</time></trkpt><trkpt lat="44.1663367" lon="12.1002"><ele>33.0</ele><time>2026-04-16T12:17:25.088Z</time></trkpt><trkpt lat="44.1662767" lon="12.1001583"><ele>33.0</ele><time>2026-04-16T12:17:26.087Z</time></trkpt><trkpt lat="44.1662167" lon="12.1001133"><ele>33.0</ele><time>2026-04-16T12:17:27.087Z</time></trkpt><trkpt lat="44.1661467" lon="12.100055"><ele>33.0</ele><time>2026-04-16T12:17:28.087Z</time></trkpt><trkpt lat="44.1660817" lon="12.100005"><ele>33.0</ele><time>2026-04-16T12:17:29.087Z</time></trkpt><trkpt lat="44.1660117" lon="12.0999633"><ele>33.0</ele><time>2026-04-16T12:17:30.087Z</time></trkpt><trkpt lat="44.16593" lon="12.099915"><ele>33.0</ele><time>2026-04-16T12:17:31.087Z</time></trkpt><trkpt lat="44.1658567" lon="12.0998683"><ele>33.0</ele><time>2026-04-16T12:17:32.087Z</time></trkpt><trkpt lat="44.1657883" lon="12.0998233"><ele>33.0</ele><time>2026-04-16T12:17:33.087Z</time></trkpt><trkpt lat="44.1657167" lon="12.0997683"><ele>33.0</ele><time>2026-04-16T12:17:34.087Z</time></trkpt><trkpt lat="44.1656483" lon="12.0997183"><ele>32.333333333333336</ele><time>2026-04-16T12:17:35.087Z</time></trkpt><trkpt lat="44.1655817" lon="12.0996733"><ele>31.666666666666664</ele><time>2026-04-16T12:17:36.087Z</time></trkpt><trkpt lat="44.165515" lon="12.0996233"><ele>31.0</ele><time>2026-04-16T12:17:37.087Z</time></trkpt><trkpt lat="44.1654517" lon="12.0995683"><ele>30.333333333333332</ele><time>2026-04-16T12:17:38.087Z</time></trkpt><trkpt lat="44.1653833" lon="12.0995167"><ele>29.666666666666664</ele><time>2026-04-16T12:17:39.087Z</time></trkpt><trkpt lat="44.165315" lon="12.0994633"><ele>29.0</ele><time>2026-04-16T12:17:40.087Z</time></trkpt><trkpt lat="44.1652483" lon="12.099415"><ele>28.999999999999996</ele><time>2026-04-16T12:17:41.087Z</time></trkpt><trkpt lat="44.16518" lon="12.0993617"><ele>29.0</ele><time>2026-04-16T12:17:42.087Z</time></trkpt><trkpt lat="44.1651133" lon="12.09932"><ele>29.0</ele><time>2026-04-16T12:17:43.087Z</time></trkpt><trkpt lat="44.1650483" lon="12.09928"><ele>29.0</ele><time>2026-04-16T12:17:44.087Z</time></trkpt><trkpt lat="44.1649833" lon="12.0992383"><ele>28.999999999999996</ele><time>2026-04-16T12:17:45.087Z</time></trkpt><trkpt lat="44.164915" lon="12.0991883"><ele>29.0</ele><time>2026-04-16T12:17:46.087Z</time></trkpt><trkpt lat="44.164845" lon="12.099135"><ele>29.000000000000004</ele><time>2026-04-16T12:17:47.087Z</time></trkpt><trkpt lat="44.164775" lon="12.09908"><ele>29.0</ele><time>2026-04-16T12:17:48.087Z</time></trkpt><trkpt lat="44.1647117" lon="12.099025"><ele>29.000000000000004</ele><time>2026-04-16T12:17:49.087Z</time></trkpt><trkpt lat="44.1646483" lon="12.0989733"><ele>29.000000000000004</ele><time>2026-04-16T12:17:50.087Z</time></trkpt><trkpt lat="44.1645867" lon="12.0989317"><ele>29.0</ele><time>2026-04-16T12:17:51.088Z</time></trkpt><trkpt lat="44.1645233" lon="12.098885"><ele>29.000000000000004</ele><time>2026-04-16T12:17:52.087Z</time></trkpt><trkpt lat="44.1644617" lon="12.0988417"><ele>29.000000000000004</ele><time>2026-04-16T12:17:53.087Z</time></trkpt><trkpt lat="44.164395" lon="12.0988"><ele>29.000000000000004</ele><time>2026-04-16T12:17:54.087Z</time></trkpt><trkpt lat="44.1643317" lon="12.0987583"><ele>29.0</ele><time>2026-04-16T12:17:55.087Z</time></trkpt><trkpt lat="44.1642667" lon="12.0987133"><ele>29.000000000000004</ele><time>2026-04-16T12:17:56.087Z</time></trkpt><trkpt lat="44.1641983" lon="12.0986667"><ele>29.000000000000004</ele><time>2026-04-16T12:17:57.087Z</time></trkpt><trkpt lat="44.164135" lon="12.09862"><ele>29.0</ele><time>2026-04-16T12:17:58.087Z</time></trkpt><trkpt lat="44.16407" lon="12.0985683"><ele>29.000000000000004</ele><time>2026-04-16T12:17:59.087Z</time></trkpt><trkpt lat="44.1640067" lon="12.0985233"><ele>29.000000000000004</ele><time>2026-04-16T12:18:00.087Z</time></trkpt><trkpt lat="44.16394" lon="12.098455"><ele>29.166666666666664</ele><time>2026-04-16T12:18:01.087Z</time></trkpt><trkpt lat="44.1638633" lon="12.0984017"><ele>29.333333333333332</ele><time>2026-04-16T12:18:02.087Z</time></trkpt><trkpt lat="44.1637933" lon="12.0983483"><ele>29.5</ele><time>2026-04-16T12:18:03.088Z</time></trkpt><trkpt lat="44.16373" lon="12.0982983"><ele>29.666666666666664</ele><time>2026-04-16T12:18:04.087Z</time></trkpt><trkpt lat="44.163665" lon="12.09826"><ele>29.833333333333332</ele><time>2026-04-16T12:18:05.087Z</time></trkpt><trkpt lat="44.1635933" lon="12.0982067"><ele>30.0</ele><time>2026-04-16T12:18:06.087Z</time></trkpt><trkpt lat="44.1635317" lon="12.0981633"><ele>30.166666666666668</ele><time>2026-04-16T12:18:07.087Z</time></trkpt><trkpt lat="44.1634667" lon="12.0981117"><ele>30.333333333333336</ele><time>2026-04-16T12:18:08.087Z</time></trkpt><trkpt lat="44.1633983" lon="12.0980583"><ele>30.5</ele><time>2026-04-16T12:18:09.087Z</time></trkpt><trkpt lat="44.1633267" lon="12.0980067"><ele>30.666666666666668</ele><time>2026-04-16T12:18:10.088Z</time></trkpt><trkpt lat="44.16326" lon="12.0979567"><ele>30.833333333333336</ele><time>2026-04-16T12:18:11.087Z</time></trkpt><trkpt lat="44.1631883" lon="12.097905"><ele>31.0</ele><time>2026-04-16T12:18:12.087Z</time></trkpt><trkpt lat="44.1631233" lon="12.09785"><ele>31.0</ele><time>2026-04-16T12:18:13.087Z</time></trkpt><trkpt lat="44.16306" lon="12.097795"><ele>31.000000000000004</ele><time>2026-04-16T12:18:14.087Z</time></trkpt><trkpt lat="44.1629983" lon="12.09776"><ele>31.0</ele><time>2026-04-16T12:18:15.087Z</time></trkpt><trkpt lat="44.1629333" lon="12.0977283"><ele>31.0</ele><time>2026-04-16T12:18:16.087Z</time></trkpt><trkpt lat="44.1628683" lon="12.097695"><ele>31.000000000000004</ele><time>2026-04-16T12:18:17.087Z</time></trkpt><trkpt lat="44.1627967" lon="12.0976567"><ele>31.0</ele><time>2026-04-16T12:18:18.087Z</time></trkpt><trkpt lat="44.162725" lon="12.0976067"><ele>31.0</ele><time>2026-04-16T12:18:19.088Z</time></trkpt><trkpt lat="44.1626583" lon="12.09756"><ele>31.0</ele><time>2026-04-16T12:18:20.088Z</time></trkpt><trkpt lat="44.1625933" lon="12.09751"><ele>31.000000000000004</ele><time>2026-04-16T12:18:21.087Z</time></trkpt><trkpt lat="44.16253" lon="12.097475"><ele>31.0</ele><time>2026-04-16T12:18:22.087Z</time></trkpt><trkpt lat="44.1624683" lon="12.097445"><ele>31.0</ele><time>2026-04-16T12:18:23.087Z</time></trkpt><trkpt lat="44.162405" lon="12.097405"><ele>31.000000000000004</ele><time>2026-04-16T12:18:24.087Z</time></trkpt><trkpt lat="44.1623417" lon="12.0973633"><ele>31.0</ele><time>2026-04-16T12:18:25.087Z</time></trkpt><trkpt lat="44.1622717" lon="12.09731"><ele>31.0</ele><time>2026-04-16T12:18:26.087Z</time></trkpt><trkpt lat="44.1622033" lon="12.0972533"><ele>31.166666666666668</ele><time>2026-04-16T12:18:27.087Z</time></trkpt><trkpt lat="44.1621317" lon="12.0972033"><ele>31.333333333333336</ele><time>2026-04-16T12:18:28.087Z</time></trkpt><trkpt lat="44.1620633" lon="12.0971533"><ele>31.5</ele><time>2026-04-16T12:18:29.088Z</time></trkpt><trkpt lat="44.1619933" lon="12.0971067"><ele>31.666666666666664</ele><time>2026-04-16T12:18:30.087Z</time></trkpt><trkpt lat="44.1619317" lon="12.0970583"><ele>31.833333333333332</ele><time>2026-04-16T12:18:31.087Z</time></trkpt><trkpt lat="44.1618683" lon="12.0970133"><ele>32.0</ele><time>2026-04-16T12:18:32.088Z</time></trkpt><trkpt lat="44.1618017" lon="12.096965"><ele>31.999999999999996</ele><time>2026-04-16T12:18:33.087Z</time></trkpt><trkpt lat="44.161735" lon="12.096915"><ele>32.0</ele><time>2026-04-16T12:18:34.087Z</time></trkpt><trkpt lat="44.1616667" lon="12.0968667"><ele>32.0</ele><time>2026-04-16T12:18:35.087Z</time></trkpt><trkpt lat="44.1615983" lon="12.096815"><ele>32.0</ele><time>2026-04-16T12:18:36.087Z</time></trkpt><trkpt lat="44.161535" lon="12.096775"><ele>31.999999999999996</ele><time>2026-04-16T12:18:37.088Z</time></trkpt><trkpt lat="44.1614633" lon="12.0967283"><ele>32.0</ele><time>2026-04-16T12:18:38.087Z</time></trkpt><trkpt lat="44.161395" lon="12.0966667"><ele>31.833333333333332</ele><time>2026-04-16T12:18:39.087Z</time></trkpt><trkpt lat="44.1613267" lon="12.0966067"><ele>31.666666666666664</ele><time>2026-04-16T12:18:40.087Z</time></trkpt><trkpt lat="44.1612567" lon="12.09656"><ele>31.5</ele><time>2026-04-16T12:18:41.087Z</time></trkpt><trkpt lat="44.16119" lon="12.096505"><ele>31.333333333333336</ele><time>2026-04-16T12:18:42.088Z</time></trkpt><trkpt lat="44.1611283" lon="12.0964383"><ele>31.166666666666668</ele><time>2026-04-16T12:18:43.087Z</time></trkpt><trkpt lat="44.1610617" lon="12.09638"><ele>31.0</ele><time>2026-04-16T12:18:44.087Z</time></trkpt><trkpt lat="44.16099" lon="12.09633"><ele>30.857142857142858</ele><time>2026-04-16T12:18:45.088Z</time></trkpt><trkpt lat="44.1609233" lon="12.0962717"><ele>30.714285714285715</ele><time>2026-04-16T12:18:46.087Z</time></trkpt><trkpt lat="44.1608583" lon="12.0962133"><ele>30.571428571428573</ele><time>2026-04-16T12:18:47.087Z</time></trkpt><trkpt lat="44.1607933" lon="12.0961683"><ele>30.42857142857143</ele><time>2026-04-16T12:18:48.087Z</time></trkpt><trkpt lat="44.16073" lon="12.0961283"><ele>30.285714285714285</ele><time>2026-04-16T12:18:49.087Z</time></trkpt><trkpt lat="44.1606667" lon="12.0960833"><ele>30.142857142857146</ele><time>2026-04-16T12:18:50.087Z</time></trkpt><trkpt lat="44.1606033" lon="12.0960367"><ele>30.0</ele><time>2026-04-16T12:18:51.087Z</time></trkpt><trkpt lat="44.160545" lon="12.0959883"><ele>30.142857142857146</ele><time>2026-04-16T12:18:52.087Z</time></trkpt><trkpt lat="44.1604817" lon="12.0959433"><ele>30.285714285714285</ele><time>2026-04-16T12:18:53.087Z</time></trkpt><trkpt lat="44.16042" lon="12.0958917"><ele>30.42857142857143</ele><time>2026-04-16T12:18:54.087Z</time></trkpt><trkpt lat="44.16036" lon="12.095845"><ele>30.571428571428573</ele><time>2026-04-16T12:18:55.087Z</time></trkpt><trkpt lat="44.1602967" lon="12.0958"><ele>30.714285714285715</ele><time>2026-04-16T12:18:56.087Z</time></trkpt><trkpt lat="44.1602383" lon="12.09575"><ele>30.857142857142858</ele><time>2026-04-16T12:18:57.087Z</time></trkpt><trkpt lat="44.1601733" lon="12.0957067"><ele>31.0</ele><time>2026-04-16T12:18:58.087Z</time></trkpt><trkpt lat="44.1601117" lon="12.0956633"><ele>31.0</ele><time>2026-04-16T12:18:59.088Z</time></trkpt><trkpt lat="44.160055" lon="12.0956217"><ele>31.000000000000004</ele><time>2026-04-16T12:19:00.087Z</time></trkpt><trkpt lat="44.159995" lon="12.0955767"><ele>31.0</ele><time>2026-04-16T12:19:01.087Z</time></trkpt><trkpt lat="44.1599383" lon="12.0955317"><ele>31.0</ele><time>2026-04-16T12:19:02.087Z</time></trkpt><trkpt lat="44.1598783" lon="12.0954867"><ele>31.000000000000004</ele><time>2026-04-16T12:19:03.087Z</time></trkpt><trkpt lat="44.1598233" lon="12.0954417"><ele>31.0</ele><time>2026-04-16T12:19:04.087Z</time></trkpt><trkpt lat="44.1597617" lon="12.0953967"><ele>31.0</ele><time>2026-04-16T12:19:05.087Z</time></trkpt><trkpt lat="44.1597" lon="12.0953483"><ele>31.200000000000003</ele><time>2026-04-16T12:19:06.087Z</time></trkpt><trkpt lat="44.1596417" lon="12.095305"><ele>31.400000000000002</ele><time>2026-04-16T12:19:07.087Z</time></trkpt><trkpt lat="44.159585" lon="12.0952633"><ele>31.6</ele><time>2026-04-16T12:19:08.087Z</time></trkpt><trkpt lat="44.1594717" lon="12.0951783"><ele>31.8</ele><time>2026-04-16T12:19:10.087Z</time></trkpt><trkpt lat="44.1593583" lon="12.0950983"><ele>32.0</ele><time>2026-04-16T12:19:12.087Z</time></trkpt><trkpt lat="44.1593" lon="12.0950533"><ele>32.0</ele><time>2026-04-16T12:19:13.087Z</time></trkpt><trkpt lat="44.1592417" lon="12.095"><ele>31.999999999999996</ele><time>2026-04-16T12:19:14.087Z</time></trkpt><trkpt lat="44.159185" lon="12.0949567"><ele>32.0</ele><time>2026-04-16T12:19:15.087Z</time></trkpt><trkpt lat="44.1591267" lon="12.094905"><ele>32.0</ele><time>2026-04-16T12:19:16.087Z</time></trkpt><trkpt lat="44.1590683" lon="12.0948567"><ele>31.999999999999996</ele><time>2026-04-16T12:19:17.087Z</time></trkpt><trkpt lat="44.15901" lon="12.0948183"><ele>32.0</ele><time>2026-04-16T12:19:18.088Z</time></trkpt><trkpt lat="44.1589517" lon="12.0947667"><ele>32.0</ele><time>2026-04-16T12:19:19.087Z</time></trkpt><trkpt lat="44.1588933" lon="12.0947283"><ele>32.0</ele><time>2026-04-16T12:19:20.087Z</time></trkpt><trkpt lat="44.158835" lon="12.0946783"><ele>31.999999999999996</ele><time>2026-04-16T12:19:21.087Z</time></trkpt><trkpt lat="44.1587783" lon="12.0946367"><ele>32.0</ele><time>2026-04-16T12:19:22.087Z</time></trkpt><trkpt lat="44.1587167" lon="12.0945883"><ele>32.0</ele><time>2026-04-16T12:19:23.087Z</time></trkpt><trkpt lat="44.158655" lon="12.094545"><ele>31.999999999999996</ele><time>2026-04-16T12:19:24.087Z</time></trkpt><trkpt lat="44.1585983" lon="12.094505"><ele>32.0</ele><time>2026-04-16T12:19:25.087Z</time></trkpt><trkpt lat="44.1585367" lon="12.0944567"><ele>32.0</ele><time>2026-04-16T12:19:26.087Z</time></trkpt><trkpt lat="44.1584767" lon="12.0944083"><ele>32.0</ele><time>2026-04-16T12:19:27.087Z</time></trkpt><trkpt lat="44.1584167" lon="12.09436"><ele>31.999999999999996</ele><time>2026-04-16T12:19:28.087Z</time></trkpt><trkpt lat="44.1583567" lon="12.0943167"><ele>32.0</ele><time>2026-04-16T12:19:29.087Z</time></trkpt><trkpt lat="44.1582967" lon="12.0942717"><ele>32.0</ele><time>2026-04-16T12:19:30.087Z</time></trkpt><trkpt lat="44.1582367" lon="12.0942267"><ele>31.999999999999996</ele><time>2026-04-16T12:19:31.087Z</time></trkpt><trkpt lat="44.1581767" lon="12.0941867"><ele>32.0</ele><time>2026-04-16T12:19:32.087Z</time></trkpt><trkpt lat="44.1581167" lon="12.0941533"><ele>32.0</ele><time>2026-04-16T12:19:33.087Z</time></trkpt><trkpt lat="44.1580567" lon="12.094115"><ele>31.8</ele><time>2026-04-16T12:19:34.087Z</time></trkpt><trkpt lat="44.1579967" lon="12.0940783"><ele>31.6</ele><time>2026-04-16T12:19:35.087Z</time></trkpt><trkpt lat="44.1578917" lon="12.0940233"><ele>31.400000000000002</ele><time>2026-04-16T12:19:37.087Z</time></trkpt><trkpt lat="44.1577817" lon="12.0939483"><ele>31.200000000000003</ele><time>2026-04-16T12:19:39.087Z</time></trkpt><trkpt lat="44.1576683" lon="12.09387"><ele>31.0</ele><time>2026-04-16T12:19:41.087Z</time></trkpt><trkpt lat="44.1576083" lon="12.0938283"><ele>31.0</ele><time>2026-04-16T12:19:42.088Z</time></trkpt><trkpt lat="44.157545" lon="12.0937817"><ele>31.0</ele><time>2026-04-16T12:19:43.087Z</time></trkpt><trkpt lat="44.1574367" lon="12.0937083"><ele>31.0</ele><time>2026-04-16T12:19:45.088Z</time></trkpt><trkpt lat="44.1573217" lon="12.0936317"><ele>31.0</ele><time>2026-04-16T12:19:47.089Z</time></trkpt><trkpt lat="44.15726" lon="12.0935933"><ele>31.0</ele><time>2026-04-16T12:19:48.088Z</time></trkpt><trkpt lat="44.1572017" lon="12.0935483"><ele>31.166666666666668</ele><time>2026-04-16T12:19:49.088Z</time></trkpt><trkpt lat="44.1571417" lon="12.0935033"><ele>31.333333333333336</ele><time>2026-04-16T12:19:50.088Z</time></trkpt><trkpt lat="44.1570817" lon="12.0934583"><ele>31.5</ele><time>2026-04-16T12:19:51.088Z</time></trkpt><trkpt lat="44.15702" lon="12.0934167"><ele>31.666666666666664</ele><time>2026-04-16T12:19:52.088Z</time></trkpt><trkpt lat="44.1569083" lon="12.0933217"><ele>31.833333333333332</ele><time>2026-04-16T12:19:54.088Z</time></trkpt><trkpt lat="44.15685" lon="12.0932717"><ele>32.0</ele><time>2026-04-16T12:19:55.088Z</time></trkpt><trkpt lat="44.15679" lon="12.0932217"><ele>31.71428571428571</ele><time>2026-04-16T12:19:56.088Z</time></trkpt><trkpt lat="44.1567267" lon="12.0931733"><ele>31.428571428571423</ele><time>2026-04-16T12:19:57.088Z</time></trkpt><trkpt lat="44.1566683" lon="12.0931333"><ele>31.142857142857142</ele><time>2026-04-16T12:19:58.088Z</time></trkpt><trkpt lat="44.156605" lon="12.0930867"><ele>30.857142857142854</ele><time>2026-04-16T12:19:59.088Z</time></trkpt><trkpt lat="44.1565383" lon="12.0930433"><ele>30.57142857142857</ele><time>2026-04-16T12:20:00.088Z</time></trkpt><trkpt lat="44.1564783" lon="12.0930017"><ele>30.285714285714285</ele><time>2026-04-16T12:20:01.088Z</time></trkpt><trkpt lat="44.15642" lon="12.0929467"><ele>30.0</ele><time>2026-04-16T12:20:02.088Z</time></trkpt><trkpt lat="44.1563617" lon="12.0929033"><ele>30.666666666666668</ele><time>2026-04-16T12:20:03.088Z</time></trkpt><trkpt lat="44.1563017" lon="12.09286"><ele>31.333333333333336</ele><time>2026-04-16T12:20:04.088Z</time></trkpt><trkpt lat="44.1561883" lon="12.092765"><ele>32.0</ele><time>2026-04-16T12:20:06.089Z</time></trkpt><trkpt lat="44.15613" lon="12.092715"><ele>32.66666666666667</ele><time>2026-04-16T12:20:07.088Z</time></trkpt><trkpt lat="44.156075" lon="12.0926583"><ele>33.333333333333336</ele><time>2026-04-16T12:20:08.088Z</time></trkpt><trkpt lat="44.1560117" lon="12.0926033"><ele>34.0</ele><time>2026-04-16T12:20:09.088Z</time></trkpt><trkpt lat="44.1559533" lon="12.09255"><ele>33.99999999999999</ele><time>2026-04-16T12:20:10.088Z</time></trkpt><trkpt lat="44.1558933" lon="12.0924967"><ele>34.0</ele><time>2026-04-16T12:20:11.088Z</time></trkpt><trkpt lat="44.155835" lon="12.0924317"><ele>34.0</ele><time>2026-04-16T12:20:12.088Z</time></trkpt><trkpt lat="44.155775" lon="12.0923633"><ele>34.0</ele><time>2026-04-16T12:20:13.088Z</time></trkpt><trkpt lat="44.1557183" lon="12.092305"><ele>34.0</ele><time>2026-04-16T12:20:14.088Z</time></trkpt><trkpt lat="44.155665" lon="12.0922517"><ele>33.99999999999999</ele><time>2026-04-16T12:20:15.088Z</time></trkpt><trkpt lat="44.1556117" lon="12.0921933"><ele>34.0</ele><time>2026-04-16T12:20:16.088Z</time></trkpt><trkpt lat="44.15556" lon="12.0921283"><ele>33.99999999999999</ele><time>2026-04-16T12:20:17.088Z</time></trkpt><trkpt lat="44.1555067" lon="12.092065"><ele>34.0</ele><time>2026-04-16T12:20:18.088Z</time></trkpt><trkpt lat="44.1554517" lon="12.0919967"><ele>34.0</ele><time>2026-04-16T12:20:19.088Z</time></trkpt><trkpt lat="44.1553983" lon="12.0919267"><ele>34.0</ele><time>2026-04-16T12:20:20.088Z</time></trkpt><trkpt lat="44.1553433" lon="12.0918517"><ele>34.0</ele><time>2026-04-16T12:20:21.088Z</time></trkpt><trkpt lat="44.1552917" lon="12.0917883"><ele>33.99999999999999</ele><time>2026-04-16T12:20:22.088Z</time></trkpt><trkpt lat="44.15524" lon="12.0917267"><ele>34.0</ele><time>2026-04-16T12:20:23.088Z</time></trkpt><trkpt lat="44.1551867" lon="12.0916617"><ele>33.99999999999999</ele><time>2026-04-16T12:20:24.088Z</time></trkpt><trkpt lat="44.1551317" lon="12.0915883"><ele>34.0</ele><time>2026-04-16T12:20:25.088Z</time></trkpt><trkpt lat="44.155085" lon="12.0915233"><ele>34.0</ele><time>2026-04-16T12:20:26.088Z</time></trkpt><trkpt lat="44.155035" lon="12.09146"><ele>34.0</ele><time>2026-04-16T12:20:27.089Z</time></trkpt><trkpt lat="44.1549867" lon="12.09139"><ele>34.0</ele><time>2026-04-16T12:20:28.088Z</time></trkpt><trkpt lat="44.1549367" lon="12.0913083"><ele>33.99999999999999</ele><time>2026-04-16T12:20:29.088Z</time></trkpt><trkpt lat="44.1548883" lon="12.091235"><ele>34.0</ele><time>2026-04-16T12:20:30.088Z</time></trkpt><trkpt lat="44.1548367" lon="12.0911617"><ele>33.99999999999999</ele><time>2026-04-16T12:20:31.088Z</time></trkpt><trkpt lat="44.1547883" lon="12.0910783"><ele>34.0</ele><time>2026-04-16T12:20:32.088Z</time></trkpt><trkpt lat="44.15474" lon="12.0910033"><ele>34.0</ele><time>2026-04-16T12:20:33.089Z</time></trkpt><trkpt lat="44.1546933" lon="12.09093"><ele>34.0</ele><time>2026-04-16T12:20:34.088Z</time></trkpt><trkpt lat="44.1546467" lon="12.09086"><ele>34.0</ele><time>2026-04-16T12:20:35.088Z</time></trkpt><trkpt lat="44.1546017" lon="12.090785"><ele>33.99999999999999</ele><time>2026-04-16T12:20:36.088Z</time></trkpt><trkpt lat="44.1545567" lon="12.090715"><ele>34.0</ele><time>2026-04-16T12:20:37.088Z</time></trkpt><trkpt lat="44.154515" lon="12.090645"><ele>33.833333333333336</ele><time>2026-04-16T12:20:38.088Z</time></trkpt><trkpt lat="44.1544683" lon="12.0905733"><ele>33.66666666666667</ele><time>2026-04-16T12:20:39.088Z</time></trkpt><trkpt lat="44.1544217" lon="12.0905067"><ele>33.5</ele><time>2026-04-16T12:20:40.088Z</time></trkpt><trkpt lat="44.154375" lon="12.0904433"><ele>33.333333333333336</ele><time>2026-04-16T12:20:41.088Z</time></trkpt><trkpt lat="44.15429" lon="12.0903217"><ele>33.166666666666664</ele><time>2026-04-16T12:20:43.088Z</time></trkpt><trkpt lat="44.1542417" lon="12.0902417"><ele>33.0</ele><time>2026-04-16T12:20:44.089Z</time></trkpt><trkpt lat="44.1541967" lon="12.090165"><ele>33.0</ele><time>2026-04-16T12:20:45.088Z</time></trkpt><trkpt lat="44.1541517" lon="12.0900967"><ele>33.0</ele><time>2026-04-16T12:20:46.088Z</time></trkpt><trkpt lat="44.1540783" lon="12.0899683"><ele>33.0</ele><time>2026-04-16T12:20:48.088Z</time></trkpt><trkpt lat="44.1539967" lon="12.0898467"><ele>33.0</ele><time>2026-04-16T12:20:50.088Z</time></trkpt><trkpt lat="44.1539483" lon="12.0897867"><ele>33.0</ele><time>2026-04-16T12:20:51.088Z</time></trkpt><trkpt lat="44.1539067" lon="12.0897183"><ele>33.0</ele><time>2026-04-16T12:20:52.088Z</time></trkpt><trkpt lat="44.1538567" lon="12.089645"><ele>32.857142857142854</ele><time>2026-04-16T12:20:53.088Z</time></trkpt><trkpt lat="44.1538083" lon="12.0895783"><ele>32.714285714285715</ele><time>2026-04-16T12:20:54.088Z</time></trkpt><trkpt lat="44.1537633" lon="12.08951"><ele>32.57142857142857</ele><time>2026-04-16T12:20:55.088Z</time></trkpt><trkpt lat="44.153715" lon="12.0894383"><ele>32.42857142857143</ele><time>2026-04-16T12:20:56.088Z</time></trkpt><trkpt lat="44.15367" lon="12.0893617"><ele>32.285714285714285</ele><time>2026-04-16T12:20:57.088Z</time></trkpt><trkpt lat="44.1536167" lon="12.08929"><ele>32.14285714285714</ele><time>2026-04-16T12:20:58.088Z</time></trkpt><trkpt lat="44.1535667" lon="12.0892117"><ele>32.0</ele><time>2026-04-16T12:20:59.088Z</time></trkpt><trkpt lat="44.1535183" lon="12.0891333"><ele>32.285714285714285</ele><time>2026-04-16T12:21:00.088Z</time></trkpt><trkpt lat="44.1534733" lon="12.0890567"><ele>32.57142857142857</ele><time>2026-04-16T12:21:01.088Z</time></trkpt><trkpt lat="44.153425" lon="12.088985"><ele>32.857142857142854</ele><time>2026-04-16T12:21:02.088Z</time></trkpt><trkpt lat="44.15338" lon="12.088915"><ele>33.14285714285714</ele><time>2026-04-16T12:21:03.088Z</time></trkpt><trkpt lat="44.153335" lon="12.088835"><ele>33.42857142857143</ele><time>2026-04-16T12:21:04.088Z</time></trkpt><trkpt lat="44.1532917" lon="12.088765"><ele>33.71428571428571</ele><time>2026-04-16T12:21:05.088Z</time></trkpt><trkpt lat="44.1532467" lon="12.0886967"><ele>34.0</ele><time>2026-04-16T12:21:06.088Z</time></trkpt><trkpt lat="44.1532" lon="12.088625"><ele>34.16666666666667</ele><time>2026-04-16T12:21:07.088Z</time></trkpt><trkpt lat="44.15311" lon="12.0884983"><ele>34.333333333333336</ele><time>2026-04-16T12:21:09.088Z</time></trkpt><trkpt lat="44.1530617" lon="12.0884333"><ele>34.5</ele><time>2026-04-16T12:21:10.088Z</time></trkpt><trkpt lat="44.1530117" lon="12.0883617"><ele>34.666666666666664</ele><time>2026-04-16T12:21:11.088Z</time></trkpt><trkpt lat="44.1529633" lon="12.0882783"><ele>34.83333333333333</ele><time>2026-04-16T12:21:12.089Z</time></trkpt><trkpt lat="44.15292" lon="12.0881967"><ele>35.0</ele><time>2026-04-16T12:21:13.088Z</time></trkpt><trkpt lat="44.152875" lon="12.0881183"><ele>35.0</ele><time>2026-04-16T12:21:14.088Z</time></trkpt><trkpt lat="44.1528317" lon="12.08804"><ele>35.0</ele><time>2026-04-16T12:21:15.088Z</time></trkpt><trkpt lat="44.15279" lon="12.0879567"><ele>35.0</ele><time>2026-04-16T12:21:16.088Z</time></trkpt><trkpt lat="44.1527483" lon="12.08788"><ele>35.0</ele><time>2026-04-16T12:21:17.088Z</time></trkpt><trkpt lat="44.152705" lon="12.087805"><ele>35.0</ele><time>2026-04-16T12:21:18.088Z</time></trkpt><trkpt lat="44.1526583" lon="12.087735"><ele>35.0</ele><time>2026-04-16T12:21:19.088Z</time></trkpt><trkpt lat="44.1525783" lon="12.087605"><ele>35.0</ele><time>2026-04-16T12:21:21.088Z</time></trkpt><trkpt lat="44.1524967" lon="12.08748"><ele>35.0</ele><time>2026-04-16T12:21:23.088Z</time></trkpt><trkpt lat="44.1524117" lon="12.0873583"><ele>35.0</ele><time>2026-04-16T12:21:25.088Z</time></trkpt><trkpt lat="44.152325" lon="12.0872333"><ele>35.0</ele><time>2026-04-16T12:21:27.088Z</time></trkpt><trkpt lat="44.1522467" lon="12.0871033"><ele>35.142857142857146</ele><time>2026-04-16T12:21:29.089Z</time></trkpt><trkpt lat="44.152205" lon="12.0870333"><ele>35.285714285714285</ele><time>2026-04-16T12:21:30.088Z</time></trkpt><trkpt lat="44.1521617" lon="12.086965"><ele>35.42857142857143</ele><time>2026-04-16T12:21:31.089Z</time></trkpt><trkpt lat="44.1521183" lon="12.08689"><ele>35.57142857142857</ele><time>2026-04-16T12:21:32.088Z</time></trkpt><trkpt lat="44.1520733" lon="12.0868183"><ele>35.714285714285715</ele><time>2026-04-16T12:21:33.088Z</time></trkpt><trkpt lat="44.1520317" lon="12.0867517"><ele>35.85714285714286</ele><time>2026-04-16T12:21:34.088Z</time></trkpt><trkpt lat="44.1519917" lon="12.08668"><ele>36.0</ele><time>2026-04-16T12:21:35.088Z</time></trkpt><trkpt lat="44.151945" lon="12.0866117"><ele>36.6</ele><time>2026-04-16T12:21:36.088Z</time></trkpt><trkpt lat="44.1518983" lon="12.0865433"><ele>37.2</ele><time>2026-04-16T12:21:37.088Z</time></trkpt><trkpt lat="44.1518533" lon="12.0864683"><ele>37.8</ele><time>2026-04-16T12:21:38.088Z</time></trkpt><trkpt lat="44.1517683" lon="12.0863417"><ele>38.4</ele><time>2026-04-16T12:21:40.088Z</time></trkpt><trkpt lat="44.15173" lon="12.0862683"><ele>39.0</ele><time>2026-04-16T12:21:41.088Z</time></trkpt><trkpt lat="44.1516467" lon="12.0861283"><ele>39.0</ele><time>2026-04-16T12:21:43.088Z</time></trkpt><trkpt lat="44.151565" lon="12.0860017"><ele>39.0</ele><time>2026-04-16T12:21:45.088Z</time></trkpt><trkpt lat="44.151525" lon="12.0859333"><ele>39.0</ele><time>2026-04-16T12:21:46.088Z</time></trkpt><trkpt lat="44.151445" lon="12.0857967"><ele>39.0</ele><time>2026-04-16T12:21:48.088Z</time></trkpt><trkpt lat="44.1513633" lon="12.08567"><ele>39.0</ele><time>2026-04-16T12:21:50.088Z</time></trkpt><trkpt lat="44.1512833" lon="12.0855567"><ele>39.6</ele><time>2026-04-16T12:21:52.088Z</time></trkpt><trkpt lat="44.15121" lon="12.0854483"><ele>40.2</ele><time>2026-04-16T12:21:54.088Z</time></trkpt><trkpt lat="44.151135" lon="12.0853283"><ele>40.800000000000004</ele><time>2026-04-16T12:21:56.088Z</time></trkpt><trkpt lat="44.1510683" lon="12.0851967"><ele>41.4</ele><time>2026-04-16T12:21:58.088Z</time></trkpt><trkpt lat="44.15101" lon="12.0850717"><ele>42.0</ele><time>2026-04-16T12:22:00.088Z</time></trkpt><trkpt lat="44.1509633" lon="12.08494"><ele>42.0</ele><time>2026-04-16T12:22:02.088Z</time></trkpt><trkpt lat="44.1509133" lon="12.0847983"><ele>42.0</ele><time>2026-04-16T12:22:04.089Z</time></trkpt><trkpt lat="44.150895" lon="12.0846517"><ele>42.0</ele><time>2026-04-16T12:22:06.088Z</time></trkpt><trkpt lat="44.1509033" lon="12.0844983"><ele>42.0</ele><time>2026-04-16T12:22:08.088Z</time></trkpt><trkpt lat="44.150915" lon="12.08441"><ele>42.0</ele><time>2026-04-16T12:22:09.088Z</time></trkpt><trkpt lat="44.1509317" lon="12.0843217"><ele>42.0</ele><time>2026-04-16T12:22:10.088Z</time></trkpt><trkpt lat="44.15096" lon="12.084235"><ele>42.0</ele><time>2026-04-16T12:22:11.088Z</time></trkpt><trkpt lat="44.1509967" lon="12.0841567"><ele>42.0</ele><time>2026-04-16T12:22:12.089Z</time></trkpt><trkpt lat="44.151035" lon="12.08408"><ele>42.0</ele><time>2026-04-16T12:22:13.088Z</time></trkpt><trkpt lat="44.1510733" lon="12.0840017"><ele>42.0</ele><time>2026-04-16T12:22:14.088Z</time></trkpt><trkpt lat="44.1511033" lon="12.0839233"><ele>42.0</ele><time>2026-04-16T12:22:15.088Z</time></trkpt><trkpt lat="44.1511533" lon="12.0837833"><ele>42.0</ele><time>2026-04-16T12:22:17.089Z</time></trkpt><trkpt lat="44.1512" lon="12.0836383"><ele>41.75</ele><time>2026-04-16T12:22:19.088Z</time></trkpt><trkpt lat="44.15125" lon="12.08349"><ele>41.5</ele><time>2026-04-16T12:22:21.088Z</time></trkpt><trkpt lat="44.1513" lon="12.0833433"><ele>41.25</ele><time>2026-04-16T12:22:23.088Z</time></trkpt><trkpt lat="44.1513517" lon="12.0832017"><ele>41.0</ele><time>2026-04-16T12:22:25.089Z</time></trkpt><trkpt lat="44.1514" lon="12.0830617"><ele>41.0</ele><time>2026-04-16T12:22:27.088Z</time></trkpt><trkpt lat="44.1514417" lon="12.0829333"><ele>41.0</ele><time>2026-04-16T12:22:29.088Z</time></trkpt><trkpt lat="44.1514867" lon="12.0827983"><ele>41.0</ele><time>2026-04-16T12:22:31.089Z</time></trkpt><trkpt lat="44.1515183" lon="12.082715"><ele>41.0</ele><time>2026-04-16T12:22:32.088Z</time></trkpt><trkpt lat="44.151545" lon="12.08263"><ele>41.0</ele><time>2026-04-16T12:22:33.089Z</time></trkpt><trkpt lat="44.1515983" lon="12.08248"><ele>40.599999999999994</ele><time>2026-04-16T12:22:35.089Z</time></trkpt><trkpt lat="44.1516517" lon="12.0823267"><ele>40.199999999999996</ele><time>2026-04-16T12:22:37.088Z</time></trkpt><trkpt lat="44.1516817" lon="12.0822367"><ele>39.8</ele><time>2026-04-16T12:22:38.088Z</time></trkpt><trkpt lat="44.1517317" lon="12.08207"><ele>39.4</ele><time>2026-04-16T12:22:40.088Z</time></trkpt><trkpt lat="44.151765" lon="12.08198"><ele>39.0</ele><time>2026-04-16T12:22:41.088Z</time></trkpt><trkpt lat="44.1517967" lon="12.081895"><ele>39.0</ele><time>2026-04-16T12:22:42.088Z</time></trkpt><trkpt lat="44.1518267" lon="12.0818133"><ele>39.0</ele><time>2026-04-16T12:22:43.089Z</time></trkpt><trkpt lat="44.15186" lon="12.0817283"><ele>39.0</ele><time>2026-04-16T12:22:44.088Z</time></trkpt><trkpt lat="44.151895" lon="12.081645"><ele>39.0</ele><time>2026-04-16T12:22:45.089Z</time></trkpt><trkpt lat="44.151925" lon="12.0815667"><ele>39.0</ele><time>2026-04-16T12:22:46.088Z</time></trkpt><trkpt lat="44.1519533" lon="12.0814833"><ele>39.0</ele><time>2026-04-16T12:22:47.088Z</time></trkpt><trkpt lat="44.1519833" lon="12.0814"><ele>39.0</ele><time>2026-04-16T12:22:48.088Z</time></trkpt><trkpt lat="44.15201" lon="12.0813167"><ele>39.166666666666664</ele><time>2026-04-16T12:22:49.088Z</time></trkpt><trkpt lat="44.15204" lon="12.081235"><ele>39.333333333333336</ele><time>2026-04-16T12:22:50.088Z</time></trkpt><trkpt lat="44.1520683" lon="12.081155"><ele>39.5</ele><time>2026-04-16T12:22:51.088Z</time></trkpt><trkpt lat="44.152095" lon="12.0810683"><ele>39.66666666666667</ele><time>2026-04-16T12:22:52.088Z</time></trkpt><trkpt lat="44.1521267" lon="12.0809867"><ele>39.833333333333336</ele><time>2026-04-16T12:22:53.088Z</time></trkpt><trkpt lat="44.15216" lon="12.0809067"><ele>40.0</ele><time>2026-04-16T12:22:54.088Z</time></trkpt><trkpt lat="44.1522217" lon="12.080755"><ele>40.2</ele><time>2026-04-16T12:22:56.088Z</time></trkpt><trkpt lat="44.1522533" lon="12.0806783"><ele>40.4</ele><time>2026-04-16T12:22:57.089Z</time></trkpt><trkpt lat="44.1523217" lon="12.080535"><ele>40.599999999999994</ele><time>2026-04-16T12:22:59.088Z</time></trkpt><trkpt lat="44.1523867" lon="12.0804067"><ele>40.8</ele><time>2026-04-16T12:23:01.088Z</time></trkpt><trkpt lat="44.1524417" lon="12.08029"><ele>41.0</ele><time>2026-04-16T12:23:03.088Z</time></trkpt><trkpt lat="44.15251" lon="12.0801633"><ele>41.199999999999996</ele><time>2026-04-16T12:23:05.088Z</time></trkpt><trkpt lat="44.15256" lon="12.08005"><ele>41.4</ele><time>2026-04-16T12:23:07.088Z</time></trkpt><trkpt lat="44.152615" lon="12.07994"><ele>41.6</ele><time>2026-04-16T12:23:09.088Z</time></trkpt><trkpt lat="44.1526783" lon="12.0798283"><ele>41.8</ele><time>2026-04-16T12:23:11.089Z</time></trkpt><trkpt lat="44.1527417" lon="12.0797217"><ele>42.0</ele><time>2026-04-16T12:23:13.089Z</time></trkpt><trkpt lat="44.152785" lon="12.0796217"><ele>42.0</ele><time>2026-04-16T12:23:15.088Z</time></trkpt><trkpt lat="44.1527717" lon="12.07951"><ele>42.0</ele><time>2026-04-16T12:23:17.088Z</time></trkpt><trkpt lat="44.1527083" lon="12.0794233"><ele>42.0</ele><time>2026-04-16T12:23:19.088Z</time></trkpt><trkpt lat="44.1526517" lon="12.079335"><ele>42.0</ele><time>2026-04-16T12:23:21.088Z</time></trkpt><trkpt lat="44.152585" lon="12.0792433"><ele>42.0</ele><time>2026-04-16T12:23:23.088Z</time></trkpt><trkpt lat="44.1525067" lon="12.0791367"><ele>41.8</ele><time>2026-04-16T12:23:25.088Z</time></trkpt><trkpt lat="44.152425" lon="12.0790183"><ele>41.6</ele><time>2026-04-16T12:23:27.088Z</time></trkpt><trkpt lat="44.15235" lon="12.0789133"><ele>41.4</ele><time>2026-04-16T12:23:29.088Z</time></trkpt><trkpt lat="44.1522767" lon="12.07882"><ele>41.199999999999996</ele><time>2026-04-16T12:23:31.089Z</time></trkpt><trkpt lat="44.1522033" lon="12.0787167"><ele>41.0</ele><time>2026-04-16T12:23:33.088Z</time></trkpt><trkpt lat="44.15213" lon="12.078605"><ele>41.4</ele><time>2026-04-16T12:23:35.088Z</time></trkpt><trkpt lat="44.1520517" lon="12.0784917"><ele>41.8</ele><time>2026-04-16T12:23:37.088Z</time></trkpt><trkpt lat="44.1519817" lon="12.0783783"><ele>42.199999999999996</ele><time>2026-04-16T12:23:39.088Z</time></trkpt><trkpt lat="44.151905" lon="12.078275"><ele>42.599999999999994</ele><time>2026-04-16T12:23:41.088Z</time></trkpt><trkpt lat="44.151835" lon="12.0781667"><ele>43.0</ele><time>2026-04-16T12:23:43.088Z</time></trkpt><trkpt lat="44.151775" lon="12.0780433"><ele>43.0</ele><time>2026-04-16T12:23:45.089Z</time></trkpt><trkpt lat="44.151745" lon="12.0779"><ele>43.0</ele><time>2026-04-16T12:23:47.088Z</time></trkpt><trkpt lat="44.1517233" lon="12.07774"><ele>43.0</ele><time>2026-04-16T12:23:49.089Z</time></trkpt><trkpt lat="44.15171" lon="12.07765"><ele>43.0</ele><time>2026-04-16T12:23:50.088Z</time></trkpt><trkpt lat="44.1517367" lon="12.077505"><ele>43.0</ele><time>2026-04-16T12:23:52.088Z</time></trkpt><trkpt lat="44.1517883" lon="12.07737"><ele>43.2</ele><time>2026-04-16T12:23:54.088Z</time></trkpt><trkpt lat="44.151845" lon="12.0772133"><ele>43.4</ele><time>2026-04-16T12:23:56.088Z</time></trkpt><trkpt lat="44.1519033" lon="12.077065"><ele>43.6</ele><time>2026-04-16T12:23:58.088Z</time></trkpt><trkpt lat="44.1519567" lon="12.0769167"><ele>43.800000000000004</ele><time>2026-04-16T12:24:00.088Z</time></trkpt><trkpt lat="44.15199" lon="12.07683"><ele>44.0</ele><time>2026-04-16T12:24:01.088Z</time></trkpt><trkpt lat="44.15202" lon="12.07675"><ele>44.0</ele><time>2026-04-16T12:24:02.088Z</time></trkpt><trkpt lat="44.152085" lon="12.0766017"><ele>44.0</ele><time>2026-04-16T12:24:04.088Z</time></trkpt><trkpt lat="44.1521417" lon="12.0764617"><ele>44.0</ele><time>2026-04-16T12:24:06.088Z</time></trkpt><trkpt lat="44.1522033" lon="12.0763117"><ele>44.0</ele><time>2026-04-16T12:24:08.088Z</time></trkpt><trkpt lat="44.1522733" lon="12.0761683"><ele>44.0</ele><time>2026-04-16T12:24:10.088Z</time></trkpt><trkpt lat="44.15233" lon="12.0760283"><ele>44.0</ele><time>2026-04-16T12:24:12.088Z</time></trkpt><trkpt lat="44.1523817" lon="12.07589"><ele>44.0</ele><time>2026-04-16T12:24:14.088Z</time></trkpt><trkpt lat="44.1524383" lon="12.075745"><ele>44.0</ele><time>2026-04-16T12:24:16.088Z</time></trkpt><trkpt lat="44.1524933" lon="12.0755883"><ele>44.2</ele><time>2026-04-16T12:24:18.088Z</time></trkpt><trkpt lat="44.15255" lon="12.0754417"><ele>44.400000000000006</ele><time>2026-04-16T12:24:20.088Z</time></trkpt><trkpt lat="44.1525817" lon="12.0753617"><ele>44.6</ele><time>2026-04-16T12:24:21.088Z</time></trkpt><trkpt lat="44.1526217" lon="12.0752267"><ele>44.8</ele><time>2026-04-16T12:24:23.088Z</time></trkpt><trkpt lat="44.1526717" lon="12.0750883"><ele>45.0</ele><time>2026-04-16T12:24:25.088Z</time></trkpt><trkpt lat="44.1527317" lon="12.074945"><ele>45.2</ele><time>2026-04-16T12:24:27.088Z</time></trkpt><trkpt lat="44.1527667" lon="12.0748683"><ele>45.4</ele><time>2026-04-16T12:24:28.088Z</time></trkpt><trkpt lat="44.1528" lon="12.0747883"><ele>45.599999999999994</ele><time>2026-04-16T12:24:29.088Z</time></trkpt><trkpt lat="44.1528583" lon="12.074635"><ele>45.8</ele><time>2026-04-16T12:24:31.088Z</time></trkpt><trkpt lat="44.1528933" lon="12.074555"><ele>46.0</ele><time>2026-04-16T12:24:32.088Z</time></trkpt><trkpt lat="44.1529583" lon="12.0743933"><ele>46.0</ele><time>2026-04-16T12:24:34.088Z</time></trkpt><trkpt lat="44.1530167" lon="12.0742417"><ele>46.0</ele><time>2026-04-16T12:24:36.088Z</time></trkpt><trkpt lat="44.15305" lon="12.0741667"><ele>46.0</ele><time>2026-04-16T12:24:37.088Z</time></trkpt><trkpt lat="44.1530833" lon="12.0740817"><ele>46.0</ele><time>2026-04-16T12:24:38.088Z</time></trkpt><trkpt lat="44.153145" lon="12.0739417"><ele>46.0</ele><time>2026-04-16T12:24:40.089Z</time></trkpt><trkpt lat="44.1532" lon="12.0738083"><ele>46.0</ele><time>2026-04-16T12:24:42.088Z</time></trkpt><trkpt lat="44.1532367" lon="12.0736683"><ele>46.0</ele><time>2026-04-16T12:24:44.089Z</time></trkpt><trkpt lat="44.1532917" lon="12.0735183"><ele>46.0</ele><time>2026-04-16T12:24:46.088Z</time></trkpt><trkpt lat="44.1533267" lon="12.0734433"><ele>46.0</ele><time>2026-04-16T12:24:47.089Z</time></trkpt><trkpt lat="44.1533933" lon="12.0732933"><ele>46.0</ele><time>2026-04-16T12:24:49.088Z</time></trkpt><trkpt lat="44.1534283" lon="12.0732133"><ele>46.25</ele><time>2026-04-16T12:24:50.088Z</time></trkpt><trkpt lat="44.1534933" lon="12.0730583"><ele>46.5</ele><time>2026-04-16T12:24:52.088Z</time></trkpt><trkpt lat="44.1535283" lon="12.0729783"><ele>46.75</ele><time>2026-04-16T12:24:53.088Z</time></trkpt><trkpt lat="44.1535917" lon="12.0728233"><ele>47.0</ele><time>2026-04-16T12:24:55.089Z</time></trkpt><trkpt lat="44.153655" lon="12.0726667"><ele>47.0</ele><time>2026-04-16T12:24:57.088Z</time></trkpt><trkpt lat="44.1537033" lon="12.0725133"><ele>47.0</ele><time>2026-04-16T12:24:59.088Z</time></trkpt><trkpt lat="44.1537617" lon="12.0723633"><ele>47.0</ele><time>2026-04-16T12:25:01.088Z</time></trkpt><trkpt lat="44.153815" lon="12.0722217"><ele>47.0</ele><time>2026-04-16T12:25:03.088Z</time></trkpt><trkpt lat="44.1538717" lon="12.0720983"><ele>47.166666666666664</ele><time>2026-04-16T12:25:05.088Z</time></trkpt><trkpt lat="44.1539383" lon="12.0720233"><ele>47.33333333333333</ele><time>2026-04-16T12:25:07.088Z</time></trkpt><trkpt lat="44.154025" lon="12.0720067"><ele>47.5</ele><time>2026-04-16T12:25:09.088Z</time></trkpt><trkpt lat="44.1541433" lon="12.0720567"><ele>47.666666666666664</ele><time>2026-04-16T12:25:11.089Z</time></trkpt><trkpt lat="44.1542117" lon="12.0720883"><ele>47.833333333333336</ele><time>2026-04-16T12:25:12.089Z</time></trkpt><trkpt lat="44.1542733" lon="12.0721267"><ele>48.0</ele><time>2026-04-16T12:25:13.088Z</time></trkpt><trkpt lat="44.1543283" lon="12.072175"><ele>48.0</ele><time>2026-04-16T12:25:14.088Z</time></trkpt><trkpt lat="44.1544167" lon="12.0722883"><ele>48.0</ele><time>2026-04-16T12:25:16.088Z</time></trkpt><trkpt lat="44.154475" lon="12.07244"><ele>48.0</ele><time>2026-04-16T12:25:18.088Z</time></trkpt><trkpt lat="44.154525" lon="12.0726033"><ele>48.0</ele><time>2026-04-16T12:25:20.088Z</time></trkpt><trkpt lat="44.15456" lon="12.0726767"><ele>48.0</ele><time>2026-04-16T12:25:21.088Z</time></trkpt><trkpt lat="44.15461" lon="12.0727383"><ele>47.8</ele><time>2026-04-16T12:25:22.088Z</time></trkpt><trkpt lat="44.1546667" lon="12.07279"><ele>47.599999999999994</ele><time>2026-04-16T12:25:23.088Z</time></trkpt><trkpt lat="44.1547783" lon="12.0728417"><ele>47.400000000000006</ele><time>2026-04-16T12:25:25.088Z</time></trkpt><trkpt lat="44.154875" lon="12.0728033"><ele>47.2</ele><time>2026-04-16T12:25:27.088Z</time></trkpt><trkpt lat="44.1549133" lon="12.0726767"><ele>47.0</ele><time>2026-04-16T12:25:29.089Z</time></trkpt><trkpt lat="44.154945" lon="12.0725517"><ele>47.0</ele><time>2026-04-16T12:25:31.089Z</time></trkpt><trkpt lat="44.154975" lon="12.0724717"><ele>47.0</ele><time>2026-04-16T12:25:33.089Z</time></trkpt><trkpt lat="44.1549733" lon="12.0723433"><ele>47.0</ele><time>2026-04-16T12:25:36.088Z</time></trkpt><trkpt lat="44.1549517" lon="12.0722317"><ele>47.0</ele><time>2026-04-16T12:25:38.088Z</time></trkpt><trkpt lat="44.1548817" lon="12.0721717"><ele>47.0</ele><time>2026-04-16T12:25:40.088Z</time></trkpt><trkpt lat="44.1547733" lon="12.0721217"><ele>47.0</ele><time>2026-04-16T12:25:42.088Z</time></trkpt><trkpt lat="44.15467" lon="12.0720717"><ele>47.2</ele><time>2026-04-16T12:25:44.088Z</time></trkpt><trkpt lat="44.15456" lon="12.072"><ele>47.400000000000006</ele><time>2026-04-16T12:25:46.088Z</time></trkpt><trkpt lat="44.1544517" lon="12.07193"><ele>47.599999999999994</ele><time>2026-04-16T12:25:48.088Z</time></trkpt><trkpt lat="44.1543933" lon="12.0718967"><ele>47.8</ele><time>2026-04-16T12:25:49.088Z</time></trkpt><trkpt lat="44.1542883" lon="12.0718233"><ele>48.0</ele><time>2026-04-16T12:25:51.088Z</time></trkpt><trkpt lat="44.1541817" lon="12.0717367"><ele>48.0</ele><time>2026-04-16T12:25:53.088Z</time></trkpt><trkpt lat="44.1540733" lon="12.0716733"><ele>48.0</ele><time>2026-04-16T12:25:55.088Z</time></trkpt><trkpt lat="44.1539683" lon="12.07162"><ele>48.0</ele><time>2026-04-16T12:25:57.088Z</time></trkpt><trkpt lat="44.1538683" lon="12.0715633"><ele>48.0</ele><time>2026-04-16T12:25:59.088Z</time></trkpt><trkpt lat="44.153755" lon="12.0715083"><ele>48.4</ele><time>2026-04-16T12:26:01.088Z</time></trkpt><trkpt lat="44.1536483" lon="12.07146"><ele>48.8</ele><time>2026-04-16T12:26:03.088Z</time></trkpt><trkpt lat="44.15354" lon="12.0714133"><ele>49.2</ele><time>2026-04-16T12:26:05.088Z</time></trkpt><trkpt lat="44.1534217" lon="12.0713683"><ele>49.6</ele><time>2026-04-16T12:26:07.088Z</time></trkpt><trkpt lat="44.1533533" lon="12.0713517"><ele>50.0</ele><time>2026-04-16T12:26:08.088Z</time></trkpt><trkpt lat="44.1532817" lon="12.07134"><ele>50.0</ele><time>2026-04-16T12:26:09.088Z</time></trkpt><trkpt lat="44.153215" lon="12.07133"><ele>50.0</ele><time>2026-04-16T12:26:10.088Z</time></trkpt><trkpt lat="44.1531483" lon="12.0713017"><ele>50.0</ele><time>2026-04-16T12:26:11.088Z</time></trkpt><trkpt lat="44.153085" lon="12.071285"><ele>50.0</ele><time>2026-04-16T12:26:12.088Z</time></trkpt><trkpt lat="44.15296" lon="12.0712467"><ele>50.0</ele><time>2026-04-16T12:26:14.088Z</time></trkpt><trkpt lat="44.1528367" lon="12.0712183"><ele>49.833333333333336</ele><time>2026-04-16T12:26:16.088Z</time></trkpt><trkpt lat="44.1527733" lon="12.0712033"><ele>49.66666666666667</ele><time>2026-04-16T12:26:17.088Z</time></trkpt><trkpt lat="44.1527067" lon="12.07119"><ele>49.5</ele><time>2026-04-16T12:26:18.088Z</time></trkpt><trkpt lat="44.1526433" lon="12.0711883"><ele>49.33333333333333</ele><time>2026-04-16T12:26:19.089Z</time></trkpt><trkpt lat="44.1525267" lon="12.0711783"><ele>49.166666666666664</ele><time>2026-04-16T12:26:21.088Z</time></trkpt><trkpt lat="44.1524633" lon="12.0711733"><ele>49.0</ele><time>2026-04-16T12:26:22.088Z</time></trkpt><trkpt lat="44.152345" lon="12.071175"><ele>49.5</ele><time>2026-04-16T12:26:24.088Z</time></trkpt><trkpt lat="44.1522333" lon="12.0712017"><ele>50.0</ele><time>2026-04-16T12:26:26.088Z</time></trkpt><trkpt lat="44.1521183" lon="12.0712333"><ele>50.5</ele><time>2026-04-16T12:26:28.088Z</time></trkpt><trkpt lat="44.1520017" lon="12.071255"><ele>51.0</ele><time>2026-04-16T12:26:30.088Z</time></trkpt><trkpt lat="44.1519033" lon="12.0712133"><ele>51.0</ele><time>2026-04-16T12:26:32.088Z</time></trkpt><trkpt lat="44.1518433" lon="12.0711633"><ele>51.0</ele><time>2026-04-16T12:26:33.088Z</time></trkpt><trkpt lat="44.1518083" lon="12.07101"><ele>51.0</ele><time>2026-04-16T12:26:35.089Z</time></trkpt><trkpt lat="44.1517867" lon="12.0708683"><ele>51.0</ele><time>2026-04-16T12:26:37.088Z</time></trkpt><trkpt lat="44.15174" lon="12.070755"><ele>51.0</ele><time>2026-04-16T12:26:39.088Z</time></trkpt><trkpt lat="44.1516667" lon="12.07071"><ele>51.0</ele><time>2026-04-16T12:26:41.088Z</time></trkpt><trkpt lat="44.1515767" lon="12.0706917"><ele>51.0</ele><time>2026-04-16T12:26:43.088Z</time></trkpt><trkpt lat="44.15147" lon="12.07066"><ele>51.0</ele><time>2026-04-16T12:26:45.088Z</time></trkpt><trkpt lat="44.15137" lon="12.0706167"><ele>51.0</ele><time>2026-04-16T12:26:47.088Z</time></trkpt><trkpt lat="44.1512633" lon="12.0705883"><ele>51.0</ele><time>2026-04-16T12:26:49.088Z</time></trkpt><trkpt lat="44.1511583" lon="12.070565"><ele>51.4</ele><time>2026-04-16T12:26:51.088Z</time></trkpt><trkpt lat="44.1510467" lon="12.0705383"><ele>51.8</ele><time>2026-04-16T12:26:53.088Z</time></trkpt><trkpt lat="44.1509317" lon="12.0705033"><ele>52.199999999999996</ele><time>2026-04-16T12:26:55.088Z</time></trkpt><trkpt lat="44.1508333" lon="12.0704533"><ele>52.599999999999994</ele><time>2026-04-16T12:26:57.089Z</time></trkpt><trkpt lat="44.15073" lon="12.070405"><ele>53.0</ele><time>2026-04-16T12:26:59.088Z</time></trkpt><trkpt lat="44.1506317" lon="12.0703633"><ele>53.0</ele><time>2026-04-16T12:27:01.088Z</time></trkpt><trkpt lat="44.150545" lon="12.0702983"><ele>53.0</ele><time>2026-04-16T12:27:03.088Z</time></trkpt><trkpt lat="44.1504467" lon="12.070215"><ele>53.0</ele><time>2026-04-16T12:27:05.088Z</time></trkpt><trkpt lat="44.150345" lon="12.0701217"><ele>53.0</ele><time>2026-04-16T12:27:07.088Z</time></trkpt><trkpt lat="44.1502933" lon="12.07007"><ele>53.0</ele><time>2026-04-16T12:27:08.088Z</time></trkpt><trkpt lat="44.15019" lon="12.0699667"><ele>52.5</ele><time>2026-04-16T12:27:10.088Z</time></trkpt><trkpt lat="44.1500933" lon="12.0698633"><ele>52.0</ele><time>2026-04-16T12:27:12.088Z</time></trkpt><trkpt lat="44.1500033" lon="12.0697533"><ele>51.5</ele><time>2026-04-16T12:27:14.089Z</time></trkpt><trkpt lat="44.14992" lon="12.0696367"><ele>51.0</ele><time>2026-04-16T12:27:16.088Z</time></trkpt><trkpt lat="44.1498283" lon="12.069515"><ele>51.0</ele><time>2026-04-16T12:27:18.088Z</time></trkpt><trkpt lat="44.1497817" lon="12.06945"><ele>51.0</ele><time>2026-04-16T12:27:19.088Z</time></trkpt><trkpt lat="44.149735" lon="12.06939"><ele>51.0</ele><time>2026-04-16T12:27:20.088Z</time></trkpt><trkpt lat="44.1496367" lon="12.0692867"><ele>51.0</ele><time>2026-04-16T12:27:22.088Z</time></trkpt><trkpt lat="44.149585" lon="12.069235"><ele>51.0</ele><time>2026-04-16T12:27:23.088Z</time></trkpt><trkpt lat="44.1494833" lon="12.0691517"><ele>51.0</ele><time>2026-04-16T12:27:25.088Z</time></trkpt><trkpt lat="44.14938" lon="12.069085"><ele>51.333333333333336</ele><time>2026-04-16T12:27:27.088Z</time></trkpt><trkpt lat="44.14927" lon="12.0690083"><ele>51.66666666666667</ele><time>2026-04-16T12:27:29.088Z</time></trkpt><trkpt lat="44.149205" lon="12.0689633"><ele>52.0</ele><time>2026-04-16T12:27:30.088Z</time></trkpt><trkpt lat="44.1491417" lon="12.068915"><ele>52.333333333333336</ele><time>2026-04-16T12:27:31.088Z</time></trkpt><trkpt lat="44.1490833" lon="12.0688783"><ele>52.66666666666667</ele><time>2026-04-16T12:27:32.088Z</time></trkpt><trkpt lat="44.1490233" lon="12.0688433"><ele>53.0</ele><time>2026-04-16T12:27:33.088Z</time></trkpt><trkpt lat="44.1489233" lon="12.0687817"><ele>53.4</ele><time>2026-04-16T12:27:35.088Z</time></trkpt><trkpt lat="44.14882" lon="12.068725"><ele>53.8</ele><time>2026-04-16T12:27:37.088Z</time></trkpt><trkpt lat="44.1487083" lon="12.06866"><ele>54.2</ele><time>2026-04-16T12:27:39.088Z</time></trkpt><trkpt lat="44.14865" lon="12.0686267"><ele>54.6</ele><time>2026-04-16T12:27:40.088Z</time></trkpt><trkpt lat="44.148585" lon="12.068595"><ele>55.0</ele><time>2026-04-16T12:27:41.088Z</time></trkpt><trkpt lat="44.1484783" lon="12.06855"><ele>55.0</ele><time>2026-04-16T12:27:43.088Z</time></trkpt><trkpt lat="44.1483717" lon="12.0685033"><ele>55.0</ele><time>2026-04-16T12:27:45.088Z</time></trkpt><trkpt lat="44.148265" lon="12.068435"><ele>55.0</ele><time>2026-04-16T12:27:47.088Z</time></trkpt><trkpt lat="44.14815" lon="12.0683767"><ele>55.0</ele><time>2026-04-16T12:27:49.088Z</time></trkpt><trkpt lat="44.1480883" lon="12.068355"><ele>55.0</ele><time>2026-04-16T12:27:50.088Z</time></trkpt><trkpt lat="44.1480283" lon="12.068325"><ele>54.8</ele><time>2026-04-16T12:27:51.088Z</time></trkpt><trkpt lat="44.1479133" lon="12.06827"><ele>54.6</ele><time>2026-04-16T12:27:53.088Z</time></trkpt><trkpt lat="44.1477983" lon="12.06821"><ele>54.400000000000006</ele><time>2026-04-16T12:27:55.088Z</time></trkpt><trkpt lat="44.1476817" lon="12.0681517"><ele>54.2</ele><time>2026-04-16T12:27:57.088Z</time></trkpt><trkpt lat="44.1476217" lon="12.0681167"><ele>54.0</ele><time>2026-04-16T12:27:58.089Z</time></trkpt><trkpt lat="44.1475083" lon="12.0680533"><ele>54.0</ele><time>2026-04-16T12:28:00.088Z</time></trkpt><trkpt lat="44.1474" lon="12.06799"><ele>54.0</ele><time>2026-04-16T12:28:02.088Z</time></trkpt><trkpt lat="44.1473117" lon="12.067885"><ele>54.0</ele><time>2026-04-16T12:28:04.088Z</time></trkpt><trkpt lat="44.1472117" lon="12.0677867"><ele>54.0</ele><time>2026-04-16T12:28:06.088Z</time></trkpt><trkpt lat="44.14711" lon="12.0677417"><ele>54.0</ele><time>2026-04-16T12:28:08.088Z</time></trkpt><trkpt lat="44.1469967" lon="12.0677667"><ele>54.0</ele><time>2026-04-16T12:28:10.088Z</time></trkpt><trkpt lat="44.1469383" lon="12.0678017"><ele>54.0</ele><time>2026-04-16T12:28:11.088Z</time></trkpt><trkpt lat="44.1468733" lon="12.0678217"><ele>54.0</ele><time>2026-04-16T12:28:12.088Z</time></trkpt><trkpt lat="44.1468067" lon="12.0678283"><ele>54.0</ele><time>2026-04-16T12:28:13.088Z</time></trkpt><trkpt lat="44.1467283" lon="12.067835"><ele>54.0</ele><time>2026-04-16T12:28:14.088Z</time></trkpt><trkpt lat="44.1466567" lon="12.0678333"><ele>54.0</ele><time>2026-04-16T12:28:15.088Z</time></trkpt><trkpt lat="44.146585" lon="12.0678367"><ele>54.0</ele><time>2026-04-16T12:28:16.088Z</time></trkpt><trkpt lat="44.1465167" lon="12.0678383"><ele>54.0</ele><time>2026-04-16T12:28:17.088Z</time></trkpt><trkpt lat="44.1464483" lon="12.0678383"><ele>54.0</ele><time>2026-04-16T12:28:18.088Z</time></trkpt><trkpt lat="44.1463767" lon="12.06783"><ele>54.0</ele><time>2026-04-16T12:28:19.088Z</time></trkpt><trkpt lat="44.146305" lon="12.067815"><ele>54.0</ele><time>2026-04-16T12:28:20.088Z</time></trkpt><trkpt lat="44.1462383" lon="12.0678067"><ele>54.0</ele><time>2026-04-16T12:28:21.088Z</time></trkpt><trkpt lat="44.146125" lon="12.0677983"><ele>53.857142857142854</ele><time>2026-04-16T12:28:23.088Z</time></trkpt><trkpt lat="44.1460517" lon="12.0677883"><ele>53.71428571428571</ele><time>2026-04-16T12:28:24.088Z</time></trkpt><trkpt lat="44.1459833" lon="12.0677783"><ele>53.57142857142857</ele><time>2026-04-16T12:28:25.088Z</time></trkpt><trkpt lat="44.1459167" lon="12.0677717"><ele>53.42857142857143</ele><time>2026-04-16T12:28:26.088Z</time></trkpt><trkpt lat="44.1458483" lon="12.0677633"><ele>53.285714285714285</ele><time>2026-04-16T12:28:27.088Z</time></trkpt><trkpt lat="44.1457783" lon="12.0677567"><ele>53.142857142857146</ele><time>2026-04-16T12:28:28.088Z</time></trkpt><trkpt lat="44.145705" lon="12.0677417"><ele>53.0</ele><time>2026-04-16T12:28:29.088Z</time></trkpt><trkpt lat="44.14563" lon="12.0677217"><ele>52.66666666666667</ele><time>2026-04-16T12:28:30.088Z</time></trkpt><trkpt lat="44.1455533" lon="12.0677017"><ele>52.333333333333336</ele><time>2026-04-16T12:28:31.088Z</time></trkpt><trkpt lat="44.1454833" lon="12.06767"><ele>52.0</ele><time>2026-04-16T12:28:32.088Z</time></trkpt><trkpt lat="44.1454167" lon="12.0676333"><ele>51.66666666666667</ele><time>2026-04-16T12:28:33.088Z</time></trkpt><trkpt lat="44.1453467" lon="12.067595"><ele>51.333333333333336</ele><time>2026-04-16T12:28:34.088Z</time></trkpt><trkpt lat="44.14528" lon="12.0675517"><ele>51.0</ele><time>2026-04-16T12:28:35.088Z</time></trkpt><trkpt lat="44.14521" lon="12.0675017"><ele>51.166666666666664</ele><time>2026-04-16T12:28:36.088Z</time></trkpt><trkpt lat="44.14515" lon="12.067435"><ele>51.33333333333333</ele><time>2026-04-16T12:28:37.088Z</time></trkpt><trkpt lat="44.14509" lon="12.0673533"><ele>51.5</ele><time>2026-04-16T12:28:38.088Z</time></trkpt><trkpt lat="44.1450417" lon="12.0672783"><ele>51.666666666666664</ele><time>2026-04-16T12:28:39.088Z</time></trkpt><trkpt lat="44.1449933" lon="12.0672"><ele>51.83333333333333</ele><time>2026-04-16T12:28:40.088Z</time></trkpt><trkpt lat="44.144945" lon="12.0671283"><ele>52.0</ele><time>2026-04-16T12:28:41.088Z</time></trkpt><trkpt lat="44.1449" lon="12.0670433"><ele>51.99999999999999</ele><time>2026-04-16T12:28:42.088Z</time></trkpt><trkpt lat="44.1448533" lon="12.06697"><ele>52.0</ele><time>2026-04-16T12:28:43.088Z</time></trkpt><trkpt lat="44.14481" lon="12.0668767"><ele>52.0</ele><time>2026-04-16T12:28:44.088Z</time></trkpt><trkpt lat="44.1447617" lon="12.0667733"><ele>52.0</ele><time>2026-04-16T12:28:45.088Z</time></trkpt><trkpt lat="44.1447083" lon="12.06667"><ele>51.99999999999999</ele><time>2026-04-16T12:28:46.088Z</time></trkpt><trkpt lat="44.14466" lon="12.0665833"><ele>52.0</ele><time>2026-04-16T12:28:47.088Z</time></trkpt><trkpt lat="44.144615" lon="12.0664917"><ele>52.49999999999999</ele><time>2026-04-16T12:28:48.088Z</time></trkpt><trkpt lat="44.1445683" lon="12.0664167"><ele>53.0</ele><time>2026-04-16T12:28:49.088Z</time></trkpt><trkpt lat="44.1445283" lon="12.0663317"><ele>53.5</ele><time>2026-04-16T12:28:50.088Z</time></trkpt><trkpt lat="44.144485" lon="12.0662617"><ele>54.0</ele><time>2026-04-16T12:28:51.088Z</time></trkpt><trkpt lat="44.144445" lon="12.0661883"><ele>54.49999999999999</ele><time>2026-04-16T12:28:52.088Z</time></trkpt><trkpt lat="44.144405" lon="12.0661133"><ele>55.0</ele><time>2026-04-16T12:28:53.088Z</time></trkpt><trkpt lat="44.14432" lon="12.06596"><ele>55.0</ele><time>2026-04-16T12:28:55.088Z</time></trkpt><trkpt lat="44.1442467" lon="12.0658233"><ele>55.0</ele><time>2026-04-16T12:28:57.088Z</time></trkpt><trkpt lat="44.144165" lon="12.0657"><ele>55.0</ele><time>2026-04-16T12:28:59.088Z</time></trkpt><trkpt lat="44.1440917" lon="12.0655967"><ele>55.0</ele><time>2026-04-16T12:29:01.088Z</time></trkpt><trkpt lat="44.1440433" lon="12.06553"><ele>55.0</ele><time>2026-04-16T12:29:02.088Z</time></trkpt><trkpt lat="44.1439917" lon="12.06547"><ele>55.14285714285714</ele><time>2026-04-16T12:29:03.088Z</time></trkpt><trkpt lat="44.14394" lon="12.0654133"><ele>55.285714285714285</ele><time>2026-04-16T12:29:04.088Z</time></trkpt><trkpt lat="44.1438833" lon="12.0653633"><ele>55.42857142857143</ele><time>2026-04-16T12:29:05.088Z</time></trkpt><trkpt lat="44.1438217" lon="12.0653117"><ele>55.57142857142857</ele><time>2026-04-16T12:29:06.088Z</time></trkpt><trkpt lat="44.1437633" lon="12.06526"><ele>55.714285714285715</ele><time>2026-04-16T12:29:07.088Z</time></trkpt><trkpt lat="44.1437067" lon="12.0652133"><ele>55.857142857142854</ele><time>2026-04-16T12:29:08.088Z</time></trkpt><trkpt lat="44.14365" lon="12.06517"><ele>56.0</ele><time>2026-04-16T12:29:09.088Z</time></trkpt><trkpt lat="44.1435917" lon="12.0651267"><ele>56.00000000000001</ele><time>2026-04-16T12:29:10.088Z</time></trkpt><trkpt lat="44.1435317" lon="12.0650867"><ele>56.0</ele><time>2026-04-16T12:29:11.089Z</time></trkpt><trkpt lat="44.14347" lon="12.065045"><ele>56.0</ele><time>2026-04-16T12:29:12.089Z</time></trkpt><trkpt lat="44.14341" lon="12.065"><ele>56.0</ele><time>2026-04-16T12:29:13.088Z</time></trkpt><trkpt lat="44.1433517" lon="12.0649567"><ele>56.00000000000001</ele><time>2026-04-16T12:29:14.088Z</time></trkpt><trkpt lat="44.1432383" lon="12.0648833"><ele>56.0</ele><time>2026-04-16T12:29:16.088Z</time></trkpt><trkpt lat="44.1431783" lon="12.0648433"><ele>55.857142857142854</ele><time>2026-04-16T12:29:17.088Z</time></trkpt><trkpt lat="44.1431183" lon="12.0648017"><ele>55.714285714285715</ele><time>2026-04-16T12:29:18.088Z</time></trkpt><trkpt lat="44.1430583" lon="12.06476"><ele>55.57142857142857</ele><time>2026-04-16T12:29:19.088Z</time></trkpt><trkpt lat="44.142995" lon="12.0647117"><ele>55.42857142857143</ele><time>2026-04-16T12:29:20.088Z</time></trkpt><trkpt lat="44.1429333" lon="12.0646617"><ele>55.285714285714285</ele><time>2026-04-16T12:29:21.088Z</time></trkpt><trkpt lat="44.14287" lon="12.0646217"><ele>55.14285714285714</ele><time>2026-04-16T12:29:22.089Z</time></trkpt><trkpt lat="44.1428033" lon="12.06458"><ele>55.0</ele><time>2026-04-16T12:29:23.088Z</time></trkpt><trkpt lat="44.14274" lon="12.0645383"><ele>55.0</ele><time>2026-04-16T12:29:24.088Z</time></trkpt><trkpt lat="44.1426767" lon="12.064505"><ele>55.0</ele><time>2026-04-16T12:29:25.088Z</time></trkpt><trkpt lat="44.1425467" lon="12.0644283"><ele>55.0</ele><time>2026-04-16T12:29:27.088Z</time></trkpt><trkpt lat="44.1424817" lon="12.064385"><ele>55.0</ele><time>2026-04-16T12:29:28.088Z</time></trkpt><trkpt lat="44.1423733" lon="12.0643133"><ele>55.0</ele><time>2026-04-16T12:29:30.088Z</time></trkpt><trkpt lat="44.1423133" lon="12.0642783"><ele>55.14285714285714</ele><time>2026-04-16T12:29:31.089Z</time></trkpt><trkpt lat="44.142245" lon="12.0642267"><ele>55.285714285714285</ele><time>2026-04-16T12:29:32.088Z</time></trkpt><trkpt lat="44.1421833" lon="12.0641733"><ele>55.42857142857143</ele><time>2026-04-16T12:29:33.088Z</time></trkpt><trkpt lat="44.1421267" lon="12.0641283"><ele>55.57142857142857</ele><time>2026-04-16T12:29:34.088Z</time></trkpt><trkpt lat="44.1420667" lon="12.06409"><ele>55.714285714285715</ele><time>2026-04-16T12:29:35.088Z</time></trkpt><trkpt lat="44.1420117" lon="12.0640433"><ele>55.857142857142854</ele><time>2026-04-16T12:29:36.088Z</time></trkpt><trkpt lat="44.141945" lon="12.0639983"><ele>56.0</ele><time>2026-04-16T12:29:37.088Z</time></trkpt><trkpt lat="44.141885" lon="12.0639617"><ele>56.16666666666667</ele><time>2026-04-16T12:29:38.088Z</time></trkpt><trkpt lat="44.14183" lon="12.0639133"><ele>56.333333333333336</ele><time>2026-04-16T12:29:39.088Z</time></trkpt><trkpt lat="44.1417233" lon="12.0638233"><ele>56.5</ele><time>2026-04-16T12:29:41.088Z</time></trkpt><trkpt lat="44.141655" lon="12.0637817"><ele>56.66666666666667</ele><time>2026-04-16T12:29:42.089Z</time></trkpt><trkpt lat="44.1415883" lon="12.0637433"><ele>56.833333333333336</ele><time>2026-04-16T12:29:43.088Z</time></trkpt><trkpt lat="44.1415217" lon="12.0637017"><ele>57.0</ele><time>2026-04-16T12:29:44.088Z</time></trkpt><trkpt lat="44.141455" lon="12.0636533"><ele>56.71428571428571</ele><time>2026-04-16T12:29:45.088Z</time></trkpt><trkpt lat="44.1413833" lon="12.0636067"><ele>56.42857142857142</ele><time>2026-04-16T12:29:46.088Z</time></trkpt><trkpt lat="44.1413217" lon="12.0635633"><ele>56.14285714285714</ele><time>2026-04-16T12:29:47.088Z</time></trkpt><trkpt lat="44.14126" lon="12.0635183"><ele>55.857142857142854</ele><time>2026-04-16T12:29:48.088Z</time></trkpt><trkpt lat="44.1411983" lon="12.063475"><ele>55.57142857142857</ele><time>2026-04-16T12:29:49.088Z</time></trkpt><trkpt lat="44.141135" lon="12.0634283"><ele>55.28571428571428</ele><time>2026-04-16T12:29:50.089Z</time></trkpt><trkpt lat="44.1410717" lon="12.0633717"><ele>55.0</ele><time>2026-04-16T12:29:51.088Z</time></trkpt><trkpt lat="44.141005" lon="12.06332"><ele>54.99999999999999</ele><time>2026-04-16T12:29:52.088Z</time></trkpt><trkpt lat="44.14094" lon="12.06327"><ele>55.0</ele><time>2026-04-16T12:29:53.088Z</time></trkpt><trkpt lat="44.14087" lon="12.063225"><ele>55.0</ele><time>2026-04-16T12:29:54.088Z</time></trkpt><trkpt lat="44.1408" lon="12.063175"><ele>55.0</ele><time>2026-04-16T12:29:55.088Z</time></trkpt><trkpt lat="44.1407317" lon="12.06313"><ele>54.99999999999999</ele><time>2026-04-16T12:29:56.088Z</time></trkpt><trkpt lat="44.14066" lon="12.0630833"><ele>55.0</ele><time>2026-04-16T12:29:57.088Z</time></trkpt><trkpt lat="44.1405967" lon="12.0630383"><ele>54.99999999999999</ele><time>2026-04-16T12:29:58.088Z</time></trkpt><trkpt lat="44.1405283" lon="12.06299"><ele>55.0</ele><time>2026-04-16T12:29:59.088Z</time></trkpt><trkpt lat="44.1404633" lon="12.0629433"><ele>55.0</ele><time>2026-04-16T12:30:00.088Z</time></trkpt><trkpt lat="44.1404033" lon="12.0629033"><ele>55.0</ele><time>2026-04-16T12:30:01.089Z</time></trkpt><trkpt lat="44.14034" lon="12.0628633"><ele>55.0</ele><time>2026-04-16T12:30:02.088Z</time></trkpt><trkpt lat="44.1402717" lon="12.0628167"><ele>54.99999999999999</ele><time>2026-04-16T12:30:03.088Z</time></trkpt><trkpt lat="44.1402017" lon="12.0627767"><ele>55.0</ele><time>2026-04-16T12:30:04.088Z</time></trkpt><trkpt lat="44.1401333" lon="12.06274"><ele>54.99999999999999</ele><time>2026-04-16T12:30:05.088Z</time></trkpt><trkpt lat="44.1400683" lon="12.0627083"><ele>55.0</ele><time>2026-04-16T12:30:06.089Z</time></trkpt><trkpt lat="44.1400067" lon="12.06268"><ele>55.0</ele><time>2026-04-16T12:30:07.088Z</time></trkpt><trkpt lat="44.1398917" lon="12.0626233"><ele>55.0</ele><time>2026-04-16T12:30:09.088Z</time></trkpt><trkpt lat="44.139825" lon="12.06259"><ele>54.99999999999999</ele><time>2026-04-16T12:30:10.088Z</time></trkpt><trkpt lat="44.1397633" lon="12.062555"><ele>55.0</ele><time>2026-04-16T12:30:11.088Z</time></trkpt><trkpt lat="44.1397033" lon="12.0625183"><ele>54.857142857142854</ele><time>2026-04-16T12:30:12.088Z</time></trkpt><trkpt lat="44.1396417" lon="12.06248"><ele>54.714285714285715</ele><time>2026-04-16T12:30:13.088Z</time></trkpt><trkpt lat="44.13957" lon="12.062435"><ele>54.57142857142857</ele><time>2026-04-16T12:30:14.088Z</time></trkpt><trkpt lat="44.1395" lon="12.062395"><ele>54.42857142857143</ele><time>2026-04-16T12:30:15.089Z</time></trkpt><trkpt lat="44.13943" lon="12.0623617"><ele>54.285714285714285</ele><time>2026-04-16T12:30:16.088Z</time></trkpt><trkpt lat="44.1393567" lon="12.062335"><ele>54.14285714285714</ele><time>2026-04-16T12:30:17.088Z</time></trkpt><trkpt lat="44.139285" lon="12.0623133"><ele>54.0</ele><time>2026-04-16T12:30:18.088Z</time></trkpt><trkpt lat="44.1392083" lon="12.0622917"><ele>54.14285714285714</ele><time>2026-04-16T12:30:19.088Z</time></trkpt><trkpt lat="44.1391333" lon="12.0622733"><ele>54.285714285714285</ele><time>2026-04-16T12:30:20.088Z</time></trkpt><trkpt lat="44.1390633" lon="12.0622583"><ele>54.42857142857143</ele><time>2026-04-16T12:30:21.088Z</time></trkpt><trkpt lat="44.1389967" lon="12.0622483"><ele>54.57142857142857</ele><time>2026-04-16T12:30:22.088Z</time></trkpt><trkpt lat="44.1389267" lon="12.0622383"><ele>54.714285714285715</ele><time>2026-04-16T12:30:23.088Z</time></trkpt><trkpt lat="44.1388483" lon="12.062235"><ele>54.857142857142854</ele><time>2026-04-16T12:30:24.088Z</time></trkpt><trkpt lat="44.13877" lon="12.062225"><ele>55.0</ele><time>2026-04-16T12:30:25.088Z</time></trkpt><trkpt lat="44.1386933" lon="12.0622117"><ele>54.99999999999999</ele><time>2026-04-16T12:30:26.088Z</time></trkpt><trkpt lat="44.13862" lon="12.0622017"><ele>55.0</ele><time>2026-04-16T12:30:27.088Z</time></trkpt><trkpt lat="44.13855" lon="12.062185"><ele>55.0</ele><time>2026-04-16T12:30:28.089Z</time></trkpt><trkpt lat="44.1384817" lon="12.062175"><ele>55.0</ele><time>2026-04-16T12:30:29.088Z</time></trkpt><trkpt lat="44.1383533" lon="12.062165"><ele>54.99999999999999</ele><time>2026-04-16T12:30:31.088Z</time></trkpt><trkpt lat="44.1382817" lon="12.062165"><ele>55.0</ele><time>2026-04-16T12:30:32.088Z</time></trkpt><trkpt lat="44.1382083" lon="12.06216"><ele>54.83333333333333</ele><time>2026-04-16T12:30:33.088Z</time></trkpt><trkpt lat="44.1381283" lon="12.06216"><ele>54.666666666666664</ele><time>2026-04-16T12:30:34.088Z</time></trkpt><trkpt lat="44.1380483" lon="12.062165"><ele>54.5</ele><time>2026-04-16T12:30:35.088Z</time></trkpt><trkpt lat="44.1379683" lon="12.0621617"><ele>54.33333333333333</ele><time>2026-04-16T12:30:36.088Z</time></trkpt><trkpt lat="44.1378933" lon="12.0621583"><ele>54.166666666666664</ele><time>2026-04-16T12:30:37.088Z</time></trkpt><trkpt lat="44.1378117" lon="12.0621533"><ele>54.0</ele><time>2026-04-16T12:30:38.088Z</time></trkpt><trkpt lat="44.1377433" lon="12.0621483"><ele>54.0</ele><time>2026-04-16T12:30:39.088Z</time></trkpt><trkpt lat="44.1376683" lon="12.0621417"><ele>54.0</ele><time>2026-04-16T12:30:40.088Z</time></trkpt><trkpt lat="44.137595" lon="12.0621367"><ele>54.0</ele><time>2026-04-16T12:30:41.088Z</time></trkpt><trkpt lat="44.1375133" lon="12.06212"><ele>54.0</ele><time>2026-04-16T12:30:42.088Z</time></trkpt><trkpt lat="44.1374417" lon="12.0621017"><ele>54.0</ele><time>2026-04-16T12:30:43.088Z</time></trkpt><trkpt lat="44.13737" lon="12.0620917"><ele>54.0</ele><time>2026-04-16T12:30:44.088Z</time></trkpt><trkpt lat="44.1372867" lon="12.0620733"><ele>54.0</ele><time>2026-04-16T12:30:45.088Z</time></trkpt><trkpt lat="44.1372083" lon="12.06206"><ele>54.0</ele><time>2026-04-16T12:30:46.088Z</time></trkpt><trkpt lat="44.1371317" lon="12.0620517"><ele>54.0</ele><time>2026-04-16T12:30:47.088Z</time></trkpt><trkpt lat="44.1370533" lon="12.062045"><ele>54.0</ele><time>2026-04-16T12:30:48.088Z</time></trkpt><trkpt lat="44.1369767" lon="12.06204"><ele>54.0</ele><time>2026-04-16T12:30:49.088Z</time></trkpt><trkpt lat="44.1369083" lon="12.0620333"><ele>54.0</ele><time>2026-04-16T12:30:50.088Z</time></trkpt><trkpt lat="44.1368433" lon="12.06203"><ele>54.0</ele><time>2026-04-16T12:30:51.088Z</time></trkpt><trkpt lat="44.1367733" lon="12.0620217"><ele>54.0</ele><time>2026-04-16T12:30:52.088Z</time></trkpt><trkpt lat="44.136705" lon="12.06201"><ele>54.0</ele><time>2026-04-16T12:30:53.088Z</time></trkpt><trkpt lat="44.1366383" lon="12.0620017"><ele>54.0</ele><time>2026-04-16T12:30:54.088Z</time></trkpt><trkpt lat="44.1365667" lon="12.061985"><ele>54.0</ele><time>2026-04-16T12:30:55.089Z</time></trkpt><trkpt lat="44.136495" lon="12.06197"><ele>54.0</ele><time>2026-04-16T12:30:56.088Z</time></trkpt><trkpt lat="44.1364233" lon="12.061955"><ele>54.0</ele><time>2026-04-16T12:30:57.088Z</time></trkpt><trkpt lat="44.13635" lon="12.061935"><ele>54.0</ele><time>2026-04-16T12:30:58.088Z</time></trkpt><trkpt lat="44.1362783" lon="12.0619233"><ele>54.0</ele><time>2026-04-16T12:30:59.088Z</time></trkpt><trkpt lat="44.136205" lon="12.0619133"><ele>54.0</ele><time>2026-04-16T12:31:00.088Z</time></trkpt><trkpt lat="44.1361333" lon="12.0619067"><ele>54.0</ele><time>2026-04-16T12:31:01.088Z</time></trkpt><trkpt lat="44.1360567" lon="12.0618983"><ele>54.0</ele><time>2026-04-16T12:31:02.088Z</time></trkpt><trkpt lat="44.13599" lon="12.0618917"><ele>54.0</ele><time>2026-04-16T12:31:03.088Z</time></trkpt><trkpt lat="44.135925" lon="12.0618883"><ele>54.0</ele><time>2026-04-16T12:31:04.088Z</time></trkpt><trkpt lat="44.13586" lon="12.0618833"><ele>54.0</ele><time>2026-04-16T12:31:05.088Z</time></trkpt><trkpt lat="44.1357883" lon="12.0618733"><ele>54.166666666666664</ele><time>2026-04-16T12:31:06.088Z</time></trkpt><trkpt lat="44.1357183" lon="12.0618667"><ele>54.33333333333333</ele><time>2026-04-16T12:31:07.088Z</time></trkpt><trkpt lat="44.1355983" lon="12.061845"><ele>54.5</ele><time>2026-04-16T12:31:09.088Z</time></trkpt><trkpt lat="44.1355317" lon="12.061835"><ele>54.666666666666664</ele><time>2026-04-16T12:31:10.088Z</time></trkpt><trkpt lat="44.1354633" lon="12.0618283"><ele>54.83333333333333</ele><time>2026-04-16T12:31:11.088Z</time></trkpt><trkpt lat="44.1353933" lon="12.0618183"><ele>55.0</ele><time>2026-04-16T12:31:12.088Z</time></trkpt><trkpt lat="44.1353233" lon="12.061805"><ele>54.99999999999999</ele><time>2026-04-16T12:31:13.088Z</time></trkpt><trkpt lat="44.1352533" lon="12.0617933"><ele>55.0</ele><time>2026-04-16T12:31:14.088Z</time></trkpt><trkpt lat="44.135175" lon="12.0617867"><ele>55.0</ele><time>2026-04-16T12:31:15.088Z</time></trkpt><trkpt lat="44.1350983" lon="12.0617767"><ele>55.0</ele><time>2026-04-16T12:31:16.088Z</time></trkpt><trkpt lat="44.1350233" lon="12.0617683"><ele>55.0</ele><time>2026-04-16T12:31:17.088Z</time></trkpt><trkpt lat="44.1349583" lon="12.0617533"><ele>54.99999999999999</ele><time>2026-04-16T12:31:18.088Z</time></trkpt><trkpt lat="44.1348833" lon="12.061745"><ele>55.0</ele><time>2026-04-16T12:31:19.088Z</time></trkpt><trkpt lat="44.1348" lon="12.06174"><ele>54.99999999999999</ele><time>2026-04-16T12:31:20.088Z</time></trkpt><trkpt lat="44.1346817" lon="12.0616817"><ele>55.0</ele><time>2026-04-16T12:31:22.088Z</time></trkpt><trkpt lat="44.1346183" lon="12.0616583"><ele>55.0</ele><time>2026-04-16T12:31:23.088Z</time></trkpt><trkpt lat="44.1345517" lon="12.0616317"><ele>55.0</ele><time>2026-04-16T12:31:24.089Z</time></trkpt><trkpt lat="44.1344883" lon="12.0615983"><ele>54.99999999999999</ele><time>2026-04-16T12:31:25.088Z</time></trkpt><trkpt lat="44.134425" lon="12.06156"><ele>55.0</ele><time>2026-04-16T12:31:26.088Z</time></trkpt><trkpt lat="44.1343567" lon="12.0615317"><ele>54.99999999999999</ele><time>2026-04-16T12:31:27.088Z</time></trkpt><trkpt lat="44.1343" lon="12.0614867"><ele>55.0</ele><time>2026-04-16T12:31:28.088Z</time></trkpt><trkpt lat="44.13424" lon="12.0614417"><ele>55.0</ele><time>2026-04-16T12:31:29.088Z</time></trkpt><trkpt lat="44.1341817" lon="12.0613917"><ele>55.0</ele><time>2026-04-16T12:31:30.088Z</time></trkpt><trkpt lat="44.1341183" lon="12.061345"><ele>54.99999999999999</ele><time>2026-04-16T12:31:31.088Z</time></trkpt><trkpt lat="44.134055" lon="12.0612917"><ele>55.0</ele><time>2026-04-16T12:31:32.088Z</time></trkpt><trkpt lat="44.1339517" lon="12.0612633"><ele>55.166666666666664</ele><time>2026-04-16T12:31:34.088Z</time></trkpt><trkpt lat="44.1338733" lon="12.0613183"><ele>55.33333333333333</ele><time>2026-04-16T12:31:36.088Z</time></trkpt><trkpt lat="44.1338167" lon="12.0613717"><ele>55.5</ele><time>2026-04-16T12:31:37.088Z</time></trkpt><trkpt lat="44.13375" lon="12.06141"><ele>55.66666666666667</ele><time>2026-04-16T12:31:38.088Z</time></trkpt><trkpt lat="44.1336383" lon="12.0614383"><ele>55.833333333333336</ele><time>2026-04-16T12:31:40.088Z</time></trkpt><trkpt lat="44.13356" lon="12.0614367"><ele>56.0</ele><time>2026-04-16T12:31:41.088Z</time></trkpt><trkpt lat="44.133495" lon="12.0614283"><ele>56.0</ele><time>2026-04-16T12:31:42.088Z</time></trkpt><trkpt lat="44.133425" lon="12.06142"><ele>56.0</ele><time>2026-04-16T12:31:43.088Z</time></trkpt><trkpt lat="44.1333617" lon="12.0614183"><ele>56.0</ele><time>2026-04-16T12:31:44.088Z</time></trkpt><trkpt lat="44.1332983" lon="12.061415"><ele>56.0</ele><time>2026-04-16T12:31:45.088Z</time></trkpt><trkpt lat="44.1332017" lon="12.0614183"><ele>56.0</ele><time>2026-04-16T12:31:47.088Z</time></trkpt><trkpt lat="44.13313" lon="12.061425"><ele>56.0</ele><time>2026-04-16T12:31:48.088Z</time></trkpt><trkpt lat="44.1330617" lon="12.0614333"><ele>56.0</ele><time>2026-04-16T12:31:49.088Z</time></trkpt><trkpt lat="44.1329967" lon="12.06144"><ele>56.199999999999996</ele><time>2026-04-16T12:31:50.088Z</time></trkpt><trkpt lat="44.1329317" lon="12.0614417"><ele>56.39999999999999</ele><time>2026-04-16T12:31:51.088Z</time></trkpt><trkpt lat="44.1328217" lon="12.06145"><ele>56.6</ele><time>2026-04-16T12:31:53.088Z</time></trkpt><trkpt lat="44.1327167" lon="12.0614783"><ele>56.8</ele><time>2026-04-16T12:31:55.088Z</time></trkpt><trkpt lat="44.132655" lon="12.0614983"><ele>57.0</ele><time>2026-04-16T12:31:56.088Z</time></trkpt><trkpt lat="44.13255" lon="12.0615183"><ele>57.0</ele><time>2026-04-16T12:31:58.088Z</time></trkpt><trkpt lat="44.1324333" lon="12.0615283"><ele>57.0</ele><time>2026-04-16T12:32:00.089Z</time></trkpt><trkpt lat="44.1323217" lon="12.0615367"><ele>57.0</ele><time>2026-04-16T12:32:02.088Z</time></trkpt><trkpt lat="44.1322133" lon="12.0615317"><ele>57.0</ele><time>2026-04-16T12:32:04.088Z</time></trkpt><trkpt lat="44.1321067" lon="12.061515"><ele>57.0</ele><time>2026-04-16T12:32:06.088Z</time></trkpt><trkpt lat="44.1320267" lon="12.0614683"><ele>57.6</ele><time>2026-04-16T12:32:08.088Z</time></trkpt><trkpt lat="44.13193" lon="12.061425"><ele>58.2</ele><time>2026-04-16T12:32:10.088Z</time></trkpt><trkpt lat="44.1318617" lon="12.0614067"><ele>58.8</ele><time>2026-04-16T12:32:11.088Z</time></trkpt><trkpt lat="44.1317733" lon="12.0613867"><ele>59.4</ele><time>2026-04-16T12:32:13.088Z</time></trkpt><trkpt lat="44.1317" lon="12.06137"><ele>60.0</ele><time>2026-04-16T12:32:14.088Z</time></trkpt><trkpt lat="44.1315867" lon="12.0613433"><ele>59.57142857142857</ele><time>2026-04-16T12:32:16.088Z</time></trkpt><trkpt lat="44.1315183" lon="12.0613417"><ele>59.14285714285714</ele><time>2026-04-16T12:32:17.088Z</time></trkpt><trkpt lat="44.1314483" lon="12.0613483"><ele>58.71428571428571</ele><time>2026-04-16T12:32:18.088Z</time></trkpt><trkpt lat="44.1313783" lon="12.0613583"><ele>58.285714285714285</ele><time>2026-04-16T12:32:19.088Z</time></trkpt><trkpt lat="44.131285" lon="12.0613767"><ele>57.85714285714285</ele><time>2026-04-16T12:32:20.088Z</time></trkpt><trkpt lat="44.13122" lon="12.0613717"><ele>57.42857142857142</ele><time>2026-04-16T12:32:21.088Z</time></trkpt><trkpt lat="44.1311517" lon="12.0613617"><ele>57.0</ele><time>2026-04-16T12:32:22.088Z</time></trkpt><trkpt lat="44.13108" lon="12.061355"><ele>57.0</ele><time>2026-04-16T12:32:23.088Z</time></trkpt><trkpt lat="44.1309983" lon="12.061345"><ele>57.0</ele><time>2026-04-16T12:32:24.088Z</time></trkpt><trkpt lat="44.1309083" lon="12.061335"><ele>57.0</ele><time>2026-04-16T12:32:25.089Z</time></trkpt><trkpt lat="44.1308433" lon="12.0613183"><ele>57.0</ele><time>2026-04-16T12:32:26.089Z</time></trkpt><trkpt lat="44.130765" lon="12.0613083"><ele>57.0</ele><time>2026-04-16T12:32:27.088Z</time></trkpt><trkpt lat="44.1306883" lon="12.061295"><ele>57.0</ele><time>2026-04-16T12:32:28.088Z</time></trkpt><trkpt lat="44.1305783" lon="12.0612583"><ele>57.2</ele><time>2026-04-16T12:32:30.088Z</time></trkpt><trkpt lat="44.130475" lon="12.061225"><ele>57.400000000000006</ele><time>2026-04-16T12:32:32.088Z</time></trkpt><trkpt lat="44.1303883" lon="12.0611883"><ele>57.599999999999994</ele><time>2026-04-16T12:32:34.088Z</time></trkpt><trkpt lat="44.1303133" lon="12.0611617"><ele>57.8</ele><time>2026-04-16T12:32:35.088Z</time></trkpt><trkpt lat="44.1302017" lon="12.0611067"><ele>58.0</ele><time>2026-04-16T12:32:37.088Z</time></trkpt><trkpt lat="44.1300583" lon="12.0611067"><ele>58.00000000000001</ele><time>2026-04-16T12:32:39.088Z</time></trkpt><trkpt lat="44.1299933" lon="12.061115"><ele>58.0</ele><time>2026-04-16T12:32:40.088Z</time></trkpt><trkpt lat="44.1299283" lon="12.0611267"><ele>58.00000000000001</ele><time>2026-04-16T12:32:41.088Z</time></trkpt><trkpt lat="44.129855" lon="12.0611483"><ele>58.00000000000001</ele><time>2026-04-16T12:32:42.088Z</time></trkpt><trkpt lat="44.1297833" lon="12.0611683"><ele>58.0</ele><time>2026-04-16T12:32:43.088Z</time></trkpt><trkpt lat="44.1297117" lon="12.0611933"><ele>58.00000000000001</ele><time>2026-04-16T12:32:44.088Z</time></trkpt><trkpt lat="44.129645" lon="12.06122"><ele>58.00000000000001</ele><time>2026-04-16T12:32:45.088Z</time></trkpt><trkpt lat="44.1295633" lon="12.0612617"><ele>58.83333333333333</ele><time>2026-04-16T12:32:46.088Z</time></trkpt><trkpt lat="44.1295033" lon="12.0612917"><ele>59.666666666666664</ele><time>2026-04-16T12:32:47.088Z</time></trkpt><trkpt lat="44.1294367" lon="12.0613217"><ele>60.5</ele><time>2026-04-16T12:32:48.088Z</time></trkpt><trkpt lat="44.1293717" lon="12.0613467"><ele>61.33333333333333</ele><time>2026-04-16T12:32:49.088Z</time></trkpt><trkpt lat="44.1292333" lon="12.0614017"><ele>62.166666666666664</ele><time>2026-04-16T12:32:51.088Z</time></trkpt><trkpt lat="44.1291683" lon="12.0613917"><ele>63.0</ele><time>2026-04-16T12:32:52.088Z</time></trkpt><trkpt lat="44.1290867" lon="12.0613933"><ele>63.333333333333336</ele><time>2026-04-16T12:32:53.088Z</time></trkpt><trkpt lat="44.129" lon="12.0613783"><ele>63.66666666666667</ele><time>2026-04-16T12:32:54.088Z</time></trkpt><trkpt lat="44.12892" lon="12.061365"><ele>64.0</ele><time>2026-04-16T12:32:55.088Z</time></trkpt><trkpt lat="44.1288283" lon="12.061365"><ele>64.33333333333334</ele><time>2026-04-16T12:32:56.088Z</time></trkpt><trkpt lat="44.1287633" lon="12.0613533"><ele>64.66666666666667</ele><time>2026-04-16T12:32:57.088Z</time></trkpt><trkpt lat="44.1286967" lon="12.0613383"><ele>65.0</ele><time>2026-04-16T12:32:58.088Z</time></trkpt><trkpt lat="44.1286017" lon="12.0613017"><ele>65.0</ele><time>2026-04-16T12:33:00.088Z</time></trkpt><trkpt lat="44.1285183" lon="12.0612667"><ele>65.0</ele><time>2026-04-16T12:33:02.089Z</time></trkpt><trkpt lat="44.1283817" lon="12.0612167"><ele>65.0</ele><time>2026-04-16T12:33:04.088Z</time></trkpt><trkpt lat="44.1282917" lon="12.0611683"><ele>65.0</ele><time>2026-04-16T12:33:06.088Z</time></trkpt><trkpt lat="44.12821" lon="12.0611133"><ele>65.0</ele><time>2026-04-16T12:33:09.088Z</time></trkpt><trkpt lat="44.1280967" lon="12.0610633"><ele>64.4</ele><time>2026-04-16T12:33:11.088Z</time></trkpt><trkpt lat="44.128035" lon="12.0610417"><ele>63.8</ele><time>2026-04-16T12:33:12.088Z</time></trkpt><trkpt lat="44.1279283" lon="12.06099"><ele>63.2</ele><time>2026-04-16T12:33:14.088Z</time></trkpt><trkpt lat="44.1278333" lon="12.060975"><ele>62.6</ele><time>2026-04-16T12:33:15.088Z</time></trkpt><trkpt lat="44.1277467" lon="12.0609517"><ele>62.0</ele><time>2026-04-16T12:33:16.088Z</time></trkpt><trkpt lat="44.1276467" lon="12.0609067"><ele>62.0</ele><time>2026-04-16T12:33:18.088Z</time></trkpt><trkpt lat="44.127535" lon="12.0608717"><ele>62.0</ele><time>2026-04-16T12:33:20.088Z</time></trkpt><trkpt lat="44.1274383" lon="12.0608433"><ele>62.0</ele><time>2026-04-16T12:33:22.088Z</time></trkpt><trkpt lat="44.12736" lon="12.0608317"><ele>62.0</ele><time>2026-04-16T12:33:24.088Z</time></trkpt><trkpt lat="44.1272533" lon="12.0607533"><ele>62.0</ele><time>2026-04-16T12:33:26.088Z</time></trkpt><trkpt lat="44.1271133" lon="12.06077"><ele>62.00000000000001</ele><time>2026-04-16T12:33:28.088Z</time></trkpt><trkpt lat="44.1270583" lon="12.0608133"><ele>62.0</ele><time>2026-04-16T12:33:29.088Z</time></trkpt><trkpt lat="44.126965" lon="12.0608017"><ele>62.0</ele><time>2026-04-16T12:33:31.088Z</time></trkpt><trkpt lat="44.1268983" lon="12.0607267"><ele>62.0</ele><time>2026-04-16T12:33:33.088Z</time></trkpt><trkpt lat="44.1267883" lon="12.0606783"><ele>62.00000000000001</ele><time>2026-04-16T12:33:35.088Z</time></trkpt><trkpt lat="44.1267" lon="12.0606933"><ele>62.0</ele><time>2026-04-16T12:33:36.088Z</time></trkpt><trkpt lat="44.1266267" lon="12.060695"><ele>62.333333333333336</ele><time>2026-04-16T12:33:37.088Z</time></trkpt><trkpt lat="44.1265567" lon="12.0607"><ele>62.66666666666667</ele><time>2026-04-16T12:33:38.088Z</time></trkpt><trkpt lat="44.12648" lon="12.0607033"><ele>63.0</ele><time>2026-04-16T12:33:39.088Z</time></trkpt><trkpt lat="44.1264067" lon="12.0607067"><ele>63.33333333333333</ele><time>2026-04-16T12:33:40.088Z</time></trkpt><trkpt lat="44.1263017" lon="12.060715"><ele>63.666666666666664</ele><time>2026-04-16T12:33:41.088Z</time></trkpt><trkpt lat="44.1262317" lon="12.0606883"><ele>64.0</ele><time>2026-04-16T12:33:42.088Z</time></trkpt><trkpt lat="44.1261083" lon="12.0606917"><ele>64.0</ele><time>2026-04-16T12:33:44.088Z</time></trkpt><trkpt lat="44.12604" lon="12.0606867"><ele>64.0</ele><time>2026-04-16T12:33:45.088Z</time></trkpt><trkpt lat="44.1259767" lon="12.06068"><ele>64.0</ele><time>2026-04-16T12:33:46.088Z</time></trkpt><trkpt lat="44.125865" lon="12.060675"><ele>64.0</ele><time>2026-04-16T12:33:48.088Z</time></trkpt><trkpt lat="44.1257467" lon="12.0606717"><ele>64.0</ele><time>2026-04-16T12:33:50.089Z</time></trkpt><trkpt lat="44.1256017" lon="12.0606583"><ele>63.800000000000004</ele><time>2026-04-16T12:33:52.088Z</time></trkpt><trkpt lat="44.1255117" lon="12.060655"><ele>63.60000000000001</ele><time>2026-04-16T12:33:53.088Z</time></trkpt><trkpt lat="44.12542" lon="12.0606517"><ele>63.4</ele><time>2026-04-16T12:33:54.088Z</time></trkpt><trkpt lat="44.1253067" lon="12.06063"><ele>63.2</ele><time>2026-04-16T12:33:56.088Z</time></trkpt><trkpt lat="44.12523" lon="12.0606033"><ele>63.0</ele><time>2026-04-16T12:33:57.088Z</time></trkpt><trkpt lat="44.1251183" lon="12.0605717"><ele>63.0</ele><time>2026-04-16T12:33:59.088Z</time></trkpt><trkpt lat="44.1250033" lon="12.06055"><ele>63.0</ele><time>2026-04-16T12:34:01.088Z</time></trkpt><trkpt lat="44.1248967" lon="12.06052"><ele>63.0</ele><time>2026-04-16T12:34:03.089Z</time></trkpt><trkpt lat="44.124815" lon="12.060475"><ele>63.0</ele><time>2026-04-16T12:34:05.088Z</time></trkpt><trkpt lat="44.1247467" lon="12.06045"><ele>63.0</ele><time>2026-04-16T12:34:07.088Z</time></trkpt><trkpt lat="44.1246667" lon="12.0604383"><ele>63.2</ele><time>2026-04-16T12:34:09.088Z</time></trkpt><trkpt lat="44.1245767" lon="12.06044"><ele>63.4</ele><time>2026-04-16T12:34:11.089Z</time></trkpt><trkpt lat="44.12445" lon="12.0604417"><ele>63.60000000000001</ele><time>2026-04-16T12:34:13.088Z</time></trkpt><trkpt lat="44.124385" lon="12.0604467"><ele>63.800000000000004</ele><time>2026-04-16T12:34:14.088Z</time></trkpt><trkpt lat="44.1243183" lon="12.060445"><ele>64.0</ele><time>2026-04-16T12:34:15.088Z</time></trkpt><trkpt lat="44.1241983" lon="12.060425"><ele>64.0</ele><time>2026-04-16T12:34:17.088Z</time></trkpt><trkpt lat="44.124135" lon="12.0604117"><ele>64.0</ele><time>2026-04-16T12:34:18.088Z</time></trkpt><trkpt lat="44.1239917" lon="12.0604267"><ele>64.0</ele><time>2026-04-16T12:34:20.088Z</time></trkpt><trkpt lat="44.1239267" lon="12.0604267"><ele>64.0</ele><time>2026-04-16T12:34:21.088Z</time></trkpt><trkpt lat="44.1238217" lon="12.060425"><ele>64.0</ele><time>2026-04-16T12:34:23.088Z</time></trkpt><trkpt lat="44.1237317" lon="12.0604083"><ele>63.800000000000004</ele><time>2026-04-16T12:34:25.089Z</time></trkpt><trkpt lat="44.1236483" lon="12.0603867"><ele>63.60000000000001</ele><time>2026-04-16T12:34:27.088Z</time></trkpt><trkpt lat="44.1235517" lon="12.0603633"><ele>63.4</ele><time>2026-04-16T12:34:30.088Z</time></trkpt><trkpt lat="44.1234717" lon="12.06035"><ele>63.2</ele><time>2026-04-16T12:34:32.088Z</time></trkpt><trkpt lat="44.1233783" lon="12.0603767"><ele>63.0</ele><time>2026-04-16T12:34:35.088Z</time></trkpt><trkpt lat="44.1232717" lon="12.060395"><ele>63.4</ele><time>2026-04-16T12:34:37.088Z</time></trkpt><trkpt lat="44.123175" lon="12.0604117"><ele>63.8</ele><time>2026-04-16T12:34:39.088Z</time></trkpt><trkpt lat="44.1230633" lon="12.0604183"><ele>64.2</ele><time>2026-04-16T12:34:41.088Z</time></trkpt><trkpt lat="44.1229767" lon="12.060435"><ele>64.6</ele><time>2026-04-16T12:34:43.088Z</time></trkpt><trkpt lat="44.12288" lon="12.0604433"><ele>65.0</ele><time>2026-04-16T12:34:45.088Z</time></trkpt><trkpt lat="44.1227667" lon="12.0604617"><ele>65.0</ele><time>2026-04-16T12:34:47.088Z</time></trkpt><trkpt lat="44.1226583" lon="12.06045"><ele>65.0</ele><time>2026-04-16T12:34:49.088Z</time></trkpt><trkpt lat="44.1225583" lon="12.0604317"><ele>65.0</ele><time>2026-04-16T12:34:51.088Z</time></trkpt><trkpt lat="44.12247" lon="12.0604133"><ele>65.0</ele><time>2026-04-16T12:34:53.088Z</time></trkpt><trkpt lat="44.1223683" lon="12.0604"><ele>65.0</ele><time>2026-04-16T12:34:55.088Z</time></trkpt><trkpt lat="44.122295" lon="12.0603683"><ele>64.16666666666667</ele><time>2026-04-16T12:34:57.088Z</time></trkpt><trkpt lat="44.122225" lon="12.0603333"><ele>63.333333333333336</ele><time>2026-04-16T12:34:59.088Z</time></trkpt><trkpt lat="44.1221467" lon="12.0603217"><ele>62.5</ele><time>2026-04-16T12:35:01.088Z</time></trkpt><trkpt lat="44.1220733" lon="12.0602817"><ele>61.66666666666667</ele><time>2026-04-16T12:35:03.088Z</time></trkpt><trkpt lat="44.1219883" lon="12.0603283"><ele>60.833333333333336</ele><time>2026-04-16T12:35:06.088Z</time></trkpt><trkpt lat="44.12196" lon="12.0604267"><ele>60.0</ele><time>2026-04-16T12:35:08.088Z</time></trkpt><trkpt lat="44.1219067" lon="12.0605567"><ele>60.0</ele><time>2026-04-16T12:35:37.088Z</time></trkpt><trkpt lat="44.121925" lon="12.0606633"><ele>60.0</ele><time>2026-04-16T12:35:42.088Z</time></trkpt><trkpt lat="44.1219083" lon="12.060765"><ele>60.0</ele><time>2026-04-16T12:35:46.088Z</time></trkpt><trkpt lat="44.1218983" lon="12.060855"><ele>60.0</ele><time>2026-04-16T12:35:48.088Z</time></trkpt><trkpt lat="44.121895" lon="12.0609733"><ele>60.0</ele><time>2026-04-16T12:35:50.088Z</time></trkpt><trkpt lat="44.121905" lon="12.0610933"><ele>60.0</ele><time>2026-04-16T12:35:52.088Z</time></trkpt><trkpt lat="44.1219267" lon="12.06123"><ele>59.0</ele><time>2026-04-16T12:35:54.088Z</time></trkpt><trkpt lat="44.1219567" lon="12.0613533"><ele>58.0</ele><time>2026-04-16T12:35:56.088Z</time></trkpt><trkpt lat="44.1218867" lon="12.061435"><ele>57.0</ele><time>2026-04-16T12:35:58.089Z</time></trkpt><trkpt lat="44.1217633" lon="12.0615067"><ele>56.0</ele><time>2026-04-16T12:36:00.088Z</time></trkpt><trkpt lat="44.1216917" lon="12.0615567"><ele>55.0</ele><time>2026-04-16T12:36:01.088Z</time></trkpt><trkpt lat="44.1216317" lon="12.061595"><ele>54.99999999999999</ele><time>2026-04-16T12:36:02.088Z</time></trkpt><trkpt lat="44.1215667" lon="12.0616367"><ele>55.0</ele><time>2026-04-16T12:36:03.088Z</time></trkpt><trkpt lat="44.1214983" lon="12.0616783"><ele>55.0</ele><time>2026-04-16T12:36:04.088Z</time></trkpt><trkpt lat="44.1214267" lon="12.0617183"><ele>55.0</ele><time>2026-04-16T12:36:05.088Z</time></trkpt><trkpt lat="44.121365" lon="12.0617617"><ele>54.99999999999999</ele><time>2026-04-16T12:36:06.089Z</time></trkpt><trkpt lat="44.1213" lon="12.0618033"><ele>55.0</ele><time>2026-04-16T12:36:07.088Z</time></trkpt><trkpt lat="44.1212017" lon="12.0618883"><ele>55.0</ele><time>2026-04-16T12:36:09.088Z</time></trkpt><trkpt lat="44.12111" lon="12.06197"><ele>55.0</ele><time>2026-04-16T12:36:11.088Z</time></trkpt><trkpt lat="44.121015" lon="12.0620617"><ele>55.0</ele><time>2026-04-16T12:36:13.088Z</time></trkpt><trkpt lat="44.120925" lon="12.06216"><ele>55.0</ele><time>2026-04-16T12:36:15.088Z</time></trkpt><trkpt lat="44.1208367" lon="12.0622583"><ele>55.0</ele><time>2026-04-16T12:36:17.088Z</time></trkpt><trkpt lat="44.12076" lon="12.062345"><ele>55.0</ele><time>2026-04-16T12:36:19.088Z</time></trkpt><trkpt lat="44.1206617" lon="12.0624383"><ele>55.0</ele><time>2026-04-16T12:36:21.088Z</time></trkpt><trkpt lat="44.1206067" lon="12.0624883"><ele>55.0</ele><time>2026-04-16T12:36:22.088Z</time></trkpt><trkpt lat="44.1205133" lon="12.06258"><ele>55.0</ele><time>2026-04-16T12:36:24.088Z</time></trkpt><trkpt lat="44.1204417" lon="12.0626583"><ele>55.4</ele><time>2026-04-16T12:36:26.088Z</time></trkpt><trkpt lat="44.1203533" lon="12.0627467"><ele>55.8</ele><time>2026-04-16T12:36:28.088Z</time></trkpt><trkpt lat="44.1202683" lon="12.062835"><ele>56.2</ele><time>2026-04-16T12:36:30.088Z</time></trkpt><trkpt lat="44.1201983" lon="12.06293"><ele>56.6</ele><time>2026-04-16T12:36:32.089Z</time></trkpt><trkpt lat="44.12014" lon="12.0630233"><ele>57.0</ele><time>2026-04-16T12:36:34.088Z</time></trkpt><trkpt lat="44.120105" lon="12.06311"><ele>57.0</ele><time>2026-04-16T12:36:36.088Z</time></trkpt><trkpt lat="44.12005" lon="12.0632167"><ele>57.0</ele><time>2026-04-16T12:36:38.088Z</time></trkpt><trkpt lat="44.1199917" lon="12.06333"><ele>57.0</ele><time>2026-04-16T12:36:40.088Z</time></trkpt><trkpt lat="44.119925" lon="12.063475"><ele>57.0</ele><time>2026-04-16T12:36:42.089Z</time></trkpt><trkpt lat="44.1198817" lon="12.063605"><ele>57.0</ele><time>2026-04-16T12:36:44.088Z</time></trkpt><trkpt lat="44.119845" lon="12.0636817"><ele>57.25</ele><time>2026-04-16T12:36:45.089Z</time></trkpt><trkpt lat="44.1198033" lon="12.0638383"><ele>57.5</ele><time>2026-04-16T12:36:47.088Z</time></trkpt><trkpt lat="44.11975" lon="12.063985"><ele>57.75</ele><time>2026-04-16T12:36:49.088Z</time></trkpt><trkpt lat="44.1196967" lon="12.064135"><ele>58.0</ele><time>2026-04-16T12:36:51.088Z</time></trkpt><trkpt lat="44.1196383" lon="12.0642783"><ele>58.0</ele><time>2026-04-16T12:36:53.088Z</time></trkpt><trkpt lat="44.1195933" lon="12.0644267"><ele>58.0</ele><time>2026-04-16T12:36:55.088Z</time></trkpt><trkpt lat="44.1195517" lon="12.0645633"><ele>58.0</ele><time>2026-04-16T12:36:57.088Z</time></trkpt><trkpt lat="44.11951" lon="12.0647"><ele>58.0</ele><time>2026-04-16T12:36:59.089Z</time></trkpt><trkpt lat="44.1194667" lon="12.0648383"><ele>58.0</ele><time>2026-04-16T12:37:01.088Z</time></trkpt><trkpt lat="44.119405" lon="12.0649783"><ele>58.4</ele><time>2026-04-16T12:37:03.089Z</time></trkpt><trkpt lat="44.119345" lon="12.0651233"><ele>58.8</ele><time>2026-04-16T12:37:05.088Z</time></trkpt><trkpt lat="44.1193183" lon="12.06521"><ele>59.2</ele><time>2026-04-16T12:37:06.088Z</time></trkpt><trkpt lat="44.1192717" lon="12.0653633"><ele>59.6</ele><time>2026-04-16T12:37:08.088Z</time></trkpt><trkpt lat="44.1192417" lon="12.0654433"><ele>60.0</ele><time>2026-04-16T12:37:09.088Z</time></trkpt><trkpt lat="44.1191983" lon="12.0655867"><ele>60.0</ele><time>2026-04-16T12:37:11.088Z</time></trkpt><trkpt lat="44.1191633" lon="12.0657267"><ele>60.0</ele><time>2026-04-16T12:37:13.088Z</time></trkpt><trkpt lat="44.1191183" lon="12.0658733"><ele>60.0</ele><time>2026-04-16T12:37:15.088Z</time></trkpt><trkpt lat="44.1190717" lon="12.0660167"><ele>60.0</ele><time>2026-04-16T12:37:17.088Z</time></trkpt><trkpt lat="44.1190267" lon="12.0661633"><ele>60.0</ele><time>2026-04-16T12:37:19.088Z</time></trkpt><trkpt lat="44.1189933" lon="12.06624"><ele>60.0</ele><time>2026-04-16T12:37:20.088Z</time></trkpt><trkpt lat="44.1189417" lon="12.0663867"><ele>60.0</ele><time>2026-04-16T12:37:22.088Z</time></trkpt><trkpt lat="44.118915" lon="12.0664667"><ele>60.0</ele><time>2026-04-16T12:37:23.088Z</time></trkpt><trkpt lat="44.1188833" lon="12.0665467"><ele>60.0</ele><time>2026-04-16T12:37:24.088Z</time></trkpt><trkpt lat="44.11885" lon="12.0666217"><ele>60.0</ele><time>2026-04-16T12:37:25.088Z</time></trkpt><trkpt lat="44.118815" lon="12.0666967"><ele>60.0</ele><time>2026-04-16T12:37:26.089Z</time></trkpt><trkpt lat="44.1187667" lon="12.0668333"><ele>60.0</ele><time>2026-04-16T12:37:28.088Z</time></trkpt><trkpt lat="44.1187017" lon="12.066965"><ele>60.0</ele><time>2026-04-16T12:37:30.088Z</time></trkpt><trkpt lat="44.1186267" lon="12.06708"><ele>60.0</ele><time>2026-04-16T12:37:32.088Z</time></trkpt><trkpt lat="44.118565" lon="12.0672017"><ele>60.0</ele><time>2026-04-16T12:37:34.088Z</time></trkpt><trkpt lat="44.118505" lon="12.0673217"><ele>60.0</ele><time>2026-04-16T12:37:36.088Z</time></trkpt><trkpt lat="44.1184433" lon="12.0674217"><ele>60.2</ele><time>2026-04-16T12:37:38.089Z</time></trkpt><trkpt lat="44.11838" lon="12.0675067"><ele>60.4</ele><time>2026-04-16T12:37:40.088Z</time></trkpt><trkpt lat="44.1182933" lon="12.0675933"><ele>60.599999999999994</ele><time>2026-04-16T12:37:42.088Z</time></trkpt><trkpt lat="44.1182083" lon="12.067665"><ele>60.8</ele><time>2026-04-16T12:37:44.088Z</time></trkpt><trkpt lat="44.1181483" lon="12.0677267"><ele>61.0</ele><time>2026-04-16T12:37:46.088Z</time></trkpt><trkpt lat="44.1180567" lon="12.0677917"><ele>60.99999999999999</ele><time>2026-04-16T12:37:49.088Z</time></trkpt><trkpt lat="44.1179917" lon="12.067855"><ele>61.0</ele><time>2026-04-16T12:37:51.089Z</time></trkpt><trkpt lat="44.1179283" lon="12.0679383"><ele>61.0</ele><time>2026-04-16T12:37:54.088Z</time></trkpt><trkpt lat="44.1178517" lon="12.0680233"><ele>61.0</ele><time>2026-04-16T12:37:57.088Z</time></trkpt><trkpt lat="44.1177817" lon="12.068105"><ele>60.99999999999999</ele><time>2026-04-16T12:38:00.088Z</time></trkpt><trkpt lat="44.11771" lon="12.0681633"><ele>61.0</ele><time>2026-04-16T12:38:02.088Z</time></trkpt><trkpt lat="44.1176533" lon="12.0682167"><ele>61.8</ele><time>2026-04-16T12:38:04.088Z</time></trkpt><trkpt lat="44.1175733" lon="12.068285"><ele>62.599999999999994</ele><time>2026-04-16T12:38:07.088Z</time></trkpt><trkpt lat="44.117485" lon="12.0683467"><ele>63.4</ele><time>2026-04-16T12:38:09.088Z</time></trkpt><trkpt lat="44.1174" lon="12.0684133"><ele>64.2</ele><time>2026-04-16T12:38:11.088Z</time></trkpt><trkpt lat="44.1173283" lon="12.0684683"><ele>65.0</ele><time>2026-04-16T12:38:13.088Z</time></trkpt><trkpt lat="44.1172583" lon="12.0685267"><ele>65.0</ele><time>2026-04-16T12:38:15.089Z</time></trkpt><trkpt lat="44.117195" lon="12.0685767"><ele>65.0</ele><time>2026-04-16T12:38:17.088Z</time></trkpt><trkpt lat="44.11712" lon="12.06863"><ele>65.0</ele><time>2026-04-16T12:38:19.088Z</time></trkpt><trkpt lat="44.1170317" lon="12.0686833"><ele>65.0</ele><time>2026-04-16T12:38:21.088Z</time></trkpt><trkpt lat="44.116945" lon="12.0687383"><ele>65.0</ele><time>2026-04-16T12:38:23.088Z</time></trkpt><trkpt lat="44.116855" lon="12.0687867"><ele>65.0</ele><time>2026-04-16T12:38:25.088Z</time></trkpt><trkpt lat="44.1167533" lon="12.068835"><ele>65.0</ele><time>2026-04-16T12:38:27.088Z</time></trkpt><trkpt lat="44.1166717" lon="12.0688717"><ele>65.0</ele><time>2026-04-16T12:38:29.088Z</time></trkpt><trkpt lat="44.1165883" lon="12.0689067"><ele>65.0</ele><time>2026-04-16T12:38:32.088Z</time></trkpt><trkpt lat="44.11653" lon="12.0689517"><ele>65.0</ele><time>2026-04-16T12:38:35.088Z</time></trkpt><trkpt lat="44.116455" lon="12.0689983"><ele>65.0</ele><time>2026-04-16T12:38:38.088Z</time></trkpt><trkpt lat="44.116385" lon="12.0690383"><ele>65.0</ele><time>2026-04-16T12:38:41.088Z</time></trkpt><trkpt lat="44.1163133" lon="12.069075"><ele>66.83333333333334</ele><time>2026-04-16T12:38:44.089Z</time></trkpt><trkpt lat="44.11625" lon="12.06912"><ele>68.66666666666667</ele><time>2026-04-16T12:38:46.088Z</time></trkpt><trkpt lat="44.116185" lon="12.0691583"><ele>70.5</ele><time>2026-04-16T12:38:48.088Z</time></trkpt><trkpt lat="44.1161117" lon="12.0692167"><ele>72.33333333333333</ele><time>2026-04-16T12:38:51.088Z</time></trkpt><trkpt lat="44.11605" lon="12.0692433"><ele>74.16666666666666</ele><time>2026-04-16T12:38:54.088Z</time></trkpt><trkpt lat="44.1159783" lon="12.069285"><ele>76.0</ele><time>2026-04-16T12:38:58.088Z</time></trkpt><trkpt lat="44.11584" lon="12.06933"><ele>76.0</ele><time>2026-04-16T12:39:05.088Z</time></trkpt><trkpt lat="44.1157717" lon="12.069355"><ele>76.0</ele><time>2026-04-16T12:39:07.088Z</time></trkpt><trkpt lat="44.1156917" lon="12.0693867"><ele>76.0</ele><time>2026-04-16T12:39:09.088Z</time></trkpt><trkpt lat="44.1156233" lon="12.06942"><ele>76.0</ele><time>2026-04-16T12:39:11.088Z</time></trkpt><trkpt lat="44.1155333" lon="12.069465"><ele>76.0</ele><time>2026-04-16T12:39:14.089Z</time></trkpt><trkpt lat="44.1154717" lon="12.0694933"><ele>76.0</ele><time>2026-04-16T12:39:16.088Z</time></trkpt><trkpt lat="44.1154133" lon="12.0695333"><ele>75.57142857142857</ele><time>2026-04-16T12:39:18.089Z</time></trkpt><trkpt lat="44.1153533" lon="12.0695667"><ele>75.14285714285715</ele><time>2026-04-16T12:39:20.088Z</time></trkpt><trkpt lat="44.1152933" lon="12.0695933"><ele>74.71428571428572</ele><time>2026-04-16T12:39:22.088Z</time></trkpt><trkpt lat="44.1152333" lon="12.06962"><ele>74.28571428571428</ele><time>2026-04-16T12:39:25.088Z</time></trkpt><trkpt lat="44.1151617" lon="12.069655"><ele>73.85714285714286</ele><time>2026-04-16T12:39:28.089Z</time></trkpt><trkpt lat="44.1150967" lon="12.0697"><ele>73.42857142857143</ele><time>2026-04-16T12:39:32.088Z</time></trkpt><trkpt lat="44.1150367" lon="12.0697683"><ele>73.0</ele><time>2026-04-16T12:39:35.089Z</time></trkpt><trkpt lat="44.1149667" lon="12.0698367"><ele>73.0</ele><time>2026-04-16T12:39:39.089Z</time></trkpt><trkpt lat="44.114905" lon="12.0698883"><ele>73.0</ele><time>2026-04-16T12:39:43.088Z</time></trkpt><trkpt lat="44.1148467" lon="12.0699317"><ele>73.0</ele><time>2026-04-16T12:39:46.088Z</time></trkpt><trkpt lat="44.1147783" lon="12.0699983"><ele>73.0</ele><time>2026-04-16T12:39:50.089Z</time></trkpt><trkpt lat="44.114695" lon="12.07004"><ele>73.0</ele><time>2026-04-16T12:39:53.088Z</time></trkpt><trkpt lat="44.114635" lon="12.0700717"><ele>73.0</ele><time>2026-04-16T12:39:55.088Z</time></trkpt><trkpt lat="44.11455" lon="12.0701033"><ele>75.33333333333333</ele><time>2026-04-16T12:39:58.088Z</time></trkpt><trkpt lat="44.1144767" lon="12.070145"><ele>77.66666666666666</ele><time>2026-04-16T12:40:01.088Z</time></trkpt><trkpt lat="44.1144017" lon="12.0701967"><ele>80.0</ele><time>2026-04-16T12:40:04.088Z</time></trkpt><trkpt lat="44.1143417" lon="12.0702617"><ele>82.33333333333333</ele><time>2026-04-16T12:40:09.088Z</time></trkpt><trkpt lat="44.1142617" lon="12.07031"><ele>84.66666666666667</ele><time>2026-04-16T12:40:12.088Z</time></trkpt><trkpt lat="44.1141967" lon="12.07035"><ele>87.0</ele><time>2026-04-16T12:40:14.088Z</time></trkpt><trkpt lat="44.11413" lon="12.0704017"><ele>87.0</ele><time>2026-04-16T12:40:16.088Z</time></trkpt><trkpt lat="44.1140433" lon="12.070445"><ele>87.0</ele><time>2026-04-16T12:40:19.088Z</time></trkpt><trkpt lat="44.1139733" lon="12.070475"><ele>87.0</ele><time>2026-04-16T12:40:22.088Z</time></trkpt><trkpt lat="44.1139167" lon="12.07052"><ele>87.0</ele><time>2026-04-16T12:40:25.088Z</time></trkpt><trkpt lat="44.11385" lon="12.07056"><ele>87.0</ele><time>2026-04-16T12:40:29.088Z</time></trkpt><trkpt lat="44.113795" lon="12.0706133"><ele>87.0</ele><time>2026-04-16T12:40:32.088Z</time></trkpt><trkpt lat="44.1137233" lon="12.070665"><ele>87.0</ele><time>2026-04-16T12:40:35.088Z</time></trkpt><trkpt lat="44.113645" lon="12.070685"><ele>87.0</ele><time>2026-04-16T12:40:39.088Z</time></trkpt><trkpt lat="44.1135633" lon="12.0707"><ele>87.0</ele><time>2026-04-16T12:40:42.088Z</time></trkpt><trkpt lat="44.1134883" lon="12.0707083"><ele>87.0</ele><time>2026-04-16T12:40:45.088Z</time></trkpt><trkpt lat="44.1134233" lon="12.07072"><ele>87.0</ele><time>2026-04-16T12:40:47.088Z</time></trkpt><trkpt lat="44.1133533" lon="12.070725"><ele>87.0</ele><time>2026-04-16T12:40:49.088Z</time></trkpt><trkpt lat="44.1132683" lon="12.0707283"><ele>87.0</ele><time>2026-04-16T12:40:52.088Z</time></trkpt><trkpt lat="44.1131767" lon="12.0707417"><ele>87.0</ele><time>2026-04-16T12:40:55.089Z</time></trkpt><trkpt lat="44.1131117" lon="12.0707517"><ele>87.0</ele><time>2026-04-16T12:40:57.088Z</time></trkpt><trkpt lat="44.1130283" lon="12.07077"><ele>87.0</ele><time>2026-04-16T12:41:00.088Z</time></trkpt><trkpt lat="44.1129533" lon="12.0707817"><ele>87.0</ele><time>2026-04-16T12:41:03.088Z</time></trkpt><trkpt lat="44.1128783" lon="12.070765"><ele>87.0</ele><time>2026-04-16T12:41:06.088Z</time></trkpt><trkpt lat="44.1128033" lon="12.0707267"><ele>87.0</ele><time>2026-04-16T12:41:10.089Z</time></trkpt><trkpt lat="44.11272" lon="12.070695"><ele>87.0</ele><time>2026-04-16T12:41:13.088Z</time></trkpt><trkpt lat="44.11263" lon="12.0706733"><ele>87.0</ele><time>2026-04-16T12:41:16.088Z</time></trkpt><trkpt lat="44.1125483" lon="12.0706667"><ele>87.0</ele><time>2026-04-16T12:41:19.088Z</time></trkpt><trkpt lat="44.112465" lon="12.0706583"><ele>87.0</ele><time>2026-04-16T12:41:22.088Z</time></trkpt><trkpt lat="44.112385" lon="12.0706667"><ele>87.0</ele><time>2026-04-16T12:41:27.088Z</time></trkpt><trkpt lat="44.1123033" lon="12.0706983"><ele>87.5</ele><time>2026-04-16T12:41:31.088Z</time></trkpt><trkpt lat="44.1122133" lon="12.0707333"><ele>88.0</ele><time>2026-04-16T12:41:34.088Z</time></trkpt><trkpt lat="44.1121467" lon="12.0707617"><ele>88.5</ele><time>2026-04-16T12:41:37.088Z</time></trkpt><trkpt lat="44.112075" lon="12.0707917"><ele>89.0</ele><time>2026-04-16T12:41:40.089Z</time></trkpt><trkpt lat="44.112" lon="12.0708067"><ele>89.5</ele><time>2026-04-16T12:41:42.088Z</time></trkpt><trkpt lat="44.1119133" lon="12.0708417"><ele>90.0</ele><time>2026-04-16T12:41:45.088Z</time></trkpt><trkpt lat="44.1118317" lon="12.070855"><ele>91.5</ele><time>2026-04-16T12:41:48.088Z</time></trkpt><trkpt lat="44.11176" lon="12.07086"><ele>93.0</ele><time>2026-04-16T12:41:50.088Z</time></trkpt><trkpt lat="44.1116783" lon="12.0708667"><ele>94.5</ele><time>2026-04-16T12:41:53.088Z</time></trkpt><trkpt lat="44.1116" lon="12.0708883"><ele>96.0</ele><time>2026-04-16T12:41:56.088Z</time></trkpt><trkpt lat="44.1115367" lon="12.0709267"><ele>97.5</ele><time>2026-04-16T12:41:59.088Z</time></trkpt><trkpt lat="44.1114533" lon="12.0709783"><ele>99.0</ele><time>2026-04-16T12:42:02.088Z</time></trkpt><trkpt lat="44.1113917" lon="12.07102"><ele>99.0</ele><time>2026-04-16T12:42:04.088Z</time></trkpt><trkpt lat="44.1113317" lon="12.071085"><ele>99.0</ele><time>2026-04-16T12:42:07.088Z</time></trkpt><trkpt lat="44.1112783" lon="12.0711383"><ele>99.0</ele><time>2026-04-16T12:42:09.088Z</time></trkpt><trkpt lat="44.1111983" lon="12.07123"><ele>99.0</ele><time>2026-04-16T12:42:12.088Z</time></trkpt><trkpt lat="44.111125" lon="12.07128"><ele>99.0</ele><time>2026-04-16T12:42:14.088Z</time></trkpt><trkpt lat="44.1110683" lon="12.0713333"><ele>99.0</ele><time>2026-04-16T12:42:16.088Z</time></trkpt><trkpt lat="44.1110133" lon="12.0713783"><ele>99.0</ele><time>2026-04-16T12:42:18.088Z</time></trkpt><trkpt lat="44.1109583" lon="12.0714233"><ele>99.0</ele><time>2026-04-16T12:42:20.088Z</time></trkpt><trkpt lat="44.1109083" lon="12.0714767"><ele>99.0</ele><time>2026-04-16T12:42:22.088Z</time></trkpt><trkpt lat="44.1108433" lon="12.0715533"><ele>99.0</ele><time>2026-04-16T12:42:25.088Z</time></trkpt><trkpt lat="44.11079" lon="12.0716083"><ele>99.0</ele><time>2026-04-16T12:42:28.088Z</time></trkpt><trkpt lat="44.11073" lon="12.0716917"><ele>99.0</ele><time>2026-04-16T12:42:31.089Z</time></trkpt><trkpt lat="44.1106567" lon="12.0717783"><ele>99.83333333333333</ele><time>2026-04-16T12:42:34.088Z</time></trkpt><trkpt lat="44.1106117" lon="12.0718433"><ele>100.66666666666666</ele><time>2026-04-16T12:42:36.089Z</time></trkpt><trkpt lat="44.1105633" lon="12.0719233"><ele>101.5</ele><time>2026-04-16T12:42:38.088Z</time></trkpt><trkpt lat="44.1104983" lon="12.072005"><ele>102.33333333333333</ele><time>2026-04-16T12:42:40.088Z</time></trkpt><trkpt lat="44.1104283" lon="12.072095"><ele>103.16666666666666</ele><time>2026-04-16T12:42:42.088Z</time></trkpt><trkpt lat="44.11033" lon="12.0721783"><ele>104.0</ele><time>2026-04-16T12:42:44.088Z</time></trkpt><trkpt lat="44.1102417" lon="12.072265"><ele>104.0</ele><time>2026-04-16T12:42:46.088Z</time></trkpt><trkpt lat="44.1101567" lon="12.0723483"><ele>104.0</ele><time>2026-04-16T12:42:48.089Z</time></trkpt><trkpt lat="44.1100783" lon="12.0724283"><ele>104.0</ele><time>2026-04-16T12:42:50.088Z</time></trkpt><trkpt lat="44.10999" lon="12.0725067"><ele>104.0</ele><time>2026-04-16T12:42:52.088Z</time></trkpt><trkpt lat="44.1099217" lon="12.0725967"><ele>104.0</ele><time>2026-04-16T12:42:54.088Z</time></trkpt><trkpt lat="44.1098583" lon="12.07268"><ele>104.0</ele><time>2026-04-16T12:42:56.088Z</time></trkpt><trkpt lat="44.109785" lon="12.0727783"><ele>104.0</ele><time>2026-04-16T12:42:58.088Z</time></trkpt><trkpt lat="44.1097067" lon="12.0728617"><ele>104.0</ele><time>2026-04-16T12:43:00.089Z</time></trkpt><trkpt lat="44.109635" lon="12.0729433"><ele>104.0</ele><time>2026-04-16T12:43:02.088Z</time></trkpt><trkpt lat="44.10957" lon="12.0730183"><ele>104.0</ele><time>2026-04-16T12:43:04.088Z</time></trkpt><trkpt lat="44.10951" lon="12.07309"><ele>103.99999999999999</ele><time>2026-04-16T12:43:06.088Z</time></trkpt><trkpt lat="44.1094533" lon="12.073155"><ele>104.0</ele><time>2026-04-16T12:43:08.088Z</time></trkpt><trkpt lat="44.1093883" lon="12.0732333"><ele>104.0</ele><time>2026-04-16T12:43:10.088Z</time></trkpt><trkpt lat="44.1093083" lon="12.073305"><ele>104.0</ele><time>2026-04-16T12:43:12.088Z</time></trkpt><trkpt lat="44.1092483" lon="12.07338"><ele>103.99999999999999</ele><time>2026-04-16T12:43:14.088Z</time></trkpt><trkpt lat="44.1091983" lon="12.073445"><ele>104.0</ele><time>2026-04-16T12:43:16.088Z</time></trkpt><trkpt lat="44.109135" lon="12.0735167"><ele>105.16666666666666</ele><time>2026-04-16T12:43:18.088Z</time></trkpt><trkpt lat="44.1090683" lon="12.0735683"><ele>106.33333333333333</ele><time>2026-04-16T12:43:20.088Z</time></trkpt><trkpt lat="44.109005" lon="12.07361"><ele>107.5</ele><time>2026-04-16T12:43:22.088Z</time></trkpt><trkpt lat="44.1089183" lon="12.0736417"><ele>108.66666666666666</ele><time>2026-04-16T12:43:24.088Z</time></trkpt><trkpt lat="44.108815" lon="12.0736617"><ele>109.83333333333333</ele><time>2026-04-16T12:43:26.088Z</time></trkpt><trkpt lat="44.10872" lon="12.07369"><ele>111.0</ele><time>2026-04-16T12:43:28.088Z</time></trkpt><trkpt lat="44.1086317" lon="12.0737067"><ele>111.0</ele><time>2026-04-16T12:43:30.088Z</time></trkpt><trkpt lat="44.1085483" lon="12.0737167"><ele>111.0</ele><time>2026-04-16T12:43:32.088Z</time></trkpt><trkpt lat="44.1084683" lon="12.0737233"><ele>111.0</ele><time>2026-04-16T12:43:34.088Z</time></trkpt><trkpt lat="44.1083883" lon="12.0737417"><ele>111.0</ele><time>2026-04-16T12:43:36.089Z</time></trkpt><trkpt lat="44.10831" lon="12.0737583"><ele>111.0</ele><time>2026-04-16T12:43:38.088Z</time></trkpt><trkpt lat="44.1082167" lon="12.0737817"><ele>111.0</ele><time>2026-04-16T12:43:40.088Z</time></trkpt><trkpt lat="44.1081217" lon="12.0738"><ele>110.5</ele><time>2026-04-16T12:43:42.088Z</time></trkpt><trkpt lat="44.1080383" lon="12.0738217"><ele>110.0</ele><time>2026-04-16T12:43:44.088Z</time></trkpt><trkpt lat="44.1079633" lon="12.073835"><ele>109.5</ele><time>2026-04-16T12:43:46.088Z</time></trkpt><trkpt lat="44.1078867" lon="12.0738583"><ele>109.0</ele><time>2026-04-16T12:43:48.088Z</time></trkpt><trkpt lat="44.1078283" lon="12.0738933"><ele>108.5</ele><time>2026-04-16T12:43:50.088Z</time></trkpt><trkpt lat="44.107765" lon="12.07392"><ele>108.0</ele><time>2026-04-16T12:43:52.088Z</time></trkpt><trkpt lat="44.1076783" lon="12.07397"><ele>108.0</ele><time>2026-04-16T12:43:55.088Z</time></trkpt><trkpt lat="44.1075933" lon="12.07401"><ele>108.0</ele><time>2026-04-16T12:43:58.088Z</time></trkpt><trkpt lat="44.107525" lon="12.0740317"><ele>108.0</ele><time>2026-04-16T12:44:00.088Z</time></trkpt><trkpt lat="44.10746" lon="12.0740467"><ele>108.0</ele><time>2026-04-16T12:44:02.088Z</time></trkpt><trkpt lat="44.1073583" lon="12.0740583"><ele>108.0</ele><time>2026-04-16T12:44:05.088Z</time></trkpt><trkpt lat="44.1072617" lon="12.0740767"><ele>108.0</ele><time>2026-04-16T12:44:08.088Z</time></trkpt><trkpt lat="44.107185" lon="12.0741017"><ele>110.0</ele><time>2026-04-16T12:44:10.088Z</time></trkpt><trkpt lat="44.1071017" lon="12.0741383"><ele>112.0</ele><time>2026-04-16T12:44:12.089Z</time></trkpt><trkpt lat="44.1070333" lon="12.07416"><ele>114.0</ele><time>2026-04-16T12:44:14.088Z</time></trkpt><trkpt lat="44.1069467" lon="12.0741933"><ele>116.0</ele><time>2026-04-16T12:44:17.088Z</time></trkpt><trkpt lat="44.106865" lon="12.07423"><ele>118.0</ele><time>2026-04-16T12:44:20.088Z</time></trkpt><trkpt lat="44.1068067" lon="12.0742933"><ele>120.0</ele><time>2026-04-16T12:44:23.088Z</time></trkpt><trkpt lat="44.1067417" lon="12.074365"><ele>120.0</ele><time>2026-04-16T12:44:26.088Z</time></trkpt><trkpt lat="44.1066683" lon="12.0744417"><ele>120.0</ele><time>2026-04-16T12:44:29.088Z</time></trkpt><trkpt lat="44.10661" lon="12.0745017"><ele>120.0</ele><time>2026-04-16T12:44:31.088Z</time></trkpt><trkpt lat="44.1065383" lon="12.0745783"><ele>120.0</ele><time>2026-04-16T12:44:33.088Z</time></trkpt><trkpt lat="44.1064733" lon="12.07466"><ele>120.0</ele><time>2026-04-16T12:44:35.088Z</time></trkpt><trkpt lat="44.1064" lon="12.0747533"><ele>120.0</ele><time>2026-04-16T12:44:38.088Z</time></trkpt><trkpt lat="44.1063517" lon="12.0748183"><ele>120.57142857142858</ele><time>2026-04-16T12:44:40.088Z</time></trkpt><trkpt lat="44.1063067" lon="12.0748883"><ele>121.14285714285714</ele><time>2026-04-16T12:44:42.088Z</time></trkpt><trkpt lat="44.1062667" lon="12.0749567"><ele>121.71428571428572</ele><time>2026-04-16T12:44:44.088Z</time></trkpt><trkpt lat="44.1062167" lon="12.07506"><ele>122.28571428571429</ele><time>2026-04-16T12:44:47.088Z</time></trkpt><trkpt lat="44.1061817" lon="12.075135"><ele>122.85714285714286</ele><time>2026-04-16T12:44:49.088Z</time></trkpt><trkpt lat="44.106135" lon="12.07521"><ele>123.42857142857143</ele><time>2026-04-16T12:44:51.088Z</time></trkpt><trkpt lat="44.10607" lon="12.0752917"><ele>124.0</ele><time>2026-04-16T12:44:53.088Z</time></trkpt><trkpt lat="44.1060083" lon="12.0753867"><ele>124.00000000000001</ele><time>2026-04-16T12:44:55.088Z</time></trkpt><trkpt lat="44.1059367" lon="12.0754767"><ele>124.0</ele><time>2026-04-16T12:44:57.088Z</time></trkpt><trkpt lat="44.1058717" lon="12.07556"><ele>124.0</ele><time>2026-04-16T12:44:59.088Z</time></trkpt><trkpt lat="44.1058167" lon="12.07565"><ele>124.0</ele><time>2026-04-16T12:45:01.088Z</time></trkpt><trkpt lat="44.105755" lon="12.0757467"><ele>124.00000000000001</ele><time>2026-04-16T12:45:03.088Z</time></trkpt><trkpt lat="44.1056917" lon="12.0758283"><ele>124.0</ele><time>2026-04-16T12:45:05.088Z</time></trkpt><trkpt lat="44.10563" lon="12.0759267"><ele>123.33333333333334</ele><time>2026-04-16T12:45:07.088Z</time></trkpt><trkpt lat="44.105575" lon="12.0760233"><ele>122.66666666666667</ele><time>2026-04-16T12:45:09.088Z</time></trkpt><trkpt lat="44.1055367" lon="12.076125"><ele>122.0</ele><time>2026-04-16T12:45:11.088Z</time></trkpt><trkpt lat="44.1055133" lon="12.0762283"><ele>121.33333333333334</ele><time>2026-04-16T12:45:13.088Z</time></trkpt><trkpt lat="44.1055017" lon="12.07634"><ele>120.66666666666667</ele><time>2026-04-16T12:45:15.088Z</time></trkpt><trkpt lat="44.1054867" lon="12.07644"><ele>120.0</ele><time>2026-04-16T12:45:17.088Z</time></trkpt><trkpt lat="44.1054817" lon="12.0765317"><ele>120.33333333333333</ele><time>2026-04-16T12:45:19.088Z</time></trkpt><trkpt lat="44.1054817" lon="12.0766333"><ele>120.66666666666666</ele><time>2026-04-16T12:45:21.088Z</time></trkpt><trkpt lat="44.105495" lon="12.0767467"><ele>121.0</ele><time>2026-04-16T12:45:23.088Z</time></trkpt><trkpt lat="44.10551" lon="12.0768667"><ele>121.33333333333333</ele><time>2026-04-16T12:45:25.088Z</time></trkpt><trkpt lat="44.1055217" lon="12.0769933"><ele>121.66666666666666</ele><time>2026-04-16T12:45:27.088Z</time></trkpt><trkpt lat="44.1055267" lon="12.0770933"><ele>122.0</ele><time>2026-04-16T12:45:29.088Z</time></trkpt><trkpt lat="44.105525" lon="12.077195"><ele>121.99999999999999</ele><time>2026-04-16T12:45:31.088Z</time></trkpt><trkpt lat="44.1055167" lon="12.0772833"><ele>122.0</ele><time>2026-04-16T12:45:33.088Z</time></trkpt><trkpt lat="44.1055133" lon="12.0773833"><ele>121.99999999999999</ele><time>2026-04-16T12:45:35.088Z</time></trkpt><trkpt lat="44.1055" lon="12.0774717"><ele>121.99999999999999</ele><time>2026-04-16T12:45:37.088Z</time></trkpt><trkpt lat="44.1054717" lon="12.077565"><ele>122.0</ele><time>2026-04-16T12:45:39.089Z</time></trkpt><trkpt lat="44.1054267" lon="12.077645"><ele>121.99999999999999</ele><time>2026-04-16T12:45:41.089Z</time></trkpt><trkpt lat="44.1053817" lon="12.07773"><ele>121.99999999999999</ele><time>2026-04-16T12:45:43.088Z</time></trkpt><trkpt lat="44.10532" lon="12.0777983"><ele>122.8</ele><time>2026-04-16T12:45:45.088Z</time></trkpt><trkpt lat="44.1052583" lon="12.077845"><ele>123.6</ele><time>2026-04-16T12:45:47.088Z</time></trkpt><trkpt lat="44.1051783" lon="12.0779017"><ele>124.39999999999999</ele><time>2026-04-16T12:45:49.089Z</time></trkpt><trkpt lat="44.1050667" lon="12.077965"><ele>125.19999999999999</ele><time>2026-04-16T12:45:51.088Z</time></trkpt><trkpt lat="44.10496" lon="12.0780217"><ele>126.0</ele><time>2026-04-16T12:45:53.089Z</time></trkpt><trkpt lat="44.10487" lon="12.07809"><ele>125.66666666666667</ele><time>2026-04-16T12:45:55.088Z</time></trkpt><trkpt lat="44.1048117" lon="12.0781333"><ele>125.33333333333334</ele><time>2026-04-16T12:45:56.088Z</time></trkpt><trkpt lat="44.1047067" lon="12.0782017"><ele>125.0</ele><time>2026-04-16T12:45:58.088Z</time></trkpt><trkpt lat="44.104645" lon="12.07824"><ele>124.66666666666667</ele><time>2026-04-16T12:45:59.088Z</time></trkpt><trkpt lat="44.1045733" lon="12.0782767"><ele>124.33333333333334</ele><time>2026-04-16T12:46:00.088Z</time></trkpt><trkpt lat="44.1045083" lon="12.0783233"><ele>124.0</ele><time>2026-04-16T12:46:01.088Z</time></trkpt><trkpt lat="44.1044333" lon="12.07837"><ele>124.00000000000001</ele><time>2026-04-16T12:46:02.088Z</time></trkpt><trkpt lat="44.1043633" lon="12.0784267"><ele>124.0</ele><time>2026-04-16T12:46:03.088Z</time></trkpt><trkpt lat="44.1042967" lon="12.0784933"><ele>124.0</ele><time>2026-04-16T12:46:04.088Z</time></trkpt><trkpt lat="44.10423" lon="12.0785767"><ele>124.0</ele><time>2026-04-16T12:46:05.088Z</time></trkpt><trkpt lat="44.104175" lon="12.07866"><ele>124.00000000000001</ele><time>2026-04-16T12:46:06.088Z</time></trkpt><trkpt lat="44.1041283" lon="12.0787517"><ele>124.0</ele><time>2026-04-16T12:46:07.088Z</time></trkpt><trkpt lat="44.1041083" lon="12.0788533"><ele>124.0</ele><time>2026-04-16T12:46:08.088Z</time></trkpt><trkpt lat="44.104105" lon="12.078955"><ele>124.00000000000001</ele><time>2026-04-16T12:46:09.088Z</time></trkpt><trkpt lat="44.1041067" lon="12.07906"><ele>124.0</ele><time>2026-04-16T12:46:10.088Z</time></trkpt><trkpt lat="44.1041067" lon="12.0791717"><ele>124.0</ele><time>2026-04-16T12:46:11.088Z</time></trkpt><trkpt lat="44.1041083" lon="12.0792717"><ele>124.00000000000001</ele><time>2026-04-16T12:46:12.088Z</time></trkpt><trkpt lat="44.104105" lon="12.0793733"><ele>124.0</ele><time>2026-04-16T12:46:13.088Z</time></trkpt><trkpt lat="44.1040917" lon="12.079475"><ele>124.0</ele><time>2026-04-16T12:46:14.088Z</time></trkpt><trkpt lat="44.10406" lon="12.0795683"><ele>123.71428571428572</ele><time>2026-04-16T12:46:15.088Z</time></trkpt><trkpt lat="44.1040283" lon="12.0796483"><ele>123.42857142857144</ele><time>2026-04-16T12:46:16.088Z</time></trkpt><trkpt lat="44.1039633" lon="12.0796717"><ele>123.14285714285714</ele><time>2026-04-16T12:46:17.088Z</time></trkpt><trkpt lat="44.1038833" lon="12.079665"><ele>122.85714285714286</ele><time>2026-04-16T12:46:18.088Z</time></trkpt><trkpt lat="44.1038083" lon="12.0796317"><ele>122.57142857142857</ele><time>2026-04-16T12:46:19.088Z</time></trkpt><trkpt lat="44.1037417" lon="12.07957"><ele>122.28571428571428</ele><time>2026-04-16T12:46:20.088Z</time></trkpt><trkpt lat="44.10368" lon="12.079505"><ele>121.99999999999999</ele><time>2026-04-16T12:46:21.088Z</time></trkpt><trkpt lat="44.103615" lon="12.0794483"><ele>121.99999999999999</ele><time>2026-04-16T12:46:22.088Z</time></trkpt><trkpt lat="44.1035517" lon="12.0793967"><ele>122.0</ele><time>2026-04-16T12:46:23.088Z</time></trkpt><trkpt lat="44.10349" lon="12.07934"><ele>121.99999999999999</ele><time>2026-04-16T12:46:24.088Z</time></trkpt><trkpt lat="44.103435" lon="12.079285"><ele>121.99999999999999</ele><time>2026-04-16T12:46:25.088Z</time></trkpt><trkpt lat="44.1033783" lon="12.0792267"><ele>122.0</ele><time>2026-04-16T12:46:26.088Z</time></trkpt><trkpt lat="44.1033183" lon="12.0791617"><ele>121.99999999999999</ele><time>2026-04-16T12:46:27.088Z</time></trkpt><trkpt lat="44.1032567" lon="12.0791017"><ele>121.99999999999999</ele><time>2026-04-16T12:46:28.088Z</time></trkpt><trkpt lat="44.10319" lon="12.0790417"><ele>121.49999999999999</ele><time>2026-04-16T12:46:29.088Z</time></trkpt><trkpt lat="44.1031267" lon="12.07899"><ele>121.0</ele><time>2026-04-16T12:46:30.088Z</time></trkpt><trkpt lat="44.1030667" lon="12.0789617"><ele>120.5</ele><time>2026-04-16T12:46:31.088Z</time></trkpt><trkpt lat="44.10294" lon="12.0789783"><ele>120.0</ele><time>2026-04-16T12:46:33.088Z</time></trkpt><trkpt lat="44.102885" lon="12.0790267"><ele>119.49999999999999</ele><time>2026-04-16T12:46:34.088Z</time></trkpt><trkpt lat="44.102835" lon="12.07909"><ele>119.0</ele><time>2026-04-16T12:46:35.088Z</time></trkpt><trkpt lat="44.1027833" lon="12.079145"><ele>118.99999999999999</ele><time>2026-04-16T12:46:36.088Z</time></trkpt><trkpt lat="44.102715" lon="12.0791833"><ele>119.0</ele><time>2026-04-16T12:46:37.088Z</time></trkpt><trkpt lat="44.1026483" lon="12.0792017"><ele>119.0</ele><time>2026-04-16T12:46:38.088Z</time></trkpt><trkpt lat="44.102575" lon="12.0791983"><ele>119.0</ele><time>2026-04-16T12:46:39.088Z</time></trkpt><trkpt lat="44.102495" lon="12.07917"><ele>118.99999999999999</ele><time>2026-04-16T12:46:40.088Z</time></trkpt><trkpt lat="44.1024167" lon="12.0791233"><ele>119.0</ele><time>2026-04-16T12:46:41.088Z</time></trkpt><trkpt lat="44.1023417" lon="12.079075"><ele>116.0</ele><time>2026-04-16T12:46:42.089Z</time></trkpt><trkpt lat="44.1022667" lon="12.0790167"><ele>113.0</ele><time>2026-04-16T12:46:43.088Z</time></trkpt><trkpt lat="44.1021833" lon="12.0789367"><ele>110.0</ele><time>2026-04-16T12:46:44.088Z</time></trkpt><trkpt lat="44.1021033" lon="12.07885"><ele>107.0</ele><time>2026-04-16T12:46:45.088Z</time></trkpt><trkpt lat="44.1020233" lon="12.078755"><ele>104.0</ele><time>2026-04-16T12:46:46.088Z</time></trkpt><trkpt lat="44.1019467" lon="12.0786617"><ele>103.99999999999999</ele><time>2026-04-16T12:46:47.088Z</time></trkpt><trkpt lat="44.10188" lon="12.0785817"><ele>104.0</ele><time>2026-04-16T12:46:48.088Z</time></trkpt><trkpt lat="44.101815" lon="12.078515"><ele>104.0</ele><time>2026-04-16T12:46:49.088Z</time></trkpt><trkpt lat="44.1017433" lon="12.07847"><ele>104.0</ele><time>2026-04-16T12:46:50.088Z</time></trkpt><trkpt lat="44.101675" lon="12.0784567"><ele>103.99999999999999</ele><time>2026-04-16T12:46:51.088Z</time></trkpt><trkpt lat="44.1016083" lon="12.0784867"><ele>104.0</ele><time>2026-04-16T12:46:52.088Z</time></trkpt><trkpt lat="44.10155" lon="12.078535"><ele>99.6</ele><time>2026-04-16T12:46:53.089Z</time></trkpt><trkpt lat="44.101495" lon="12.0786117"><ele>95.2</ele><time>2026-04-16T12:46:54.088Z</time></trkpt><trkpt lat="44.1014467" lon="12.07872"><ele>90.8</ele><time>2026-04-16T12:46:55.088Z</time></trkpt><trkpt lat="44.1014" lon="12.0788483"><ele>86.39999999999999</ele><time>2026-04-16T12:46:56.088Z</time></trkpt><trkpt lat="44.101345" lon="12.07897"><ele>82.0</ele><time>2026-04-16T12:46:57.089Z</time></trkpt><trkpt lat="44.101295" lon="12.079095"><ele>84.6</ele><time>2026-04-16T12:46:58.088Z</time></trkpt><trkpt lat="44.1012317" lon="12.0792067"><ele>87.19999999999999</ele><time>2026-04-16T12:46:59.088Z</time></trkpt><trkpt lat="44.1011633" lon="12.07931"><ele>89.8</ele><time>2026-04-16T12:47:00.088Z</time></trkpt><trkpt lat="44.10109" lon="12.0793967"><ele>92.4</ele><time>2026-04-16T12:47:01.088Z</time></trkpt><trkpt lat="44.1010083" lon="12.079465"><ele>95.0</ele><time>2026-04-16T12:47:02.089Z</time></trkpt><trkpt lat="44.1009133" lon="12.0795117"><ele>95.0</ele><time>2026-04-16T12:47:03.088Z</time></trkpt><trkpt lat="44.1008267" lon="12.07956"><ele>95.0</ele><time>2026-04-16T12:47:04.088Z</time></trkpt><trkpt lat="44.10073" lon="12.0795967"><ele>95.0</ele><time>2026-04-16T12:47:05.088Z</time></trkpt><trkpt lat="44.1006283" lon="12.0796217"><ele>95.0</ele><time>2026-04-16T12:47:06.088Z</time></trkpt><trkpt lat="44.1005283" lon="12.07965"><ele>95.0</ele><time>2026-04-16T12:47:07.088Z</time></trkpt><trkpt lat="44.10042" lon="12.07969"><ele>94.4</ele><time>2026-04-16T12:47:08.088Z</time></trkpt><trkpt lat="44.1003283" lon="12.0797333"><ele>93.8</ele><time>2026-04-16T12:47:09.088Z</time></trkpt><trkpt lat="44.1002367" lon="12.0797967"><ele>93.19999999999999</ele><time>2026-04-16T12:47:10.088Z</time></trkpt><trkpt lat="44.1001433" lon="12.0798867"><ele>92.6</ele><time>2026-04-16T12:47:11.088Z</time></trkpt><trkpt lat="44.1000617" lon="12.0799867"><ele>92.0</ele><time>2026-04-16T12:47:12.088Z</time></trkpt><trkpt lat="44.099985" lon="12.0800917"><ele>88.6</ele><time>2026-04-16T12:47:13.088Z</time></trkpt><trkpt lat="44.0999067" lon="12.080195"><ele>85.19999999999999</ele><time>2026-04-16T12:47:14.088Z</time></trkpt><trkpt lat="44.0998433" lon="12.0803183"><ele>81.8</ele><time>2026-04-16T12:47:15.088Z</time></trkpt><trkpt lat="44.0997583" lon="12.08042"><ele>78.4</ele><time>2026-04-16T12:47:16.088Z</time></trkpt><trkpt lat="44.09969" lon="12.0805233"><ele>75.0</ele><time>2026-04-16T12:47:17.088Z</time></trkpt><trkpt lat="44.0996383" lon="12.08063"><ele>75.0</ele><time>2026-04-16T12:47:18.088Z</time></trkpt><trkpt lat="44.0995867" lon="12.080745"><ele>75.0</ele><time>2026-04-16T12:47:19.088Z</time></trkpt><trkpt lat="44.0995417" lon="12.0808667"><ele>75.0</ele><time>2026-04-16T12:47:20.088Z</time></trkpt><trkpt lat="44.0994983" lon="12.080995"><ele>75.0</ele><time>2026-04-16T12:47:21.088Z</time></trkpt><trkpt lat="44.0994617" lon="12.0811133"><ele>75.0</ele><time>2026-04-16T12:47:22.088Z</time></trkpt><trkpt lat="44.099425" lon="12.08122"><ele>76.6</ele><time>2026-04-16T12:47:23.088Z</time></trkpt><trkpt lat="44.0993867" lon="12.0813083"><ele>78.2</ele><time>2026-04-16T12:47:24.088Z</time></trkpt><trkpt lat="44.0993483" lon="12.0813817"><ele>79.80000000000001</ele><time>2026-04-16T12:47:25.088Z</time></trkpt><trkpt lat="44.0992583" lon="12.0814683"><ele>81.4</ele><time>2026-04-16T12:47:27.089Z</time></trkpt><trkpt lat="44.0991583" lon="12.0814083"><ele>83.0</ele><time>2026-04-16T12:47:29.088Z</time></trkpt><trkpt lat="44.09908" lon="12.0813017"><ele>83.0</ele><time>2026-04-16T12:47:31.088Z</time></trkpt><trkpt lat="44.099005" lon="12.0812267"><ele>83.0</ele><time>2026-04-16T12:47:33.088Z</time></trkpt><trkpt lat="44.0988833" lon="12.0811767"><ele>83.0</ele><time>2026-04-16T12:47:35.088Z</time></trkpt><trkpt lat="44.0988167" lon="12.08116"><ele>83.0</ele><time>2026-04-16T12:47:36.088Z</time></trkpt><trkpt lat="44.0987483" lon="12.0811483"><ele>83.0</ele><time>2026-04-16T12:47:37.088Z</time></trkpt><trkpt lat="44.0986283" lon="12.0811517"><ele>83.0</ele><time>2026-04-16T12:47:39.088Z</time></trkpt><trkpt lat="44.09851" lon="12.081155"><ele>83.0</ele><time>2026-04-16T12:47:41.088Z</time></trkpt><trkpt lat="44.0984467" lon="12.0811567"><ele>83.0</ele><time>2026-04-16T12:47:42.088Z</time></trkpt><trkpt lat="44.098325" lon="12.0811717"><ele>83.0</ele><time>2026-04-16T12:47:44.088Z</time></trkpt><trkpt lat="44.0982267" lon="12.081155"><ele>83.0</ele><time>2026-04-16T12:47:46.088Z</time></trkpt><trkpt lat="44.0981133" lon="12.0810933"><ele>82.0</ele><time>2026-04-16T12:47:48.088Z</time></trkpt><trkpt lat="44.0979983" lon="12.08103"><ele>81.0</ele><time>2026-04-16T12:47:50.088Z</time></trkpt><trkpt lat="44.09789" lon="12.08098"><ele>80.0</ele><time>2026-04-16T12:47:52.088Z</time></trkpt><trkpt lat="44.097775" lon="12.0809967"><ele>79.0</ele><time>2026-04-16T12:47:54.088Z</time></trkpt><trkpt lat="44.0976817" lon="12.08106"><ele>79.0</ele><time>2026-04-16T12:47:56.088Z</time></trkpt><trkpt lat="44.0976033" lon="12.0811583"><ele>79.0</ele><time>2026-04-16T12:47:58.088Z</time></trkpt><trkpt lat="44.0975583" lon="12.08123"><ele>79.0</ele><time>2026-04-16T12:47:59.088Z</time></trkpt><trkpt lat="44.097475" lon="12.0813483"><ele>79.0</ele><time>2026-04-16T12:48:01.088Z</time></trkpt><trkpt lat="44.0974267" lon="12.0814083"><ele>79.0</ele><time>2026-04-16T12:48:02.088Z</time></trkpt><trkpt lat="44.0973517" lon="12.0815267"><ele>79.0</ele><time>2026-04-16T12:48:04.088Z</time></trkpt><trkpt lat="44.0973" lon="12.08158"><ele>79.0</ele><time>2026-04-16T12:48:05.088Z</time></trkpt><trkpt lat="44.09721" lon="12.081665"><ele>79.0</ele><time>2026-04-16T12:48:07.088Z</time></trkpt><trkpt lat="44.09714" lon="12.0817367"><ele>79.0</ele><time>2026-04-16T12:48:09.088Z</time></trkpt><trkpt lat="44.0970667" lon="12.081815"><ele>79.0</ele><time>2026-04-16T12:48:11.088Z</time></trkpt><trkpt lat="44.0970033" lon="12.0819267"><ele>79.0</ele><time>2026-04-16T12:48:13.088Z</time></trkpt><trkpt lat="44.0969383" lon="12.08206"><ele>79.0</ele><time>2026-04-16T12:48:15.088Z</time></trkpt><trkpt lat="44.0968417" lon="12.08218"><ele>79.0</ele><time>2026-04-16T12:48:17.088Z</time></trkpt><trkpt lat="44.0967283" lon="12.0822583"><ele>79.0</ele><time>2026-04-16T12:48:19.088Z</time></trkpt><trkpt lat="44.0966167" lon="12.08231"><ele>78.60000000000001</ele><time>2026-04-16T12:48:21.088Z</time></trkpt><trkpt lat="44.0965467" lon="12.082335"><ele>78.2</ele><time>2026-04-16T12:48:22.088Z</time></trkpt><trkpt lat="44.0964833" lon="12.08235"><ele>77.80000000000001</ele><time>2026-04-16T12:48:23.088Z</time></trkpt><trkpt lat="44.09637" lon="12.08238"><ele>77.4</ele><time>2026-04-16T12:48:25.088Z</time></trkpt><trkpt lat="44.0962567" lon="12.082395"><ele>77.0</ele><time>2026-04-16T12:48:27.088Z</time></trkpt><trkpt lat="44.0961483" lon="12.0824117"><ele>77.0</ele><time>2026-04-16T12:48:29.088Z</time></trkpt><trkpt lat="44.0960833" lon="12.0824183"><ele>77.0</ele><time>2026-04-16T12:48:30.088Z</time></trkpt><trkpt lat="44.0959667" lon="12.082425"><ele>77.0</ele><time>2026-04-16T12:48:32.088Z</time></trkpt><trkpt lat="44.09586" lon="12.08243"><ele>77.0</ele><time>2026-04-16T12:48:34.088Z</time></trkpt><trkpt lat="44.0957617" lon="12.0824117"><ele>77.0</ele><time>2026-04-16T12:48:36.089Z</time></trkpt><trkpt lat="44.0956667" lon="12.0823883"><ele>76.66666666666667</ele><time>2026-04-16T12:48:38.088Z</time></trkpt><trkpt lat="44.0955817" lon="12.0823567"><ele>76.33333333333334</ele><time>2026-04-16T12:48:40.088Z</time></trkpt><trkpt lat="44.0954867" lon="12.0823367"><ele>76.0</ele><time>2026-04-16T12:48:42.088Z</time></trkpt><trkpt lat="44.0953933" lon="12.0823017"><ele>75.66666666666667</ele><time>2026-04-16T12:48:44.088Z</time></trkpt><trkpt lat="44.095315" lon="12.0822717"><ele>75.33333333333333</ele><time>2026-04-16T12:48:46.088Z</time></trkpt><trkpt lat="44.0952483" lon="12.08223"><ele>75.0</ele><time>2026-04-16T12:48:49.088Z</time></trkpt><trkpt lat="44.0951783" lon="12.08221"><ele>75.0</ele><time>2026-04-16T12:48:52.088Z</time></trkpt><trkpt lat="44.0950917" lon="12.082235"><ele>75.0</ele><time>2026-04-16T12:48:55.088Z</time></trkpt><trkpt lat="44.095035" lon="12.0822817"><ele>75.0</ele><time>2026-04-16T12:48:57.088Z</time></trkpt><trkpt lat="44.0949483" lon="12.0823767"><ele>75.0</ele><time>2026-04-16T12:48:59.089Z</time></trkpt><trkpt lat="44.0948983" lon="12.08243"><ele>75.0</ele><time>2026-04-16T12:49:00.088Z</time></trkpt><trkpt lat="44.0947983" lon="12.0825233"><ele>75.0</ele><time>2026-04-16T12:49:02.088Z</time></trkpt><trkpt lat="44.094715" lon="12.0826333"><ele>75.2</ele><time>2026-04-16T12:49:04.088Z</time></trkpt><trkpt lat="44.0946367" lon="12.082745"><ele>75.4</ele><time>2026-04-16T12:49:06.088Z</time></trkpt><trkpt lat="44.0945633" lon="12.0828783"><ele>75.6</ele><time>2026-04-16T12:49:08.088Z</time></trkpt><trkpt lat="44.094485" lon="12.083"><ele>75.8</ele><time>2026-04-16T12:49:10.088Z</time></trkpt><trkpt lat="44.0944217" lon="12.0830983"><ele>76.0</ele><time>2026-04-16T12:49:12.089Z</time></trkpt><trkpt lat="44.0943533" lon="12.0831583"><ele>76.0</ele><time>2026-04-16T12:49:14.088Z</time></trkpt><trkpt lat="44.0942817" lon="12.0832183"><ele>76.0</ele><time>2026-04-16T12:49:16.088Z</time></trkpt><trkpt lat="44.0942017" lon="12.0832867"><ele>76.0</ele><time>2026-04-16T12:49:18.088Z</time></trkpt><trkpt lat="44.0941267" lon="12.083365"><ele>76.0</ele><time>2026-04-16T12:49:20.088Z</time></trkpt><trkpt lat="44.09405" lon="12.0834667"><ele>76.0</ele><time>2026-04-16T12:49:22.088Z</time></trkpt><trkpt lat="44.0939733" lon="12.0835667"><ele>76.0</ele><time>2026-04-16T12:49:24.088Z</time></trkpt><trkpt lat="44.0939033" lon="12.0836733"><ele>76.0</ele><time>2026-04-16T12:49:26.088Z</time></trkpt><trkpt lat="44.0938517" lon="12.0837833"><ele>76.0</ele><time>2026-04-16T12:49:28.088Z</time></trkpt><trkpt lat="44.0938167" lon="12.0839017"><ele>76.0</ele><time>2026-04-16T12:49:30.088Z</time></trkpt><trkpt lat="44.09376" lon="12.0840267"><ele>76.0</ele><time>2026-04-16T12:49:32.088Z</time></trkpt><trkpt lat="44.0936883" lon="12.0841283"><ele>78.25</ele><time>2026-04-16T12:49:34.088Z</time></trkpt><trkpt lat="44.0936017" lon="12.0842283"><ele>80.5</ele><time>2026-04-16T12:49:36.088Z</time></trkpt><trkpt lat="44.09352" lon="12.0843333"><ele>82.75</ele><time>2026-04-16T12:49:38.088Z</time></trkpt><trkpt lat="44.093445" lon="12.08443"><ele>85.0</ele><time>2026-04-16T12:49:40.088Z</time></trkpt><trkpt lat="44.0933583" lon="12.0845533"><ele>85.0</ele><time>2026-04-16T12:49:42.088Z</time></trkpt><trkpt lat="44.0933083" lon="12.084625"><ele>85.0</ele><time>2026-04-16T12:49:43.088Z</time></trkpt><trkpt lat="44.0932567" lon="12.0846883"><ele>85.0</ele><time>2026-04-16T12:49:44.088Z</time></trkpt><trkpt lat="44.0931617" lon="12.08478"><ele>85.0</ele><time>2026-04-16T12:49:46.088Z</time></trkpt><trkpt lat="44.0930783" lon="12.0848683"><ele>85.0</ele><time>2026-04-16T12:49:48.088Z</time></trkpt><trkpt lat="44.09299" lon="12.08494"><ele>85.16666666666666</ele><time>2026-04-16T12:49:50.088Z</time></trkpt><trkpt lat="44.0928733" lon="12.0850167"><ele>85.33333333333333</ele><time>2026-04-16T12:49:52.088Z</time></trkpt><trkpt lat="44.09281" lon="12.0850483"><ele>85.5</ele><time>2026-04-16T12:49:53.088Z</time></trkpt><trkpt lat="44.0927433" lon="12.085085"><ele>85.66666666666667</ele><time>2026-04-16T12:49:54.088Z</time></trkpt><trkpt lat="44.092675" lon="12.085125"><ele>85.83333333333334</ele><time>2026-04-16T12:49:55.088Z</time></trkpt><trkpt lat="44.0926083" lon="12.08516"><ele>86.0</ele><time>2026-04-16T12:49:56.088Z</time></trkpt><trkpt lat="44.0925267" lon="12.0851967"><ele>86.0</ele><time>2026-04-16T12:49:57.088Z</time></trkpt><trkpt lat="44.092445" lon="12.0852317"><ele>86.0</ele><time>2026-04-16T12:49:58.089Z</time></trkpt><trkpt lat="44.0923433" lon="12.0852583"><ele>86.0</ele><time>2026-04-16T12:49:59.088Z</time></trkpt><trkpt lat="44.09224" lon="12.0852583"><ele>86.0</ele><time>2026-04-16T12:50:00.088Z</time></trkpt><trkpt lat="44.0921383" lon="12.0852333"><ele>86.0</ele><time>2026-04-16T12:50:01.088Z</time></trkpt><trkpt lat="44.0920317" lon="12.0851933"><ele>84.0</ele><time>2026-04-16T12:50:02.088Z</time></trkpt><trkpt lat="44.091895" lon="12.0851517"><ele>82.0</ele><time>2026-04-16T12:50:03.088Z</time></trkpt><trkpt lat="44.0917367" lon="12.0851167"><ele>80.0</ele><time>2026-04-16T12:50:04.088Z</time></trkpt><trkpt lat="44.0915983" lon="12.0850633"><ele>78.0</ele><time>2026-04-16T12:50:05.088Z</time></trkpt><trkpt lat="44.0914767" lon="12.0850083"><ele>78.0</ele><time>2026-04-16T12:50:06.088Z</time></trkpt><trkpt lat="44.0913767" lon="12.0849567"><ele>78.0</ele><time>2026-04-16T12:50:07.088Z</time></trkpt><trkpt lat="44.091265" lon="12.0849033"><ele>78.0</ele><time>2026-04-16T12:50:08.089Z</time></trkpt><trkpt lat="44.0911583" lon="12.0848517"><ele>78.0</ele><time>2026-04-16T12:50:09.088Z</time></trkpt><trkpt lat="44.0910517" lon="12.0848017"><ele>77.75</ele><time>2026-04-16T12:50:10.088Z</time></trkpt><trkpt lat="44.0909467" lon="12.0847433"><ele>77.5</ele><time>2026-04-16T12:50:11.088Z</time></trkpt><trkpt lat="44.0908333" lon="12.0846833"><ele>77.25</ele><time>2026-04-16T12:50:12.088Z</time></trkpt><trkpt lat="44.0907267" lon="12.0846233"><ele>77.0</ele><time>2026-04-16T12:50:13.088Z</time></trkpt><trkpt lat="44.090625" lon="12.0845767"><ele>77.0</ele><time>2026-04-16T12:50:14.088Z</time></trkpt><trkpt lat="44.090525" lon="12.0845267"><ele>77.0</ele><time>2026-04-16T12:50:15.088Z</time></trkpt><trkpt lat="44.0904267" lon="12.0844883"><ele>77.0</ele><time>2026-04-16T12:50:16.088Z</time></trkpt><trkpt lat="44.0903383" lon="12.0844583"><ele>77.0</ele><time>2026-04-16T12:50:17.088Z</time></trkpt><trkpt lat="44.09026" lon="12.0844283"><ele>77.0</ele><time>2026-04-16T12:50:18.088Z</time></trkpt><trkpt lat="44.0901817" lon="12.084405"><ele>77.0</ele><time>2026-04-16T12:50:19.089Z</time></trkpt><trkpt lat="44.090105" lon="12.0843883"><ele>77.0</ele><time>2026-04-16T12:50:20.088Z</time></trkpt><trkpt lat="44.0900317" lon="12.084365"><ele>77.0</ele><time>2026-04-16T12:50:21.088Z</time></trkpt><trkpt lat="44.0899617" lon="12.0843383"><ele>77.0</ele><time>2026-04-16T12:50:22.088Z</time></trkpt><trkpt lat="44.0898933" lon="12.084305"><ele>77.0</ele><time>2026-04-16T12:50:23.088Z</time></trkpt><trkpt lat="44.089825" lon="12.084275"><ele>77.0</ele><time>2026-04-16T12:50:24.088Z</time></trkpt><trkpt lat="44.0897083" lon="12.084245"><ele>77.2</ele><time>2026-04-16T12:50:26.088Z</time></trkpt><trkpt lat="44.089595" lon="12.0842033"><ele>77.4</ele><time>2026-04-16T12:50:28.088Z</time></trkpt><trkpt lat="44.08949" lon="12.0841733"><ele>77.6</ele><time>2026-04-16T12:50:30.088Z</time></trkpt><trkpt lat="44.08938" lon="12.0841733"><ele>77.8</ele><time>2026-04-16T12:50:32.088Z</time></trkpt><trkpt lat="44.0892733" lon="12.084185"><ele>78.0</ele><time>2026-04-16T12:50:34.088Z</time></trkpt><trkpt lat="44.0891717" lon="12.084225"><ele>78.0</ele><time>2026-04-16T12:50:36.088Z</time></trkpt><trkpt lat="44.0891133" lon="12.0842617"><ele>78.0</ele><time>2026-04-16T12:50:37.088Z</time></trkpt><trkpt lat="44.0890233" lon="12.0843117"><ele>78.0</ele><time>2026-04-16T12:50:39.088Z</time></trkpt><trkpt lat="44.0889383" lon="12.0843767"><ele>78.0</ele><time>2026-04-16T12:50:41.088Z</time></trkpt><trkpt lat="44.0888817" lon="12.0844167"><ele>78.0</ele><time>2026-04-16T12:50:42.088Z</time></trkpt><trkpt lat="44.0887717" lon="12.0844883"><ele>78.0</ele><time>2026-04-16T12:50:44.088Z</time></trkpt><trkpt lat="44.08866" lon="12.0844283"><ele>78.4</ele><time>2026-04-16T12:50:50.087Z</time></trkpt><trkpt lat="44.0885533" lon="12.084335"><ele>78.8</ele><time>2026-04-16T12:50:52.087Z</time></trkpt><trkpt lat="44.0884117" lon="12.0843333"><ele>79.2</ele><time>2026-04-16T12:50:53.087Z</time></trkpt><trkpt lat="44.08833" lon="12.0843017"><ele>79.6</ele><time>2026-04-16T12:50:54.087Z</time></trkpt><trkpt lat="44.0882683" lon="12.0842567"><ele>80.0</ele><time>2026-04-16T12:50:55.087Z</time></trkpt><trkpt lat="44.08815" lon="12.0842517"><ele>80.4</ele><time>2026-04-16T12:50:57.087Z</time></trkpt><trkpt lat="44.0880417" lon="12.0842683"><ele>80.8</ele><time>2026-04-16T12:50:59.087Z</time></trkpt><trkpt lat="44.08794" lon="12.08427"><ele>81.19999999999999</ele><time>2026-04-16T12:51:01.087Z</time></trkpt><trkpt lat="44.0878417" lon="12.0842367"><ele>81.6</ele><time>2026-04-16T12:51:03.087Z</time></trkpt><trkpt lat="44.0877467" lon="12.0842433"><ele>82.0</ele><time>2026-04-16T12:51:05.087Z</time></trkpt><trkpt lat="44.087655" lon="12.084245"><ele>82.0</ele><time>2026-04-16T12:51:07.087Z</time></trkpt><trkpt lat="44.0875767" lon="12.0842433"><ele>82.0</ele><time>2026-04-16T12:51:09.087Z</time></trkpt><trkpt lat="44.0875017" lon="12.0842367"><ele>82.0</ele><time>2026-04-16T12:51:11.087Z</time></trkpt><trkpt lat="44.0874333" lon="12.0842333"><ele>82.0</ele><time>2026-04-16T12:51:13.087Z</time></trkpt><trkpt lat="44.08737" lon="12.0842317"><ele>82.0</ele><time>2026-04-16T12:51:15.087Z</time></trkpt><trkpt lat="44.0874683" lon="12.08427"><ele>82.0</ele><time>2026-04-16T12:51:23.087Z</time></trkpt><trkpt lat="44.0875567" lon="12.0842917"><ele>82.0</ele><time>2026-04-16T12:51:25.087Z</time></trkpt><trkpt lat="44.08765" lon="12.0843183"><ele>82.0</ele><time>2026-04-16T12:51:27.087Z</time></trkpt><trkpt lat="44.0877483" lon="12.08434"><ele>82.0</ele><time>2026-04-16T12:51:29.087Z</time></trkpt><trkpt lat="44.0878533" lon="12.0843617"><ele>82.0</ele><time>2026-04-16T12:51:31.087Z</time></trkpt><trkpt lat="44.08797" lon="12.08439"><ele>82.0</ele><time>2026-04-16T12:51:33.087Z</time></trkpt><trkpt lat="44.0880333" lon="12.0844"><ele>82.0</ele><time>2026-04-16T12:51:34.087Z</time></trkpt><trkpt lat="44.0881467" lon="12.0844333"><ele>82.0</ele><time>2026-04-16T12:51:36.087Z</time></trkpt><trkpt lat="44.0882567" lon="12.08447"><ele>82.0</ele><time>2026-04-16T12:51:38.087Z</time></trkpt><trkpt lat="44.0883683" lon="12.08453"><ele>82.0</ele><time>2026-04-16T12:51:40.087Z</time></trkpt><trkpt lat="44.0884333" lon="12.0845567"><ele>82.0</ele><time>2026-04-16T12:51:41.087Z</time></trkpt><trkpt lat="44.0885017" lon="12.084575"><ele>81.6</ele><time>2026-04-16T12:51:42.088Z</time></trkpt><trkpt lat="44.0885667" lon="12.0845833"><ele>81.19999999999999</ele><time>2026-04-16T12:51:43.087Z</time></trkpt><trkpt lat="44.088675" lon="12.0845583"><ele>80.8</ele><time>2026-04-16T12:51:45.087Z</time></trkpt><trkpt lat="44.0887783" lon="12.0845083"><ele>80.4</ele><time>2026-04-16T12:51:47.087Z</time></trkpt><trkpt lat="44.08888" lon="12.0844417"><ele>80.0</ele><time>2026-04-16T12:51:49.088Z</time></trkpt><trkpt lat="44.088965" lon="12.0843767"><ele>80.0</ele><time>2026-04-16T12:51:51.087Z</time></trkpt><trkpt lat="44.089015" lon="12.08431"><ele>80.0</ele><time>2026-04-16T12:51:53.087Z</time></trkpt><trkpt lat="44.0889933" lon="12.0842167"><ele>80.0</ele><time>2026-04-16T12:51:57.088Z</time></trkpt><trkpt lat="44.088935" lon="12.08418"><ele>80.0</ele><time>2026-04-16T12:51:59.087Z</time></trkpt><trkpt lat="44.0888817" lon="12.0841183"><ele>80.0</ele><time>2026-04-16T12:52:01.088Z</time></trkpt><trkpt lat="44.0888367" lon="12.0840533"><ele>80.0</ele><time>2026-04-16T12:52:03.087Z</time></trkpt><trkpt lat="44.088805" lon="12.0839733"><ele>80.0</ele><time>2026-04-16T12:52:05.087Z</time></trkpt><trkpt lat="44.088775" lon="12.08389"><ele>80.16666666666667</ele><time>2026-04-16T12:52:07.087Z</time></trkpt><trkpt lat="44.0887333" lon="12.0837733"><ele>80.33333333333334</ele><time>2026-04-16T12:52:10.088Z</time></trkpt><trkpt lat="44.088705" lon="12.083695"><ele>80.5</ele><time>2026-04-16T12:52:12.087Z</time></trkpt><trkpt lat="44.0886783" lon="12.0836033"><ele>80.66666666666667</ele><time>2026-04-16T12:52:14.087Z</time></trkpt><trkpt lat="44.08865" lon="12.08352"><ele>80.83333333333333</ele><time>2026-04-16T12:52:16.087Z</time></trkpt><trkpt lat="44.08863" lon="12.0834333"><ele>81.0</ele><time>2026-04-16T12:52:18.087Z</time></trkpt><trkpt lat="44.0885833" lon="12.0833217"><ele>81.83333333333333</ele><time>2026-04-16T12:52:21.087Z</time></trkpt><trkpt lat="44.08856" lon="12.0832367"><ele>82.66666666666667</ele><time>2026-04-16T12:52:23.087Z</time></trkpt><trkpt lat="44.08853" lon="12.0831133"><ele>83.5</ele><time>2026-04-16T12:52:26.087Z</time></trkpt><trkpt lat="44.08852" lon="12.0830267"><ele>84.33333333333334</ele><time>2026-04-16T12:52:28.087Z</time></trkpt><trkpt lat="44.08854" lon="12.0829067"><ele>85.16666666666667</ele><time>2026-04-16T12:52:31.087Z</time></trkpt><trkpt lat="44.0885667" lon="12.082825"><ele>86.0</ele><time>2026-04-16T12:52:33.087Z</time></trkpt><trkpt lat="44.0886183" lon="12.0827417"><ele>86.0</ele><time>2026-04-16T12:52:36.087Z</time></trkpt><trkpt lat="44.0886783" lon="12.0826533"><ele>86.0</ele><time>2026-04-16T12:52:39.087Z</time></trkpt><trkpt lat="44.0887283" lon="12.0825833"><ele>86.0</ele><time>2026-04-16T12:52:41.087Z</time></trkpt><trkpt lat="44.0887983" lon="12.0824883"><ele>86.0</ele><time>2026-04-16T12:52:44.087Z</time></trkpt><trkpt lat="44.088855" lon="12.0824167"><ele>86.0</ele><time>2026-04-16T12:52:46.087Z</time></trkpt><trkpt lat="44.0889333" lon="12.0823283"><ele>86.0</ele><time>2026-04-16T12:52:48.087Z</time></trkpt><trkpt lat="44.0889933" lon="12.082265"><ele>86.42857142857143</ele><time>2026-04-16T12:52:50.087Z</time></trkpt><trkpt lat="44.0890483" lon="12.0822167"><ele>86.85714285714286</ele><time>2026-04-16T12:52:52.087Z</time></trkpt><trkpt lat="44.0891017" lon="12.0821683"><ele>87.28571428571428</ele><time>2026-04-16T12:52:54.087Z</time></trkpt><trkpt lat="44.089165" lon="12.0821233"><ele>87.71428571428572</ele><time>2026-04-16T12:52:56.087Z</time></trkpt><trkpt lat="44.089235" lon="12.08206"><ele>88.14285714285714</ele><time>2026-04-16T12:52:59.087Z</time></trkpt><trkpt lat="44.089305" lon="12.0820033"><ele>88.57142857142857</ele><time>2026-04-16T12:53:02.087Z</time></trkpt><trkpt lat="44.0893733" lon="12.0819417"><ele>89.0</ele><time>2026-04-16T12:53:05.087Z</time></trkpt><trkpt lat="44.0894483" lon="12.0818983"><ele>88.99999999999999</ele><time>2026-04-16T12:53:08.087Z</time></trkpt><trkpt lat="44.0895183" lon="12.0818533"><ele>89.0</ele><time>2026-04-16T12:53:11.087Z</time></trkpt><trkpt lat="44.0895833" lon="12.08181"><ele>89.0</ele><time>2026-04-16T12:53:14.087Z</time></trkpt><trkpt lat="44.089645" lon="12.081755"><ele>89.0</ele><time>2026-04-16T12:53:17.088Z</time></trkpt><trkpt lat="44.08971" lon="12.0817033"><ele>89.0</ele><time>2026-04-16T12:53:20.087Z</time></trkpt><trkpt lat="44.089765" lon="12.0816533"><ele>88.99999999999999</ele><time>2026-04-16T12:53:23.087Z</time></trkpt><trkpt lat="44.08981" lon="12.08157"><ele>89.0</ele><time>2026-04-16T12:53:28.087Z</time></trkpt><trkpt lat="44.0898083" lon="12.0814817"><ele>92.14285714285714</ele><time>2026-04-16T12:53:36.088Z</time></trkpt><trkpt lat="44.08974" lon="12.0814617"><ele>95.28571428571428</ele><time>2026-04-16T12:53:43.087Z</time></trkpt><trkpt lat="44.089665" lon="12.081425"><ele>98.42857142857142</ele><time>2026-04-16T12:53:50.087Z</time></trkpt><trkpt lat="44.0895917" lon="12.0814033"><ele>101.57142857142857</ele><time>2026-04-16T12:53:54.087Z</time></trkpt><trkpt lat="44.0895183" lon="12.08137"><ele>104.71428571428572</ele><time>2026-04-16T12:53:58.087Z</time></trkpt><trkpt lat="44.089455" lon="12.0813483"><ele>107.85714285714285</ele><time>2026-04-16T12:54:01.087Z</time></trkpt><trkpt lat="44.0893767" lon="12.0813467"><ele>111.0</ele><time>2026-04-16T12:54:04.087Z</time></trkpt><trkpt lat="44.0893083" lon="12.0813583"><ele>111.0</ele><time>2026-04-16T12:54:07.087Z</time></trkpt><trkpt lat="44.0892533" lon="12.0813117"><ele>111.0</ele><time>2026-04-16T12:54:10.087Z</time></trkpt><trkpt lat="44.0891917" lon="12.08129"><ele>111.0</ele><time>2026-04-16T12:54:13.087Z</time></trkpt><trkpt lat="44.0891283" lon="12.0812817"><ele>111.0</ele><time>2026-04-16T12:54:17.087Z</time></trkpt><trkpt lat="44.0890617" lon="12.0813083"><ele>111.0</ele><time>2026-04-16T12:54:22.087Z</time></trkpt><trkpt lat="44.0889883" lon="12.08134"><ele>111.0</ele><time>2026-04-16T12:54:27.087Z</time></trkpt><trkpt lat="44.08889" lon="12.0814067"><ele>111.0</ele><time>2026-04-16T12:54:31.087Z</time></trkpt><trkpt lat="44.0888133" lon="12.0814533"><ele>112.0</ele><time>2026-04-16T12:54:34.088Z</time></trkpt><trkpt lat="44.0887383" lon="12.0815033"><ele>113.0</ele><time>2026-04-16T12:54:38.087Z</time></trkpt><trkpt lat="44.08865" lon="12.0815483"><ele>114.0</ele><time>2026-04-16T12:54:41.087Z</time></trkpt><trkpt lat="44.088585" lon="12.081605"><ele>115.0</ele><time>2026-04-16T12:54:44.087Z</time></trkpt><trkpt lat="44.0884983" lon="12.08166"><ele>116.0</ele><time>2026-04-16T12:54:47.088Z</time></trkpt><trkpt lat="44.088425" lon="12.081695"><ele>117.0</ele><time>2026-04-16T12:54:50.087Z</time></trkpt><trkpt lat="44.0883417" lon="12.0817017"><ele>117.5</ele><time>2026-04-16T12:54:53.087Z</time></trkpt><trkpt lat="44.08827" lon="12.0817067"><ele>118.0</ele><time>2026-04-16T12:54:56.087Z</time></trkpt><trkpt lat="44.088205" lon="12.081685"><ele>118.5</ele><time>2026-04-16T12:54:59.087Z</time></trkpt><trkpt lat="44.0881267" lon="12.0816417"><ele>119.0</ele><time>2026-04-16T12:55:02.087Z</time></trkpt><trkpt lat="44.0880617" lon="12.081605"><ele>119.5</ele><time>2026-04-16T12:55:04.087Z</time></trkpt><trkpt lat="44.08798" lon="12.0815633"><ele>120.0</ele><time>2026-04-16T12:55:07.088Z</time></trkpt><trkpt lat="44.0879017" lon="12.0815217"><ele>120.0</ele><time>2026-04-16T12:55:10.087Z</time></trkpt><trkpt lat="44.0878333" lon="12.0815"><ele>120.0</ele><time>2026-04-16T12:55:13.087Z</time></trkpt><trkpt lat="44.0877717" lon="12.0814583"><ele>120.0</ele><time>2026-04-16T12:55:16.087Z</time></trkpt><trkpt lat="44.0877233" lon="12.0813933"><ele>120.0</ele><time>2026-04-16T12:55:19.087Z</time></trkpt><trkpt lat="44.0876667" lon="12.081335"><ele>120.0</ele><time>2026-04-16T12:55:22.087Z</time></trkpt><trkpt lat="44.0876033" lon="12.0812833"><ele>120.0</ele><time>2026-04-16T12:55:25.087Z</time></trkpt><trkpt lat="44.0875133" lon="12.08126"><ele>120.0</ele><time>2026-04-16T12:55:29.087Z</time></trkpt><trkpt lat="44.0874383" lon="12.08124"><ele>121.28571428571429</ele><time>2026-04-16T12:55:32.087Z</time></trkpt><trkpt lat="44.0873717" lon="12.08122"><ele>122.57142857142856</ele><time>2026-04-16T12:55:35.087Z</time></trkpt><trkpt lat="44.0873017" lon="12.0812067"><ele>123.85714285714285</ele><time>2026-04-16T12:55:39.087Z</time></trkpt><trkpt lat="44.0872267" lon="12.0811983"><ele>125.14285714285714</ele><time>2026-04-16T12:55:43.087Z</time></trkpt><trkpt lat="44.087165" lon="12.0811717"><ele>126.42857142857142</ele><time>2026-04-16T12:55:47.087Z</time></trkpt><trkpt lat="44.0871033" lon="12.0812067"><ele>127.7142857142857</ele><time>2026-04-16T12:55:57.087Z</time></trkpt><trkpt lat="44.087035" lon="12.0812467"><ele>129.0</ele><time>2026-04-16T12:56:04.088Z</time></trkpt><trkpt lat="44.0869333" lon="12.0813083"><ele>129.0</ele><time>2026-04-16T12:56:09.087Z</time></trkpt><trkpt lat="44.0868617" lon="12.0813533"><ele>129.0</ele><time>2026-04-16T12:56:13.087Z</time></trkpt><trkpt lat="44.086735" lon="12.0814133"><ele>129.0</ele><time>2026-04-16T12:56:16.087Z</time></trkpt><trkpt lat="44.08662" lon="12.0814483"><ele>129.0</ele><time>2026-04-16T12:56:17.087Z</time></trkpt><trkpt lat="44.08655" lon="12.0814567"><ele>129.0</ele><time>2026-04-16T12:56:18.087Z</time></trkpt><trkpt lat="44.086485" lon="12.0814633"><ele>129.5</ele><time>2026-04-16T12:56:23.088Z</time></trkpt><trkpt lat="44.08643" lon="12.0814183"><ele>130.0</ele><time>2026-04-16T12:56:29.087Z</time></trkpt><trkpt lat="44.0864267" lon="12.0813167"><ele>130.5</ele><time>2026-04-16T12:56:37.087Z</time></trkpt><trkpt lat="44.0864733" lon="12.0812333"><ele>131.0</ele><time>2026-04-16T12:56:43.087Z</time></trkpt><trkpt lat="44.0865167" lon="12.0811667"><ele>131.5</ele><time>2026-04-16T12:56:50.087Z</time></trkpt><trkpt lat="44.0864667" lon="12.0810217"><ele>132.0</ele><time>2026-04-16T12:57:04.088Z</time></trkpt><trkpt lat="44.0864333" lon="12.0809417"><ele>132.0</ele><time>2026-04-16T12:57:09.087Z</time></trkpt><trkpt lat="44.0863367" lon="12.0808183"><ele>132.0</ele><time>2026-04-16T12:57:21.087Z</time></trkpt><trkpt lat="44.086265" lon="12.0807983"><ele>132.0</ele><time>2026-04-16T12:57:25.087Z</time></trkpt><trkpt lat="44.0861917" lon="12.080795"><ele>132.0</ele><time>2026-04-16T12:57:29.087Z</time></trkpt><trkpt lat="44.0861183" lon="12.080775"><ele>132.0</ele><time>2026-04-16T12:57:33.087Z</time></trkpt><trkpt lat="44.0860633" lon="12.0807317"><ele>132.0</ele><time>2026-04-16T12:57:36.087Z</time></trkpt><trkpt lat="44.086" lon="12.0806883"><ele>135.16666666666666</ele><time>2026-04-16T12:57:39.087Z</time></trkpt><trkpt lat="44.085945" lon="12.080645"><ele>138.33333333333334</ele><time>2026-04-16T12:57:43.087Z</time></trkpt><trkpt lat="44.0858833" lon="12.0806217"><ele>141.5</ele><time>2026-04-16T12:57:48.087Z</time></trkpt><trkpt lat="44.0858167" lon="12.0805917"><ele>144.66666666666669</ele><time>2026-04-16T12:57:54.088Z</time></trkpt><trkpt lat="44.0858283" lon="12.0804383"><ele>147.83333333333334</ele><time>2026-04-16T12:58:10.087Z</time></trkpt><trkpt lat="44.08587" lon="12.08036"><ele>151.0</ele><time>2026-04-16T12:58:14.087Z</time></trkpt><trkpt lat="44.0859483" lon="12.0802967"><ele>151.0</ele><time>2026-04-16T12:58:21.088Z</time></trkpt><trkpt lat="44.0860083" lon="12.08027"><ele>151.0</ele><time>2026-04-16T12:58:26.087Z</time></trkpt><trkpt lat="44.086075" lon="12.0802117"><ele>151.0</ele><time>2026-04-16T12:58:30.087Z</time></trkpt><trkpt lat="44.0861483" lon="12.0801967"><ele>151.0</ele><time>2026-04-16T12:58:36.087Z</time></trkpt><trkpt lat="44.0862017" lon="12.08012"><ele>151.0</ele><time>2026-04-16T12:58:40.087Z</time></trkpt><trkpt lat="44.0862883" lon="12.0801"><ele>151.0</ele><time>2026-04-16T12:58:47.087Z</time></trkpt><trkpt lat="44.0863617" lon="12.0800617"><ele>151.0</ele><time>2026-04-16T12:58:50.087Z</time></trkpt><trkpt lat="44.086445" lon="12.0800067"><ele>151.0</ele><time>2026-04-16T12:58:54.087Z</time></trkpt><trkpt lat="44.08652" lon="12.0799633"><ele>151.0</ele><time>2026-04-16T12:58:58.087Z</time></trkpt><trkpt lat="44.0865933" lon="12.0799333"><ele>151.0</ele><time>2026-04-16T12:59:01.087Z</time></trkpt><trkpt lat="44.0866783" lon="12.0799067"><ele>151.0</ele><time>2026-04-16T12:59:04.087Z</time></trkpt><trkpt lat="44.086755" lon="12.0798633"><ele>151.0</ele><time>2026-04-16T12:59:07.087Z</time></trkpt><trkpt lat="44.0868217" lon="12.0798217"><ele>154.71428571428572</ele><time>2026-04-16T12:59:10.087Z</time></trkpt><trkpt lat="44.0869" lon="12.07979"><ele>158.42857142857144</ele><time>2026-04-16T12:59:13.087Z</time></trkpt><trkpt lat="44.0869667" lon="12.0797783"><ele>162.14285714285717</ele><time>2026-04-16T12:59:16.087Z</time></trkpt><trkpt lat="44.0870417" lon="12.07977"><ele>165.85714285714286</ele><time>2026-04-16T12:59:20.087Z</time></trkpt><trkpt lat="44.08711" lon="12.079745"><ele>169.57142857142856</ele><time>2026-04-16T12:59:23.087Z</time></trkpt><trkpt lat="44.087185" lon="12.0797283"><ele>173.2857142857143</ele><time>2026-04-16T12:59:26.087Z</time></trkpt><trkpt lat="44.08725" lon="12.0797067"><ele>177.0</ele><time>2026-04-16T12:59:29.087Z</time></trkpt><trkpt lat="44.0873133" lon="12.0796833"><ele>177.0</ele><time>2026-04-16T12:59:31.088Z</time></trkpt><trkpt lat="44.0873817" lon="12.0796517"><ele>177.0</ele><time>2026-04-16T12:59:34.087Z</time></trkpt><trkpt lat="44.0874767" lon="12.0795983"><ele>177.0</ele><time>2026-04-16T12:59:37.087Z</time></trkpt><trkpt lat="44.0875567" lon="12.07956"><ele>177.0</ele><time>2026-04-16T12:59:39.087Z</time></trkpt><trkpt lat="44.0876233" lon="12.0795117"><ele>177.0</ele><time>2026-04-16T12:59:41.087Z</time></trkpt><trkpt lat="44.0876883" lon="12.079455"><ele>177.0</ele><time>2026-04-16T12:59:43.087Z</time></trkpt><trkpt lat="44.0877683" lon="12.0793983"><ele>178.33333333333334</ele><time>2026-04-16T12:59:46.087Z</time></trkpt><trkpt lat="44.0878567" lon="12.07935"><ele>179.66666666666666</ele><time>2026-04-16T12:59:48.087Z</time></trkpt><trkpt lat="44.087935" lon="12.0792967"><ele>181.0</ele><time>2026-04-16T12:59:51.088Z</time></trkpt><trkpt lat="44.0880117" lon="12.079235"><ele>182.33333333333331</ele><time>2026-04-16T12:59:54.088Z</time></trkpt><trkpt lat="44.088075" lon="12.0791783"><ele>183.66666666666666</ele><time>2026-04-16T12:59:57.087Z</time></trkpt><trkpt lat="44.0881417" lon="12.0791217"><ele>185.0</ele><time>2026-04-16T13:00:01.087Z</time></trkpt><trkpt lat="44.0882" lon="12.0790883"><ele>185.0</ele><time>2026-04-16T13:00:05.087Z</time></trkpt><trkpt lat="44.0882567" lon="12.07904"><ele>185.0</ele><time>2026-04-16T13:00:08.087Z</time></trkpt><trkpt lat="44.0883133" lon="12.0789367"><ele>185.0</ele><time>2026-04-16T13:00:11.087Z</time></trkpt><trkpt lat="44.0883483" lon="12.078855"><ele>185.0</ele><time>2026-04-16T13:00:13.087Z</time></trkpt><trkpt lat="44.08838" lon="12.0787617"><ele>185.0</ele><time>2026-04-16T13:00:16.087Z</time></trkpt><trkpt lat="44.0883733" lon="12.0786617"><ele>185.0</ele><time>2026-04-16T13:00:21.087Z</time></trkpt><trkpt lat="44.0883567" lon="12.07855"><ele>183.42857142857142</ele><time>2026-04-16T13:00:26.088Z</time></trkpt><trkpt lat="44.088335" lon="12.0784617"><ele>181.85714285714286</ele><time>2026-04-16T13:00:31.087Z</time></trkpt><trkpt lat="44.0883083" lon="12.07837"><ele>180.28571428571428</ele><time>2026-04-16T13:00:36.087Z</time></trkpt><trkpt lat="44.0882667" lon="12.0783033"><ele>178.71428571428572</ele><time>2026-04-16T13:00:42.087Z</time></trkpt><trkpt lat="44.0882167" lon="12.0782283"><ele>177.14285714285714</ele><time>2026-04-16T13:00:49.087Z</time></trkpt><trkpt lat="44.0881633" lon="12.07814"><ele>175.57142857142856</ele><time>2026-04-16T13:00:55.087Z</time></trkpt><trkpt lat="44.0881367" lon="12.0780533"><ele>174.0</ele><time>2026-04-16T13:00:59.087Z</time></trkpt><trkpt lat="44.0880967" lon="12.07796"><ele>174.0</ele><time>2026-04-16T13:01:04.088Z</time></trkpt><trkpt lat="44.088045" lon="12.0778933"><ele>174.0</ele><time>2026-04-16T13:01:08.087Z</time></trkpt><trkpt lat="44.0879967" lon="12.0778317"><ele>174.0</ele><time>2026-04-16T13:01:13.087Z</time></trkpt><trkpt lat="44.08792" lon="12.0777833"><ele>174.0</ele><time>2026-04-16T13:01:19.087Z</time></trkpt><trkpt lat="44.0878567" lon="12.0777583"><ele>174.0</ele><time>2026-04-16T13:01:25.087Z</time></trkpt><trkpt lat="44.08778" lon="12.077745"><ele>174.0</ele><time>2026-04-16T13:01:28.087Z</time></trkpt><trkpt lat="44.0877167" lon="12.0777067"><ele>174.0</ele><time>2026-04-16T13:01:35.087Z</time></trkpt><trkpt lat="44.0876467" lon="12.0776917"><ele>174.0</ele><time>2026-04-16T13:01:39.087Z</time></trkpt><trkpt lat="44.08757" lon="12.0776733"><ele>174.0</ele><time>2026-04-16T13:01:44.087Z</time></trkpt><trkpt lat="44.0874933" lon="12.0776617"><ele>174.0</ele><time>2026-04-16T13:01:47.087Z</time></trkpt><trkpt lat="44.0874217" lon="12.077655"><ele>174.0</ele><time>2026-04-16T13:01:50.087Z</time></trkpt><trkpt lat="44.08733" lon="12.0776333"><ele>174.0</ele><time>2026-04-16T13:01:55.087Z</time></trkpt><trkpt lat="44.0872467" lon="12.0776067"><ele>174.0</ele><time>2026-04-16T13:01:59.087Z</time></trkpt><trkpt lat="44.0871717" lon="12.0776067"><ele>176.0</ele><time>2026-04-16T13:02:04.087Z</time></trkpt><trkpt lat="44.0871033" lon="12.0776267"><ele>178.0</ele><time>2026-04-16T13:02:08.088Z</time></trkpt><trkpt lat="44.08701" lon="12.0776383"><ele>180.0</ele><time>2026-04-16T13:02:12.088Z</time></trkpt><trkpt lat="44.086925" lon="12.077635"><ele>182.0</ele><time>2026-04-16T13:02:16.087Z</time></trkpt><trkpt lat="44.0868483" lon="12.07761"><ele>184.0</ele><time>2026-04-16T13:02:19.088Z</time></trkpt><trkpt lat="44.0867767" lon="12.0775983"><ele>186.0</ele><time>2026-04-16T13:02:22.087Z</time></trkpt><trkpt lat="44.086715" lon="12.0775783"><ele>186.0</ele><time>2026-04-16T13:02:25.087Z</time></trkpt><trkpt lat="44.0866383" lon="12.0775317"><ele>186.0</ele><time>2026-04-16T13:02:29.088Z</time></trkpt><trkpt lat="44.0865617" lon="12.077505"><ele>186.0</ele><time>2026-04-16T13:02:33.087Z</time></trkpt><trkpt lat="44.0864983" lon="12.0774883"><ele>186.0</ele><time>2026-04-16T13:02:36.087Z</time></trkpt><trkpt lat="44.0864183" lon="12.0774783"><ele>186.0</ele><time>2026-04-16T13:02:40.087Z</time></trkpt><trkpt lat="44.0863367" lon="12.0774617"><ele>186.0</ele><time>2026-04-16T13:02:44.087Z</time></trkpt><trkpt lat="44.0862517" lon="12.0774483"><ele>185.00000000000003</ele><time>2026-04-16T13:02:48.087Z</time></trkpt><trkpt lat="44.0861883" lon="12.0774217"><ele>184.0</ele><time>2026-04-16T13:02:51.087Z</time></trkpt><trkpt lat="44.0861233" lon="12.0774117"><ele>183.0</ele><time>2026-04-16T13:02:54.087Z</time></trkpt><trkpt lat="44.0860567" lon="12.0774067"><ele>182.0</ele><time>2026-04-16T13:02:58.088Z</time></trkpt><trkpt lat="44.086" lon="12.0774583"><ele>181.0</ele><time>2026-04-16T13:03:01.087Z</time></trkpt><trkpt lat="44.0859767" lon="12.0775583"><ele>180.00000000000003</ele><time>2026-04-16T13:03:05.087Z</time></trkpt><trkpt lat="44.0859883" lon="12.077655"><ele>179.0</ele><time>2026-04-16T13:03:10.087Z</time></trkpt><trkpt lat="44.086055" lon="12.077695"><ele>181.00000000000003</ele><time>2026-04-16T13:03:18.087Z</time></trkpt><trkpt lat="44.0861167" lon="12.0777467"><ele>183.0</ele><time>2026-04-16T13:03:24.087Z</time></trkpt><trkpt lat="44.0861867" lon="12.077785"><ele>185.0</ele><time>2026-04-16T13:03:29.087Z</time></trkpt><trkpt lat="44.0862467" lon="12.0778267"><ele>187.0</ele><time>2026-04-16T13:03:33.087Z</time></trkpt><trkpt lat="44.0863017" lon="12.0778717"><ele>189.0</ele><time>2026-04-16T13:03:37.087Z</time></trkpt><trkpt lat="44.08636" lon="12.07792"><ele>191.00000000000003</ele><time>2026-04-16T13:03:42.087Z</time></trkpt><trkpt lat="44.0864167" lon="12.0779667"><ele>193.0</ele><time>2026-04-16T13:03:47.087Z</time></trkpt><trkpt lat="44.0864683" lon="12.07802"><ele>193.00000000000003</ele><time>2026-04-16T13:03:51.087Z</time></trkpt><trkpt lat="44.086515" lon="12.078095"><ele>193.0</ele><time>2026-04-16T13:03:56.087Z</time></trkpt><trkpt lat="44.0865433" lon="12.0781783"><ele>193.0</ele><time>2026-04-16T13:04:01.087Z</time></trkpt><trkpt lat="44.0865417" lon="12.0782833"><ele>193.0</ele><time>2026-04-16T13:04:07.087Z</time></trkpt><trkpt lat="44.0865633" lon="12.0784167"><ele>193.0</ele><time>2026-04-16T13:04:12.087Z</time></trkpt><trkpt lat="44.086525" lon="12.0784883"><ele>193.00000000000003</ele><time>2026-04-16T13:04:16.088Z</time></trkpt><trkpt lat="44.086455" lon="12.0784617"><ele>193.0</ele><time>2026-04-16T13:04:21.087Z</time></trkpt><trkpt lat="44.0863667" lon="12.0784517"><ele>194.66666666666666</ele><time>2026-04-16T13:04:25.087Z</time></trkpt><trkpt lat="44.0863017" lon="12.0784133"><ele>196.33333333333331</ele><time>2026-04-16T13:04:29.087Z</time></trkpt><trkpt lat="44.0862217" lon="12.0783783"><ele>198.0</ele><time>2026-04-16T13:04:33.087Z</time></trkpt><trkpt lat="44.08615" lon="12.07836"><ele>199.66666666666669</ele><time>2026-04-16T13:04:37.087Z</time></trkpt><trkpt lat="44.08607" lon="12.0783567"><ele>201.33333333333334</ele><time>2026-04-16T13:04:41.087Z</time></trkpt><trkpt lat="44.0859917" lon="12.078355"><ele>203.0</ele><time>2026-04-16T13:04:45.087Z</time></trkpt><trkpt lat="44.0859117" lon="12.0783617"><ele>203.00000000000003</ele><time>2026-04-16T13:04:49.087Z</time></trkpt><trkpt lat="44.0858317" lon="12.0783683"><ele>203.0</ele><time>2026-04-16T13:04:53.087Z</time></trkpt><trkpt lat="44.0857467" lon="12.0783817"><ele>203.0</ele><time>2026-04-16T13:04:57.087Z</time></trkpt><trkpt lat="44.0856833" lon="12.0783983"><ele>203.0</ele><time>2026-04-16T13:05:00.087Z</time></trkpt><trkpt lat="44.0856" lon="12.07839"><ele>203.00000000000003</ele><time>2026-04-16T13:05:04.087Z</time></trkpt><trkpt lat="44.08553" lon="12.0783583"><ele>203.0</ele><time>2026-04-16T13:05:08.087Z</time></trkpt><trkpt lat="44.08546" lon="12.0783333"><ele>203.0</ele><time>2026-04-16T13:05:12.087Z</time></trkpt><trkpt lat="44.08538" lon="12.0783133"><ele>203.0</ele><time>2026-04-16T13:05:16.087Z</time></trkpt><trkpt lat="44.0853183" lon="12.0782917"><ele>203.0</ele><time>2026-04-16T13:05:19.087Z</time></trkpt><trkpt lat="44.085255" lon="12.078275"><ele>203.0</ele><time>2026-04-16T13:05:22.087Z</time></trkpt><trkpt lat="44.0851917" lon="12.0782517"><ele>203.0</ele><time>2026-04-16T13:05:25.087Z</time></trkpt><trkpt lat="44.0851217" lon="12.0782333"><ele>203.0</ele><time>2026-04-16T13:05:28.087Z</time></trkpt><trkpt lat="44.0850567" lon="12.0782217"><ele>203.0</ele><time>2026-04-16T13:05:31.087Z</time></trkpt><trkpt lat="44.08499" lon="12.0782083"><ele>204.42857142857142</ele><time>2026-04-16T13:05:34.087Z</time></trkpt><trkpt lat="44.0849117" lon="12.078185"><ele>205.85714285714286</ele><time>2026-04-16T13:05:38.087Z</time></trkpt><trkpt lat="44.0848483" lon="12.078155"><ele>207.28571428571428</ele><time>2026-04-16T13:05:42.087Z</time></trkpt><trkpt lat="44.0847867" lon="12.0781283"><ele>208.71428571428572</ele><time>2026-04-16T13:05:47.087Z</time></trkpt><trkpt lat="44.08473" lon="12.0780867"><ele>210.14285714285714</ele><time>2026-04-16T13:05:53.087Z</time></trkpt><trkpt lat="44.0846667" lon="12.078075"><ele>211.57142857142856</ele><time>2026-04-16T13:05:59.087Z</time></trkpt><trkpt lat="44.084595" lon="12.078085"><ele>213.0</ele><time>2026-04-16T13:06:04.087Z</time></trkpt><trkpt lat="44.0844833" lon="12.0781233"><ele>212.99999999999997</ele><time>2026-04-16T13:06:09.087Z</time></trkpt><trkpt lat="44.0844183" lon="12.0781583"><ele>213.0</ele><time>2026-04-16T13:06:12.087Z</time></trkpt><trkpt lat="44.0843483" lon="12.07818"><ele>213.0</ele><time>2026-04-16T13:06:15.087Z</time></trkpt><trkpt lat="44.0842783" lon="12.0781917"><ele>213.0</ele><time>2026-04-16T13:06:19.087Z</time></trkpt><trkpt lat="44.08421" lon="12.078205"><ele>213.0</ele><time>2026-04-16T13:06:23.087Z</time></trkpt><trkpt lat="44.0841433" lon="12.0782233"><ele>212.99999999999997</ele><time>2026-04-16T13:06:26.087Z</time></trkpt><trkpt lat="44.0840817" lon="12.07825"><ele>213.0</ele><time>2026-04-16T13:06:30.087Z</time></trkpt><trkpt lat="44.0840083" lon="12.0782667"><ele>215.42857142857142</ele><time>2026-04-16T13:06:34.087Z</time></trkpt><trkpt lat="44.08394" lon="12.0782883"><ele>217.85714285714283</ele><time>2026-04-16T13:06:38.087Z</time></trkpt><trkpt lat="44.0838817" lon="12.0783217"><ele>220.28571428571428</ele><time>2026-04-16T13:06:42.087Z</time></trkpt><trkpt lat="44.08379" lon="12.0783433"><ele>222.7142857142857</ele><time>2026-04-16T13:06:45.087Z</time></trkpt><trkpt lat="44.0837233" lon="12.0783683"><ele>225.14285714285714</ele><time>2026-04-16T13:06:48.087Z</time></trkpt><trkpt lat="44.0836483" lon="12.0784033"><ele>227.57142857142853</ele><time>2026-04-16T13:06:52.087Z</time></trkpt><trkpt lat="44.08358" lon="12.0784267"><ele>229.99999999999997</ele><time>2026-04-16T13:06:56.087Z</time></trkpt><trkpt lat="44.083505" lon="12.07846"><ele>229.99999999999997</ele><time>2026-04-16T13:07:00.088Z</time></trkpt><trkpt lat="44.08343" lon="12.0784883"><ele>230.0</ele><time>2026-04-16T13:07:04.087Z</time></trkpt><trkpt lat="44.0833633" lon="12.0784983"><ele>229.99999999999997</ele><time>2026-04-16T13:07:07.087Z</time></trkpt><trkpt lat="44.0832933" lon="12.0785083"><ele>229.99999999999997</ele><time>2026-04-16T13:07:10.087Z</time></trkpt><trkpt lat="44.0832183" lon="12.07851"><ele>230.0</ele><time>2026-04-16T13:07:13.087Z</time></trkpt><trkpt lat="44.08315" lon="12.0785167"><ele>229.99999999999997</ele><time>2026-04-16T13:07:16.088Z</time></trkpt><trkpt lat="44.0830733" lon="12.078525"><ele>229.99999999999997</ele><time>2026-04-16T13:07:20.088Z</time></trkpt><trkpt lat="44.0830083" lon="12.0785267"><ele>230.4285714285714</ele><time>2026-04-16T13:07:24.087Z</time></trkpt><trkpt lat="44.08294" lon="12.0785217"><ele>230.85714285714283</ele><time>2026-04-16T13:07:29.087Z</time></trkpt><trkpt lat="44.082855" lon="12.0785"><ele>231.28571428571428</ele><time>2026-04-16T13:07:34.088Z</time></trkpt><trkpt lat="44.082775" lon="12.0784817"><ele>231.7142857142857</ele><time>2026-04-16T13:07:39.087Z</time></trkpt><trkpt lat="44.0827067" lon="12.0784783"><ele>232.1428571428571</ele><time>2026-04-16T13:07:43.087Z</time></trkpt><trkpt lat="44.0826433" lon="12.07848"><ele>232.57142857142858</ele><time>2026-04-16T13:07:47.087Z</time></trkpt><trkpt lat="44.08257" lon="12.07846"><ele>233.0</ele><time>2026-04-16T13:07:51.087Z</time></trkpt><trkpt lat="44.082495" lon="12.0784167"><ele>233.00000000000003</ele><time>2026-04-16T13:07:55.087Z</time></trkpt><trkpt lat="44.0824333" lon="12.0783817"><ele>233.0</ele><time>2026-04-16T13:07:59.087Z</time></trkpt><trkpt lat="44.0823867" lon="12.0783083"><ele>233.0</ele><time>2026-04-16T13:08:04.087Z</time></trkpt><trkpt lat="44.0823367" lon="12.0781217"><ele>233.0</ele><time>2026-04-16T13:08:11.087Z</time></trkpt><trkpt lat="44.08232" lon="12.0779983"><ele>233.00000000000003</ele><time>2026-04-16T13:08:15.088Z</time></trkpt><trkpt lat="44.0822967" lon="12.07791"><ele>233.0</ele><time>2026-04-16T13:08:18.087Z</time></trkpt><trkpt lat="44.082265" lon="12.0778183"><ele>234.57142857142858</ele><time>2026-04-16T13:08:21.087Z</time></trkpt><trkpt lat="44.0822183" lon="12.0777517"><ele>236.1428571428571</ele><time>2026-04-16T13:08:24.087Z</time></trkpt><trkpt lat="44.08217" lon="12.0776667"><ele>237.7142857142857</ele><time>2026-04-16T13:08:28.087Z</time></trkpt><trkpt lat="44.082115" lon="12.0776083"><ele>239.28571428571428</ele><time>2026-04-16T13:08:32.087Z</time></trkpt><trkpt lat="44.082055" lon="12.0775517"><ele>240.85714285714283</ele><time>2026-04-16T13:08:36.087Z</time></trkpt><trkpt lat="44.082005" lon="12.0774933"><ele>242.4285714285714</ele><time>2026-04-16T13:08:39.087Z</time></trkpt><trkpt lat="44.0819517" lon="12.0774167"><ele>243.99999999999997</ele><time>2026-04-16T13:08:42.087Z</time></trkpt><trkpt lat="44.081885" lon="12.0773567"><ele>243.99999999999997</ele><time>2026-04-16T13:08:46.087Z</time></trkpt><trkpt lat="44.0818267" lon="12.0773133"><ele>244.0</ele><time>2026-04-16T13:08:49.087Z</time></trkpt><trkpt lat="44.08175" lon="12.0772717"><ele>244.0</ele><time>2026-04-16T13:08:54.087Z</time></trkpt><trkpt lat="44.0816683" lon="12.0772717"><ele>244.0</ele><time>2026-04-16T13:08:58.087Z</time></trkpt><trkpt lat="44.081605" lon="12.0772567"><ele>243.99999999999997</ele><time>2026-04-16T13:09:02.087Z</time></trkpt><trkpt lat="44.081535" lon="12.07724"><ele>244.0</ele><time>2026-04-16T13:09:06.087Z</time></trkpt><trkpt lat="44.08145" lon="12.077225"><ele>247.0</ele><time>2026-04-16T13:09:09.087Z</time></trkpt><trkpt lat="44.08138" lon="12.0771933"><ele>249.99999999999997</ele><time>2026-04-16T13:09:13.087Z</time></trkpt><trkpt lat="44.0813083" lon="12.077115"><ele>252.99999999999997</ele><time>2026-04-16T13:09:17.087Z</time></trkpt><trkpt lat="44.0812483" lon="12.0770567"><ele>256.0</ele><time>2026-04-16T13:09:22.087Z</time></trkpt><trkpt lat="44.081165" lon="12.0769867"><ele>259.0</ele><time>2026-04-16T13:09:26.087Z</time></trkpt><trkpt lat="44.0808717" lon="12.076725"><ele>259.0</ele><time>2026-04-16T13:09:32.747Z</time></trkpt><trkpt lat="44.0809967" lon="12.0768867"><ele>259.0</ele><time>2026-04-16T13:09:37.087Z</time></trkpt><trkpt lat="44.080925" lon="12.0768483"><ele>259.0</ele><time>2026-04-16T13:09:40.087Z</time></trkpt><trkpt lat="44.080845" lon="12.0768367"><ele>259.0</ele><time>2026-04-16T13:09:44.087Z</time></trkpt><trkpt lat="44.080795" lon="12.0767833"><ele>259.0</ele><time>2026-04-16T13:09:47.087Z</time></trkpt><trkpt lat="44.08073" lon="12.07674"><ele>258.85714285714283</ele><time>2026-04-16T13:09:51.087Z</time></trkpt><trkpt lat="44.0806533" lon="12.0766883"><ele>258.7142857142857</ele><time>2026-04-16T13:09:56.087Z</time></trkpt><trkpt lat="44.0805833" lon="12.0766733"><ele>258.57142857142856</ele><time>2026-04-16T13:10:00.087Z</time></trkpt><trkpt lat="44.080515" lon="12.0766667"><ele>258.42857142857144</ele><time>2026-04-16T13:10:04.087Z</time></trkpt><trkpt lat="44.0804383" lon="12.076645"><ele>258.2857142857143</ele><time>2026-04-16T13:10:08.087Z</time></trkpt><trkpt lat="44.0803767" lon="12.0766233"><ele>258.1428571428571</ele><time>2026-04-16T13:10:11.087Z</time></trkpt><trkpt lat="44.080315" lon="12.0765667"><ele>258.0</ele><time>2026-04-16T13:10:15.087Z</time></trkpt><trkpt lat="44.0802517" lon="12.0765033"><ele>260.85714285714283</ele><time>2026-04-16T13:10:16.087Z</time></trkpt><trkpt lat="44.080255" lon="12.0764133"><ele>263.7142857142857</ele><time>2026-04-16T13:10:22.087Z</time></trkpt><trkpt lat="44.0803283" lon="12.0763917"><ele>266.57142857142856</ele><time>2026-04-16T13:10:28.087Z</time></trkpt><trkpt lat="44.0803933" lon="12.076345"><ele>269.42857142857144</ele><time>2026-04-16T13:10:34.087Z</time></trkpt><trkpt lat="44.0804583" lon="12.076305"><ele>272.2857142857143</ele><time>2026-04-16T13:10:40.087Z</time></trkpt><trkpt lat="44.0805383" lon="12.076295"><ele>275.1428571428571</ele><time>2026-04-16T13:10:47.087Z</time></trkpt><trkpt lat="44.080605" lon="12.07628"><ele>278.0</ele><time>2026-04-16T13:10:52.087Z</time></trkpt><trkpt lat="44.0806983" lon="12.076245"><ele>278.0</ele><time>2026-04-16T13:10:58.088Z</time></trkpt><trkpt lat="44.08075" lon="12.0761767"><ele>278.0</ele><time>2026-04-16T13:11:04.088Z</time></trkpt><trkpt lat="44.0807633" lon="12.0760717"><ele>278.0</ele><time>2026-04-16T13:11:09.087Z</time></trkpt><trkpt lat="44.080765" lon="12.0759467"><ele>278.0</ele><time>2026-04-16T13:11:16.088Z</time></trkpt><trkpt lat="44.0807583" lon="12.0758567"><ele>278.0</ele><time>2026-04-16T13:11:21.088Z</time></trkpt><trkpt lat="44.0807183" lon="12.0757733"><ele>278.0</ele><time>2026-04-16T13:11:26.087Z</time></trkpt><trkpt lat="44.0806783" lon="12.0756017"><ele>279.42857142857144</ele><time>2026-04-16T13:11:34.087Z</time></trkpt><trkpt lat="44.080675" lon="12.0754867"><ele>280.8571428571429</ele><time>2026-04-16T13:11:37.087Z</time></trkpt><trkpt lat="44.0806767" lon="12.075385"><ele>282.28571428571433</ele><time>2026-04-16T13:11:40.087Z</time></trkpt><trkpt lat="44.0806733" lon="12.0752883"><ele>283.7142857142857</ele><time>2026-04-16T13:11:43.087Z</time></trkpt><trkpt lat="44.080665" lon="12.0751983"><ele>285.14285714285717</ele><time>2026-04-16T13:11:46.087Z</time></trkpt><trkpt lat="44.0806617" lon="12.0751017"><ele>286.5714285714286</ele><time>2026-04-16T13:11:48.087Z</time></trkpt><trkpt lat="44.0806383" lon="12.0750033"><ele>288.0</ele><time>2026-04-16T13:11:52.087Z</time></trkpt><trkpt lat="44.0806233" lon="12.0749133"><ele>288.0</ele><time>2026-04-16T13:11:55.087Z</time></trkpt><trkpt lat="44.0805967" lon="12.0748233"><ele>288.0</ele><time>2026-04-16T13:11:59.087Z</time></trkpt><trkpt lat="44.0805667" lon="12.0747167"><ele>288.0</ele><time>2026-04-16T13:12:04.087Z</time></trkpt><trkpt lat="44.080555" lon="12.07461"><ele>288.0</ele><time>2026-04-16T13:12:07.087Z</time></trkpt><trkpt lat="44.080535" lon="12.0745233"><ele>288.0</ele><time>2026-04-16T13:12:10.088Z</time></trkpt><trkpt lat="44.0805017" lon="12.0744283"><ele>288.0</ele><time>2026-04-16T13:12:14.087Z</time></trkpt><trkpt lat="44.0804733" lon="12.074305"><ele>288.00000000000006</ele><time>2026-04-16T13:12:17.087Z</time></trkpt><trkpt lat="44.0804333" lon="12.0742183"><ele>288.0</ele><time>2026-04-16T13:12:22.087Z</time></trkpt><trkpt lat="44.0804" lon="12.0741317"><ele>288.0</ele><time>2026-04-16T13:12:25.087Z</time></trkpt><trkpt lat="44.0803683" lon="12.0740467"><ele>288.0</ele><time>2026-04-16T13:12:28.087Z</time></trkpt><trkpt lat="44.080325" lon="12.0739533"><ele>288.0</ele><time>2026-04-16T13:12:32.087Z</time></trkpt><trkpt lat="44.080295" lon="12.0738667"><ele>288.00000000000006</ele><time>2026-04-16T13:12:35.088Z</time></trkpt><trkpt lat="44.08026" lon="12.073765"><ele>288.0</ele><time>2026-04-16T13:12:39.088Z</time></trkpt><trkpt lat="44.0802367" lon="12.073675"><ele>287.8571428571429</ele><time>2026-04-16T13:12:43.087Z</time></trkpt><trkpt lat="44.08021" lon="12.0735767"><ele>287.7142857142857</ele><time>2026-04-16T13:12:47.087Z</time></trkpt><trkpt lat="44.080195" lon="12.0734733"><ele>287.57142857142856</ele><time>2026-04-16T13:12:51.087Z</time></trkpt><trkpt lat="44.08018" lon="12.0733767"><ele>287.42857142857144</ele><time>2026-04-16T13:12:55.087Z</time></trkpt><trkpt lat="44.080165" lon="12.0732717"><ele>287.2857142857143</ele><time>2026-04-16T13:12:59.087Z</time></trkpt><trkpt lat="44.08014" lon="12.0731767"><ele>287.14285714285717</ele><time>2026-04-16T13:13:03.087Z</time></trkpt><trkpt lat="44.0801167" lon="12.0730867"><ele>287.0</ele><time>2026-04-16T13:13:06.087Z</time></trkpt><trkpt lat="44.0800933" lon="12.072995"><ele>287.57142857142856</ele><time>2026-04-16T13:13:10.087Z</time></trkpt><trkpt lat="44.080075" lon="12.072895"><ele>288.1428571428571</ele><time>2026-04-16T13:13:14.087Z</time></trkpt><trkpt lat="44.0800667" lon="12.072785"><ele>288.7142857142857</ele><time>2026-04-16T13:13:18.087Z</time></trkpt><trkpt lat="44.080055" lon="12.0726933"><ele>289.2857142857143</ele><time>2026-04-16T13:13:26.087Z</time></trkpt><trkpt lat="44.0800333" lon="12.0725917"><ele>289.85714285714283</ele><time>2026-04-16T13:13:31.087Z</time></trkpt><trkpt lat="44.08002" lon="12.0724933"><ele>290.42857142857144</ele><time>2026-04-16T13:13:36.087Z</time></trkpt><trkpt lat="44.080005" lon="12.0723867"><ele>291.0</ele><time>2026-04-16T13:13:41.087Z</time></trkpt><trkpt lat="44.0799933" lon="12.0722833"><ele>291.2857142857143</ele><time>2026-04-16T13:13:46.087Z</time></trkpt><trkpt lat="44.0799533" lon="12.0722083"><ele>291.57142857142856</ele><time>2026-04-16T13:13:51.087Z</time></trkpt><trkpt lat="44.0799217" lon="12.072105"><ele>291.85714285714283</ele><time>2026-04-16T13:13:56.087Z</time></trkpt><trkpt lat="44.0798817" lon="12.0720217"><ele>292.1428571428571</ele><time>2026-04-16T13:14:00.087Z</time></trkpt><trkpt lat="44.0798417" lon="12.0719367"><ele>292.42857142857144</ele><time>2026-04-16T13:14:04.087Z</time></trkpt><trkpt lat="44.0798083" lon="12.0718617"><ele>292.71428571428567</ele><time>2026-04-16T13:14:07.087Z</time></trkpt><trkpt lat="44.0797683" lon="12.0717817"><ele>293.0</ele><time>2026-04-16T13:14:11.087Z</time></trkpt><trkpt lat="44.0797133" lon="12.07171"><ele>292.99999999999994</ele><time>2026-04-16T13:14:15.087Z</time></trkpt><trkpt lat="44.0796567" lon="12.0716683"><ele>293.0</ele><time>2026-04-16T13:14:19.087Z</time></trkpt><trkpt lat="44.0795983" lon="12.07162"><ele>293.0</ele><time>2026-04-16T13:14:23.087Z</time></trkpt><trkpt lat="44.07954" lon="12.0715633"><ele>293.0</ele><time>2026-04-16T13:14:27.087Z</time></trkpt><trkpt lat="44.0794817" lon="12.0715167"><ele>293.0</ele><time>2026-04-16T13:14:31.087Z</time></trkpt><trkpt lat="44.07942" lon="12.0714417"><ele>292.99999999999994</ele><time>2026-04-16T13:14:35.087Z</time></trkpt><trkpt lat="44.0793567" lon="12.0713867"><ele>293.0</ele><time>2026-04-16T13:14:39.088Z</time></trkpt><trkpt lat="44.0792867" lon="12.071345"><ele>295.2857142857143</ele><time>2026-04-16T13:14:44.087Z</time></trkpt><trkpt lat="44.0792267" lon="12.07131"><ele>297.57142857142856</ele><time>2026-04-16T13:14:48.087Z</time></trkpt><trkpt lat="44.0791683" lon="12.0712467"><ele>299.8571428571429</ele><time>2026-04-16T13:14:51.087Z</time></trkpt><trkpt lat="44.0791017" lon="12.0711833"><ele>302.1428571428571</ele><time>2026-04-16T13:14:55.087Z</time></trkpt><trkpt lat="44.0790383" lon="12.0711633"><ele>304.42857142857144</ele><time>2026-04-16T13:14:59.087Z</time></trkpt><trkpt lat="44.078975" lon="12.0711517"><ele>306.7142857142857</ele><time>2026-04-16T13:15:04.087Z</time></trkpt><trkpt lat="44.0789083" lon="12.071115"><ele>309.0</ele><time>2026-04-16T13:15:08.087Z</time></trkpt><trkpt lat="44.0788483" lon="12.0710767"><ele>309.00000000000006</ele><time>2026-04-16T13:15:12.087Z</time></trkpt><trkpt lat="44.0787833" lon="12.07102"><ele>309.0</ele><time>2026-04-16T13:15:16.087Z</time></trkpt><trkpt lat="44.078735" lon="12.07096"><ele>309.0</ele><time>2026-04-16T13:15:19.087Z</time></trkpt><trkpt lat="44.0786683" lon="12.070925"><ele>309.0</ele><time>2026-04-16T13:15:24.087Z</time></trkpt><trkpt lat="44.078605" lon="12.0708917"><ele>309.0</ele><time>2026-04-16T13:15:28.087Z</time></trkpt><trkpt lat="44.0785383" lon="12.0708583"><ele>309.00000000000006</ele><time>2026-04-16T13:15:33.088Z</time></trkpt><trkpt lat="44.078475" lon="12.0708217"><ele>309.0</ele><time>2026-04-16T13:15:37.087Z</time></trkpt><trkpt lat="44.078415" lon="12.07079"><ele>310.3333333333333</ele><time>2026-04-16T13:15:40.087Z</time></trkpt><trkpt lat="44.0783483" lon="12.0707283"><ele>311.6666666666667</ele><time>2026-04-16T13:15:44.087Z</time></trkpt><trkpt lat="44.0782733" lon="12.0707"><ele>313.0</ele><time>2026-04-16T13:15:49.087Z</time></trkpt><trkpt lat="44.078205" lon="12.070655"><ele>314.33333333333337</ele><time>2026-04-16T13:15:53.087Z</time></trkpt><trkpt lat="44.0781333" lon="12.0705817"><ele>315.6666666666667</ele><time>2026-04-16T13:15:57.087Z</time></trkpt><trkpt lat="44.078055" lon="12.07055"><ele>317.0</ele><time>2026-04-16T13:16:01.087Z</time></trkpt><trkpt lat="44.0780017" lon="12.0705033"><ele>317.0</ele><time>2026-04-16T13:16:04.087Z</time></trkpt><trkpt lat="44.077945" lon="12.0704283"><ele>317.0</ele><time>2026-04-16T13:16:07.087Z</time></trkpt><trkpt lat="44.0779017" lon="12.070335"><ele>317.0</ele><time>2026-04-16T13:16:11.087Z</time></trkpt><trkpt lat="44.07791" lon="12.0702433"><ele>317.0</ele><time>2026-04-16T13:16:15.087Z</time></trkpt><trkpt lat="44.078005" lon="12.07008"><ele>317.0</ele><time>2026-04-16T13:16:24.088Z</time></trkpt><trkpt lat="44.0780683" lon="12.0700433"><ele>317.0</ele><time>2026-04-16T13:16:27.087Z</time></trkpt><trkpt lat="44.07814" lon="12.0700233"><ele>317.0</ele><time>2026-04-16T13:16:30.087Z</time></trkpt><trkpt lat="44.0782117" lon="12.0699967"><ele>317.0</ele><time>2026-04-16T13:16:33.087Z</time></trkpt><trkpt lat="44.0782917" lon="12.069975"><ele>317.0</ele><time>2026-04-16T13:16:36.087Z</time></trkpt><trkpt lat="44.07839" lon="12.07"><ele>317.0</ele><time>2026-04-16T13:16:39.087Z</time></trkpt><trkpt lat="44.0784733" lon="12.070055"><ele>317.0</ele><time>2026-04-16T13:16:41.088Z</time></trkpt><trkpt lat="44.0785367" lon="12.070065"><ele>317.0</ele><time>2026-04-16T13:16:43.087Z</time></trkpt><trkpt lat="44.0786117" lon="12.0700817"><ele>317.1666666666667</ele><time>2026-04-16T13:16:45.087Z</time></trkpt><trkpt lat="44.078695" lon="12.070085"><ele>317.33333333333337</ele><time>2026-04-16T13:16:47.087Z</time></trkpt><trkpt lat="44.0787767" lon="12.07009"><ele>317.5</ele><time>2026-04-16T13:16:49.087Z</time></trkpt><trkpt lat="44.07886" lon="12.0700867"><ele>317.6666666666667</ele><time>2026-04-16T13:16:51.087Z</time></trkpt><trkpt lat="44.0789417" lon="12.0700783"><ele>317.8333333333333</ele><time>2026-04-16T13:16:53.087Z</time></trkpt><trkpt lat="44.0790233" lon="12.0700683"><ele>318.0</ele><time>2026-04-16T13:16:55.087Z</time></trkpt><trkpt lat="44.0791017" lon="12.0700617"><ele>318.5</ele><time>2026-04-16T13:16:57.088Z</time></trkpt><trkpt lat="44.0791817" lon="12.07005"><ele>319.0</ele><time>2026-04-16T13:16:59.087Z</time></trkpt><trkpt lat="44.0792617" lon="12.0700383"><ele>319.5</ele><time>2026-04-16T13:17:01.087Z</time></trkpt><trkpt lat="44.0793317" lon="12.070035"><ele>320.0</ele><time>2026-04-16T13:17:03.087Z</time></trkpt><trkpt lat="44.0794033" lon="12.0700333"><ele>320.5</ele><time>2026-04-16T13:17:05.087Z</time></trkpt><trkpt lat="44.07948" lon="12.0700417"><ele>321.0</ele><time>2026-04-16T13:17:08.087Z</time></trkpt><trkpt lat="44.0795683" lon="12.070015"><ele>321.0</ele><time>2026-04-16T13:17:11.087Z</time></trkpt><trkpt lat="44.0796333" lon="12.0699783"><ele>321.0</ele><time>2026-04-16T13:17:13.087Z</time></trkpt><trkpt lat="44.0797183" lon="12.0699367"><ele>321.0</ele><time>2026-04-16T13:17:15.087Z</time></trkpt><trkpt lat="44.0798017" lon="12.0699017"><ele>321.0</ele><time>2026-04-16T13:17:17.087Z</time></trkpt><trkpt lat="44.0798833" lon="12.0698783"><ele>321.0</ele><time>2026-04-16T13:17:19.087Z</time></trkpt><trkpt lat="44.0799683" lon="12.0698533"><ele>321.0</ele><time>2026-04-16T13:17:21.087Z</time></trkpt><trkpt lat="44.0800783" lon="12.069855"><ele>320.0</ele><time>2026-04-16T13:17:23.087Z</time></trkpt><trkpt lat="44.0801783" lon="12.069855"><ele>319.0</ele><time>2026-04-16T13:17:25.087Z</time></trkpt><trkpt lat="44.0802517" lon="12.0698283"><ele>318.0</ele><time>2026-04-16T13:17:27.087Z</time></trkpt><trkpt lat="44.08035" lon="12.069865"><ele>317.0</ele><time>2026-04-16T13:17:29.087Z</time></trkpt><trkpt lat="44.0804267" lon="12.0698717"><ele>316.0</ele><time>2026-04-16T13:17:31.087Z</time></trkpt><trkpt lat="44.080505" lon="12.0698533"><ele>315.0</ele><time>2026-04-16T13:17:33.087Z</time></trkpt><trkpt lat="44.08059" lon="12.06983"><ele>315.0</ele><time>2026-04-16T13:17:35.087Z</time></trkpt><trkpt lat="44.08067" lon="12.0698"><ele>315.0</ele><time>2026-04-16T13:17:37.087Z</time></trkpt><trkpt lat="44.080755" lon="12.06975"><ele>315.0</ele><time>2026-04-16T13:17:39.087Z</time></trkpt><trkpt lat="44.0808417" lon="12.0696767"><ele>315.0</ele><time>2026-04-16T13:17:41.087Z</time></trkpt><trkpt lat="44.0809417" lon="12.06957"><ele>315.0</ele><time>2026-04-16T13:17:43.088Z</time></trkpt><trkpt lat="44.0809967" lon="12.0695083"><ele>315.5</ele><time>2026-04-16T13:17:44.087Z</time></trkpt><trkpt lat="44.0810583" lon="12.06943"><ele>316.0</ele><time>2026-04-16T13:17:45.087Z</time></trkpt><trkpt lat="44.0811167" lon="12.06935"><ele>316.5</ele><time>2026-04-16T13:17:46.088Z</time></trkpt><trkpt lat="44.08117" lon="12.06927"><ele>317.0</ele><time>2026-04-16T13:17:47.087Z</time></trkpt><trkpt lat="44.0812333" lon="12.0691833"><ele>317.5</ele><time>2026-04-16T13:17:48.087Z</time></trkpt><trkpt lat="44.0812983" lon="12.0691033"><ele>318.0</ele><time>2026-04-16T13:17:49.087Z</time></trkpt><trkpt lat="44.081365" lon="12.06902"><ele>316.6666666666667</ele><time>2026-04-16T13:17:50.087Z</time></trkpt><trkpt lat="44.0814267" lon="12.0689317"><ele>315.3333333333333</ele><time>2026-04-16T13:17:51.087Z</time></trkpt><trkpt lat="44.081485" lon="12.0688483"><ele>314.0</ele><time>2026-04-16T13:17:52.087Z</time></trkpt><trkpt lat="44.0815433" lon="12.0687617"><ele>312.66666666666663</ele><time>2026-04-16T13:17:53.087Z</time></trkpt><trkpt lat="44.0816" lon="12.0686717"><ele>311.3333333333333</ele><time>2026-04-16T13:17:54.087Z</time></trkpt><trkpt lat="44.08165" lon="12.0685783"><ele>310.0</ele><time>2026-04-16T13:17:55.087Z</time></trkpt><trkpt lat="44.081695" lon="12.0684767"><ele>310.0</ele><time>2026-04-16T13:17:56.087Z</time></trkpt><trkpt lat="44.0817317" lon="12.0683633"><ele>310.0</ele><time>2026-04-16T13:17:57.087Z</time></trkpt><trkpt lat="44.0817633" lon="12.0682433"><ele>310.0</ele><time>2026-04-16T13:17:58.087Z</time></trkpt><trkpt lat="44.0818033" lon="12.06812"><ele>310.0</ele><time>2026-04-16T13:17:59.087Z</time></trkpt><trkpt lat="44.0818367" lon="12.0680017"><ele>310.0</ele><time>2026-04-16T13:18:00.087Z</time></trkpt><trkpt lat="44.08187" lon="12.0678833"><ele>307.4</ele><time>2026-04-16T13:18:01.087Z</time></trkpt><trkpt lat="44.0819067" lon="12.0677633"><ele>304.8</ele><time>2026-04-16T13:18:02.088Z</time></trkpt><trkpt lat="44.081945" lon="12.0676433"><ele>302.2</ele><time>2026-04-16T13:18:03.087Z</time></trkpt><trkpt lat="44.0819783" lon="12.0675217"><ele>299.6</ele><time>2026-04-16T13:18:04.087Z</time></trkpt><trkpt lat="44.0820067" lon="12.0674017"><ele>297.0</ele><time>2026-04-16T13:18:05.087Z</time></trkpt><trkpt lat="44.08204" lon="12.0672967"><ele>295.3333333333333</ele><time>2026-04-16T13:18:06.087Z</time></trkpt><trkpt lat="44.0820733" lon="12.0672"><ele>293.6666666666667</ele><time>2026-04-16T13:18:07.087Z</time></trkpt><trkpt lat="44.0821017" lon="12.0671117"><ele>292.0</ele><time>2026-04-16T13:18:08.087Z</time></trkpt><trkpt lat="44.0821333" lon="12.0669567"><ele>290.33333333333337</ele><time>2026-04-16T13:18:10.087Z</time></trkpt><trkpt lat="44.082125" lon="12.06682"><ele>288.6666666666667</ele><time>2026-04-16T13:18:12.087Z</time></trkpt><trkpt lat="44.0820633" lon="12.066735"><ele>287.0</ele><time>2026-04-16T13:18:14.087Z</time></trkpt><trkpt lat="44.0819633" lon="12.0667067"><ele>287.0</ele><time>2026-04-16T13:18:16.087Z</time></trkpt><trkpt lat="44.0818483" lon="12.06672"><ele>287.0</ele><time>2026-04-16T13:18:18.087Z</time></trkpt><trkpt lat="44.0817233" lon="12.066785"><ele>287.0</ele><time>2026-04-16T13:18:20.087Z</time></trkpt><trkpt lat="44.0816583" lon="12.0668383"><ele>287.0</ele><time>2026-04-16T13:18:21.087Z</time></trkpt><trkpt lat="44.0816" lon="12.0668867"><ele>287.0</ele><time>2026-04-16T13:18:22.087Z</time></trkpt><trkpt lat="44.081505" lon="12.06694"><ele>285.0</ele><time>2026-04-16T13:18:24.088Z</time></trkpt><trkpt lat="44.0814" lon="12.0669217"><ele>283.0</ele><time>2026-04-16T13:18:26.087Z</time></trkpt><trkpt lat="44.0813317" lon="12.06681"><ele>281.0</ele><time>2026-04-16T13:18:28.087Z</time></trkpt><trkpt lat="44.081355" lon="12.06667"><ele>279.0</ele><time>2026-04-16T13:18:30.087Z</time></trkpt><trkpt lat="44.081425" lon="12.0665383"><ele>277.0</ele><time>2026-04-16T13:18:32.087Z</time></trkpt><trkpt lat="44.0814617" lon="12.0664533"><ele>277.1428571428571</ele><time>2026-04-16T13:18:33.087Z</time></trkpt><trkpt lat="44.0815" lon="12.066365"><ele>277.2857142857143</ele><time>2026-04-16T13:18:34.088Z</time></trkpt><trkpt lat="44.081535" lon="12.0662883"><ele>277.42857142857144</ele><time>2026-04-16T13:18:35.087Z</time></trkpt><trkpt lat="44.0815683" lon="12.0661983"><ele>277.57142857142856</ele><time>2026-04-16T13:18:36.087Z</time></trkpt><trkpt lat="44.0815967" lon="12.0661067"><ele>277.7142857142857</ele><time>2026-04-16T13:18:37.087Z</time></trkpt><trkpt lat="44.0816283" lon="12.0660133"><ele>277.85714285714283</ele><time>2026-04-16T13:18:38.088Z</time></trkpt><trkpt lat="44.0816617" lon="12.065925"><ele>278.0</ele><time>2026-04-16T13:18:39.087Z</time></trkpt><trkpt lat="44.08169" lon="12.0658367"><ele>276.4</ele><time>2026-04-16T13:18:40.087Z</time></trkpt><trkpt lat="44.0817167" lon="12.0657517"><ele>274.8</ele><time>2026-04-16T13:18:41.087Z</time></trkpt><trkpt lat="44.08178" lon="12.0656167"><ele>273.2</ele><time>2026-04-16T13:18:43.087Z</time></trkpt><trkpt lat="44.081835" lon="12.0654967"><ele>271.6</ele><time>2026-04-16T13:18:45.087Z</time></trkpt><trkpt lat="44.081845" lon="12.0653667"><ele>270.0</ele><time>2026-04-16T13:18:47.088Z</time></trkpt><trkpt lat="44.081805" lon="12.06526"><ele>270.0</ele><time>2026-04-16T13:18:49.087Z</time></trkpt><trkpt lat="44.08177" lon="12.0651683"><ele>270.0</ele><time>2026-04-16T13:18:51.087Z</time></trkpt><trkpt lat="44.081765" lon="12.0650483"><ele>270.0</ele><time>2026-04-16T13:18:53.087Z</time></trkpt><trkpt lat="44.0818033" lon="12.064905"><ele>270.0</ele><time>2026-04-16T13:18:55.088Z</time></trkpt><trkpt lat="44.0818333" lon="12.0648067"><ele>270.0</ele><time>2026-04-16T13:18:56.087Z</time></trkpt><trkpt lat="44.0818683" lon="12.0647333"><ele>270.0</ele><time>2026-04-16T13:18:57.087Z</time></trkpt><trkpt lat="44.08191" lon="12.0646633"><ele>267.0</ele><time>2026-04-16T13:18:58.087Z</time></trkpt><trkpt lat="44.0819783" lon="12.0645433"><ele>264.0</ele><time>2026-04-16T13:19:00.087Z</time></trkpt><trkpt lat="44.08206" lon="12.0644233"><ele>261.0</ele><time>2026-04-16T13:19:02.087Z</time></trkpt><trkpt lat="44.0821133" lon="12.0643567"><ele>258.0</ele><time>2026-04-16T13:19:03.087Z</time></trkpt><trkpt lat="44.0821917" lon="12.0642817"><ele>255.0</ele><time>2026-04-16T13:19:04.087Z</time></trkpt><trkpt lat="44.0822683" lon="12.0641917"><ele>252.0</ele><time>2026-04-16T13:19:05.087Z</time></trkpt><trkpt lat="44.0823567" lon="12.0640817"><ele>249.0</ele><time>2026-04-16T13:19:06.087Z</time></trkpt><trkpt lat="44.082435" lon="12.063985"><ele>246.0</ele><time>2026-04-16T13:19:07.087Z</time></trkpt><trkpt lat="44.0825033" lon="12.0639"><ele>243.0</ele><time>2026-04-16T13:19:08.087Z</time></trkpt><trkpt lat="44.0825867" lon="12.0638233"><ele>240.0</ele><time>2026-04-16T13:19:09.087Z</time></trkpt><trkpt lat="44.0826683" lon="12.0637467"><ele>240.0</ele><time>2026-04-16T13:19:10.087Z</time></trkpt><trkpt lat="44.0827517" lon="12.06367"><ele>240.0</ele><time>2026-04-16T13:19:11.087Z</time></trkpt><trkpt lat="44.0828283" lon="12.0636033"><ele>240.0</ele><time>2026-04-16T13:19:12.087Z</time></trkpt><trkpt lat="44.0829017" lon="12.063545"><ele>240.0</ele><time>2026-04-16T13:19:13.087Z</time></trkpt><trkpt lat="44.08297" lon="12.0634867"><ele>240.0</ele><time>2026-04-16T13:19:14.087Z</time></trkpt><trkpt lat="44.08303" lon="12.0634267"><ele>240.0</ele><time>2026-04-16T13:19:15.087Z</time></trkpt><trkpt lat="44.0830833" lon="12.0633717"><ele>240.0</ele><time>2026-04-16T13:19:16.087Z</time></trkpt><trkpt lat="44.0831383" lon="12.06331"><ele>240.0</ele><time>2026-04-16T13:19:17.087Z</time></trkpt><trkpt lat="44.0832167" lon="12.0631867"><ele>240.0</ele><time>2026-04-16T13:19:19.087Z</time></trkpt><trkpt lat="44.0832667" lon="12.0630783"><ele>240.0</ele><time>2026-04-16T13:19:21.087Z</time></trkpt><trkpt lat="44.0832467" lon="12.0629567"><ele>240.0</ele><time>2026-04-16T13:19:24.087Z</time></trkpt><trkpt lat="44.0831583" lon="12.0628867"><ele>237.83333333333334</ele><time>2026-04-16T13:19:26.087Z</time></trkpt><trkpt lat="44.0830367" lon="12.0628533"><ele>235.66666666666669</ele><time>2026-04-16T13:19:28.087Z</time></trkpt><trkpt lat="44.082965" lon="12.0628333"><ele>233.5</ele><time>2026-04-16T13:19:29.087Z</time></trkpt><trkpt lat="44.0828867" lon="12.06283"><ele>231.33333333333334</ele><time>2026-04-16T13:19:30.087Z</time></trkpt><trkpt lat="44.08281" lon="12.062825"><ele>229.16666666666669</ele><time>2026-04-16T13:19:31.087Z</time></trkpt><trkpt lat="44.0827233" lon="12.0628133"><ele>227.0</ele><time>2026-04-16T13:19:32.087Z</time></trkpt><trkpt lat="44.082635" lon="12.0628083"><ele>227.00000000000003</ele><time>2026-04-16T13:19:33.087Z</time></trkpt><trkpt lat="44.0825517" lon="12.0628117"><ele>227.0</ele><time>2026-04-16T13:19:34.087Z</time></trkpt><trkpt lat="44.08247" lon="12.0628117"><ele>227.0</ele><time>2026-04-16T13:19:35.087Z</time></trkpt><trkpt lat="44.082385" lon="12.0628183"><ele>227.0</ele><time>2026-04-16T13:19:36.087Z</time></trkpt><trkpt lat="44.082295" lon="12.06282"><ele>227.00000000000003</ele><time>2026-04-16T13:19:37.087Z</time></trkpt><trkpt lat="44.0821967" lon="12.062825"><ele>227.0</ele><time>2026-04-16T13:19:38.087Z</time></trkpt><trkpt lat="44.082095" lon="12.0628133"><ele>226.50000000000003</ele><time>2026-04-16T13:19:39.087Z</time></trkpt><trkpt lat="44.0820067" lon="12.0628"><ele>226.0</ele><time>2026-04-16T13:19:40.087Z</time></trkpt><trkpt lat="44.0819183" lon="12.0627883"><ele>225.5</ele><time>2026-04-16T13:19:41.087Z</time></trkpt><trkpt lat="44.0818333" lon="12.0627533"><ele>225.0</ele><time>2026-04-16T13:19:42.087Z</time></trkpt><trkpt lat="44.0817533" lon="12.0627133"><ele>224.50000000000003</ele><time>2026-04-16T13:19:43.087Z</time></trkpt><trkpt lat="44.0816733" lon="12.0626583"><ele>224.0</ele><time>2026-04-16T13:19:44.087Z</time></trkpt><trkpt lat="44.0816" lon="12.062585"><ele>223.66666666666669</ele><time>2026-04-16T13:19:45.088Z</time></trkpt><trkpt lat="44.0815367" lon="12.0625133"><ele>223.33333333333334</ele><time>2026-04-16T13:19:46.087Z</time></trkpt><trkpt lat="44.081475" lon="12.0624283"><ele>223.0</ele><time>2026-04-16T13:19:47.087Z</time></trkpt><trkpt lat="44.0814117" lon="12.06234"><ele>222.66666666666669</ele><time>2026-04-16T13:19:48.087Z</time></trkpt><trkpt lat="44.0813517" lon="12.0622667"><ele>222.33333333333334</ele><time>2026-04-16T13:19:49.087Z</time></trkpt><trkpt lat="44.0812967" lon="12.0621933"><ele>222.0</ele><time>2026-04-16T13:19:50.087Z</time></trkpt><trkpt lat="44.0812483" lon="12.0621217"><ele>219.25</ele><time>2026-04-16T13:19:51.087Z</time></trkpt><trkpt lat="44.0812" lon="12.061975"><ele>216.5</ele><time>2026-04-16T13:19:53.087Z</time></trkpt><trkpt lat="44.08123" lon="12.06182"><ele>213.75</ele><time>2026-04-16T13:19:55.087Z</time></trkpt><trkpt lat="44.0813067" lon="12.0617233"><ele>211.0</ele><time>2026-04-16T13:19:57.087Z</time></trkpt><trkpt lat="44.08141" lon="12.0616267"><ele>209.49999999999997</ele><time>2026-04-16T13:19:59.087Z</time></trkpt><trkpt lat="44.08147" lon="12.0615683"><ele>208.0</ele><time>2026-04-16T13:20:00.087Z</time></trkpt><trkpt lat="44.0815383" lon="12.0615067"><ele>206.5</ele><time>2026-04-16T13:20:01.087Z</time></trkpt><trkpt lat="44.0816083" lon="12.06144"><ele>205.0</ele><time>2026-04-16T13:20:02.087Z</time></trkpt><trkpt lat="44.08168" lon="12.0613717"><ele>203.49999999999997</ele><time>2026-04-16T13:20:03.087Z</time></trkpt><trkpt lat="44.0817567" lon="12.0613083"><ele>202.0</ele><time>2026-04-16T13:20:04.087Z</time></trkpt><trkpt lat="44.0818333" lon="12.0612517"><ele>202.0</ele><time>2026-04-16T13:20:05.087Z</time></trkpt><trkpt lat="44.0819067" lon="12.0611983"><ele>202.0</ele><time>2026-04-16T13:20:06.087Z</time></trkpt><trkpt lat="44.0819733" lon="12.06115"><ele>202.0</ele><time>2026-04-16T13:20:07.087Z</time></trkpt><trkpt lat="44.082045" lon="12.0610967"><ele>202.0</ele><time>2026-04-16T13:20:08.087Z</time></trkpt><trkpt lat="44.0821117" lon="12.06105"><ele>202.0</ele><time>2026-04-16T13:20:09.087Z</time></trkpt><trkpt lat="44.0821717" lon="12.0610033"><ele>202.0</ele><time>2026-04-16T13:20:10.087Z</time></trkpt><trkpt lat="44.0822283" lon="12.06096"><ele>202.0</ele><time>2026-04-16T13:20:11.087Z</time></trkpt><trkpt lat="44.0823117" lon="12.0608567"><ele>199.8</ele><time>2026-04-16T13:20:13.087Z</time></trkpt><trkpt lat="44.0823383" lon="12.060735"><ele>197.6</ele><time>2026-04-16T13:20:15.087Z</time></trkpt><trkpt lat="44.082315" lon="12.060635"><ele>195.4</ele><time>2026-04-16T13:20:17.088Z</time></trkpt><trkpt lat="44.0822583" lon="12.0605533"><ele>193.20000000000002</ele><time>2026-04-16T13:20:19.087Z</time></trkpt><trkpt lat="44.082145" lon="12.060465"><ele>191.0</ele><time>2026-04-16T13:20:21.087Z</time></trkpt><trkpt lat="44.0820833" lon="12.0604033"><ele>191.0</ele><time>2026-04-16T13:20:22.087Z</time></trkpt><trkpt lat="44.0820267" lon="12.0603417"><ele>191.0</ele><time>2026-04-16T13:20:23.087Z</time></trkpt><trkpt lat="44.081985" lon="12.060265"><ele>191.0</ele><time>2026-04-16T13:20:24.087Z</time></trkpt><trkpt lat="44.0819517" lon="12.06017"><ele>191.0</ele><time>2026-04-16T13:20:25.087Z</time></trkpt><trkpt lat="44.081925" lon="12.0600617"><ele>191.0</ele><time>2026-04-16T13:20:26.087Z</time></trkpt><trkpt lat="44.081915" lon="12.0599417"><ele>191.0</ele><time>2026-04-16T13:20:27.087Z</time></trkpt><trkpt lat="44.0819183" lon="12.059815"><ele>189.16666666666666</ele><time>2026-04-16T13:20:28.087Z</time></trkpt><trkpt lat="44.081925" lon="12.0596917"><ele>187.33333333333331</ele><time>2026-04-16T13:20:29.087Z</time></trkpt><trkpt lat="44.0819333" lon="12.0595817"><ele>185.5</ele><time>2026-04-16T13:20:30.087Z</time></trkpt><trkpt lat="44.0819467" lon="12.0594733"><ele>183.66666666666666</ele><time>2026-04-16T13:20:31.087Z</time></trkpt><trkpt lat="44.0819567" lon="12.0593667"><ele>181.83333333333334</ele><time>2026-04-16T13:20:32.087Z</time></trkpt><trkpt lat="44.0819633" lon="12.0592683"><ele>180.0</ele><time>2026-04-16T13:20:33.087Z</time></trkpt><trkpt lat="44.0819917" lon="12.0591133"><ele>177.8</ele><time>2026-04-16T13:20:35.087Z</time></trkpt><trkpt lat="44.08208" lon="12.058985"><ele>175.6</ele><time>2026-04-16T13:20:37.087Z</time></trkpt><trkpt lat="44.0821417" lon="12.05892"><ele>173.39999999999998</ele><time>2026-04-16T13:20:38.087Z</time></trkpt><trkpt lat="44.0822033" lon="12.0588533"><ele>171.2</ele><time>2026-04-16T13:20:39.087Z</time></trkpt><trkpt lat="44.0822767" lon="12.0587983"><ele>169.0</ele><time>2026-04-16T13:20:40.087Z</time></trkpt><trkpt lat="44.0823567" lon="12.0587333"><ele>170.0</ele><time>2026-04-16T13:20:41.088Z</time></trkpt><trkpt lat="44.0824467" lon="12.0586583"><ele>171.0</ele><time>2026-04-16T13:20:42.087Z</time></trkpt><trkpt lat="44.082535" lon="12.0585983"><ele>172.0</ele><time>2026-04-16T13:20:43.086Z</time></trkpt><trkpt lat="44.0826217" lon="12.0585183"><ele>173.0</ele><time>2026-04-16T13:20:44.086Z</time></trkpt><trkpt lat="44.082715" lon="12.05845"><ele>174.0</ele><time>2026-04-16T13:20:45.086Z</time></trkpt><trkpt lat="44.082805" lon="12.0583817"><ele>174.0</ele><time>2026-04-16T13:20:46.086Z</time></trkpt><trkpt lat="44.0828883" lon="12.0583167"><ele>174.0</ele><time>2026-04-16T13:20:47.086Z</time></trkpt><trkpt lat="44.0829667" lon="12.0582567"><ele>174.0</ele><time>2026-04-16T13:20:48.086Z</time></trkpt><trkpt lat="44.0830333" lon="12.05819"><ele>174.0</ele><time>2026-04-16T13:20:49.086Z</time></trkpt><trkpt lat="44.0830917" lon="12.0581267"><ele>174.0</ele><time>2026-04-16T13:20:50.086Z</time></trkpt><trkpt lat="44.083145" lon="12.0580717"><ele>174.0</ele><time>2026-04-16T13:20:51.086Z</time></trkpt><trkpt lat="44.0832233" lon="12.0579617"><ele>172.66666666666666</ele><time>2026-04-16T13:20:53.086Z</time></trkpt><trkpt lat="44.0832817" lon="12.0578033"><ele>171.33333333333334</ele><time>2026-04-16T13:20:55.087Z</time></trkpt><trkpt lat="44.08331" lon="12.05771"><ele>170.0</ele><time>2026-04-16T13:20:56.086Z</time></trkpt><trkpt lat="44.0833367" lon="12.0576133"><ele>168.66666666666669</ele><time>2026-04-16T13:20:57.086Z</time></trkpt><trkpt lat="44.0833517" lon="12.0575183"><ele>167.33333333333334</ele><time>2026-04-16T13:20:58.086Z</time></trkpt><trkpt lat="44.0833717" lon="12.0574283"><ele>166.0</ele><time>2026-04-16T13:20:59.086Z</time></trkpt><trkpt lat="44.0833833" lon="12.05734"><ele>164.66666666666669</ele><time>2026-04-16T13:21:00.086Z</time></trkpt><trkpt lat="44.0833833" lon="12.05725"><ele>163.33333333333334</ele><time>2026-04-16T13:21:01.087Z</time></trkpt><trkpt lat="44.083365" lon="12.0571483"><ele>162.0</ele><time>2026-04-16T13:21:02.086Z</time></trkpt><trkpt lat="44.0833317" lon="12.0570433"><ele>160.66666666666666</ele><time>2026-04-16T13:21:03.086Z</time></trkpt><trkpt lat="44.0833" lon="12.056935"><ele>159.33333333333331</ele><time>2026-04-16T13:21:04.086Z</time></trkpt><trkpt lat="44.0832633" lon="12.0568117"><ele>158.0</ele><time>2026-04-16T13:21:05.086Z</time></trkpt><trkpt lat="44.0832217" lon="12.0566983"><ele>156.16666666666666</ele><time>2026-04-16T13:21:06.086Z</time></trkpt><trkpt lat="44.0831717" lon="12.0565817"><ele>154.33333333333331</ele><time>2026-04-16T13:21:07.086Z</time></trkpt><trkpt lat="44.0831233" lon="12.0564683"><ele>152.5</ele><time>2026-04-16T13:21:08.086Z</time></trkpt><trkpt lat="44.0830767" lon="12.0563683"><ele>150.66666666666666</ele><time>2026-04-16T13:21:09.086Z</time></trkpt><trkpt lat="44.0830317" lon="12.0562717"><ele>148.83333333333334</ele><time>2026-04-16T13:21:10.086Z</time></trkpt><trkpt lat="44.0829983" lon="12.0561767"><ele>147.0</ele><time>2026-04-16T13:21:11.086Z</time></trkpt><trkpt lat="44.0829667" lon="12.056075"><ele>147.0</ele><time>2026-04-16T13:21:12.086Z</time></trkpt><trkpt lat="44.0829433" lon="12.05598"><ele>147.0</ele><time>2026-04-16T13:21:13.086Z</time></trkpt><trkpt lat="44.082925" lon="12.0558833"><ele>147.0</ele><time>2026-04-16T13:21:14.087Z</time></trkpt><trkpt lat="44.0829083" lon="12.0557717"><ele>147.0</ele><time>2026-04-16T13:21:15.086Z</time></trkpt><trkpt lat="44.0829017" lon="12.0556783"><ele>147.0</ele><time>2026-04-16T13:21:16.086Z</time></trkpt><trkpt lat="44.0829017" lon="12.0555833"><ele>147.0</ele><time>2026-04-16T13:21:17.086Z</time></trkpt><trkpt lat="44.0829133" lon="12.0554833"><ele>147.0</ele><time>2026-04-16T13:21:18.086Z</time></trkpt><trkpt lat="44.0829367" lon="12.055375"><ele>145.0</ele><time>2026-04-16T13:21:19.086Z</time></trkpt><trkpt lat="44.0829683" lon="12.0552833"><ele>143.0</ele><time>2026-04-16T13:21:20.086Z</time></trkpt><trkpt lat="44.0830117" lon="12.055195"><ele>141.0</ele><time>2026-04-16T13:21:21.086Z</time></trkpt><trkpt lat="44.0830517" lon="12.0551167"><ele>139.0</ele><time>2026-04-16T13:21:22.086Z</time></trkpt><trkpt lat="44.083095" lon="12.0550333"><ele>137.0</ele><time>2026-04-16T13:21:23.086Z</time></trkpt><trkpt lat="44.0831317" lon="12.0549467"><ele>135.0</ele><time>2026-04-16T13:21:24.086Z</time></trkpt><trkpt lat="44.08318" lon="12.0548567"><ele>133.0</ele><time>2026-04-16T13:21:25.086Z</time></trkpt><trkpt lat="44.083225" lon="12.0547683"><ele>132.42857142857142</ele><time>2026-04-16T13:21:26.086Z</time></trkpt><trkpt lat="44.0832717" lon="12.054685"><ele>131.85714285714286</ele><time>2026-04-16T13:21:27.086Z</time></trkpt><trkpt lat="44.0833183" lon="12.054605"><ele>131.28571428571428</ele><time>2026-04-16T13:21:28.086Z</time></trkpt><trkpt lat="44.0833617" lon="12.054525"><ele>130.71428571428572</ele><time>2026-04-16T13:21:29.086Z</time></trkpt><trkpt lat="44.0833983" lon="12.0544517"><ele>130.14285714285714</ele><time>2026-04-16T13:21:30.086Z</time></trkpt><trkpt lat="44.0834333" lon="12.0543717"><ele>129.57142857142856</ele><time>2026-04-16T13:21:31.086Z</time></trkpt><trkpt lat="44.083465" lon="12.05429"><ele>129.0</ele><time>2026-04-16T13:21:32.086Z</time></trkpt><trkpt lat="44.0835" lon="12.0542"><ele>128.99999999999997</ele><time>2026-04-16T13:21:33.086Z</time></trkpt><trkpt lat="44.083535" lon="12.0541217"><ele>129.0</ele><time>2026-04-16T13:21:34.086Z</time></trkpt><trkpt lat="44.0835717" lon="12.0540467"><ele>129.0</ele><time>2026-04-16T13:21:35.086Z</time></trkpt><trkpt lat="44.08361" lon="12.053975"><ele>129.0</ele><time>2026-04-16T13:21:36.086Z</time></trkpt><trkpt lat="44.0836567" lon="12.05391"><ele>129.0</ele><time>2026-04-16T13:21:37.086Z</time></trkpt><trkpt lat="44.0837183" lon="12.05386"><ele>128.99999999999997</ele><time>2026-04-16T13:21:38.086Z</time></trkpt><trkpt lat="44.0837883" lon="12.053825"><ele>129.0</ele><time>2026-04-16T13:21:39.086Z</time></trkpt><trkpt lat="44.0838567" lon="12.053815"><ele>126.83333333333333</ele><time>2026-04-16T13:21:40.086Z</time></trkpt><trkpt lat="44.083985" lon="12.0538283"><ele>124.66666666666666</ele><time>2026-04-16T13:21:42.086Z</time></trkpt><trkpt lat="44.08405" lon="12.0538367"><ele>122.5</ele><time>2026-04-16T13:21:43.086Z</time></trkpt><trkpt lat="44.0841217" lon="12.0538483"><ele>120.33333333333333</ele><time>2026-04-16T13:21:44.086Z</time></trkpt><trkpt lat="44.0841883" lon="12.0538667"><ele>118.16666666666666</ele><time>2026-04-16T13:21:45.086Z</time></trkpt><trkpt lat="44.0842517" lon="12.05388"><ele>116.0</ele><time>2026-04-16T13:21:46.086Z</time></trkpt><trkpt lat="44.08432" lon="12.0538783"><ele>115.99999999999999</ele><time>2026-04-16T13:21:47.086Z</time></trkpt><trkpt lat="44.0843883" lon="12.0538833"><ele>116.0</ele><time>2026-04-16T13:21:48.086Z</time></trkpt><trkpt lat="44.0844883" lon="12.0538183"><ele>116.0</ele><time>2026-04-16T13:21:50.086Z</time></trkpt><trkpt lat="44.0845117" lon="12.0536567"><ele>116.0</ele><time>2026-04-16T13:21:52.086Z</time></trkpt><trkpt lat="44.0844883" lon="12.05356"><ele>115.99999999999999</ele><time>2026-04-16T13:21:53.086Z</time></trkpt><trkpt lat="44.0844633" lon="12.05346"><ele>116.0</ele><time>2026-04-16T13:21:54.086Z</time></trkpt><trkpt lat="44.0844367" lon="12.0533567"><ele>114.16666666666666</ele><time>2026-04-16T13:21:55.086Z</time></trkpt><trkpt lat="44.084425" lon="12.05326"><ele>112.33333333333333</ele><time>2026-04-16T13:21:56.086Z</time></trkpt><trkpt lat="44.0844267" lon="12.0531583"><ele>110.5</ele><time>2026-04-16T13:21:57.086Z</time></trkpt><trkpt lat="44.08445" lon="12.05306"><ele>108.66666666666666</ele><time>2026-04-16T13:21:58.086Z</time></trkpt><trkpt lat="44.08449" lon="12.0529617"><ele>106.83333333333333</ele><time>2026-04-16T13:21:59.086Z</time></trkpt><trkpt lat="44.084545" lon="12.05288"><ele>105.0</ele><time>2026-04-16T13:22:00.086Z</time></trkpt><trkpt lat="44.0846067" lon="12.0527967"><ele>105.0</ele><time>2026-04-16T13:22:01.087Z</time></trkpt><trkpt lat="44.084675" lon="12.05271"><ele>105.0</ele><time>2026-04-16T13:22:02.086Z</time></trkpt><trkpt lat="44.084745" lon="12.0526267"><ele>105.0</ele><time>2026-04-16T13:22:03.086Z</time></trkpt><trkpt lat="44.084805" lon="12.052555"><ele>105.0</ele><time>2026-04-16T13:22:04.087Z</time></trkpt><trkpt lat="44.08486" lon="12.0525"><ele>105.0</ele><time>2026-04-16T13:22:05.086Z</time></trkpt><trkpt lat="44.084935" lon="12.0524017"><ele>105.0</ele><time>2026-04-16T13:22:07.086Z</time></trkpt><trkpt lat="44.085015" lon="12.0522983"><ele>102.83333333333333</ele><time>2026-04-16T13:22:09.086Z</time></trkpt><trkpt lat="44.0850967" lon="12.0522117"><ele>100.66666666666667</ele><time>2026-04-16T13:22:11.086Z</time></trkpt><trkpt lat="44.0851783" lon="12.0521733"><ele>98.5</ele><time>2026-04-16T13:22:13.086Z</time></trkpt><trkpt lat="44.0852433" lon="12.0521267"><ele>96.33333333333334</ele><time>2026-04-16T13:22:15.086Z</time></trkpt><trkpt lat="44.0852533" lon="12.0520283"><ele>94.16666666666667</ele><time>2026-04-16T13:22:18.086Z</time></trkpt><trkpt lat="44.085185" lon="12.05195"><ele>92.0</ele><time>2026-04-16T13:22:21.086Z</time></trkpt><trkpt lat="44.085125" lon="12.051875"><ele>92.0</ele><time>2026-04-16T13:22:24.086Z</time></trkpt><trkpt lat="44.08506" lon="12.051845"><ele>92.0</ele><time>2026-04-16T13:22:26.086Z</time></trkpt><trkpt lat="44.0849967" lon="12.0518183"><ele>92.0</ele><time>2026-04-16T13:22:28.086Z</time></trkpt><trkpt lat="44.08491" lon="12.0518067"><ele>92.0</ele><time>2026-04-16T13:22:30.086Z</time></trkpt><trkpt lat="44.0848167" lon="12.0517967"><ele>92.0</ele><time>2026-04-16T13:22:32.086Z</time></trkpt><trkpt lat="44.0847233" lon="12.05178"><ele>92.0</ele><time>2026-04-16T13:22:34.086Z</time></trkpt><trkpt lat="44.0846383" lon="12.051765"><ele>92.0</ele><time>2026-04-16T13:22:36.086Z</time></trkpt><trkpt lat="44.0845367" lon="12.05176"><ele>92.0</ele><time>2026-04-16T13:22:38.086Z</time></trkpt><trkpt lat="44.0844133" lon="12.0517367"><ele>92.0</ele><time>2026-04-16T13:22:40.086Z</time></trkpt><trkpt lat="44.0843417" lon="12.051725"><ele>92.0</ele><time>2026-04-16T13:22:41.086Z</time></trkpt><trkpt lat="44.0842667" lon="12.051715"><ele>92.0</ele><time>2026-04-16T13:22:42.086Z</time></trkpt><trkpt lat="44.0841917" lon="12.0517083"><ele>92.0</ele><time>2026-04-16T13:22:43.086Z</time></trkpt><trkpt lat="44.0841167" lon="12.0517"><ele>91.85714285714286</ele><time>2026-04-16T13:22:44.086Z</time></trkpt><trkpt lat="44.08404" lon="12.0516867"><ele>91.71428571428571</ele><time>2026-04-16T13:22:45.086Z</time></trkpt><trkpt lat="44.0839667" lon="12.051675"><ele>91.57142857142857</ele><time>2026-04-16T13:22:46.086Z</time></trkpt><trkpt lat="44.0838917" lon="12.0516683"><ele>91.42857142857143</ele><time>2026-04-16T13:22:47.086Z</time></trkpt><trkpt lat="44.083815" lon="12.0516617"><ele>91.28571428571428</ele><time>2026-04-16T13:22:48.086Z</time></trkpt><trkpt lat="44.0837467" lon="12.05165"><ele>91.14285714285714</ele><time>2026-04-16T13:22:49.086Z</time></trkpt><trkpt lat="44.0836717" lon="12.0516367"><ele>91.0</ele><time>2026-04-16T13:22:50.086Z</time></trkpt><trkpt lat="44.0836" lon="12.051625"><ele>90.4</ele><time>2026-04-16T13:22:51.086Z</time></trkpt><trkpt lat="44.08352" lon="12.0516"><ele>89.8</ele><time>2026-04-16T13:22:52.086Z</time></trkpt><trkpt lat="44.0834283" lon="12.0515733"><ele>89.2</ele><time>2026-04-16T13:22:53.086Z</time></trkpt><trkpt lat="44.083325" lon="12.05155"><ele>88.60000000000001</ele><time>2026-04-16T13:22:54.087Z</time></trkpt><trkpt lat="44.083235" lon="12.0515117"><ele>88.0</ele><time>2026-04-16T13:22:55.086Z</time></trkpt><trkpt lat="44.0831517" lon="12.0514683"><ele>88.0</ele><time>2026-04-16T13:22:56.087Z</time></trkpt><trkpt lat="44.08308" lon="12.0514183"><ele>88.0</ele><time>2026-04-16T13:22:57.087Z</time></trkpt><trkpt lat="44.0830117" lon="12.0513633"><ele>88.0</ele><time>2026-04-16T13:22:58.086Z</time></trkpt><trkpt lat="44.0829467" lon="12.0513117"><ele>88.0</ele><time>2026-04-16T13:22:59.086Z</time></trkpt><trkpt lat="44.0828933" lon="12.051255"><ele>88.0</ele><time>2026-04-16T13:23:00.086Z</time></trkpt><trkpt lat="44.082785" lon="12.0511483"><ele>88.0</ele><time>2026-04-16T13:23:02.086Z</time></trkpt><trkpt lat="44.082735" lon="12.0510867"><ele>88.0</ele><time>2026-04-16T13:23:03.086Z</time></trkpt><trkpt lat="44.0826883" lon="12.0510183"><ele>88.0</ele><time>2026-04-16T13:23:04.086Z</time></trkpt><trkpt lat="44.0825917" lon="12.0509183"><ele>88.0</ele><time>2026-04-16T13:23:06.086Z</time></trkpt><trkpt lat="44.0825417" lon="12.050855"><ele>88.0</ele><time>2026-04-16T13:23:07.087Z</time></trkpt><trkpt lat="44.0824933" lon="12.05079"><ele>88.0</ele><time>2026-04-16T13:23:08.086Z</time></trkpt><trkpt lat="44.0824033" lon="12.050675"><ele>88.0</ele><time>2026-04-16T13:23:10.086Z</time></trkpt><trkpt lat="44.0823567" lon="12.0506117"><ele>88.0</ele><time>2026-04-16T13:23:11.086Z</time></trkpt><trkpt lat="44.0822667" lon="12.0504933"><ele>88.0</ele><time>2026-04-16T13:23:13.086Z</time></trkpt><trkpt lat="44.0821817" lon="12.050385"><ele>88.0</ele><time>2026-04-16T13:23:15.087Z</time></trkpt><trkpt lat="44.0820983" lon="12.0502833"><ele>88.0</ele><time>2026-04-16T13:23:17.086Z</time></trkpt><trkpt lat="44.0820183" lon="12.0501817"><ele>88.0</ele><time>2026-04-16T13:23:19.086Z</time></trkpt><trkpt lat="44.081945" lon="12.0500967"><ele>88.0</ele><time>2026-04-16T13:23:21.086Z</time></trkpt><trkpt lat="44.0818767" lon="12.0500383"><ele>88.0</ele><time>2026-04-16T13:23:23.086Z</time></trkpt><trkpt lat="44.0818183" lon="12.0499883"><ele>88.0</ele><time>2026-04-16T13:23:25.086Z</time></trkpt><trkpt lat="44.0817683" lon="12.049935"><ele>88.0</ele><time>2026-04-16T13:23:27.086Z</time></trkpt><trkpt lat="44.08171" lon="12.04987"><ele>88.0</ele><time>2026-04-16T13:23:30.086Z</time></trkpt><trkpt lat="44.0816483" lon="12.0498183"><ele>88.5</ele><time>2026-04-16T13:23:32.086Z</time></trkpt><trkpt lat="44.081585" lon="12.0497583"><ele>89.0</ele><time>2026-04-16T13:23:34.086Z</time></trkpt><trkpt lat="44.0815317" lon="12.0496867"><ele>89.5</ele><time>2026-04-16T13:23:36.087Z</time></trkpt><trkpt lat="44.0814717" lon="12.0496283"><ele>90.0</ele><time>2026-04-16T13:23:38.086Z</time></trkpt><trkpt lat="44.0814167" lon="12.0495533"><ele>90.5</ele><time>2026-04-16T13:23:40.086Z</time></trkpt><trkpt lat="44.0813633" lon="12.0494733"><ele>91.0</ele><time>2026-04-16T13:23:42.086Z</time></trkpt><trkpt lat="44.08131" lon="12.049395"><ele>91.0</ele><time>2026-04-16T13:23:44.086Z</time></trkpt><trkpt lat="44.0812667" lon="12.049325"><ele>91.0</ele><time>2026-04-16T13:23:46.086Z</time></trkpt><trkpt lat="44.0812133" lon="12.0492467"><ele>91.0</ele><time>2026-04-16T13:23:48.086Z</time></trkpt><trkpt lat="44.0811583" lon="12.04919"><ele>91.0</ele><time>2026-04-16T13:23:50.086Z</time></trkpt><trkpt lat="44.0811033" lon="12.0491317"><ele>91.0</ele><time>2026-04-16T13:23:52.086Z</time></trkpt><trkpt lat="44.0810433" lon="12.0490733"><ele>91.0</ele><time>2026-04-16T13:23:54.086Z</time></trkpt><trkpt lat="44.0809917" lon="12.0490083"><ele>91.0</ele><time>2026-04-16T13:23:56.086Z</time></trkpt><trkpt lat="44.0809267" lon="12.0489233"><ele>91.4</ele><time>2026-04-16T13:23:59.086Z</time></trkpt><trkpt lat="44.0808583" lon="12.0488683"><ele>91.8</ele><time>2026-04-16T13:24:02.086Z</time></trkpt><trkpt lat="44.08078" lon="12.04879"><ele>92.2</ele><time>2026-04-16T13:24:05.086Z</time></trkpt><trkpt lat="44.0807233" lon="12.0487067"><ele>92.60000000000001</ele><time>2026-04-16T13:24:07.086Z</time></trkpt><trkpt lat="44.080665" lon="12.048595"><ele>93.0</ele><time>2026-04-16T13:24:09.086Z</time></trkpt><trkpt lat="44.0805817" lon="12.04848"><ele>93.2</ele><time>2026-04-16T13:24:11.086Z</time></trkpt><trkpt lat="44.0804967" lon="12.048395"><ele>93.4</ele><time>2026-04-16T13:24:13.086Z</time></trkpt><trkpt lat="44.080415" lon="12.0483017"><ele>93.60000000000001</ele><time>2026-04-16T13:24:15.086Z</time></trkpt><trkpt lat="44.0803283" lon="12.0482033"><ele>93.80000000000001</ele><time>2026-04-16T13:24:17.086Z</time></trkpt><trkpt lat="44.0802433" lon="12.0481067"><ele>94.0</ele><time>2026-04-16T13:24:19.086Z</time></trkpt><trkpt lat="44.0801633" lon="12.0480167"><ele>93.33333333333333</ele><time>2026-04-16T13:24:21.086Z</time></trkpt><trkpt lat="44.0800933" lon="12.0479433"><ele>92.66666666666666</ele><time>2026-04-16T13:24:23.086Z</time></trkpt><trkpt lat="44.0800317" lon="12.047885"><ele>92.0</ele><time>2026-04-16T13:24:25.086Z</time></trkpt><trkpt lat="44.0799683" lon="12.0478217"><ele>91.33333333333333</ele><time>2026-04-16T13:24:27.086Z</time></trkpt><trkpt lat="44.0799067" lon="12.047765"><ele>90.66666666666667</ele><time>2026-04-16T13:24:29.086Z</time></trkpt><trkpt lat="44.07985" lon="12.047705"><ele>90.0</ele><time>2026-04-16T13:24:31.086Z</time></trkpt><trkpt lat="44.0798133" lon="12.0476183"><ele>91.5</ele><time>2026-04-16T13:24:33.086Z</time></trkpt><trkpt lat="44.079765" lon="12.0475283"><ele>93.0</ele><time>2026-04-16T13:24:35.086Z</time></trkpt><trkpt lat="44.0797233" lon="12.0474333"><ele>94.5</ele><time>2026-04-16T13:24:37.087Z</time></trkpt><trkpt lat="44.0796967" lon="12.0473283"><ele>96.0</ele><time>2026-04-16T13:24:39.086Z</time></trkpt><trkpt lat="44.0796817" lon="12.0471967"><ele>97.5</ele><time>2026-04-16T13:24:41.086Z</time></trkpt><trkpt lat="44.0796683" lon="12.0470417"><ele>99.0</ele><time>2026-04-16T13:24:43.086Z</time></trkpt><trkpt lat="44.0796567" lon="12.0468733"><ele>99.0</ele><time>2026-04-16T13:24:45.086Z</time></trkpt><trkpt lat="44.079635" lon="12.0467067"><ele>99.0</ele><time>2026-04-16T13:24:47.086Z</time></trkpt><trkpt lat="44.0796217" lon="12.0465533"><ele>99.0</ele><time>2026-04-16T13:24:49.086Z</time></trkpt><trkpt lat="44.0796117" lon="12.0463883"><ele>99.0</ele><time>2026-04-16T13:24:51.087Z</time></trkpt><trkpt lat="44.0796033" lon="12.0462167"><ele>98.80000000000001</ele><time>2026-04-16T13:24:53.086Z</time></trkpt><trkpt lat="44.0795917" lon="12.0460583"><ele>98.60000000000001</ele><time>2026-04-16T13:24:55.086Z</time></trkpt><trkpt lat="44.07959" lon="12.045895"><ele>98.4</ele><time>2026-04-16T13:24:57.086Z</time></trkpt><trkpt lat="44.0795833" lon="12.0457333"><ele>98.2</ele><time>2026-04-16T13:24:59.086Z</time></trkpt><trkpt lat="44.0795783" lon="12.045645"><ele>98.0</ele><time>2026-04-16T13:25:00.086Z</time></trkpt><trkpt lat="44.0795767" lon="12.0455517"><ele>97.42857142857143</ele><time>2026-04-16T13:25:01.086Z</time></trkpt><trkpt lat="44.0795733" lon="12.0454467"><ele>96.85714285714286</ele><time>2026-04-16T13:25:02.086Z</time></trkpt><trkpt lat="44.0795733" lon="12.0453517"><ele>96.28571428571428</ele><time>2026-04-16T13:25:03.086Z</time></trkpt><trkpt lat="44.0795683" lon="12.0452567"><ele>95.71428571428572</ele><time>2026-04-16T13:25:04.086Z</time></trkpt><trkpt lat="44.0795667" lon="12.04516"><ele>95.14285714285714</ele><time>2026-04-16T13:25:05.086Z</time></trkpt><trkpt lat="44.0795567" lon="12.0450617"><ele>94.57142857142857</ele><time>2026-04-16T13:25:06.086Z</time></trkpt><trkpt lat="44.0795433" lon="12.0449683"><ele>94.0</ele><time>2026-04-16T13:25:07.086Z</time></trkpt><trkpt lat="44.07953" lon="12.0448767"><ele>92.5</ele><time>2026-04-16T13:25:08.086Z</time></trkpt><trkpt lat="44.0795067" lon="12.04479"><ele>91.0</ele><time>2026-04-16T13:25:09.086Z</time></trkpt><trkpt lat="44.07948" lon="12.0447083"><ele>89.5</ele><time>2026-04-16T13:25:10.086Z</time></trkpt><trkpt lat="44.07941" lon="12.0445433"><ele>88.0</ele><time>2026-04-16T13:25:12.086Z</time></trkpt><trkpt lat="44.0793667" lon="12.0444617"><ele>86.5</ele><time>2026-04-16T13:25:13.086Z</time></trkpt><trkpt lat="44.07932" lon="12.04436"><ele>85.0</ele><time>2026-04-16T13:25:14.086Z</time></trkpt><trkpt lat="44.0792667" lon="12.0442767"><ele>85.0</ele><time>2026-04-16T13:25:15.086Z</time></trkpt><trkpt lat="44.0792167" lon="12.0441983"><ele>85.0</ele><time>2026-04-16T13:25:16.086Z</time></trkpt><trkpt lat="44.079165" lon="12.04411"><ele>85.0</ele><time>2026-04-16T13:25:17.086Z</time></trkpt><trkpt lat="44.0791067" lon="12.0440083"><ele>85.0</ele><time>2026-04-16T13:25:18.087Z</time></trkpt><trkpt lat="44.0790483" lon="12.043915"><ele>85.0</ele><time>2026-04-16T13:25:19.086Z</time></trkpt><trkpt lat="44.0789867" lon="12.0438267"><ele>85.0</ele><time>2026-04-16T13:25:20.086Z</time></trkpt><trkpt lat="44.0789233" lon="12.0437533"><ele>84.5</ele><time>2026-04-16T13:25:21.086Z</time></trkpt><trkpt lat="44.0788583" lon="12.0436883"><ele>84.0</ele><time>2026-04-16T13:25:22.086Z</time></trkpt><trkpt lat="44.07879" lon="12.0436333"><ele>83.5</ele><time>2026-04-16T13:25:23.087Z</time></trkpt><trkpt lat="44.0787217" lon="12.0435933"><ele>83.0</ele><time>2026-04-16T13:25:24.086Z</time></trkpt><trkpt lat="44.0786583" lon="12.0435567"><ele>82.5</ele><time>2026-04-16T13:25:25.086Z</time></trkpt><trkpt lat="44.0785267" lon="12.043495"><ele>82.0</ele><time>2026-04-16T13:25:27.086Z</time></trkpt><trkpt lat="44.0784567" lon="12.043455"><ele>82.0</ele><time>2026-04-16T13:25:28.086Z</time></trkpt><trkpt lat="44.0783933" lon="12.0434233"><ele>82.0</ele><time>2026-04-16T13:25:29.086Z</time></trkpt><trkpt lat="44.0783317" lon="12.0433983"><ele>82.0</ele><time>2026-04-16T13:25:30.086Z</time></trkpt><trkpt lat="44.0782617" lon="12.04336"><ele>82.0</ele><time>2026-04-16T13:25:31.086Z</time></trkpt><trkpt lat="44.0781983" lon="12.04333"><ele>82.0</ele><time>2026-04-16T13:25:32.086Z</time></trkpt><trkpt lat="44.0781417" lon="12.0432817"><ele>82.0</ele><time>2026-04-16T13:25:33.086Z</time></trkpt><trkpt lat="44.078045" lon="12.0431767"><ele>82.5</ele><time>2026-04-16T13:25:35.086Z</time></trkpt><trkpt lat="44.07797" lon="12.0430733"><ele>83.0</ele><time>2026-04-16T13:25:37.086Z</time></trkpt><trkpt lat="44.0779317" lon="12.04297"><ele>83.5</ele><time>2026-04-16T13:25:39.086Z</time></trkpt><trkpt lat="44.0778783" lon="12.0428783"><ele>84.0</ele><time>2026-04-16T13:25:41.086Z</time></trkpt><trkpt lat="44.077835" lon="12.0427967"><ele>84.5</ele><time>2026-04-16T13:25:43.086Z</time></trkpt><trkpt lat="44.0777933" lon="12.0426867"><ele>85.0</ele><time>2026-04-16T13:25:45.086Z</time></trkpt><trkpt lat="44.0777517" lon="12.0425717"><ele>84.83333333333333</ele><time>2026-04-16T13:25:47.086Z</time></trkpt><trkpt lat="44.0777017" lon="12.04244"><ele>84.66666666666666</ele><time>2026-04-16T13:25:49.086Z</time></trkpt><trkpt lat="44.0776433" lon="12.0422967"><ele>84.5</ele><time>2026-04-16T13:25:51.086Z</time></trkpt><trkpt lat="44.0776067" lon="12.0422167"><ele>84.33333333333333</ele><time>2026-04-16T13:25:52.086Z</time></trkpt><trkpt lat="44.07757" lon="12.0421367"><ele>84.16666666666667</ele><time>2026-04-16T13:25:53.086Z</time></trkpt><trkpt lat="44.077535" lon="12.0420533"><ele>84.0</ele><time>2026-04-16T13:25:54.087Z</time></trkpt><trkpt lat="44.0775083" lon="12.0419633"><ele>84.0</ele><time>2026-04-16T13:25:55.086Z</time></trkpt><trkpt lat="44.0774833" lon="12.0418717"><ele>84.0</ele><time>2026-04-16T13:25:56.086Z</time></trkpt><trkpt lat="44.0774617" lon="12.04178"><ele>84.0</ele><time>2026-04-16T13:25:57.086Z</time></trkpt><trkpt lat="44.07744" lon="12.0416833"><ele>84.0</ele><time>2026-04-16T13:25:58.086Z</time></trkpt><trkpt lat="44.0773917" lon="12.041545"><ele>84.0</ele><time>2026-04-16T13:26:00.086Z</time></trkpt><trkpt lat="44.07735" lon="12.0414733"><ele>84.0</ele><time>2026-04-16T13:26:01.086Z</time></trkpt><trkpt lat="44.07726" lon="12.041365"><ele>83.6</ele><time>2026-04-16T13:26:03.086Z</time></trkpt><trkpt lat="44.0772117" lon="12.0413083"><ele>83.2</ele><time>2026-04-16T13:26:04.086Z</time></trkpt><trkpt lat="44.0771067" lon="12.041225"><ele>82.8</ele><time>2026-04-16T13:26:06.086Z</time></trkpt><trkpt lat="44.0770017" lon="12.0411433"><ele>82.39999999999999</ele><time>2026-04-16T13:26:08.086Z</time></trkpt><trkpt lat="44.076895" lon="12.041055"><ele>82.0</ele><time>2026-04-16T13:26:10.086Z</time></trkpt><trkpt lat="44.0767917" lon="12.041005"><ele>82.0</ele><time>2026-04-16T13:26:12.086Z</time></trkpt><trkpt lat="44.0766883" lon="12.040955"><ele>82.0</ele><time>2026-04-16T13:26:14.086Z</time></trkpt><trkpt lat="44.0766" lon="12.0408967"><ele>82.0</ele><time>2026-04-16T13:26:16.086Z</time></trkpt><trkpt lat="44.076495" lon="12.040845"><ele>82.0</ele><time>2026-04-16T13:26:18.086Z</time></trkpt><trkpt lat="44.0763833" lon="12.04079"><ele>82.0</ele><time>2026-04-16T13:26:20.086Z</time></trkpt><trkpt lat="44.07632" lon="12.0407567"><ele>82.33333333333333</ele><time>2026-04-16T13:26:21.086Z</time></trkpt><trkpt lat="44.0762617" lon="12.04072"><ele>82.66666666666666</ele><time>2026-04-16T13:26:22.086Z</time></trkpt><trkpt lat="44.0762" lon="12.0406817"><ele>83.0</ele><time>2026-04-16T13:26:23.087Z</time></trkpt><trkpt lat="44.0761417" lon="12.040645"><ele>83.33333333333333</ele><time>2026-04-16T13:26:24.086Z</time></trkpt><trkpt lat="44.0760367" lon="12.04058"><ele>83.66666666666667</ele><time>2026-04-16T13:26:26.086Z</time></trkpt><trkpt lat="44.0759383" lon="12.040525"><ele>84.0</ele><time>2026-04-16T13:26:28.086Z</time></trkpt><trkpt lat="44.0758383" lon="12.0404717"><ele>84.6</ele><time>2026-04-16T13:26:30.087Z</time></trkpt><trkpt lat="44.075735" lon="12.04042"><ele>85.2</ele><time>2026-04-16T13:26:32.086Z</time></trkpt><trkpt lat="44.07562" lon="12.0403783"><ele>85.8</ele><time>2026-04-16T13:26:34.086Z</time></trkpt><trkpt lat="44.0755533" lon="12.0403667"><ele>86.39999999999999</ele><time>2026-04-16T13:26:35.086Z</time></trkpt><trkpt lat="44.075435" lon="12.040335"><ele>87.0</ele><time>2026-04-16T13:26:37.087Z</time></trkpt><trkpt lat="44.0753217" lon="12.0402933"><ele>87.0</ele><time>2026-04-16T13:26:39.086Z</time></trkpt><trkpt lat="44.0752183" lon="12.040245"><ele>87.0</ele><time>2026-04-16T13:26:41.086Z</time></trkpt><trkpt lat="44.0751233" lon="12.04021"><ele>87.0</ele><time>2026-04-16T13:26:43.086Z</time></trkpt><trkpt lat="44.0750467" lon="12.040185"><ele>87.0</ele><time>2026-04-16T13:26:46.086Z</time></trkpt><trkpt lat="44.0749583" lon="12.04015"><ele>87.0</ele><time>2026-04-16T13:26:48.086Z</time></trkpt><trkpt lat="44.074895" lon="12.0401183"><ele>87.0</ele><time>2026-04-16T13:26:50.086Z</time></trkpt><trkpt lat="44.07481" lon="12.04012"><ele>87.0</ele><time>2026-04-16T13:26:52.086Z</time></trkpt><trkpt lat="44.0747267" lon="12.0400833"><ele>87.0</ele><time>2026-04-16T13:26:54.086Z</time></trkpt><trkpt lat="44.0746483" lon="12.04002"><ele>87.0</ele><time>2026-04-16T13:26:56.086Z</time></trkpt><trkpt lat="44.074595" lon="12.0399383"><ele>87.0</ele><time>2026-04-16T13:26:58.086Z</time></trkpt><trkpt lat="44.0745383" lon="12.0398317"><ele>87.0</ele><time>2026-04-16T13:27:00.086Z</time></trkpt><trkpt lat="44.074485" lon="12.039705"><ele>87.0</ele><time>2026-04-16T13:27:02.086Z</time></trkpt><trkpt lat="44.074435" lon="12.039535"><ele>87.0</ele><time>2026-04-16T13:27:04.086Z</time></trkpt><trkpt lat="44.0744083" lon="12.039445"><ele>87.0</ele><time>2026-04-16T13:27:05.086Z</time></trkpt><trkpt lat="44.0743733" lon="12.0393033"><ele>87.0</ele><time>2026-04-16T13:27:07.086Z</time></trkpt><trkpt lat="44.0743283" lon="12.0391483"><ele>87.0</ele><time>2026-04-16T13:27:09.086Z</time></trkpt><trkpt lat="44.0742733" lon="12.0389933"><ele>86.57142857142857</ele><time>2026-04-16T13:27:11.086Z</time></trkpt><trkpt lat="44.0742483" lon="12.0389067"><ele>86.14285714285714</ele><time>2026-04-16T13:27:12.086Z</time></trkpt><trkpt lat="44.0742233" lon="12.0388183"><ele>85.71428571428572</ele><time>2026-04-16T13:27:13.086Z</time></trkpt><trkpt lat="44.074195" lon="12.0387267"><ele>85.28571428571428</ele><time>2026-04-16T13:27:14.086Z</time></trkpt><trkpt lat="44.074165" lon="12.0386317"><ele>84.85714285714286</ele><time>2026-04-16T13:27:15.086Z</time></trkpt><trkpt lat="44.07414" lon="12.038535"><ele>84.42857142857143</ele><time>2026-04-16T13:27:16.086Z</time></trkpt><trkpt lat="44.0741133" lon="12.03843"><ele>84.0</ele><time>2026-04-16T13:27:17.086Z</time></trkpt><trkpt lat="44.0740917" lon="12.0383283"><ele>83.83333333333333</ele><time>2026-04-16T13:27:18.086Z</time></trkpt><trkpt lat="44.0740667" lon="12.03823"><ele>83.66666666666667</ele><time>2026-04-16T13:27:19.086Z</time></trkpt><trkpt lat="44.0740467" lon="12.0381333"><ele>83.5</ele><time>2026-04-16T13:27:20.086Z</time></trkpt><trkpt lat="44.0740267" lon="12.038045"><ele>83.33333333333334</ele><time>2026-04-16T13:27:21.086Z</time></trkpt><trkpt lat="44.074005" lon="12.03796"><ele>83.16666666666667</ele><time>2026-04-16T13:27:22.086Z</time></trkpt><trkpt lat="44.07396" lon="12.0378017"><ele>83.0</ele><time>2026-04-16T13:27:24.086Z</time></trkpt><trkpt lat="44.0739217" lon="12.0376467"><ele>83.0</ele><time>2026-04-16T13:27:26.086Z</time></trkpt><trkpt lat="44.073875" lon="12.037485"><ele>83.0</ele><time>2026-04-16T13:27:28.086Z</time></trkpt><trkpt lat="44.0738333" lon="12.0373283"><ele>83.0</ele><time>2026-04-16T13:27:30.086Z</time></trkpt><trkpt lat="44.07379" lon="12.0371983"><ele>83.0</ele><time>2026-04-16T13:27:32.086Z</time></trkpt><trkpt lat="44.0737467" lon="12.0370767"><ele>83.0</ele><time>2026-04-16T13:27:34.086Z</time></trkpt><trkpt lat="44.0737067" lon="12.0369517"><ele>83.2</ele><time>2026-04-16T13:27:36.086Z</time></trkpt><trkpt lat="44.0736733" lon="12.03682"><ele>83.4</ele><time>2026-04-16T13:27:38.086Z</time></trkpt><trkpt lat="44.0736333" lon="12.036685"><ele>83.60000000000001</ele><time>2026-04-16T13:27:40.086Z</time></trkpt><trkpt lat="44.0735933" lon="12.0365367"><ele>83.80000000000001</ele><time>2026-04-16T13:27:42.086Z</time></trkpt><trkpt lat="44.073545" lon="12.0364033"><ele>84.0</ele><time>2026-04-16T13:27:44.086Z</time></trkpt><trkpt lat="44.0734967" lon="12.0362783"><ele>84.2</ele><time>2026-04-16T13:27:46.086Z</time></trkpt><trkpt lat="44.07346" lon="12.0361483"><ele>84.4</ele><time>2026-04-16T13:27:48.086Z</time></trkpt><trkpt lat="44.073415" lon="12.03602"><ele>84.6</ele><time>2026-04-16T13:27:50.086Z</time></trkpt><trkpt lat="44.0733783" lon="12.0358867"><ele>84.8</ele><time>2026-04-16T13:27:52.086Z</time></trkpt><trkpt lat="44.0733317" lon="12.0357633"><ele>85.0</ele><time>2026-04-16T13:27:54.086Z</time></trkpt><trkpt lat="44.0732933" lon="12.0356317"><ele>85.2</ele><time>2026-04-16T13:27:56.086Z</time></trkpt><trkpt lat="44.0732617" lon="12.0354933"><ele>85.4</ele><time>2026-04-16T13:27:58.086Z</time></trkpt><trkpt lat="44.0732383" lon="12.035335"><ele>85.6</ele><time>2026-04-16T13:28:00.086Z</time></trkpt><trkpt lat="44.0732267" lon="12.0352467"><ele>85.8</ele><time>2026-04-16T13:28:01.086Z</time></trkpt><trkpt lat="44.0732317" lon="12.0350783"><ele>86.0</ele><time>2026-04-16T13:28:03.086Z</time></trkpt><trkpt lat="44.0732333" lon="12.03492"><ele>86.0</ele><time>2026-04-16T13:28:05.086Z</time></trkpt><trkpt lat="44.07323" lon="12.0347633"><ele>86.0</ele><time>2026-04-16T13:28:07.086Z</time></trkpt><trkpt lat="44.0732367" lon="12.0346117"><ele>86.0</ele><time>2026-04-16T13:28:09.086Z</time></trkpt><trkpt lat="44.073255" lon="12.0344633"><ele>86.0</ele><time>2026-04-16T13:28:11.086Z</time></trkpt><trkpt lat="44.07327" lon="12.0343283"><ele>86.0</ele><time>2026-04-16T13:28:13.086Z</time></trkpt><trkpt lat="44.0732733" lon="12.0341917"><ele>87.66666666666667</ele><time>2026-04-16T13:28:15.086Z</time></trkpt><trkpt lat="44.0732533" lon="12.034065"><ele>89.33333333333334</ele><time>2026-04-16T13:28:17.086Z</time></trkpt><trkpt lat="44.07322" lon="12.0339517"><ele>91.0</ele><time>2026-04-16T13:28:19.086Z</time></trkpt><trkpt lat="44.0731733" lon="12.0338567"><ele>92.66666666666667</ele><time>2026-04-16T13:28:21.086Z</time></trkpt><trkpt lat="44.073125" lon="12.0337783"><ele>94.33333333333333</ele><time>2026-04-16T13:28:23.086Z</time></trkpt><trkpt lat="44.0730567" lon="12.0336917"><ele>96.0</ele><time>2026-04-16T13:28:26.087Z</time></trkpt><trkpt lat="44.0729933" lon="12.0336067"><ele>95.99999999999999</ele><time>2026-04-16T13:28:29.086Z</time></trkpt><trkpt lat="44.0729383" lon="12.0335133"><ele>96.0</ele><time>2026-04-16T13:28:32.086Z</time></trkpt><trkpt lat="44.07288" lon="12.0334283"><ele>96.0</ele><time>2026-04-16T13:28:35.086Z</time></trkpt><trkpt lat="44.0728517" lon="12.0333483"><ele>96.0</ele><time>2026-04-16T13:28:38.086Z</time></trkpt><trkpt lat="44.0728267" lon="12.0332617"><ele>96.0</ele><time>2026-04-16T13:28:41.086Z</time></trkpt><trkpt lat="44.0728" lon="12.0331717"><ele>95.99999999999999</ele><time>2026-04-16T13:28:44.086Z</time></trkpt><trkpt lat="44.072795" lon="12.033075"><ele>96.0</ele><time>2026-04-16T13:28:48.086Z</time></trkpt><trkpt lat="44.072785" lon="12.0329817"><ele>97.8</ele><time>2026-04-16T13:28:52.086Z</time></trkpt><trkpt lat="44.07278" lon="12.0328667"><ele>99.6</ele><time>2026-04-16T13:28:57.086Z</time></trkpt><trkpt lat="44.0727683" lon="12.0327767"><ele>101.4</ele><time>2026-04-16T13:29:00.086Z</time></trkpt><trkpt lat="44.0727417" lon="12.0326183"><ele>103.2</ele><time>2026-04-16T13:29:03.086Z</time></trkpt><trkpt lat="44.072835" lon="12.032715"><ele>105.0</ele><time>2026-04-16T13:29:13.086Z</time></trkpt><trkpt lat="44.0729167" lon="12.0328333"><ele>105.0</ele><time>2026-04-16T13:29:15.086Z</time></trkpt><trkpt lat="44.07297" lon="12.03289"><ele>105.0</ele><time>2026-04-16T13:29:16.086Z</time></trkpt><trkpt lat="44.0730283" lon="12.032955"><ele>105.0</ele><time>2026-04-16T13:29:17.086Z</time></trkpt><trkpt lat="44.0730867" lon="12.0330167"><ele>105.0</ele><time>2026-04-16T13:29:18.086Z</time></trkpt><trkpt lat="44.0731883" lon="12.0330817"><ele>105.0</ele><time>2026-04-16T13:29:20.086Z</time></trkpt><trkpt lat="44.0733033" lon="12.03313"><ele>105.0</ele><time>2026-04-16T13:29:22.086Z</time></trkpt><trkpt lat="44.0733683" lon="12.0331583"><ele>101.8</ele><time>2026-04-16T13:29:23.086Z</time></trkpt><trkpt lat="44.07343" lon="12.0331867"><ele>98.6</ele><time>2026-04-16T13:29:24.086Z</time></trkpt><trkpt lat="44.0735283" lon="12.0332133"><ele>95.4</ele><time>2026-04-16T13:29:26.086Z</time></trkpt><trkpt lat="44.07363" lon="12.0332433"><ele>92.2</ele><time>2026-04-16T13:29:28.086Z</time></trkpt><trkpt lat="44.0737483" lon="12.0332817"><ele>89.0</ele><time>2026-04-16T13:29:30.086Z</time></trkpt><trkpt lat="44.0738583" lon="12.033325"><ele>88.80000000000001</ele><time>2026-04-16T13:29:32.086Z</time></trkpt><trkpt lat="44.0739567" lon="12.0333533"><ele>88.60000000000001</ele><time>2026-04-16T13:29:34.086Z</time></trkpt><trkpt lat="44.0740533" lon="12.03336"><ele>88.4</ele><time>2026-04-16T13:29:36.086Z</time></trkpt><trkpt lat="44.074165" lon="12.03338"><ele>88.2</ele><time>2026-04-16T13:29:38.086Z</time></trkpt><trkpt lat="44.0742283" lon="12.0334"><ele>88.0</ele><time>2026-04-16T13:29:39.086Z</time></trkpt><trkpt lat="44.074345" lon="12.033415"><ele>88.0</ele><time>2026-04-16T13:29:41.086Z</time></trkpt><trkpt lat="44.0744083" lon="12.0334333"><ele>88.0</ele><time>2026-04-16T13:29:42.086Z</time></trkpt><trkpt lat="44.0745317" lon="12.0334583"><ele>88.0</ele><time>2026-04-16T13:29:44.086Z</time></trkpt><trkpt lat="44.0745983" lon="12.03346"><ele>88.0</ele><time>2026-04-16T13:29:45.086Z</time></trkpt><trkpt lat="44.0746683" lon="12.0334667"><ele>88.0</ele><time>2026-04-16T13:29:46.086Z</time></trkpt><trkpt lat="44.0747417" lon="12.0334817"><ele>88.0</ele><time>2026-04-16T13:29:47.086Z</time></trkpt><trkpt lat="44.0748167" lon="12.0334967"><ele>88.0</ele><time>2026-04-16T13:29:48.086Z</time></trkpt><trkpt lat="44.0748883" lon="12.0335083"><ele>88.0</ele><time>2026-04-16T13:29:49.086Z</time></trkpt><trkpt lat="44.07496" lon="12.0335167"><ele>88.0</ele><time>2026-04-16T13:29:50.086Z</time></trkpt><trkpt lat="44.0750333" lon="12.03353"><ele>88.0</ele><time>2026-04-16T13:29:51.086Z</time></trkpt><trkpt lat="44.0751017" lon="12.0335367"><ele>88.0</ele><time>2026-04-16T13:29:52.086Z</time></trkpt><trkpt lat="44.0751783" lon="12.033545"><ele>88.0</ele><time>2026-04-16T13:29:53.087Z</time></trkpt><trkpt lat="44.07525" lon="12.033555"><ele>88.0</ele><time>2026-04-16T13:29:54.086Z</time></trkpt><trkpt lat="44.07532" lon="12.03356"><ele>88.33333333333333</ele><time>2026-04-16T13:29:55.086Z</time></trkpt><trkpt lat="44.07539" lon="12.0335667"><ele>88.66666666666666</ele><time>2026-04-16T13:29:56.086Z</time></trkpt><trkpt lat="44.0755133" lon="12.0335667"><ele>89.0</ele><time>2026-04-16T13:29:58.086Z</time></trkpt><trkpt lat="44.0755817" lon="12.0335767"><ele>89.33333333333333</ele><time>2026-04-16T13:29:59.086Z</time></trkpt><trkpt lat="44.075655" lon="12.03359"><ele>89.66666666666667</ele><time>2026-04-16T13:30:00.086Z</time></trkpt><trkpt lat="44.07572" lon="12.0335967"><ele>90.0</ele><time>2026-04-16T13:30:01.086Z</time></trkpt><trkpt lat="44.0757867" lon="12.0336183"><ele>90.0</ele><time>2026-04-16T13:30:02.086Z</time></trkpt><trkpt lat="44.07585" lon="12.0336367"><ele>90.0</ele><time>2026-04-16T13:30:03.086Z</time></trkpt><trkpt lat="44.0759183" lon="12.0336533"><ele>90.0</ele><time>2026-04-16T13:30:04.086Z</time></trkpt><trkpt lat="44.0759867" lon="12.033665"><ele>90.0</ele><time>2026-04-16T13:30:05.086Z</time></trkpt><trkpt lat="44.0760533" lon="12.03368"><ele>90.0</ele><time>2026-04-16T13:30:06.086Z</time></trkpt><trkpt lat="44.0761783" lon="12.033705"><ele>90.0</ele><time>2026-04-16T13:30:08.086Z</time></trkpt><trkpt lat="44.0763033" lon="12.03373"><ele>90.0</ele><time>2026-04-16T13:30:10.086Z</time></trkpt><trkpt lat="44.0764167" lon="12.0337383"><ele>90.0</ele><time>2026-04-16T13:30:12.086Z</time></trkpt><trkpt lat="44.07653" lon="12.03375"><ele>90.0</ele><time>2026-04-16T13:30:14.086Z</time></trkpt><trkpt lat="44.0766383" lon="12.0337633"><ele>90.0</ele><time>2026-04-16T13:30:16.086Z</time></trkpt><trkpt lat="44.0767417" lon="12.0337767"><ele>90.0</ele><time>2026-04-16T13:30:18.086Z</time></trkpt><trkpt lat="44.0768283" lon="12.0338067"><ele>90.5</ele><time>2026-04-16T13:30:20.086Z</time></trkpt><trkpt lat="44.0769183" lon="12.0338333"><ele>91.0</ele><time>2026-04-16T13:30:22.086Z</time></trkpt><trkpt lat="44.076995" lon="12.03387"><ele>91.5</ele><time>2026-04-16T13:30:24.086Z</time></trkpt><trkpt lat="44.0770617" lon="12.03391"><ele>92.0</ele><time>2026-04-16T13:30:26.086Z</time></trkpt><trkpt lat="44.077125" lon="12.0339583"><ele>92.5</ele><time>2026-04-16T13:30:28.087Z</time></trkpt><trkpt lat="44.0771817" lon="12.0339983"><ele>93.0</ele><time>2026-04-16T13:30:30.086Z</time></trkpt><trkpt lat="44.0772433" lon="12.0340833"><ele>93.33333333333333</ele><time>2026-04-16T13:30:33.086Z</time></trkpt><trkpt lat="44.0773" lon="12.0341583"><ele>93.66666666666667</ele><time>2026-04-16T13:30:36.086Z</time></trkpt><trkpt lat="44.0773333" lon="12.0342417"><ele>94.0</ele><time>2026-04-16T13:30:39.086Z</time></trkpt><trkpt lat="44.0773767" lon="12.0343617"><ele>94.33333333333334</ele><time>2026-04-16T13:30:42.087Z</time></trkpt><trkpt lat="44.0774083" lon="12.0344733"><ele>94.66666666666667</ele><time>2026-04-16T13:30:45.086Z</time></trkpt><trkpt lat="44.0774567" lon="12.0345617"><ele>95.0</ele><time>2026-04-16T13:30:48.086Z</time></trkpt><trkpt lat="44.0774883" lon="12.034655"><ele>95.0</ele><time>2026-04-16T13:30:51.086Z</time></trkpt><trkpt lat="44.0775117" lon="12.0347417"><ele>95.0</ele><time>2026-04-16T13:30:53.086Z</time></trkpt><trkpt lat="44.0775367" lon="12.0348333"><ele>95.0</ele><time>2026-04-16T13:30:55.086Z</time></trkpt><trkpt lat="44.077565" lon="12.034935"><ele>95.0</ele><time>2026-04-16T13:30:57.086Z</time></trkpt><trkpt lat="44.077595" lon="12.0350483"><ele>95.0</ele><time>2026-04-16T13:31:00.086Z</time></trkpt><trkpt lat="44.077635" lon="12.0351383"><ele>95.0</ele><time>2026-04-16T13:31:02.086Z</time></trkpt><trkpt lat="44.0776733" lon="12.0352167"><ele>95.0</ele><time>2026-04-16T13:31:04.086Z</time></trkpt><trkpt lat="44.07771" lon="12.0353167"><ele>94.66666666666667</ele><time>2026-04-16T13:31:07.087Z</time></trkpt><trkpt lat="44.0777517" lon="12.035415"><ele>94.33333333333334</ele><time>2026-04-16T13:31:11.087Z</time></trkpt><trkpt lat="44.0777817" lon="12.0354983"><ele>94.0</ele><time>2026-04-16T13:31:13.086Z</time></trkpt><trkpt lat="44.0778117" lon="12.03559"><ele>93.66666666666667</ele><time>2026-04-16T13:31:15.086Z</time></trkpt><trkpt lat="44.0778483" lon="12.0356967"><ele>93.33333333333333</ele><time>2026-04-16T13:31:17.086Z</time></trkpt><trkpt lat="44.077885" lon="12.0358333"><ele>93.0</ele><time>2026-04-16T13:31:19.086Z</time></trkpt><trkpt lat="44.0779117" lon="12.0359183"><ele>92.60000000000001</ele><time>2026-04-16T13:31:20.086Z</time></trkpt><trkpt lat="44.0779617" lon="12.0360617"><ele>92.2</ele><time>2026-04-16T13:31:22.086Z</time></trkpt><trkpt lat="44.0779817" lon="12.036175"><ele>91.8</ele><time>2026-04-16T13:31:24.086Z</time></trkpt><trkpt lat="44.0780133" lon="12.0363017"><ele>91.4</ele><time>2026-04-16T13:31:26.086Z</time></trkpt><trkpt lat="44.0780567" lon="12.0364283"><ele>91.0</ele><time>2026-04-16T13:31:28.086Z</time></trkpt><trkpt lat="44.0781" lon="12.036555"><ele>90.0</ele><time>2026-04-16T13:31:30.086Z</time></trkpt><trkpt lat="44.0781467" lon="12.0366367"><ele>89.0</ele><time>2026-04-16T13:31:31.086Z</time></trkpt><trkpt lat="44.078205" lon="12.0366983"><ele>88.0</ele><time>2026-04-16T13:31:32.087Z</time></trkpt><trkpt lat="44.0782917" lon="12.0367883"><ele>87.0</ele><time>2026-04-16T13:31:34.086Z</time></trkpt><trkpt lat="44.0783417" lon="12.036845"><ele>86.0</ele><time>2026-04-16T13:31:35.086Z</time></trkpt><trkpt lat="44.0784483" lon="12.0369417"><ele>85.0</ele><time>2026-04-16T13:31:37.086Z</time></trkpt><trkpt lat="44.0785483" lon="12.0370367"><ele>87.16666666666666</ele><time>2026-04-16T13:31:39.086Z</time></trkpt><trkpt lat="44.0786433" lon="12.0371267"><ele>89.33333333333333</ele><time>2026-04-16T13:31:41.086Z</time></trkpt><trkpt lat="44.078705" lon="12.0371583"><ele>91.5</ele><time>2026-04-16T13:31:42.086Z</time></trkpt><trkpt lat="44.07878" lon="12.0371883"><ele>93.66666666666666</ele><time>2026-04-16T13:31:43.087Z</time></trkpt><trkpt lat="44.078845" lon="12.037235"><ele>95.83333333333333</ele><time>2026-04-16T13:31:44.086Z</time></trkpt><trkpt lat="44.078905" lon="12.03728"><ele>98.0</ele><time>2026-04-16T13:31:45.086Z</time></trkpt><trkpt lat="44.07896" lon="12.03733"><ele>98.0</ele><time>2026-04-16T13:31:46.086Z</time></trkpt><trkpt lat="44.0790517" lon="12.0374317"><ele>98.0</ele><time>2026-04-16T13:31:48.086Z</time></trkpt><trkpt lat="44.07914" lon="12.03754"><ele>98.0</ele><time>2026-04-16T13:31:50.086Z</time></trkpt><trkpt lat="44.0792167" lon="12.037625"><ele>98.0</ele><time>2026-04-16T13:31:52.086Z</time></trkpt><trkpt lat="44.0792917" lon="12.0377017"><ele>98.0</ele><time>2026-04-16T13:31:54.086Z</time></trkpt><trkpt lat="44.07936" lon="12.037775"><ele>97.49999999999999</ele><time>2026-04-16T13:31:56.086Z</time></trkpt><trkpt lat="44.0794383" lon="12.0378417"><ele>97.0</ele><time>2026-04-16T13:31:58.086Z</time></trkpt><trkpt lat="44.07952" lon="12.0379233"><ele>96.5</ele><time>2026-04-16T13:32:00.086Z</time></trkpt><trkpt lat="44.0795933" lon="12.03799"><ele>96.0</ele><time>2026-04-16T13:32:02.086Z</time></trkpt><trkpt lat="44.0796717" lon="12.03803"><ele>95.5</ele><time>2026-04-16T13:32:04.086Z</time></trkpt><trkpt lat="44.0797467" lon="12.0380667"><ele>95.0</ele><time>2026-04-16T13:32:06.086Z</time></trkpt><trkpt lat="44.0798267" lon="12.0381133"><ele>95.0</ele><time>2026-04-16T13:32:08.086Z</time></trkpt><trkpt lat="44.0799017" lon="12.03814"><ele>95.0</ele><time>2026-04-16T13:32:10.086Z</time></trkpt><trkpt lat="44.0799833" lon="12.0381533"><ele>95.0</ele><time>2026-04-16T13:32:12.086Z</time></trkpt><trkpt lat="44.0800667" lon="12.0381617"><ele>95.0</ele><time>2026-04-16T13:32:14.086Z</time></trkpt><trkpt lat="44.0801633" lon="12.03815"><ele>95.0</ele><time>2026-04-16T13:32:16.086Z</time></trkpt><trkpt lat="44.0802583" lon="12.03813"><ele>95.0</ele><time>2026-04-16T13:32:18.086Z</time></trkpt><trkpt lat="44.0803483" lon="12.0380867"><ele>96.0</ele><time>2026-04-16T13:32:20.086Z</time></trkpt><trkpt lat="44.08043" lon="12.0380333"><ele>97.0</ele><time>2026-04-16T13:32:22.086Z</time></trkpt><trkpt lat="44.0805117" lon="12.037995"><ele>98.0</ele><time>2026-04-16T13:32:24.086Z</time></trkpt><trkpt lat="44.080605" lon="12.0379533"><ele>99.0</ele><time>2026-04-16T13:32:26.086Z</time></trkpt><trkpt lat="44.0807133" lon="12.0379167"><ele>100.0</ele><time>2026-04-16T13:32:28.086Z</time></trkpt><trkpt lat="44.080825" lon="12.0378817"><ele>100.2</ele><time>2026-04-16T13:32:30.086Z</time></trkpt><trkpt lat="44.0809317" lon="12.037845"><ele>100.4</ele><time>2026-04-16T13:32:32.086Z</time></trkpt><trkpt lat="44.081045" lon="12.037815"><ele>100.6</ele><time>2026-04-16T13:32:34.086Z</time></trkpt><trkpt lat="44.0811483" lon="12.0377933"><ele>100.8</ele><time>2026-04-16T13:32:36.086Z</time></trkpt><trkpt lat="44.0812367" lon="12.0377817"><ele>101.0</ele><time>2026-04-16T13:32:38.086Z</time></trkpt><trkpt lat="44.08131" lon="12.0377467"><ele>101.0</ele><time>2026-04-16T13:32:40.086Z</time></trkpt><trkpt lat="44.081405" lon="12.0377267"><ele>101.0</ele><time>2026-04-16T13:32:42.087Z</time></trkpt><trkpt lat="44.081495" lon="12.0377283"><ele>101.0</ele><time>2026-04-16T13:32:44.087Z</time></trkpt><trkpt lat="44.08159" lon="12.037735"><ele>101.0</ele><time>2026-04-16T13:32:46.086Z</time></trkpt><trkpt lat="44.08169" lon="12.0377233"><ele>101.0</ele><time>2026-04-16T13:32:48.086Z</time></trkpt><trkpt lat="44.0817933" lon="12.0377267"><ele>100.6</ele><time>2026-04-16T13:32:50.086Z</time></trkpt><trkpt lat="44.0819083" lon="12.0377383"><ele>100.19999999999999</ele><time>2026-04-16T13:32:52.086Z</time></trkpt><trkpt lat="44.0820217" lon="12.037775"><ele>99.80000000000001</ele><time>2026-04-16T13:32:54.086Z</time></trkpt><trkpt lat="44.0821267" lon="12.0377883"><ele>99.4</ele><time>2026-04-16T13:32:56.086Z</time></trkpt><trkpt lat="44.082235" lon="12.0378133"><ele>99.0</ele><time>2026-04-16T13:32:58.086Z</time></trkpt><trkpt lat="44.0823383" lon="12.037865"><ele>99.0</ele><time>2026-04-16T13:33:00.086Z</time></trkpt><trkpt lat="44.0824283" lon="12.03793"><ele>99.0</ele><time>2026-04-16T13:33:02.086Z</time></trkpt><trkpt lat="44.0825183" lon="12.0379983"><ele>99.0</ele><time>2026-04-16T13:33:04.086Z</time></trkpt><trkpt lat="44.0825767" lon="12.0380467"><ele>99.0</ele><time>2026-04-16T13:33:05.086Z</time></trkpt><trkpt lat="44.082635" lon="12.0381017"><ele>99.0</ele><time>2026-04-16T13:33:06.086Z</time></trkpt><trkpt lat="44.082695" lon="12.038165"><ele>99.0</ele><time>2026-04-16T13:33:07.086Z</time></trkpt><trkpt lat="44.0827517" lon="12.0382217"><ele>99.28571428571429</ele><time>2026-04-16T13:33:08.086Z</time></trkpt><trkpt lat="44.08281" lon="12.0382817"><ele>99.57142857142857</ele><time>2026-04-16T13:33:09.086Z</time></trkpt><trkpt lat="44.0828667" lon="12.0383417"><ele>99.85714285714286</ele><time>2026-04-16T13:33:10.086Z</time></trkpt><trkpt lat="44.082925" lon="12.0384033"><ele>100.14285714285714</ele><time>2026-04-16T13:33:11.086Z</time></trkpt><trkpt lat="44.0829833" lon="12.0384667"><ele>100.42857142857142</ele><time>2026-04-16T13:33:12.086Z</time></trkpt><trkpt lat="44.0830333" lon="12.03853"><ele>100.71428571428571</ele><time>2026-04-16T13:33:13.086Z</time></trkpt><trkpt lat="44.0830867" lon="12.038595"><ele>101.0</ele><time>2026-04-16T13:33:14.086Z</time></trkpt><trkpt lat="44.083145" lon="12.0386617"><ele>101.0</ele><time>2026-04-16T13:33:15.087Z</time></trkpt><trkpt lat="44.0832017" lon="12.0387233"><ele>101.0</ele><time>2026-04-16T13:33:16.086Z</time></trkpt><trkpt lat="44.0832617" lon="12.03879"><ele>101.0</ele><time>2026-04-16T13:33:17.086Z</time></trkpt><trkpt lat="44.0833233" lon="12.0388467"><ele>101.0</ele><time>2026-04-16T13:33:18.086Z</time></trkpt><trkpt lat="44.0833817" lon="12.0389017"><ele>101.0</ele><time>2026-04-16T13:33:19.086Z</time></trkpt><trkpt lat="44.0834367" lon="12.03896"><ele>101.0</ele><time>2026-04-16T13:33:20.087Z</time></trkpt><trkpt lat="44.08349" lon="12.039025"><ele>101.0</ele><time>2026-04-16T13:33:21.087Z</time></trkpt><trkpt lat="44.0835417" lon="12.0390883"><ele>99.0</ele><time>2026-04-16T13:33:22.086Z</time></trkpt><trkpt lat="44.0836317" lon="12.0391867"><ele>97.0</ele><time>2026-04-16T13:33:24.086Z</time></trkpt><trkpt lat="44.0837283" lon="12.0392783"><ele>95.0</ele><time>2026-04-16T13:33:26.086Z</time></trkpt><trkpt lat="44.0838283" lon="12.0393717"><ele>93.0</ele><time>2026-04-16T13:33:28.086Z</time></trkpt><trkpt lat="44.083925" lon="12.0394767"><ele>93.0</ele><time>2026-04-16T13:33:30.086Z</time></trkpt><trkpt lat="44.0840267" lon="12.0395833"><ele>93.0</ele><time>2026-04-16T13:33:32.086Z</time></trkpt><trkpt lat="44.0841217" lon="12.0396733"><ele>93.0</ele><time>2026-04-16T13:33:34.086Z</time></trkpt><trkpt lat="44.0842217" lon="12.039765"><ele>93.0</ele><time>2026-04-16T13:33:36.086Z</time></trkpt><trkpt lat="44.0843183" lon="12.0398567"><ele>93.25</ele><time>2026-04-16T13:33:38.086Z</time></trkpt><trkpt lat="44.0844133" lon="12.0399533"><ele>93.5</ele><time>2026-04-16T13:33:40.086Z</time></trkpt><trkpt lat="44.08451" lon="12.0400483"><ele>93.75</ele><time>2026-04-16T13:33:42.087Z</time></trkpt><trkpt lat="44.0846033" lon="12.0401433"><ele>94.0</ele><time>2026-04-16T13:33:44.086Z</time></trkpt><trkpt lat="44.0847" lon="12.0402417"><ele>93.5</ele><time>2026-04-16T13:33:46.087Z</time></trkpt><trkpt lat="44.0847933" lon="12.040335"><ele>93.0</ele><time>2026-04-16T13:33:48.086Z</time></trkpt><trkpt lat="44.08489" lon="12.0404267"><ele>92.5</ele><time>2026-04-16T13:33:50.086Z</time></trkpt><trkpt lat="44.0849917" lon="12.04052"><ele>92.0</ele><time>2026-04-16T13:33:52.086Z</time></trkpt><trkpt lat="44.08509" lon="12.0405933"><ele>92.0</ele><time>2026-04-16T13:33:54.086Z</time></trkpt><trkpt lat="44.08519" lon="12.0406683"><ele>92.0</ele><time>2026-04-16T13:33:56.086Z</time></trkpt><trkpt lat="44.0852833" lon="12.0407117"><ele>92.0</ele><time>2026-04-16T13:33:58.086Z</time></trkpt><trkpt lat="44.0853867" lon="12.04078"><ele>92.0</ele><time>2026-04-16T13:34:00.086Z</time></trkpt><trkpt lat="44.0854417" lon="12.0408267"><ele>92.0</ele><time>2026-04-16T13:34:01.087Z</time></trkpt><trkpt lat="44.0855417" lon="12.0409133"><ele>91.8</ele><time>2026-04-16T13:34:03.086Z</time></trkpt><trkpt lat="44.0856383" lon="12.04099"><ele>91.6</ele><time>2026-04-16T13:34:05.086Z</time></trkpt><trkpt lat="44.0857267" lon="12.041055"><ele>91.39999999999999</ele><time>2026-04-16T13:34:07.086Z</time></trkpt><trkpt lat="44.0858167" lon="12.0411283"><ele>91.19999999999999</ele><time>2026-04-16T13:34:09.086Z</time></trkpt><trkpt lat="44.08587" lon="12.0411817"><ele>91.0</ele><time>2026-04-16T13:34:10.086Z</time></trkpt><trkpt lat="44.08597" lon="12.04125"><ele>92.4</ele><time>2026-04-16T13:34:12.086Z</time></trkpt><trkpt lat="44.0860233" lon="12.0412967"><ele>93.8</ele><time>2026-04-16T13:34:13.086Z</time></trkpt><trkpt lat="44.086125" lon="12.0413833"><ele>95.2</ele><time>2026-04-16T13:34:15.086Z</time></trkpt><trkpt lat="44.08618" lon="12.041435"><ele>96.60000000000001</ele><time>2026-04-16T13:34:16.086Z</time></trkpt><trkpt lat="44.086295" lon="12.0415567"><ele>98.0</ele><time>2026-04-16T13:34:18.086Z</time></trkpt><trkpt lat="44.0863483" lon="12.0416183"><ele>97.49999999999999</ele><time>2026-04-16T13:34:19.086Z</time></trkpt><trkpt lat="44.0864033" lon="12.041675"><ele>97.0</ele><time>2026-04-16T13:34:20.086Z</time></trkpt><trkpt lat="44.0864633" lon="12.0417383"><ele>96.5</ele><time>2026-04-16T13:34:21.086Z</time></trkpt><trkpt lat="44.0865217" lon="12.0418"><ele>96.0</ele><time>2026-04-16T13:34:22.086Z</time></trkpt><trkpt lat="44.0865783" lon="12.0418533"><ele>95.5</ele><time>2026-04-16T13:34:23.086Z</time></trkpt><trkpt lat="44.0866333" lon="12.041905"><ele>95.0</ele><time>2026-04-16T13:34:24.086Z</time></trkpt><trkpt lat="44.0867367" lon="12.0419983"><ele>96.5</ele><time>2026-04-16T13:34:26.086Z</time></trkpt><trkpt lat="44.0868367" lon="12.0420867"><ele>98.0</ele><time>2026-04-16T13:34:28.086Z</time></trkpt><trkpt lat="44.0869383" lon="12.04216"><ele>99.5</ele><time>2026-04-16T13:34:30.086Z</time></trkpt><trkpt lat="44.087045" lon="12.0422417"><ele>101.0</ele><time>2026-04-16T13:34:32.086Z</time></trkpt><trkpt lat="44.0871417" lon="12.0423133"><ele>101.0</ele><time>2026-04-16T13:34:34.086Z</time></trkpt><trkpt lat="44.087195" lon="12.04236"><ele>101.0</ele><time>2026-04-16T13:34:35.086Z</time></trkpt><trkpt lat="44.0872967" lon="12.0424367"><ele>101.0</ele><time>2026-04-16T13:34:37.086Z</time></trkpt><trkpt lat="44.08735" lon="12.04249"><ele>101.0</ele><time>2026-04-16T13:34:38.086Z</time></trkpt><trkpt lat="44.0874467" lon="12.0425767"><ele>101.0</ele><time>2026-04-16T13:34:40.086Z</time></trkpt><trkpt lat="44.0875483" lon="12.0426617"><ele>100.66666666666666</ele><time>2026-04-16T13:34:42.087Z</time></trkpt><trkpt lat="44.0876517" lon="12.0427433"><ele>100.33333333333333</ele><time>2026-04-16T13:34:44.086Z</time></trkpt><trkpt lat="44.0877083" lon="12.0427967"><ele>100.0</ele><time>2026-04-16T13:34:45.087Z</time></trkpt><trkpt lat="44.0877683" lon="12.0428467"><ele>99.66666666666666</ele><time>2026-04-16T13:34:46.086Z</time></trkpt><trkpt lat="44.0878217" lon="12.0429"><ele>99.33333333333333</ele><time>2026-04-16T13:34:47.087Z</time></trkpt><trkpt lat="44.0879183" lon="12.042985"><ele>99.0</ele><time>2026-04-16T13:34:49.086Z</time></trkpt><trkpt lat="44.088015" lon="12.043065"><ele>99.0</ele><time>2026-04-16T13:34:51.086Z</time></trkpt><trkpt lat="44.088115" lon="12.0431433"><ele>99.0</ele><time>2026-04-16T13:34:53.087Z</time></trkpt><trkpt lat="44.0882183" lon="12.04322"><ele>99.0</ele><time>2026-04-16T13:34:55.086Z</time></trkpt><trkpt lat="44.0883217" lon="12.0433117"><ele>99.0</ele><time>2026-04-16T13:34:57.086Z</time></trkpt><trkpt lat="44.0883767" lon="12.0433567"><ele>99.0</ele><time>2026-04-16T13:34:58.086Z</time></trkpt><trkpt lat="44.0884883" lon="12.0434317"><ele>99.0</ele><time>2026-04-16T13:35:00.086Z</time></trkpt><trkpt lat="44.0885833" lon="12.0435"><ele>99.0</ele><time>2026-04-16T13:35:02.086Z</time></trkpt><trkpt lat="44.0886767" lon="12.04359"><ele>99.0</ele><time>2026-04-16T13:35:04.086Z</time></trkpt><trkpt lat="44.0887733" lon="12.0436767"><ele>99.0</ele><time>2026-04-16T13:35:06.086Z</time></trkpt><trkpt lat="44.0888683" lon="12.0437583"><ele>99.0</ele><time>2026-04-16T13:35:08.086Z</time></trkpt><trkpt lat="44.0889567" lon="12.0438217"><ele>99.0</ele><time>2026-04-16T13:35:10.086Z</time></trkpt><trkpt lat="44.0890417" lon="12.0438833"><ele>99.0</ele><time>2026-04-16T13:35:12.086Z</time></trkpt><trkpt lat="44.0891217" lon="12.0439483"><ele>99.0</ele><time>2026-04-16T13:35:14.086Z</time></trkpt><trkpt lat="44.0892167" lon="12.0440367"><ele>99.0</ele><time>2026-04-16T13:35:16.086Z</time></trkpt><trkpt lat="44.08931" lon="12.0441183"><ele>99.0</ele><time>2026-04-16T13:35:18.086Z</time></trkpt><trkpt lat="44.0894067" lon="12.0441933"><ele>99.0</ele><time>2026-04-16T13:35:20.086Z</time></trkpt><trkpt lat="44.0894983" lon="12.04427"><ele>99.0</ele><time>2026-04-16T13:35:22.087Z</time></trkpt><trkpt lat="44.0895917" lon="12.0443483"><ele>99.0</ele><time>2026-04-16T13:35:24.086Z</time></trkpt><trkpt lat="44.0896867" lon="12.0444417"><ele>99.0</ele><time>2026-04-16T13:35:26.087Z</time></trkpt><trkpt lat="44.089775" lon="12.044525"><ele>99.0</ele><time>2026-04-16T13:35:28.087Z</time></trkpt><trkpt lat="44.0898633" lon="12.04459"><ele>99.6</ele><time>2026-04-16T13:35:30.086Z</time></trkpt><trkpt lat="44.08995" lon="12.0446583"><ele>100.2</ele><time>2026-04-16T13:35:32.087Z</time></trkpt><trkpt lat="44.0900367" lon="12.044715"><ele>100.8</ele><time>2026-04-16T13:35:34.087Z</time></trkpt><trkpt lat="44.0901317" lon="12.0447883"><ele>101.39999999999999</ele><time>2026-04-16T13:35:36.086Z</time></trkpt><trkpt lat="44.0902333" lon="12.0448583"><ele>102.0</ele><time>2026-04-16T13:35:38.086Z</time></trkpt><trkpt lat="44.0903383" lon="12.0449267"><ele>102.0</ele><time>2026-04-16T13:35:40.086Z</time></trkpt><trkpt lat="44.0904417" lon="12.0450067"><ele>102.0</ele><time>2026-04-16T13:35:42.086Z</time></trkpt><trkpt lat="44.090535" lon="12.0450683"><ele>102.0</ele><time>2026-04-16T13:35:44.086Z</time></trkpt><trkpt lat="44.0906367" lon="12.045125"><ele>102.0</ele><time>2026-04-16T13:35:46.086Z</time></trkpt><trkpt lat="44.090735" lon="12.0451933"><ele>102.0</ele><time>2026-04-16T13:35:48.086Z</time></trkpt><trkpt lat="44.0908367" lon="12.045265"><ele>102.0</ele><time>2026-04-16T13:35:50.086Z</time></trkpt><trkpt lat="44.090935" lon="12.0453467"><ele>102.0</ele><time>2026-04-16T13:35:52.086Z</time></trkpt><trkpt lat="44.091035" lon="12.045415"><ele>102.0</ele><time>2026-04-16T13:35:54.086Z</time></trkpt><trkpt lat="44.09113" lon="12.0454783"><ele>102.0</ele><time>2026-04-16T13:35:56.086Z</time></trkpt><trkpt lat="44.091205" lon="12.0455467"><ele>102.0</ele><time>2026-04-16T13:35:58.086Z</time></trkpt><trkpt lat="44.09127" lon="12.0456767"><ele>102.0</ele><time>2026-04-16T13:36:00.086Z</time></trkpt><trkpt lat="44.0913517" lon="12.0457883"><ele>102.0</ele><time>2026-04-16T13:36:02.086Z</time></trkpt><trkpt lat="44.0914517" lon="12.0458933"><ele>102.0</ele><time>2026-04-16T13:36:04.086Z</time></trkpt><trkpt lat="44.0915067" lon="12.04594"><ele>102.0</ele><time>2026-04-16T13:36:05.086Z</time></trkpt><trkpt lat="44.0915683" lon="12.04597"><ele>102.0</ele><time>2026-04-16T13:36:06.086Z</time></trkpt><trkpt lat="44.0916833" lon="12.0459933"><ele>102.19999999999999</ele><time>2026-04-16T13:36:08.086Z</time></trkpt><trkpt lat="44.0917717" lon="12.0459417"><ele>102.4</ele><time>2026-04-16T13:36:10.086Z</time></trkpt><trkpt lat="44.09181" lon="12.045855"><ele>102.6</ele><time>2026-04-16T13:36:12.086Z</time></trkpt><trkpt lat="44.091795" lon="12.0457133"><ele>102.80000000000001</ele><time>2026-04-16T13:36:14.087Z</time></trkpt><trkpt lat="44.0917867" lon="12.045625"><ele>103.0</ele><time>2026-04-16T13:36:15.086Z</time></trkpt><trkpt lat="44.0917983" lon="12.0454633"><ele>103.4</ele><time>2026-04-16T13:36:17.086Z</time></trkpt><trkpt lat="44.0918467" lon="12.04533"><ele>103.80000000000001</ele><time>2026-04-16T13:36:19.086Z</time></trkpt><trkpt lat="44.0919267" lon="12.045205"><ele>104.2</ele><time>2026-04-16T13:36:21.086Z</time></trkpt><trkpt lat="44.0920167" lon="12.0451217"><ele>104.6</ele><time>2026-04-16T13:36:23.086Z</time></trkpt><trkpt lat="44.0921217" lon="12.0451067"><ele>105.0</ele><time>2026-04-16T13:36:25.086Z</time></trkpt><trkpt lat="44.092215" lon="12.0451683"><ele>105.0</ele><time>2026-04-16T13:36:27.086Z</time></trkpt><trkpt lat="44.0923083" lon="12.0452467"><ele>105.0</ele><time>2026-04-16T13:36:29.086Z</time></trkpt><trkpt lat="44.092395" lon="12.045315"><ele>105.0</ele><time>2026-04-16T13:36:31.086Z</time></trkpt><trkpt lat="44.09249" lon="12.0454017"><ele>105.0</ele><time>2026-04-16T13:36:33.087Z</time></trkpt><trkpt lat="44.09258" lon="12.0454867"><ele>105.0</ele><time>2026-04-16T13:36:35.086Z</time></trkpt><trkpt lat="44.0926733" lon="12.04556"><ele>105.0</ele><time>2026-04-16T13:36:37.086Z</time></trkpt><trkpt lat="44.0927717" lon="12.0456233"><ele>105.0</ele><time>2026-04-16T13:36:39.086Z</time></trkpt><trkpt lat="44.0928633" lon="12.0457017"><ele>105.0</ele><time>2026-04-16T13:36:41.086Z</time></trkpt><trkpt lat="44.0929517" lon="12.0457783"><ele>105.0</ele><time>2026-04-16T13:36:43.087Z</time></trkpt><trkpt lat="44.0930433" lon="12.0458667"><ele>105.0</ele><time>2026-04-16T13:36:45.086Z</time></trkpt><trkpt lat="44.09312" lon="12.0459733"><ele>105.0</ele><time>2026-04-16T13:36:47.086Z</time></trkpt><trkpt lat="44.093185" lon="12.0460983"><ele>105.0</ele><time>2026-04-16T13:36:49.086Z</time></trkpt><trkpt lat="44.093285" lon="12.0461867"><ele>105.0</ele><time>2026-04-16T13:36:51.087Z</time></trkpt><trkpt lat="44.0933483" lon="12.0462117"><ele>105.0</ele><time>2026-04-16T13:36:52.086Z</time></trkpt><trkpt lat="44.0934617" lon="12.046255"><ele>105.0</ele><time>2026-04-16T13:36:54.086Z</time></trkpt><trkpt lat="44.09352" lon="12.0462883"><ele>105.4</ele><time>2026-04-16T13:36:55.087Z</time></trkpt><trkpt lat="44.0936183" lon="12.0463633"><ele>105.8</ele><time>2026-04-16T13:36:57.087Z</time></trkpt><trkpt lat="44.09367" lon="12.046415"><ele>106.19999999999999</ele><time>2026-04-16T13:36:58.086Z</time></trkpt><trkpt lat="44.0937533" lon="12.04653"><ele>106.6</ele><time>2026-04-16T13:37:00.086Z</time></trkpt><trkpt lat="44.0938183" lon="12.0466883"><ele>107.0</ele><time>2026-04-16T13:37:02.086Z</time></trkpt><trkpt lat="44.0938483" lon="12.046775"><ele>106.33333333333333</ele><time>2026-04-16T13:37:03.086Z</time></trkpt><trkpt lat="44.093875" lon="12.0468617"><ele>105.66666666666666</ele><time>2026-04-16T13:37:04.086Z</time></trkpt><trkpt lat="44.0939067" lon="12.0469467"><ele>105.0</ele><time>2026-04-16T13:37:05.086Z</time></trkpt><trkpt lat="44.09394" lon="12.0470283"><ele>104.33333333333334</ele><time>2026-04-16T13:37:06.086Z</time></trkpt><trkpt lat="44.0939733" lon="12.0471083"><ele>103.66666666666667</ele><time>2026-04-16T13:37:07.086Z</time></trkpt><trkpt lat="44.0940333" lon="12.047235"><ele>103.0</ele><time>2026-04-16T13:37:09.086Z</time></trkpt><trkpt lat="44.094075" lon="12.04732"><ele>103.00000000000001</ele><time>2026-04-16T13:37:11.086Z</time></trkpt><trkpt lat="44.0941333" lon="12.04736"><ele>103.0</ele><time>2026-04-16T13:37:13.086Z</time></trkpt><trkpt lat="44.094205" lon="12.0473317"><ele>103.0</ele><time>2026-04-16T13:37:16.086Z</time></trkpt><trkpt lat="44.0941417" lon="12.0473033"><ele>103.0</ele><time>2026-04-16T13:37:24.086Z</time></trkpt><trkpt lat="44.0941083" lon="12.0474017"><ele>103.00000000000001</ele><time>2026-04-16T13:37:27.087Z</time></trkpt><trkpt lat="44.094075" lon="12.0475167"><ele>103.0</ele><time>2026-04-16T13:37:30.086Z</time></trkpt><trkpt lat="44.094055" lon="12.0476217"><ele>103.00000000000001</ele><time>2026-04-16T13:37:33.086Z</time></trkpt><trkpt lat="44.09405" lon="12.04771"><ele>103.0</ele><time>2026-04-16T13:37:35.086Z</time></trkpt><trkpt lat="44.094085" lon="12.0478133"><ele>103.0</ele><time>2026-04-16T13:37:37.086Z</time></trkpt><trkpt lat="44.0941483" lon="12.047905"><ele>103.0</ele><time>2026-04-16T13:37:39.086Z</time></trkpt><trkpt lat="44.094225" lon="12.0479967"><ele>103.00000000000001</ele><time>2026-04-16T13:37:41.086Z</time></trkpt><trkpt lat="44.0943083" lon="12.0480817"><ele>103.0</ele><time>2026-04-16T13:37:43.086Z</time></trkpt><trkpt lat="44.0943833" lon="12.0481583"><ele>102.60000000000001</ele><time>2026-04-16T13:37:45.086Z</time></trkpt><trkpt lat="44.094475" lon="12.0482433"><ele>102.2</ele><time>2026-04-16T13:37:47.086Z</time></trkpt><trkpt lat="44.0945683" lon="12.04831"><ele>101.8</ele><time>2026-04-16T13:37:49.086Z</time></trkpt><trkpt lat="44.0946667" lon="12.0483683"><ele>101.4</ele><time>2026-04-16T13:37:51.086Z</time></trkpt><trkpt lat="44.0947567" lon="12.04841"><ele>101.0</ele><time>2026-04-16T13:37:53.086Z</time></trkpt><trkpt lat="44.0948383" lon="12.0484"><ele>100.49999999999999</ele><time>2026-04-16T13:37:55.086Z</time></trkpt><trkpt lat="44.0949267" lon="12.048375"><ele>100.0</ele><time>2026-04-16T13:37:57.086Z</time></trkpt><trkpt lat="44.0950217" lon="12.0483333"><ele>99.5</ele><time>2026-04-16T13:37:59.086Z</time></trkpt><trkpt lat="44.095135" lon="12.0482767"><ele>99.0</ele><time>2026-04-16T13:38:01.086Z</time></trkpt><trkpt lat="44.0952" lon="12.0482367"><ele>98.49999999999999</ele><time>2026-04-16T13:38:02.086Z</time></trkpt><trkpt lat="44.0952633" lon="12.0482083"><ele>98.0</ele><time>2026-04-16T13:38:03.086Z</time></trkpt><trkpt lat="44.09533" lon="12.0481817"><ele>97.42857142857143</ele><time>2026-04-16T13:38:04.086Z</time></trkpt><trkpt lat="44.0954" lon="12.048155"><ele>96.85714285714286</ele><time>2026-04-16T13:38:05.086Z</time></trkpt><trkpt lat="44.0954733" lon="12.048125"><ele>96.28571428571428</ele><time>2026-04-16T13:38:06.086Z</time></trkpt><trkpt lat="44.095545" lon="12.0481"><ele>95.71428571428572</ele><time>2026-04-16T13:38:07.087Z</time></trkpt><trkpt lat="44.0956167" lon="12.0480783"><ele>95.14285714285714</ele><time>2026-04-16T13:38:08.086Z</time></trkpt><trkpt lat="44.095685" lon="12.048055"><ele>94.57142857142857</ele><time>2026-04-16T13:38:09.086Z</time></trkpt><trkpt lat="44.0957483" lon="12.04802"><ele>94.0</ele><time>2026-04-16T13:38:10.086Z</time></trkpt><trkpt lat="44.095825" lon="12.047995"><ele>93.71428571428571</ele><time>2026-04-16T13:38:11.086Z</time></trkpt><trkpt lat="44.095905" lon="12.04798"><ele>93.42857142857142</ele><time>2026-04-16T13:38:12.086Z</time></trkpt><trkpt lat="44.0959683" lon="12.0479533"><ele>93.14285714285714</ele><time>2026-04-16T13:38:13.086Z</time></trkpt><trkpt lat="44.0960317" lon="12.0479267"><ele>92.85714285714286</ele><time>2026-04-16T13:38:14.086Z</time></trkpt><trkpt lat="44.0961" lon="12.047905"><ele>92.57142857142857</ele><time>2026-04-16T13:38:15.086Z</time></trkpt><trkpt lat="44.09617" lon="12.0478767"><ele>92.28571428571429</ele><time>2026-04-16T13:38:16.086Z</time></trkpt><trkpt lat="44.09624" lon="12.0478567"><ele>92.0</ele><time>2026-04-16T13:38:17.086Z</time></trkpt><trkpt lat="44.0963117" lon="12.0478433"><ele>92.0</ele><time>2026-04-16T13:38:18.087Z</time></trkpt><trkpt lat="44.0963733" lon="12.0478167"><ele>92.0</ele><time>2026-04-16T13:38:19.086Z</time></trkpt><trkpt lat="44.09648" lon="12.0477783"><ele>92.0</ele><time>2026-04-16T13:38:21.086Z</time></trkpt><trkpt lat="44.0965867" lon="12.0477467"><ele>92.0</ele><time>2026-04-16T13:38:23.086Z</time></trkpt><trkpt lat="44.0966933" lon="12.04772"><ele>92.0</ele><time>2026-04-16T13:38:25.086Z</time></trkpt><trkpt lat="44.096795" lon="12.0477217"><ele>92.6</ele><time>2026-04-16T13:38:27.086Z</time></trkpt><trkpt lat="44.0969033" lon="12.0477283"><ele>93.19999999999999</ele><time>2026-04-16T13:38:29.086Z</time></trkpt><trkpt lat="44.0970133" lon="12.0477367"><ele>93.8</ele><time>2026-04-16T13:38:31.086Z</time></trkpt><trkpt lat="44.0971133" lon="12.047715"><ele>94.4</ele><time>2026-04-16T13:38:33.087Z</time></trkpt><trkpt lat="44.0971933" lon="12.0477083"><ele>95.0</ele><time>2026-04-16T13:38:35.087Z</time></trkpt><trkpt lat="44.097265" lon="12.0477067"><ele>95.0</ele><time>2026-04-16T13:38:37.087Z</time></trkpt><trkpt lat="44.0973717" lon="12.0477067"><ele>95.0</ele><time>2026-04-16T13:38:39.086Z</time></trkpt><trkpt lat="44.0974567" lon="12.0477017"><ele>95.0</ele><time>2026-04-16T13:38:41.086Z</time></trkpt><trkpt lat="44.097525" lon="12.04773"><ele>95.0</ele><time>2026-04-16T13:38:43.086Z</time></trkpt><trkpt lat="44.0976317" lon="12.0477567"><ele>95.0</ele><time>2026-04-16T13:38:45.086Z</time></trkpt><trkpt lat="44.0977383" lon="12.0477833"><ele>96.0</ele><time>2026-04-16T13:38:47.086Z</time></trkpt><trkpt lat="44.0978633" lon="12.04778"><ele>97.0</ele><time>2026-04-16T13:38:49.086Z</time></trkpt><trkpt lat="44.0979783" lon="12.047775"><ele>98.0</ele><time>2026-04-16T13:38:51.086Z</time></trkpt><trkpt lat="44.0980883" lon="12.04779"><ele>99.0</ele><time>2026-04-16T13:38:53.086Z</time></trkpt><trkpt lat="44.0981933" lon="12.0478117"><ele>99.83333333333333</ele><time>2026-04-16T13:38:55.086Z</time></trkpt><trkpt lat="44.0982783" lon="12.047815"><ele>100.66666666666666</ele><time>2026-04-16T13:38:57.086Z</time></trkpt><trkpt lat="44.0983417" lon="12.0478133"><ele>101.5</ele><time>2026-04-16T13:38:59.086Z</time></trkpt><trkpt lat="44.0984317" lon="12.0478267"><ele>102.33333333333333</ele><time>2026-04-16T13:39:02.087Z</time></trkpt><trkpt lat="44.098495" lon="12.0478733"><ele>103.16666666666666</ele><time>2026-04-16T13:39:04.086Z</time></trkpt><trkpt lat="44.09854" lon="12.0479433"><ele>104.0</ele><time>2026-04-16T13:39:06.086Z</time></trkpt><trkpt lat="44.098565" lon="12.048065"><ele>104.0</ele><time>2026-04-16T13:39:08.086Z</time></trkpt><trkpt lat="44.0985867" lon="12.0482"><ele>104.0</ele><time>2026-04-16T13:39:10.086Z</time></trkpt><trkpt lat="44.0985717" lon="12.0483433"><ele>104.0</ele><time>2026-04-16T13:39:12.086Z</time></trkpt><trkpt lat="44.0985467" lon="12.0484917"><ele>104.0</ele><time>2026-04-16T13:39:14.086Z</time></trkpt><trkpt lat="44.0985467" lon="12.0485967"><ele>104.0</ele><time>2026-04-16T13:39:15.086Z</time></trkpt><trkpt lat="44.0985417" lon="12.0487"><ele>103.16666666666666</ele><time>2026-04-16T13:39:16.086Z</time></trkpt><trkpt lat="44.0985333" lon="12.048795"><ele>102.33333333333333</ele><time>2026-04-16T13:39:17.087Z</time></trkpt><trkpt lat="44.098525" lon="12.0488983"><ele>101.5</ele><time>2026-04-16T13:39:18.087Z</time></trkpt><trkpt lat="44.09852" lon="12.0490033"><ele>100.66666666666666</ele><time>2026-04-16T13:39:19.086Z</time></trkpt><trkpt lat="44.0985033" lon="12.0491383"><ele>99.83333333333333</ele><time>2026-04-16T13:39:21.086Z</time></trkpt><trkpt lat="44.0984683" lon="12.0492483"><ele>99.0</ele><time>2026-04-16T13:39:23.086Z</time></trkpt><trkpt lat="44.09845" lon="12.0493367"><ele>98.66666666666667</ele><time>2026-04-16T13:39:24.086Z</time></trkpt><trkpt lat="44.098475" lon="12.049455"><ele>98.33333333333334</ele><time>2026-04-16T13:39:26.086Z</time></trkpt><trkpt lat="44.098505" lon="12.0495633"><ele>98.0</ele><time>2026-04-16T13:39:29.086Z</time></trkpt><trkpt lat="44.0985283" lon="12.0496583"><ele>97.66666666666667</ele><time>2026-04-16T13:39:32.086Z</time></trkpt><trkpt lat="44.098565" lon="12.0497333"><ele>97.33333333333334</ele><time>2026-04-16T13:39:35.086Z</time></trkpt><trkpt lat="44.09863" lon="12.049765"><ele>97.0</ele><time>2026-04-16T13:39:37.086Z</time></trkpt><trkpt lat="44.0987017" lon="12.0498017"><ele>97.0</ele><time>2026-04-16T13:39:39.086Z</time></trkpt><trkpt lat="44.0987667" lon="12.0498733"><ele>97.0</ele><time>2026-04-16T13:39:41.086Z</time></trkpt><trkpt lat="44.0988417" lon="12.049975"><ele>97.0</ele><time>2026-04-16T13:39:43.086Z</time></trkpt><trkpt lat="44.09889" lon="12.05009"><ele>97.0</ele><time>2026-04-16T13:39:45.086Z</time></trkpt><trkpt lat="44.098925" lon="12.0502317"><ele>97.0</ele><time>2026-04-16T13:39:47.086Z</time></trkpt><trkpt lat="44.0989383" lon="12.0504033"><ele>96.6</ele><time>2026-04-16T13:39:49.086Z</time></trkpt><trkpt lat="44.098935" lon="12.050495"><ele>96.19999999999999</ele><time>2026-04-16T13:39:50.086Z</time></trkpt><trkpt lat="44.0989183" lon="12.0506667"><ele>95.8</ele><time>2026-04-16T13:39:52.086Z</time></trkpt><trkpt lat="44.0988917" lon="12.0508367"><ele>95.4</ele><time>2026-04-16T13:39:54.086Z</time></trkpt><trkpt lat="44.0988767" lon="12.0509233"><ele>95.0</ele><time>2026-04-16T13:39:55.086Z</time></trkpt><trkpt lat="44.098845" lon="12.0511"><ele>94.66666666666667</ele><time>2026-04-16T13:39:57.087Z</time></trkpt><trkpt lat="44.09883" lon="12.0511867"><ele>94.33333333333334</ele><time>2026-04-16T13:39:58.086Z</time></trkpt><trkpt lat="44.0988167" lon="12.0512733"><ele>94.0</ele><time>2026-04-16T13:39:59.086Z</time></trkpt><trkpt lat="44.0988" lon="12.05136"><ele>93.66666666666667</ele><time>2026-04-16T13:40:00.086Z</time></trkpt><trkpt lat="44.098765" lon="12.0515383"><ele>93.33333333333333</ele><time>2026-04-16T13:40:02.086Z</time></trkpt><trkpt lat="44.0987417" lon="12.0516283"><ele>93.0</ele><time>2026-04-16T13:40:03.086Z</time></trkpt><trkpt lat="44.09872" lon="12.0517167"><ele>92.85714285714286</ele><time>2026-04-16T13:40:04.086Z</time></trkpt><trkpt lat="44.0986983" lon="12.051805"><ele>92.71428571428572</ele><time>2026-04-16T13:40:05.086Z</time></trkpt><trkpt lat="44.0986833" lon="12.051895"><ele>92.57142857142858</ele><time>2026-04-16T13:40:06.086Z</time></trkpt><trkpt lat="44.098665" lon="12.0519833"><ele>92.42857142857143</ele><time>2026-04-16T13:40:07.086Z</time></trkpt><trkpt lat="44.098645" lon="12.0520667"><ele>92.28571428571428</ele><time>2026-04-16T13:40:08.086Z</time></trkpt><trkpt lat="44.098625" lon="12.052155"><ele>92.14285714285715</ele><time>2026-04-16T13:40:09.086Z</time></trkpt><trkpt lat="44.0986083" lon="12.0522417"><ele>92.0</ele><time>2026-04-16T13:40:10.086Z</time></trkpt><trkpt lat="44.0985883" lon="12.052335"><ele>92.0</ele><time>2026-04-16T13:40:11.086Z</time></trkpt><trkpt lat="44.0985717" lon="12.05243"><ele>92.0</ele><time>2026-04-16T13:40:12.086Z</time></trkpt><trkpt lat="44.09855" lon="12.05252"><ele>92.0</ele><time>2026-04-16T13:40:13.086Z</time></trkpt><trkpt lat="44.0985333" lon="12.0526133"><ele>92.0</ele><time>2026-04-16T13:40:14.086Z</time></trkpt><trkpt lat="44.0985167" lon="12.0527017"><ele>92.0</ele><time>2026-04-16T13:40:15.086Z</time></trkpt><trkpt lat="44.0985067" lon="12.0527967"><ele>92.0</ele><time>2026-04-16T13:40:16.086Z</time></trkpt><trkpt lat="44.09849" lon="12.05297"><ele>91.71428571428572</ele><time>2026-04-16T13:40:18.086Z</time></trkpt><trkpt lat="44.0984817" lon="12.05307"><ele>91.42857142857142</ele><time>2026-04-16T13:40:19.086Z</time></trkpt><trkpt lat="44.09847" lon="12.0531633"><ele>91.14285714285714</ele><time>2026-04-16T13:40:20.086Z</time></trkpt><trkpt lat="44.09846" lon="12.0532583"><ele>90.85714285714286</ele><time>2026-04-16T13:40:21.086Z</time></trkpt><trkpt lat="44.0984467" lon="12.053345"><ele>90.57142857142858</ele><time>2026-04-16T13:40:22.086Z</time></trkpt><trkpt lat="44.09844" lon="12.053445"><ele>90.28571428571428</ele><time>2026-04-16T13:40:23.086Z</time></trkpt><trkpt lat="44.0984217" lon="12.053535"><ele>90.0</ele><time>2026-04-16T13:40:24.086Z</time></trkpt><trkpt lat="44.0984017" lon="12.0536283"><ele>89.85714285714285</ele><time>2026-04-16T13:40:25.086Z</time></trkpt><trkpt lat="44.0983833" lon="12.0537233"><ele>89.71428571428572</ele><time>2026-04-16T13:40:26.086Z</time></trkpt><trkpt lat="44.0983667" lon="12.0538283"><ele>89.57142857142857</ele><time>2026-04-16T13:40:27.087Z</time></trkpt><trkpt lat="44.09835" lon="12.0539283"><ele>89.42857142857142</ele><time>2026-04-16T13:40:28.086Z</time></trkpt><trkpt lat="44.0983367" lon="12.0540317"><ele>89.28571428571428</ele><time>2026-04-16T13:40:29.086Z</time></trkpt><trkpt lat="44.098325" lon="12.0541367"><ele>89.14285714285714</ele><time>2026-04-16T13:40:30.086Z</time></trkpt><trkpt lat="44.0983117" lon="12.05424"><ele>89.0</ele><time>2026-04-16T13:40:31.086Z</time></trkpt><trkpt lat="44.0983017" lon="12.0543433"><ele>88.66666666666667</ele><time>2026-04-16T13:40:32.086Z</time></trkpt><trkpt lat="44.0982917" lon="12.05445"><ele>88.33333333333334</ele><time>2026-04-16T13:40:33.086Z</time></trkpt><trkpt lat="44.0982833" lon="12.0545517"><ele>88.0</ele><time>2026-04-16T13:40:34.086Z</time></trkpt><trkpt lat="44.09827" lon="12.0546567"><ele>87.66666666666667</ele><time>2026-04-16T13:40:35.086Z</time></trkpt><trkpt lat="44.0982567" lon="12.054765"><ele>87.33333333333333</ele><time>2026-04-16T13:40:36.086Z</time></trkpt><trkpt lat="44.098235" lon="12.054875"><ele>87.0</ele><time>2026-04-16T13:40:37.086Z</time></trkpt><trkpt lat="44.0982067" lon="12.054975"><ele>86.83333333333333</ele><time>2026-04-16T13:40:38.086Z</time></trkpt><trkpt lat="44.09818" lon="12.055085"><ele>86.66666666666667</ele><time>2026-04-16T13:40:39.086Z</time></trkpt><trkpt lat="44.098155" lon="12.0551933"><ele>86.5</ele><time>2026-04-16T13:40:40.086Z</time></trkpt><trkpt lat="44.0981317" lon="12.055305"><ele>86.33333333333334</ele><time>2026-04-16T13:40:41.086Z</time></trkpt><trkpt lat="44.0981083" lon="12.055415"><ele>86.16666666666667</ele><time>2026-04-16T13:40:42.086Z</time></trkpt><trkpt lat="44.098085" lon="12.0555283"><ele>86.0</ele><time>2026-04-16T13:40:43.086Z</time></trkpt><trkpt lat="44.09805" lon="12.05564"><ele>86.0</ele><time>2026-04-16T13:40:44.086Z</time></trkpt><trkpt lat="44.09802" lon="12.0557583"><ele>86.0</ele><time>2026-04-16T13:40:45.086Z</time></trkpt><trkpt lat="44.0979917" lon="12.0558717"><ele>86.0</ele><time>2026-04-16T13:40:46.086Z</time></trkpt><trkpt lat="44.097965" lon="12.0559717"><ele>86.0</ele><time>2026-04-16T13:40:47.086Z</time></trkpt><trkpt lat="44.09794" lon="12.0560733"><ele>86.0</ele><time>2026-04-16T13:40:48.086Z</time></trkpt><trkpt lat="44.0979133" lon="12.0561817"><ele>86.0</ele><time>2026-04-16T13:40:49.086Z</time></trkpt><trkpt lat="44.0978833" lon="12.05628"><ele>85.83333333333334</ele><time>2026-04-16T13:40:50.086Z</time></trkpt><trkpt lat="44.0978517" lon="12.056385"><ele>85.66666666666667</ele><time>2026-04-16T13:40:51.086Z</time></trkpt><trkpt lat="44.0978183" lon="12.0564833"><ele>85.5</ele><time>2026-04-16T13:40:52.086Z</time></trkpt><trkpt lat="44.097795" lon="12.0565883"><ele>85.33333333333333</ele><time>2026-04-16T13:40:53.086Z</time></trkpt><trkpt lat="44.0977633" lon="12.0566867"><ele>85.16666666666666</ele><time>2026-04-16T13:40:54.086Z</time></trkpt><trkpt lat="44.0977317" lon="12.0567783"><ele>85.0</ele><time>2026-04-16T13:40:55.087Z</time></trkpt><trkpt lat="44.0977083" lon="12.0568733"><ele>84.71428571428572</ele><time>2026-04-16T13:40:56.086Z</time></trkpt><trkpt lat="44.0976933" lon="12.056975"><ele>84.42857142857142</ele><time>2026-04-16T13:40:57.086Z</time></trkpt><trkpt lat="44.0977" lon="12.0570767"><ele>84.14285714285714</ele><time>2026-04-16T13:40:58.086Z</time></trkpt><trkpt lat="44.0977217" lon="12.0571617"><ele>83.85714285714286</ele><time>2026-04-16T13:40:59.086Z</time></trkpt><trkpt lat="44.097765" lon="12.0572367"><ele>83.57142857142858</ele><time>2026-04-16T13:41:00.086Z</time></trkpt><trkpt lat="44.0978117" lon="12.0573133"><ele>83.28571428571428</ele><time>2026-04-16T13:41:01.086Z</time></trkpt><trkpt lat="44.0978583" lon="12.057405"><ele>83.0</ele><time>2026-04-16T13:41:02.086Z</time></trkpt><trkpt lat="44.0979033" lon="12.057495"><ele>82.85714285714285</ele><time>2026-04-16T13:41:03.086Z</time></trkpt><trkpt lat="44.0979467" lon="12.0575867"><ele>82.71428571428572</ele><time>2026-04-16T13:41:04.086Z</time></trkpt><trkpt lat="44.0979883" lon="12.0576733"><ele>82.57142857142857</ele><time>2026-04-16T13:41:05.086Z</time></trkpt><trkpt lat="44.09803" lon="12.057765"><ele>82.42857142857142</ele><time>2026-04-16T13:41:06.087Z</time></trkpt><trkpt lat="44.0980733" lon="12.05785"><ele>82.28571428571428</ele><time>2026-04-16T13:41:07.086Z</time></trkpt><trkpt lat="44.0981133" lon="12.05793"><ele>82.14285714285714</ele><time>2026-04-16T13:41:08.086Z</time></trkpt><trkpt lat="44.0981483" lon="12.058015"><ele>82.0</ele><time>2026-04-16T13:41:09.087Z</time></trkpt><trkpt lat="44.098175" lon="12.058105"><ele>81.99999999999999</ele><time>2026-04-16T13:41:10.086Z</time></trkpt><trkpt lat="44.0981933" lon="12.0581933"><ele>82.0</ele><time>2026-04-16T13:41:11.086Z</time></trkpt><trkpt lat="44.0982017" lon="12.05829"><ele>82.0</ele><time>2026-04-16T13:41:12.086Z</time></trkpt><trkpt lat="44.0981933" lon="12.0583833"><ele>82.0</ele><time>2026-04-16T13:41:13.086Z</time></trkpt><trkpt lat="44.09818" lon="12.0584783"><ele>82.0</ele><time>2026-04-16T13:41:14.086Z</time></trkpt><trkpt lat="44.0981583" lon="12.0585717"><ele>81.99999999999999</ele><time>2026-04-16T13:41:15.086Z</time></trkpt><trkpt lat="44.0981367" lon="12.05866"><ele>82.0</ele><time>2026-04-16T13:41:16.086Z</time></trkpt><trkpt lat="44.0981117" lon="12.0587433"><ele>81.25</ele><time>2026-04-16T13:41:17.086Z</time></trkpt><trkpt lat="44.0980617" lon="12.0589"><ele>80.5</ele><time>2026-04-16T13:41:19.086Z</time></trkpt><trkpt lat="44.09802" lon="12.0590583"><ele>79.75</ele><time>2026-04-16T13:41:21.086Z</time></trkpt><trkpt lat="44.09798" lon="12.0592117"><ele>79.0</ele><time>2026-04-16T13:41:23.087Z</time></trkpt><trkpt lat="44.0979417" lon="12.0593533"><ele>78.60000000000001</ele><time>2026-04-16T13:41:25.086Z</time></trkpt><trkpt lat="44.0978983" lon="12.0594967"><ele>78.2</ele><time>2026-04-16T13:41:27.086Z</time></trkpt><trkpt lat="44.0978633" lon="12.0596417"><ele>77.80000000000001</ele><time>2026-04-16T13:41:29.086Z</time></trkpt><trkpt lat="44.0978183" lon="12.0597733"><ele>77.4</ele><time>2026-04-16T13:41:31.086Z</time></trkpt><trkpt lat="44.097785" lon="12.05991"><ele>77.0</ele><time>2026-04-16T13:41:33.086Z</time></trkpt><trkpt lat="44.0977583" lon="12.060045"><ele>76.0</ele><time>2026-04-16T13:41:35.086Z</time></trkpt><trkpt lat="44.0977467" lon="12.0601833"><ele>75.0</ele><time>2026-04-16T13:41:37.086Z</time></trkpt><trkpt lat="44.0977667" lon="12.0603133"><ele>74.0</ele><time>2026-04-16T13:41:39.086Z</time></trkpt><trkpt lat="44.0978317" lon="12.0604433"><ele>73.0</ele><time>2026-04-16T13:41:41.086Z</time></trkpt><trkpt lat="44.097875" lon="12.060515"><ele>72.0</ele><time>2026-04-16T13:41:42.086Z</time></trkpt><trkpt lat="44.0979633" lon="12.06063"><ele>72.0</ele><time>2026-04-16T13:41:44.086Z</time></trkpt><trkpt lat="44.0980483" lon="12.0607467"><ele>72.0</ele><time>2026-04-16T13:41:46.086Z</time></trkpt><trkpt lat="44.0981" lon="12.0609017"><ele>72.0</ele><time>2026-04-16T13:41:48.086Z</time></trkpt><trkpt lat="44.0981183" lon="12.0609933"><ele>72.0</ele><time>2026-04-16T13:41:49.087Z</time></trkpt><trkpt lat="44.0981317" lon="12.0610883"><ele>72.0</ele><time>2026-04-16T13:41:50.086Z</time></trkpt><trkpt lat="44.0981433" lon="12.0611867"><ele>71.8</ele><time>2026-04-16T13:41:51.087Z</time></trkpt><trkpt lat="44.098155" lon="12.0612767"><ele>71.6</ele><time>2026-04-16T13:41:52.086Z</time></trkpt><trkpt lat="44.098175" lon="12.0614467"><ele>71.39999999999999</ele><time>2026-04-16T13:41:54.087Z</time></trkpt><trkpt lat="44.098215" lon="12.0615933"><ele>71.2</ele><time>2026-04-16T13:41:56.086Z</time></trkpt><trkpt lat="44.0982533" lon="12.0616683"><ele>71.0</ele><time>2026-04-16T13:41:57.086Z</time></trkpt><trkpt lat="44.0983633" lon="12.0617483"><ele>71.66666666666667</ele><time>2026-04-16T13:41:59.086Z</time></trkpt><trkpt lat="44.0984317" lon="12.061765"><ele>72.33333333333334</ele><time>2026-04-16T13:42:00.086Z</time></trkpt><trkpt lat="44.0984983" lon="12.0617683"><ele>73.0</ele><time>2026-04-16T13:42:01.086Z</time></trkpt><trkpt lat="44.0986067" lon="12.0617167"><ele>73.66666666666667</ele><time>2026-04-16T13:42:03.086Z</time></trkpt><trkpt lat="44.098675" lon="12.0616567"><ele>74.33333333333333</ele><time>2026-04-16T13:42:05.086Z</time></trkpt><trkpt lat="44.0987217" lon="12.0615817"><ele>75.0</ele><time>2026-04-16T13:42:07.086Z</time></trkpt><trkpt lat="44.09878" lon="12.0615467"><ele>75.0</ele><time>2026-04-16T13:42:08.086Z</time></trkpt><trkpt lat="44.0988367" lon="12.0615067"><ele>75.0</ele><time>2026-04-16T13:42:09.086Z</time></trkpt><trkpt lat="44.098895" lon="12.06147"><ele>75.0</ele><time>2026-04-16T13:42:10.086Z</time></trkpt><trkpt lat="44.0989533" lon="12.0614183"><ele>75.0</ele><time>2026-04-16T13:42:11.086Z</time></trkpt><trkpt lat="44.0990167" lon="12.061355"><ele>75.0</ele><time>2026-04-16T13:42:12.086Z</time></trkpt><trkpt lat="44.09909" lon="12.061295"><ele>75.0</ele><time>2026-04-16T13:42:13.086Z</time></trkpt><trkpt lat="44.0991683" lon="12.06123"><ele>75.0</ele><time>2026-04-16T13:42:14.086Z</time></trkpt><trkpt lat="44.09924" lon="12.06115"><ele>75.0</ele><time>2026-04-16T13:42:15.087Z</time></trkpt><trkpt lat="44.0993083" lon="12.0610733"><ele>75.0</ele><time>2026-04-16T13:42:16.087Z</time></trkpt><trkpt lat="44.0993667" lon="12.0609933"><ele>75.0</ele><time>2026-04-16T13:42:17.086Z</time></trkpt><trkpt lat="44.099415" lon="12.060935"><ele>75.0</ele><time>2026-04-16T13:42:18.086Z</time></trkpt><trkpt lat="44.0995017" lon="12.060845"><ele>75.0</ele><time>2026-04-16T13:42:20.086Z</time></trkpt><trkpt lat="44.0995867" lon="12.0607883"><ele>75.4</ele><time>2026-04-16T13:42:22.086Z</time></trkpt><trkpt lat="44.099695" lon="12.0607667"><ele>75.8</ele><time>2026-04-16T13:42:24.086Z</time></trkpt><trkpt lat="44.0997867" lon="12.0607483"><ele>76.2</ele><time>2026-04-16T13:42:26.086Z</time></trkpt><trkpt lat="44.0998967" lon="12.0607417"><ele>76.6</ele><time>2026-04-16T13:42:28.086Z</time></trkpt><trkpt lat="44.10001" lon="12.06078"><ele>77.0</ele><time>2026-04-16T13:42:30.086Z</time></trkpt><trkpt lat="44.100105" lon="12.0608233"><ele>76.33333333333334</ele><time>2026-04-16T13:42:32.086Z</time></trkpt><trkpt lat="44.1002117" lon="12.0608733"><ele>75.66666666666667</ele><time>2026-04-16T13:42:34.086Z</time></trkpt><trkpt lat="44.1002733" lon="12.060925"><ele>75.0</ele><time>2026-04-16T13:42:35.086Z</time></trkpt><trkpt lat="44.1003283" lon="12.0609733"><ele>74.33333333333333</ele><time>2026-04-16T13:42:36.086Z</time></trkpt><trkpt lat="44.1003817" lon="12.0610283"><ele>73.66666666666666</ele><time>2026-04-16T13:42:37.086Z</time></trkpt><trkpt lat="44.1004733" lon="12.061125"><ele>73.0</ele><time>2026-04-16T13:42:39.087Z</time></trkpt><trkpt lat="44.100565" lon="12.0612317"><ele>73.0</ele><time>2026-04-16T13:42:41.086Z</time></trkpt><trkpt lat="44.1006083" lon="12.0612983"><ele>73.0</ele><time>2026-04-16T13:42:42.086Z</time></trkpt><trkpt lat="44.1006533" lon="12.061385"><ele>73.0</ele><time>2026-04-16T13:42:43.086Z</time></trkpt><trkpt lat="44.1006933" lon="12.0614717"><ele>73.0</ele><time>2026-04-16T13:42:44.086Z</time></trkpt><trkpt lat="44.10074" lon="12.0615483"><ele>73.0</ele><time>2026-04-16T13:42:45.086Z</time></trkpt><trkpt lat="44.100785" lon="12.061615"><ele>73.0</ele><time>2026-04-16T13:42:46.086Z</time></trkpt><trkpt lat="44.10084" lon="12.0616917"><ele>73.0</ele><time>2026-04-16T13:42:47.086Z</time></trkpt><trkpt lat="44.1008933" lon="12.0617483"><ele>73.0</ele><time>2026-04-16T13:42:48.086Z</time></trkpt><trkpt lat="44.1009517" lon="12.06179"><ele>73.0</ele><time>2026-04-16T13:42:49.086Z</time></trkpt><trkpt lat="44.1010667" lon="12.061855"><ele>73.0</ele><time>2026-04-16T13:42:51.086Z</time></trkpt><trkpt lat="44.101135" lon="12.0618717"><ele>73.0</ele><time>2026-04-16T13:42:52.086Z</time></trkpt><trkpt lat="44.1012033" lon="12.0618767"><ele>73.0</ele><time>2026-04-16T13:42:53.086Z</time></trkpt><trkpt lat="44.1012667" lon="12.0618717"><ele>73.0</ele><time>2026-04-16T13:42:54.086Z</time></trkpt><trkpt lat="44.10133" lon="12.0618683"><ele>73.0</ele><time>2026-04-16T13:42:55.086Z</time></trkpt><trkpt lat="44.101395" lon="12.0618683"><ele>73.0</ele><time>2026-04-16T13:42:56.087Z</time></trkpt><trkpt lat="44.10151" lon="12.06185"><ele>73.0</ele><time>2026-04-16T13:42:58.086Z</time></trkpt><trkpt lat="44.1016267" lon="12.06185"><ele>73.0</ele><time>2026-04-16T13:43:00.086Z</time></trkpt><trkpt lat="44.1017467" lon="12.0618417"><ele>73.0</ele><time>2026-04-16T13:43:02.086Z</time></trkpt><trkpt lat="44.1018117" lon="12.0618533"><ele>73.33333333333333</ele><time>2026-04-16T13:43:03.086Z</time></trkpt><trkpt lat="44.101875" lon="12.0618667"><ele>73.66666666666666</ele><time>2026-04-16T13:43:04.086Z</time></trkpt><trkpt lat="44.1019367" lon="12.0618917"><ele>74.0</ele><time>2026-04-16T13:43:05.086Z</time></trkpt><trkpt lat="44.1020067" lon="12.0619167"><ele>74.33333333333333</ele><time>2026-04-16T13:43:06.086Z</time></trkpt><trkpt lat="44.1021217" lon="12.0619467"><ele>74.66666666666667</ele><time>2026-04-16T13:43:08.086Z</time></trkpt><trkpt lat="44.1022367" lon="12.0619767"><ele>75.0</ele><time>2026-04-16T13:43:10.087Z</time></trkpt><trkpt lat="44.10236" lon="12.0620067"><ele>74.6</ele><time>2026-04-16T13:43:12.086Z</time></trkpt><trkpt lat="44.1024233" lon="12.0620133"><ele>74.2</ele><time>2026-04-16T13:43:13.087Z</time></trkpt><trkpt lat="44.102545" lon="12.0620017"><ele>73.8</ele><time>2026-04-16T13:43:15.086Z</time></trkpt><trkpt lat="44.1026633" lon="12.062"><ele>73.4</ele><time>2026-04-16T13:43:17.086Z</time></trkpt><trkpt lat="44.1027367" lon="12.0620133"><ele>73.0</ele><time>2026-04-16T13:43:18.086Z</time></trkpt><trkpt lat="44.10281" lon="12.0620317"><ele>73.0</ele><time>2026-04-16T13:43:19.086Z</time></trkpt><trkpt lat="44.10293" lon="12.0620567"><ele>73.0</ele><time>2026-04-16T13:43:21.086Z</time></trkpt><trkpt lat="44.102995" lon="12.0620883"><ele>73.0</ele><time>2026-04-16T13:43:22.086Z</time></trkpt><trkpt lat="44.1030567" lon="12.0621183"><ele>73.0</ele><time>2026-04-16T13:43:23.086Z</time></trkpt><trkpt lat="44.1031767" lon="12.06215"><ele>73.0</ele><time>2026-04-16T13:43:25.086Z</time></trkpt><trkpt lat="44.1032867" lon="12.0621883"><ele>73.2</ele><time>2026-04-16T13:43:27.086Z</time></trkpt><trkpt lat="44.1033933" lon="12.0622367"><ele>73.4</ele><time>2026-04-16T13:43:29.086Z</time></trkpt><trkpt lat="44.1034933" lon="12.0622817"><ele>73.60000000000001</ele><time>2026-04-16T13:43:31.086Z</time></trkpt><trkpt lat="44.1035967" lon="12.06234"><ele>73.8</ele><time>2026-04-16T13:43:33.086Z</time></trkpt><trkpt lat="44.1036917" lon="12.062405"><ele>74.0</ele><time>2026-04-16T13:43:35.086Z</time></trkpt><trkpt lat="44.103795" lon="12.0624667"><ele>74.0</ele><time>2026-04-16T13:43:37.086Z</time></trkpt><trkpt lat="44.1039033" lon="12.062535"><ele>74.0</ele><time>2026-04-16T13:43:39.086Z</time></trkpt><trkpt lat="44.104005" lon="12.06259"><ele>74.0</ele><time>2026-04-16T13:43:41.086Z</time></trkpt><trkpt lat="44.1041167" lon="12.062635"><ele>74.0</ele><time>2026-04-16T13:43:43.086Z</time></trkpt><trkpt lat="44.10424" lon="12.0626817"><ele>74.14285714285714</ele><time>2026-04-16T13:43:45.086Z</time></trkpt><trkpt lat="44.1043083" lon="12.0627067"><ele>74.28571428571428</ele><time>2026-04-16T13:43:46.086Z</time></trkpt><trkpt lat="44.1043817" lon="12.0627233"><ele>74.42857142857142</ele><time>2026-04-16T13:43:47.086Z</time></trkpt><trkpt lat="44.10445" lon="12.0627417"><ele>74.57142857142857</ele><time>2026-04-16T13:43:48.086Z</time></trkpt><trkpt lat="44.1045167" lon="12.0627667"><ele>74.71428571428571</ele><time>2026-04-16T13:43:49.086Z</time></trkpt><trkpt lat="44.1045883" lon="12.062795"><ele>74.85714285714285</ele><time>2026-04-16T13:43:50.086Z</time></trkpt><trkpt lat="44.1046567" lon="12.0628267"><ele>75.0</ele><time>2026-04-16T13:43:51.086Z</time></trkpt><trkpt lat="44.1047267" lon="12.0628617"><ele>74.99999999999999</ele><time>2026-04-16T13:43:52.086Z</time></trkpt><trkpt lat="44.1047967" lon="12.0628883"><ele>75.0</ele><time>2026-04-16T13:43:53.086Z</time></trkpt><trkpt lat="44.1048633" lon="12.0629267"><ele>75.0</ele><time>2026-04-16T13:43:54.087Z</time></trkpt><trkpt lat="44.104935" lon="12.06296"><ele>75.0</ele><time>2026-04-16T13:43:55.086Z</time></trkpt><trkpt lat="44.1050033" lon="12.062995"><ele>75.0</ele><time>2026-04-16T13:43:56.086Z</time></trkpt><trkpt lat="44.105065" lon="12.0630233"><ele>74.99999999999999</ele><time>2026-04-16T13:43:57.086Z</time></trkpt><trkpt lat="44.1051383" lon="12.06305"><ele>75.0</ele><time>2026-04-16T13:43:58.086Z</time></trkpt><trkpt lat="44.1052033" lon="12.0630783"><ele>74.99999999999999</ele><time>2026-04-16T13:43:59.086Z</time></trkpt><trkpt lat="44.10527" lon="12.0631033"><ele>75.0</ele><time>2026-04-16T13:44:00.086Z</time></trkpt><trkpt lat="44.10534" lon="12.0631267"><ele>75.0</ele><time>2026-04-16T13:44:01.086Z</time></trkpt><trkpt lat="44.1054083" lon="12.06315"><ele>75.0</ele><time>2026-04-16T13:44:02.086Z</time></trkpt><trkpt lat="44.1054767" lon="12.0631733"><ele>75.0</ele><time>2026-04-16T13:44:03.086Z</time></trkpt><trkpt lat="44.10555" lon="12.0632"><ele>74.99999999999999</ele><time>2026-04-16T13:44:04.086Z</time></trkpt><trkpt lat="44.1056133" lon="12.0632183"><ele>75.0</ele><time>2026-04-16T13:44:05.086Z</time></trkpt><trkpt lat="44.1056817" lon="12.06323"><ele>75.0</ele><time>2026-04-16T13:44:06.086Z</time></trkpt><trkpt lat="44.1057517" lon="12.0632483"><ele>75.0</ele><time>2026-04-16T13:44:07.086Z</time></trkpt><trkpt lat="44.1058217" lon="12.0632733"><ele>75.0</ele><time>2026-04-16T13:44:08.086Z</time></trkpt><trkpt lat="44.1058933" lon="12.0632983"><ele>75.0</ele><time>2026-04-16T13:44:09.086Z</time></trkpt><trkpt lat="44.1060117" lon="12.0633167"><ele>75.0</ele><time>2026-04-16T13:44:11.086Z</time></trkpt><trkpt lat="44.1061433" lon="12.0633567"><ele>74.57142857142857</ele><time>2026-04-16T13:44:13.086Z</time></trkpt><trkpt lat="44.10621" lon="12.0633733"><ele>74.14285714285714</ele><time>2026-04-16T13:44:14.086Z</time></trkpt><trkpt lat="44.1062783" lon="12.0633933"><ele>73.71428571428572</ele><time>2026-04-16T13:44:15.086Z</time></trkpt><trkpt lat="44.1063433" lon="12.0634167"><ele>73.28571428571428</ele><time>2026-04-16T13:44:16.086Z</time></trkpt><trkpt lat="44.1064067" lon="12.0634517"><ele>72.85714285714286</ele><time>2026-04-16T13:44:17.086Z</time></trkpt><trkpt lat="44.1064683" lon="12.0634783"><ele>72.42857142857143</ele><time>2026-04-16T13:44:18.086Z</time></trkpt><trkpt lat="44.106535" lon="12.063495"><ele>72.0</ele><time>2026-04-16T13:44:19.086Z</time></trkpt><trkpt lat="44.1065967" lon="12.063515"><ele>72.00000000000001</ele><time>2026-04-16T13:44:20.086Z</time></trkpt><trkpt lat="44.10666" lon="12.063535"><ele>72.0</ele><time>2026-04-16T13:44:21.086Z</time></trkpt><trkpt lat="44.1067267" lon="12.06356"><ele>72.0</ele><time>2026-04-16T13:44:22.086Z</time></trkpt><trkpt lat="44.1067883" lon="12.06358"><ele>72.0</ele><time>2026-04-16T13:44:23.086Z</time></trkpt><trkpt lat="44.1068483" lon="12.0636067"><ele>72.0</ele><time>2026-04-16T13:44:24.086Z</time></trkpt><trkpt lat="44.1069067" lon="12.06364"><ele>72.00000000000001</ele><time>2026-04-16T13:44:25.086Z</time></trkpt><trkpt lat="44.1069683" lon="12.0636717"><ele>72.0</ele><time>2026-04-16T13:44:26.086Z</time></trkpt><trkpt lat="44.1070317" lon="12.0637017"><ele>72.0</ele><time>2026-04-16T13:44:27.086Z</time></trkpt><trkpt lat="44.1071517" lon="12.0637117"><ele>72.0</ele><time>2026-04-16T13:44:29.086Z</time></trkpt><trkpt lat="44.107275" lon="12.0637367"><ele>72.0</ele><time>2026-04-16T13:44:31.087Z</time></trkpt><trkpt lat="44.1074017" lon="12.06375"><ele>72.0</ele><time>2026-04-16T13:44:33.086Z</time></trkpt><trkpt lat="44.1074667" lon="12.0637533"><ele>72.0</ele><time>2026-04-16T13:44:34.086Z</time></trkpt><trkpt lat="44.10753" lon="12.06375"><ele>72.0</ele><time>2026-04-16T13:44:35.086Z</time></trkpt><trkpt lat="44.1075983" lon="12.06374"><ele>72.0</ele><time>2026-04-16T13:44:36.086Z</time></trkpt><trkpt lat="44.1076633" lon="12.0637183"><ele>72.0</ele><time>2026-04-16T13:44:37.086Z</time></trkpt><trkpt lat="44.1077167" lon="12.06367"><ele>72.0</ele><time>2026-04-16T13:44:38.086Z</time></trkpt><trkpt lat="44.1077883" lon="12.0635383"><ele>72.0</ele><time>2026-04-16T13:44:40.086Z</time></trkpt><trkpt lat="44.1078317" lon="12.0633767"><ele>72.0</ele><time>2026-04-16T13:44:42.087Z</time></trkpt><trkpt lat="44.1078483" lon="12.0632917"><ele>71.75</ele><time>2026-04-16T13:44:43.086Z</time></trkpt><trkpt lat="44.1078683" lon="12.06312"><ele>71.5</ele><time>2026-04-16T13:44:45.086Z</time></trkpt><trkpt lat="44.10788" lon="12.0629567"><ele>71.25</ele><time>2026-04-16T13:44:47.087Z</time></trkpt><trkpt lat="44.107905" lon="12.0627967"><ele>71.0</ele><time>2026-04-16T13:44:49.086Z</time></trkpt><trkpt lat="44.10792" lon="12.06263"><ele>71.0</ele><time>2026-04-16T13:44:51.086Z</time></trkpt><trkpt lat="44.1079383" lon="12.0625433"><ele>71.0</ele><time>2026-04-16T13:44:52.086Z</time></trkpt><trkpt lat="44.107975" lon="12.0623867"><ele>71.0</ele><time>2026-04-16T13:44:54.086Z</time></trkpt><trkpt lat="44.108025" lon="12.0622233"><ele>71.0</ele><time>2026-04-16T13:44:56.086Z</time></trkpt><trkpt lat="44.10807" lon="12.06207"><ele>71.0</ele><time>2026-04-16T13:44:58.086Z</time></trkpt><trkpt lat="44.1081183" lon="12.0619217"><ele>71.0</ele><time>2026-04-16T13:45:00.086Z</time></trkpt><trkpt lat="44.1081717" lon="12.0617533"><ele>71.0</ele><time>2026-04-16T13:45:02.086Z</time></trkpt><trkpt lat="44.1082017" lon="12.06167"><ele>71.0</ele><time>2026-04-16T13:45:03.086Z</time></trkpt><trkpt lat="44.1082467" lon="12.0615083"><ele>71.0</ele><time>2026-04-16T13:45:05.086Z</time></trkpt><trkpt lat="44.108295" lon="12.0613567"><ele>71.0</ele><time>2026-04-16T13:45:07.087Z</time></trkpt><trkpt lat="44.10832" lon="12.061275"><ele>71.8</ele><time>2026-04-16T13:45:08.086Z</time></trkpt><trkpt lat="44.1083583" lon="12.061155"><ele>72.6</ele><time>2026-04-16T13:45:10.086Z</time></trkpt><trkpt lat="44.1083967" lon="12.0610283"><ele>73.4</ele><time>2026-04-16T13:45:12.086Z</time></trkpt><trkpt lat="44.108435" lon="12.0609017"><ele>74.2</ele><time>2026-04-16T13:45:14.086Z</time></trkpt><trkpt lat="44.1084717" lon="12.0607767"><ele>75.0</ele><time>2026-04-16T13:45:16.086Z</time></trkpt><trkpt lat="44.10851" lon="12.0606467"><ele>75.2</ele><time>2026-04-16T13:45:18.086Z</time></trkpt><trkpt lat="44.1085517" lon="12.06051"><ele>75.4</ele><time>2026-04-16T13:45:20.086Z</time></trkpt><trkpt lat="44.108595" lon="12.0603767"><ele>75.6</ele><time>2026-04-16T13:45:22.086Z</time></trkpt><trkpt lat="44.1086283" lon="12.0602617"><ele>75.8</ele><time>2026-04-16T13:45:24.086Z</time></trkpt><trkpt lat="44.1086633" lon="12.0601717"><ele>76.0</ele><time>2026-04-16T13:45:26.086Z</time></trkpt><trkpt lat="44.1087467" lon="12.0600933"><ele>76.0</ele><time>2026-04-16T13:45:28.087Z</time></trkpt><trkpt lat="44.1088283" lon="12.060095"><ele>76.0</ele><time>2026-04-16T13:45:30.086Z</time></trkpt><trkpt lat="44.1089583" lon="12.0601333"><ele>76.0</ele><time>2026-04-16T13:45:33.087Z</time></trkpt><trkpt lat="44.1090283" lon="12.0601683"><ele>76.0</ele><time>2026-04-16T13:45:35.086Z</time></trkpt><trkpt lat="44.109105" lon="12.0601867"><ele>76.0</ele><time>2026-04-16T13:45:37.087Z</time></trkpt><trkpt lat="44.1091733" lon="12.0601683"><ele>76.0</ele><time>2026-04-16T13:45:39.086Z</time></trkpt><trkpt lat="44.1092433" lon="12.060095"><ele>76.39999999999999</ele><time>2026-04-16T13:45:41.086Z</time></trkpt><trkpt lat="44.1092917" lon="12.05995"><ele>76.8</ele><time>2026-04-16T13:45:43.086Z</time></trkpt><trkpt lat="44.10933" lon="12.0597983"><ele>77.19999999999999</ele><time>2026-04-16T13:45:45.086Z</time></trkpt><trkpt lat="44.1093433" lon="12.059645"><ele>77.6</ele><time>2026-04-16T13:45:47.086Z</time></trkpt><trkpt lat="44.1093417" lon="12.059505"><ele>78.0</ele><time>2026-04-16T13:45:49.086Z</time></trkpt><trkpt lat="44.1093683" lon="12.0593667"><ele>78.0</ele><time>2026-04-16T13:45:51.086Z</time></trkpt><trkpt lat="44.1093933" lon="12.05923"><ele>78.0</ele><time>2026-04-16T13:45:53.086Z</time></trkpt><trkpt lat="44.10942" lon="12.0590817"><ele>78.0</ele><time>2026-04-16T13:45:55.086Z</time></trkpt><trkpt lat="44.1094417" lon="12.0589467"><ele>78.0</ele><time>2026-04-16T13:45:57.086Z</time></trkpt><trkpt lat="44.1094617" lon="12.0588083"><ele>78.0</ele><time>2026-04-16T13:45:59.086Z</time></trkpt><trkpt lat="44.1094867" lon="12.05868"><ele>78.2</ele><time>2026-04-16T13:46:01.086Z</time></trkpt><trkpt lat="44.109515" lon="12.0585517"><ele>78.4</ele><time>2026-04-16T13:46:03.086Z</time></trkpt><trkpt lat="44.1095567" lon="12.05843"><ele>78.60000000000001</ele><time>2026-04-16T13:46:05.086Z</time></trkpt><trkpt lat="44.109625" lon="12.0583167"><ele>78.8</ele><time>2026-04-16T13:46:07.087Z</time></trkpt><trkpt lat="44.1097267" lon="12.058195"><ele>79.0</ele><time>2026-04-16T13:46:09.086Z</time></trkpt><trkpt lat="44.1097883" lon="12.0581517"><ele>79.16666666666666</ele><time>2026-04-16T13:46:10.086Z</time></trkpt><trkpt lat="44.1098517" lon="12.0581317"><ele>79.33333333333333</ele><time>2026-04-16T13:46:11.086Z</time></trkpt><trkpt lat="44.1099767" lon="12.0581283"><ele>79.5</ele><time>2026-04-16T13:46:13.086Z</time></trkpt><trkpt lat="44.110045" lon="12.0581367"><ele>79.66666666666667</ele><time>2026-04-16T13:46:14.086Z</time></trkpt><trkpt lat="44.1101117" lon="12.0581433"><ele>79.83333333333334</ele><time>2026-04-16T13:46:15.086Z</time></trkpt><trkpt lat="44.110175" lon="12.0581567"><ele>80.0</ele><time>2026-04-16T13:46:16.086Z</time></trkpt><trkpt lat="44.1102933" lon="12.0581817"><ele>80.0</ele><time>2026-04-16T13:46:18.086Z</time></trkpt><trkpt lat="44.1104133" lon="12.058195"><ele>80.0</ele><time>2026-04-16T13:46:20.087Z</time></trkpt><trkpt lat="44.1105267" lon="12.0582183"><ele>80.0</ele><time>2026-04-16T13:46:22.086Z</time></trkpt><trkpt lat="44.1106317" lon="12.0582433"><ele>80.0</ele><time>2026-04-16T13:46:24.086Z</time></trkpt><trkpt lat="44.110725" lon="12.0582617"><ele>80.0</ele><time>2026-04-16T13:46:26.086Z</time></trkpt><trkpt lat="44.1108217" lon="12.0582717"><ele>79.8</ele><time>2026-04-16T13:46:28.086Z</time></trkpt><trkpt lat="44.1109233" lon="12.05828"><ele>79.6</ele><time>2026-04-16T13:46:30.087Z</time></trkpt><trkpt lat="44.1110217" lon="12.0582733"><ele>79.4</ele><time>2026-04-16T13:46:32.086Z</time></trkpt><trkpt lat="44.111125" lon="12.0582583"><ele>79.2</ele><time>2026-04-16T13:46:34.086Z</time></trkpt><trkpt lat="44.1112417" lon="12.0582367"><ele>79.0</ele><time>2026-04-16T13:46:36.086Z</time></trkpt><trkpt lat="44.1113517" lon="12.0582117"><ele>79.0</ele><time>2026-04-16T13:46:38.086Z</time></trkpt><trkpt lat="44.1114533" lon="12.0582"><ele>79.0</ele><time>2026-04-16T13:46:40.086Z</time></trkpt><trkpt lat="44.1115517" lon="12.058185"><ele>79.0</ele><time>2026-04-16T13:46:42.086Z</time></trkpt><trkpt lat="44.1116517" lon="12.0581733"><ele>79.0</ele><time>2026-04-16T13:46:44.086Z</time></trkpt><trkpt lat="44.1117483" lon="12.05818"><ele>79.0</ele><time>2026-04-16T13:46:46.086Z</time></trkpt><trkpt lat="44.111845" lon="12.0581733"><ele>79.0</ele><time>2026-04-16T13:46:48.086Z</time></trkpt><trkpt lat="44.1119217" lon="12.0581767"><ele>79.0</ele><time>2026-04-16T13:46:49.086Z</time></trkpt><trkpt lat="44.1120583" lon="12.0581733"><ele>79.0</ele><time>2026-04-16T13:46:51.086Z</time></trkpt><trkpt lat="44.1121417" lon="12.0581767"><ele>79.0</ele><time>2026-04-16T13:46:52.086Z</time></trkpt><trkpt lat="44.1122117" lon="12.0581733"><ele>79.0</ele><time>2026-04-16T13:46:53.086Z</time></trkpt><trkpt lat="44.11228" lon="12.05817"><ele>79.0</ele><time>2026-04-16T13:46:54.086Z</time></trkpt><trkpt lat="44.1123483" lon="12.058165"><ele>78.85714285714286</ele><time>2026-04-16T13:46:55.086Z</time></trkpt><trkpt lat="44.1124133" lon="12.058165"><ele>78.71428571428572</ele><time>2026-04-16T13:46:56.086Z</time></trkpt><trkpt lat="44.1124767" lon="12.0581683"><ele>78.57142857142858</ele><time>2026-04-16T13:46:57.086Z</time></trkpt><trkpt lat="44.1125433" lon="12.0581667"><ele>78.42857142857143</ele><time>2026-04-16T13:46:58.086Z</time></trkpt><trkpt lat="44.1126167" lon="12.058155"><ele>78.28571428571428</ele><time>2026-04-16T13:46:59.086Z</time></trkpt><trkpt lat="44.112685" lon="12.0581467"><ele>78.14285714285715</ele><time>2026-04-16T13:47:00.086Z</time></trkpt><trkpt lat="44.112755" lon="12.05814"><ele>78.0</ele><time>2026-04-16T13:47:01.086Z</time></trkpt><trkpt lat="44.1128283" lon="12.058135"><ele>78.0</ele><time>2026-04-16T13:47:02.086Z</time></trkpt><trkpt lat="44.1129083" lon="12.0581317"><ele>78.0</ele><time>2026-04-16T13:47:03.086Z</time></trkpt><trkpt lat="44.1129783" lon="12.0581283"><ele>78.0</ele><time>2026-04-16T13:47:04.086Z</time></trkpt><trkpt lat="44.11305" lon="12.0581483"><ele>78.0</ele><time>2026-04-16T13:47:05.086Z</time></trkpt><trkpt lat="44.11318" lon="12.0581583"><ele>78.0</ele><time>2026-04-16T13:47:07.086Z</time></trkpt><trkpt lat="44.1132917" lon="12.0581567"><ele>78.2</ele><time>2026-04-16T13:47:09.086Z</time></trkpt><trkpt lat="44.1134033" lon="12.0581417"><ele>78.4</ele><time>2026-04-16T13:47:11.086Z</time></trkpt><trkpt lat="44.1135033" lon="12.0580967"><ele>78.60000000000001</ele><time>2026-04-16T13:47:13.086Z</time></trkpt><trkpt lat="44.11359" lon="12.0580433"><ele>78.8</ele><time>2026-04-16T13:47:15.086Z</time></trkpt><trkpt lat="44.11366" lon="12.0580233"><ele>79.0</ele><time>2026-04-16T13:47:17.086Z</time></trkpt><trkpt lat="44.1137183" lon="12.05809"><ele>79.0</ele><time>2026-04-16T13:47:20.086Z</time></trkpt><trkpt lat="44.11378" lon="12.0581417"><ele>79.0</ele><time>2026-04-16T13:47:22.086Z</time></trkpt><trkpt lat="44.1138667" lon="12.0581733"><ele>79.0</ele><time>2026-04-16T13:47:24.086Z</time></trkpt><trkpt lat="44.11395" lon="12.0581733"><ele>79.0</ele><time>2026-04-16T13:47:26.086Z</time></trkpt><trkpt lat="44.1140367" lon="12.05816"><ele>79.0</ele><time>2026-04-16T13:47:28.086Z</time></trkpt><trkpt lat="44.1141317" lon="12.0581667"><ele>79.0</ele><time>2026-04-16T13:47:30.086Z</time></trkpt><trkpt lat="44.1142267" lon="12.0581733"><ele>79.0</ele><time>2026-04-16T13:47:32.086Z</time></trkpt><trkpt lat="44.1143233" lon="12.0582033"><ele>79.0</ele><time>2026-04-16T13:47:34.086Z</time></trkpt><trkpt lat="44.1144183" lon="12.0582283"><ele>79.0</ele><time>2026-04-16T13:47:36.086Z</time></trkpt><trkpt lat="44.1145217" lon="12.0582367"><ele>79.0</ele><time>2026-04-16T13:47:38.086Z</time></trkpt><trkpt lat="44.1146433" lon="12.05825"><ele>79.0</ele><time>2026-04-16T13:47:40.086Z</time></trkpt><trkpt lat="44.114765" lon="12.0582717"><ele>79.25</ele><time>2026-04-16T13:47:42.086Z</time></trkpt><trkpt lat="44.1148833" lon="12.058295"><ele>79.5</ele><time>2026-04-16T13:47:44.086Z</time></trkpt><trkpt lat="44.1149983" lon="12.0583117"><ele>79.75</ele><time>2026-04-16T13:47:46.086Z</time></trkpt><trkpt lat="44.115115" lon="12.058315"><ele>80.0</ele><time>2026-04-16T13:47:48.086Z</time></trkpt><trkpt lat="44.1152183" lon="12.0583167"><ele>79.4</ele><time>2026-04-16T13:47:50.086Z</time></trkpt><trkpt lat="44.1153133" lon="12.0583033"><ele>78.8</ele><time>2026-04-16T13:47:52.086Z</time></trkpt><trkpt lat="44.1153933" lon="12.0582917"><ele>78.2</ele><time>2026-04-16T13:47:54.086Z</time></trkpt><trkpt lat="44.115495" lon="12.0582717"><ele>77.6</ele><time>2026-04-16T13:47:57.086Z</time></trkpt><trkpt lat="44.1155917" lon="12.0582483"><ele>77.0</ele><time>2026-04-16T13:47:59.086Z</time></trkpt><trkpt lat="44.1156867" lon="12.05823"><ele>77.16666666666667</ele><time>2026-04-16T13:48:01.086Z</time></trkpt><trkpt lat="44.1157817" lon="12.0582133"><ele>77.33333333333334</ele><time>2026-04-16T13:48:03.086Z</time></trkpt><trkpt lat="44.1158733" lon="12.058205"><ele>77.5</ele><time>2026-04-16T13:48:05.086Z</time></trkpt><trkpt lat="44.1159417" lon="12.058205"><ele>77.66666666666667</ele><time>2026-04-16T13:48:07.086Z</time></trkpt><trkpt lat="44.116015" lon="12.0582183"><ele>77.83333333333333</ele><time>2026-04-16T13:48:10.086Z</time></trkpt><trkpt lat="44.116085" lon="12.0582533"><ele>78.0</ele><time>2026-04-16T13:48:12.086Z</time></trkpt><trkpt lat="44.1161583" lon="12.05827"><ele>77.5</ele><time>2026-04-16T13:48:14.086Z</time></trkpt><trkpt lat="44.1162317" lon="12.0582967"><ele>77.0</ele><time>2026-04-16T13:48:17.086Z</time></trkpt><trkpt lat="44.1163067" lon="12.0582933"><ele>76.5</ele><time>2026-04-16T13:48:20.086Z</time></trkpt><trkpt lat="44.1163833" lon="12.058305"><ele>76.0</ele><time>2026-04-16T13:48:22.087Z</time></trkpt><trkpt lat="44.11647" lon="12.05832"><ele>75.5</ele><time>2026-04-16T13:48:24.086Z</time></trkpt><trkpt lat="44.1165667" lon="12.0583517"><ele>75.0</ele><time>2026-04-16T13:48:26.086Z</time></trkpt><trkpt lat="44.1166783" lon="12.0584017"><ele>74.75</ele><time>2026-04-16T13:48:28.086Z</time></trkpt><trkpt lat="44.1167867" lon="12.0584183"><ele>74.5</ele><time>2026-04-16T13:48:30.087Z</time></trkpt><trkpt lat="44.11689" lon="12.058425"><ele>74.25</ele><time>2026-04-16T13:48:32.086Z</time></trkpt><trkpt lat="44.1170067" lon="12.058425"><ele>74.0</ele><time>2026-04-16T13:48:34.086Z</time></trkpt><trkpt lat="44.1171283" lon="12.05841"><ele>74.0</ele><time>2026-04-16T13:48:36.086Z</time></trkpt><trkpt lat="44.1171933" lon="12.0583867"><ele>74.0</ele><time>2026-04-16T13:48:37.086Z</time></trkpt><trkpt lat="44.11726" lon="12.0583583"><ele>74.0</ele><time>2026-04-16T13:48:38.086Z</time></trkpt><trkpt lat="44.1173183" lon="12.058325"><ele>74.0</ele><time>2026-04-16T13:48:39.087Z</time></trkpt><trkpt lat="44.1173833" lon="12.0583"><ele>74.0</ele><time>2026-04-16T13:48:40.086Z</time></trkpt><trkpt lat="44.1174517" lon="12.0582767"><ele>74.0</ele><time>2026-04-16T13:48:41.086Z</time></trkpt><trkpt lat="44.117575" lon="12.05823"><ele>73.83333333333334</ele><time>2026-04-16T13:48:43.086Z</time></trkpt><trkpt lat="44.1176467" lon="12.0582117"><ele>73.66666666666667</ele><time>2026-04-16T13:48:44.086Z</time></trkpt><trkpt lat="44.1177267" lon="12.0581967"><ele>73.5</ele><time>2026-04-16T13:48:45.086Z</time></trkpt><trkpt lat="44.11782" lon="12.0581967"><ele>73.33333333333333</ele><time>2026-04-16T13:48:46.086Z</time></trkpt><trkpt lat="44.1179033" lon="12.0582017"><ele>73.16666666666666</ele><time>2026-04-16T13:48:47.086Z</time></trkpt><trkpt lat="44.1179933" lon="12.058205"><ele>73.0</ele><time>2026-04-16T13:48:48.086Z</time></trkpt><trkpt lat="44.11808" lon="12.0582133"><ele>73.0</ele><time>2026-04-16T13:48:49.086Z</time></trkpt><trkpt lat="44.1181617" lon="12.0582233"><ele>73.0</ele><time>2026-04-16T13:48:50.086Z</time></trkpt><trkpt lat="44.1182433" lon="12.0582367"><ele>73.0</ele><time>2026-04-16T13:48:51.086Z</time></trkpt><trkpt lat="44.1183217" lon="12.0582567"><ele>73.0</ele><time>2026-04-16T13:48:52.086Z</time></trkpt><trkpt lat="44.1184033" lon="12.0582867"><ele>73.0</ele><time>2026-04-16T13:48:53.086Z</time></trkpt><trkpt lat="44.1184817" lon="12.0583217"><ele>73.0</ele><time>2026-04-16T13:48:54.086Z</time></trkpt><trkpt lat="44.118555" lon="12.0583667"><ele>71.33333333333333</ele><time>2026-04-16T13:48:55.086Z</time></trkpt><trkpt lat="44.1186283" lon="12.05842"><ele>69.66666666666666</ele><time>2026-04-16T13:48:56.087Z</time></trkpt><trkpt lat="44.1187017" lon="12.0584783"><ele>68.0</ele><time>2026-04-16T13:48:57.086Z</time></trkpt><trkpt lat="44.1187733" lon="12.05853"><ele>66.33333333333333</ele><time>2026-04-16T13:48:58.086Z</time></trkpt><trkpt lat="44.118845" lon="12.0585667"><ele>64.66666666666667</ele><time>2026-04-16T13:48:59.086Z</time></trkpt><trkpt lat="44.11891" lon="12.0586067"><ele>63.0</ele><time>2026-04-16T13:49:00.086Z</time></trkpt><trkpt lat="44.1190183" lon="12.0586867"><ele>64.0</ele><time>2026-04-16T13:49:02.086Z</time></trkpt><trkpt lat="44.1191233" lon="12.0587567"><ele>65.0</ele><time>2026-04-16T13:49:04.086Z</time></trkpt><trkpt lat="44.1192267" lon="12.0588283"><ele>66.0</ele><time>2026-04-16T13:49:06.086Z</time></trkpt><trkpt lat="44.1193233" lon="12.058895"><ele>67.0</ele><time>2026-04-16T13:49:08.086Z</time></trkpt><trkpt lat="44.119405" lon="12.0589583"><ele>68.0</ele><time>2026-04-16T13:49:10.086Z</time></trkpt><trkpt lat="44.1195167" lon="12.059065"><ele>68.0</ele><time>2026-04-16T13:49:13.086Z</time></trkpt><trkpt lat="44.1196017" lon="12.0591283"><ele>68.0</ele><time>2026-04-16T13:49:16.086Z</time></trkpt><trkpt lat="44.11967" lon="12.059165"><ele>68.0</ele><time>2026-04-16T13:49:18.086Z</time></trkpt><trkpt lat="44.119745" lon="12.0591833"><ele>68.0</ele><time>2026-04-16T13:49:21.086Z</time></trkpt><trkpt lat="44.1196667" lon="12.0591683"><ele>68.0</ele><time>2026-04-16T13:49:33.085Z</time></trkpt><trkpt lat="44.119605" lon="12.0591083"><ele>68.0</ele><time>2026-04-16T13:49:35.085Z</time></trkpt><trkpt lat="44.1195533" lon="12.05905"><ele>68.0</ele><time>2026-04-16T13:49:37.085Z</time></trkpt><trkpt lat="44.119515" lon="12.0589783"><ele>68.0</ele><time>2026-04-16T13:49:39.085Z</time></trkpt><trkpt lat="44.1195883" lon="12.058955"><ele>68.0</ele><time>2026-04-16T13:49:46.085Z</time></trkpt><trkpt lat="44.1196483" lon="12.0590067"><ele>68.0</ele><time>2026-04-16T13:49:48.085Z</time></trkpt><trkpt lat="44.1197167" lon="12.05905"><ele>68.0</ele><time>2026-04-16T13:49:50.085Z</time></trkpt><trkpt lat="44.1198233" lon="12.0590933"><ele>68.0</ele><time>2026-04-16T13:49:52.085Z</time></trkpt><trkpt lat="44.1199233" lon="12.0591367"><ele>67.4</ele><time>2026-04-16T13:49:54.085Z</time></trkpt><trkpt lat="44.120025" lon="12.0591817"><ele>66.8</ele><time>2026-04-16T13:49:56.085Z</time></trkpt><trkpt lat="44.1201133" lon="12.059225"><ele>66.2</ele><time>2026-04-16T13:49:58.085Z</time></trkpt><trkpt lat="44.1202067" lon="12.0592667"><ele>65.6</ele><time>2026-04-16T13:50:00.085Z</time></trkpt><trkpt lat="44.1202967" lon="12.0593017"><ele>65.0</ele><time>2026-04-16T13:50:02.085Z</time></trkpt><trkpt lat="44.1203933" lon="12.0593333"><ele>65.0</ele><time>2026-04-16T13:50:04.086Z</time></trkpt><trkpt lat="44.12046" lon="12.059345"><ele>65.0</ele><time>2026-04-16T13:50:06.085Z</time></trkpt><trkpt lat="44.1205417" lon="12.05935"><ele>65.0</ele><time>2026-04-16T13:50:08.085Z</time></trkpt><trkpt lat="44.1206283" lon="12.05934"><ele>65.0</ele><time>2026-04-16T13:50:10.085Z</time></trkpt><trkpt lat="44.1207083" lon="12.0593183"><ele>65.0</ele><time>2026-04-16T13:50:12.085Z</time></trkpt><trkpt lat="44.12081" lon="12.0592933"><ele>65.0</ele><time>2026-04-16T13:50:14.085Z</time></trkpt><trkpt lat="44.1209067" lon="12.0592683"><ele>65.4</ele><time>2026-04-16T13:50:16.085Z</time></trkpt><trkpt lat="44.12105" lon="12.05929"><ele>65.8</ele><time>2026-04-16T13:50:18.086Z</time></trkpt><trkpt lat="44.12112" lon="12.0592933"><ele>66.2</ele><time>2026-04-16T13:50:19.085Z</time></trkpt><trkpt lat="44.121185" lon="12.0592917"><ele>66.6</ele><time>2026-04-16T13:50:20.085Z</time></trkpt><trkpt lat="44.1213083" lon="12.0593033"><ele>67.0</ele><time>2026-04-16T13:50:22.085Z</time></trkpt><trkpt lat="44.1214117" lon="12.0593067"><ele>67.0</ele><time>2026-04-16T13:50:24.085Z</time></trkpt><trkpt lat="44.1215" lon="12.0593083"><ele>67.0</ele><time>2026-04-16T13:50:26.085Z</time></trkpt><trkpt lat="44.1215883" lon="12.0593133"><ele>67.0</ele><time>2026-04-16T13:50:28.085Z</time></trkpt><trkpt lat="44.1216733" lon="12.05932"><ele>67.0</ele><time>2026-04-16T13:50:30.085Z</time></trkpt><trkpt lat="44.1217817" lon="12.0593283"><ele>67.0</ele><time>2026-04-16T13:50:32.085Z</time></trkpt><trkpt lat="44.12188" lon="12.0593333"><ele>67.5</ele><time>2026-04-16T13:50:34.086Z</time></trkpt><trkpt lat="44.1219667" lon="12.0593267"><ele>68.0</ele><time>2026-04-16T13:50:36.085Z</time></trkpt><trkpt lat="44.12204" lon="12.059325"><ele>68.5</ele><time>2026-04-16T13:50:38.085Z</time></trkpt><trkpt lat="44.122105" lon="12.0593283"><ele>69.0</ele><time>2026-04-16T13:50:40.085Z</time></trkpt><trkpt lat="44.122175" lon="12.05932"><ele>69.5</ele><time>2026-04-16T13:50:42.085Z</time></trkpt><trkpt lat="44.1222617" lon="12.0593183"><ele>70.0</ele><time>2026-04-16T13:50:45.085Z</time></trkpt><trkpt lat="44.1223333" lon="12.0592683"><ele>70.2</ele><time>2026-04-16T13:50:48.085Z</time></trkpt><trkpt lat="44.1224667" lon="12.0592683"><ele>70.4</ele><time>2026-04-16T13:50:59.085Z</time></trkpt><trkpt lat="44.1225417" lon="12.05927"><ele>70.6</ele><time>2026-04-16T13:51:02.085Z</time></trkpt><trkpt lat="44.1226417" lon="12.059275"><ele>70.8</ele><time>2026-04-16T13:51:05.085Z</time></trkpt><trkpt lat="44.1227267" lon="12.0592783"><ele>71.0</ele><time>2026-04-16T13:51:07.085Z</time></trkpt><trkpt lat="44.122805" lon="12.0592633"><ele>71.0</ele><time>2026-04-16T13:51:09.085Z</time></trkpt><trkpt lat="44.122885" lon="12.0592417"><ele>71.0</ele><time>2026-04-16T13:51:11.086Z</time></trkpt><trkpt lat="44.1229617" lon="12.05925"><ele>71.0</ele><time>2026-04-16T13:51:13.085Z</time></trkpt><trkpt lat="44.12304" lon="12.0592367"><ele>71.0</ele><time>2026-04-16T13:51:15.085Z</time></trkpt><trkpt lat="44.123125" lon="12.05922"><ele>71.0</ele><time>2026-04-16T13:51:17.085Z</time></trkpt><trkpt lat="44.1232183" lon="12.0592183"><ele>71.0</ele><time>2026-04-16T13:51:19.085Z</time></trkpt><trkpt lat="44.1233083" lon="12.0592233"><ele>70.6</ele><time>2026-04-16T13:51:21.085Z</time></trkpt><trkpt lat="44.1234067" lon="12.05924"><ele>70.19999999999999</ele><time>2026-04-16T13:51:23.085Z</time></trkpt><trkpt lat="44.1235" lon="12.0592383"><ele>69.80000000000001</ele><time>2026-04-16T13:51:25.086Z</time></trkpt><trkpt lat="44.123595" lon="12.0592467"><ele>69.4</ele><time>2026-04-16T13:51:27.085Z</time></trkpt><trkpt lat="44.1236833" lon="12.059245"><ele>69.0</ele><time>2026-04-16T13:51:29.085Z</time></trkpt><trkpt lat="44.1237683" lon="12.0592717"><ele>69.0</ele><time>2026-04-16T13:51:31.085Z</time></trkpt><trkpt lat="44.12388" lon="12.0592933"><ele>69.0</ele><time>2026-04-16T13:51:33.085Z</time></trkpt><trkpt lat="44.1239883" lon="12.059305"><ele>69.0</ele><time>2026-04-16T13:51:35.085Z</time></trkpt><trkpt lat="44.1241167" lon="12.05934"><ele>69.0</ele><time>2026-04-16T13:51:37.086Z</time></trkpt><trkpt lat="44.1241783" lon="12.059365"><ele>69.0</ele><time>2026-04-16T13:51:38.085Z</time></trkpt><trkpt lat="44.1242433" lon="12.0593767"><ele>68.60000000000001</ele><time>2026-04-16T13:51:39.086Z</time></trkpt><trkpt lat="44.124365" lon="12.0593867"><ele>68.2</ele><time>2026-04-16T13:51:41.085Z</time></trkpt><trkpt lat="44.1244367" lon="12.05939"><ele>67.80000000000001</ele><time>2026-04-16T13:51:42.085Z</time></trkpt><trkpt lat="44.1245467" lon="12.05938"><ele>67.4</ele><time>2026-04-16T13:51:44.085Z</time></trkpt><trkpt lat="44.1246683" lon="12.0593833"><ele>67.0</ele><time>2026-04-16T13:51:46.085Z</time></trkpt><trkpt lat="44.1247333" lon="12.0593933"><ele>67.0</ele><time>2026-04-16T13:51:47.085Z</time></trkpt><trkpt lat="44.12485" lon="12.0594467"><ele>67.0</ele><time>2026-04-16T13:51:49.085Z</time></trkpt><trkpt lat="44.124965" lon="12.0594783"><ele>67.0</ele><time>2026-04-16T13:51:51.085Z</time></trkpt><trkpt lat="44.12506" lon="12.05948"><ele>67.0</ele><time>2026-04-16T13:51:53.085Z</time></trkpt><trkpt lat="44.125155" lon="12.059505"><ele>67.0</ele><time>2026-04-16T13:51:55.085Z</time></trkpt><trkpt lat="44.1252467" lon="12.0595217"><ele>67.16666666666666</ele><time>2026-04-16T13:51:57.085Z</time></trkpt><trkpt lat="44.12532" lon="12.05953"><ele>67.33333333333333</ele><time>2026-04-16T13:51:59.085Z</time></trkpt><trkpt lat="44.125405" lon="12.0595583"><ele>67.5</ele><time>2026-04-16T13:52:02.085Z</time></trkpt><trkpt lat="44.125475" lon="12.0595733"><ele>67.66666666666667</ele><time>2026-04-16T13:52:04.085Z</time></trkpt><trkpt lat="44.1255533" lon="12.0596067"><ele>67.83333333333334</ele><time>2026-04-16T13:52:06.085Z</time></trkpt><trkpt lat="44.1256267" lon="12.0596233"><ele>68.0</ele><time>2026-04-16T13:52:08.085Z</time></trkpt><trkpt lat="44.1256983" lon="12.059655"><ele>68.2</ele><time>2026-04-16T13:52:10.085Z</time></trkpt><trkpt lat="44.1257967" lon="12.0596867"><ele>68.4</ele><time>2026-04-16T13:52:12.085Z</time></trkpt><trkpt lat="44.1258883" lon="12.059725"><ele>68.60000000000001</ele><time>2026-04-16T13:52:14.085Z</time></trkpt><trkpt lat="44.1259733" lon="12.0597217"><ele>68.8</ele><time>2026-04-16T13:52:16.085Z</time></trkpt><trkpt lat="44.1260683" lon="12.05972"><ele>69.0</ele><time>2026-04-16T13:52:19.085Z</time></trkpt><trkpt lat="44.1261617" lon="12.0597083"><ele>69.0</ele><time>2026-04-16T13:52:22.085Z</time></trkpt><trkpt lat="44.1262333" lon="12.0597117"><ele>69.0</ele><time>2026-04-16T13:52:24.085Z</time></trkpt><trkpt lat="44.126315" lon="12.05974"><ele>69.0</ele><time>2026-04-16T13:52:26.085Z</time></trkpt><trkpt lat="44.12641" lon="12.0597583"><ele>69.0</ele><time>2026-04-16T13:52:28.085Z</time></trkpt><trkpt lat="44.12651" lon="12.0597733"><ele>69.0</ele><time>2026-04-16T13:52:30.085Z</time></trkpt><trkpt lat="44.1265817" lon="12.05978"><ele>69.0</ele><time>2026-04-16T13:52:32.086Z</time></trkpt><trkpt lat="44.1266633" lon="12.0597933"><ele>68.66666666666667</ele><time>2026-04-16T13:52:34.085Z</time></trkpt><trkpt lat="44.1267433" lon="12.05979"><ele>68.33333333333333</ele><time>2026-04-16T13:52:36.085Z</time></trkpt><trkpt lat="44.1268133" lon="12.059795"><ele>68.0</ele><time>2026-04-16T13:52:38.085Z</time></trkpt><trkpt lat="44.1269017" lon="12.0598133"><ele>67.66666666666666</ele><time>2026-04-16T13:52:40.085Z</time></trkpt><trkpt lat="44.1269917" lon="12.0598417"><ele>67.33333333333333</ele><time>2026-04-16T13:52:42.085Z</time></trkpt><trkpt lat="44.1270667" lon="12.0598367"><ele>67.0</ele><time>2026-04-16T13:52:44.085Z</time></trkpt><trkpt lat="44.1271533" lon="12.0598467"><ele>67.0</ele><time>2026-04-16T13:52:46.086Z</time></trkpt><trkpt lat="44.1272483" lon="12.059855"><ele>67.0</ele><time>2026-04-16T13:52:48.085Z</time></trkpt><trkpt lat="44.12732" lon="12.0598367"><ele>67.0</ele><time>2026-04-16T13:52:50.085Z</time></trkpt><trkpt lat="44.1273867" lon="12.059775"><ele>67.0</ele><time>2026-04-16T13:52:53.085Z</time></trkpt><trkpt lat="44.1274417" lon="12.0596967"><ele>67.0</ele><time>2026-04-16T13:52:57.086Z</time></trkpt><trkpt lat="44.1274967" lon="12.05963"><ele>67.0</ele><time>2026-04-16T13:53:02.085Z</time></trkpt><trkpt lat="44.12756" lon="12.0595867"><ele>67.57142857142857</ele><time>2026-04-16T13:53:06.085Z</time></trkpt><trkpt lat="44.1276233" lon="12.0595667"><ele>68.14285714285714</ele><time>2026-04-16T13:53:10.085Z</time></trkpt><trkpt lat="44.12769" lon="12.0595283"><ele>68.71428571428571</ele><time>2026-04-16T13:53:15.086Z</time></trkpt><trkpt lat="44.127765" lon="12.05948"><ele>69.28571428571428</ele><time>2026-04-16T13:53:19.085Z</time></trkpt><trkpt lat="44.127835" lon="12.0594333"><ele>69.85714285714285</ele><time>2026-04-16T13:53:23.085Z</time></trkpt><trkpt lat="44.1278983" lon="12.05939"><ele>70.42857142857143</ele><time>2026-04-16T13:53:27.085Z</time></trkpt><trkpt lat="44.1279667" lon="12.0593517"><ele>71.0</ele><time>2026-04-16T13:53:32.085Z</time></trkpt><trkpt lat="44.1280317" lon="12.0593117"><ele>71.0</ele><time>2026-04-16T13:53:36.085Z</time></trkpt><trkpt lat="44.1281067" lon="12.0592817"><ele>71.0</ele><time>2026-04-16T13:53:40.085Z</time></trkpt><trkpt lat="44.12817" lon="12.0592717"><ele>71.0</ele><time>2026-04-16T13:53:43.085Z</time></trkpt><trkpt lat="44.1282333" lon="12.059245"><ele>71.0</ele><time>2026-04-16T13:53:46.085Z</time></trkpt><trkpt lat="44.1282967" lon="12.0592383"><ele>71.0</ele><time>2026-04-16T13:53:51.085Z</time></trkpt><trkpt lat="44.128365" lon="12.0592317"><ele>71.0</ele><time>2026-04-16T13:53:55.086Z</time></trkpt><trkpt lat="44.1284333" lon="12.05923"><ele>71.0</ele><time>2026-04-16T13:53:59.085Z</time></trkpt><trkpt lat="44.1283567" lon="12.059225"><ele>72.0</ele><time>2026-04-16T13:54:21.085Z</time></trkpt><trkpt lat="44.1282833" lon="12.0591733"><ele>73.0</ele><time>2026-04-16T13:54:24.085Z</time></trkpt><trkpt lat="44.1282267" lon="12.059115"><ele>74.0</ele><time>2026-04-16T13:54:26.086Z</time></trkpt><trkpt lat="44.1281583" lon="12.0590567"><ele>75.0</ele><time>2026-04-16T13:54:28.085Z</time></trkpt><trkpt lat="44.12811" lon="12.05896"><ele>76.0</ele><time>2026-04-16T13:54:31.085Z</time></trkpt><trkpt lat="44.12806" lon="12.05889"><ele>77.0</ele><time>2026-04-16T13:54:34.085Z</time></trkpt><trkpt lat="44.1280183" lon="12.0588167"><ele>77.57142857142857</ele><time>2026-04-16T13:54:37.085Z</time></trkpt><trkpt lat="44.12798" lon="12.0587383"><ele>78.14285714285714</ele><time>2026-04-16T13:54:40.085Z</time></trkpt><trkpt lat="44.1279283" lon="12.058685"><ele>78.71428571428572</ele><time>2026-04-16T13:54:44.085Z</time></trkpt><trkpt lat="44.1278833" lon="12.0586017"><ele>79.28571428571428</ele><time>2026-04-16T13:54:48.085Z</time></trkpt><trkpt lat="44.1278483" lon="12.0585117"><ele>79.85714285714286</ele><time>2026-04-16T13:54:52.085Z</time></trkpt><trkpt lat="44.127805" lon="12.0584217"><ele>80.42857142857143</ele><time>2026-04-16T13:54:56.085Z</time></trkpt><trkpt lat="44.1277617" lon="12.058355"><ele>81.0</ele><time>2026-04-16T13:55:00.085Z</time></trkpt><trkpt lat="44.1277133" lon="12.0582667"><ele>82.0</ele><time>2026-04-16T13:55:05.085Z</time></trkpt><trkpt lat="44.12768" lon="12.05819"><ele>83.0</ele><time>2026-04-16T13:55:08.085Z</time></trkpt><trkpt lat="44.1276433" lon="12.0581167"><ele>84.0</ele><time>2026-04-16T13:55:11.085Z</time></trkpt><trkpt lat="44.1276033" lon="12.0580167"><ele>85.0</ele><time>2026-04-16T13:55:15.085Z</time></trkpt><trkpt lat="44.1275533" lon="12.057925"><ele>86.0</ele><time>2026-04-16T13:55:19.085Z</time></trkpt><trkpt lat="44.1274967" lon="12.0578517"><ele>87.0</ele><time>2026-04-16T13:55:23.085Z</time></trkpt><trkpt lat="44.12745" lon="12.0577817"><ele>88.0</ele><time>2026-04-16T13:55:26.085Z</time></trkpt><trkpt lat="44.127385" lon="12.0577233"><ele>88.0</ele><time>2026-04-16T13:55:30.085Z</time></trkpt><trkpt lat="44.1273233" lon="12.05766"><ele>88.0</ele><time>2026-04-16T13:55:34.086Z</time></trkpt><trkpt lat="44.127255" lon="12.057645"><ele>88.0</ele><time>2026-04-16T13:55:38.085Z</time></trkpt><trkpt lat="44.12718" lon="12.0576433"><ele>88.0</ele><time>2026-04-16T13:55:43.085Z</time></trkpt><trkpt lat="44.127105" lon="12.05761"><ele>88.0</ele><time>2026-04-16T13:55:47.086Z</time></trkpt><trkpt lat="44.1270433" lon="12.05757"><ele>88.0</ele><time>2026-04-16T13:55:50.085Z</time></trkpt><trkpt lat="44.1269783" lon="12.0575433"><ele>88.0</ele><time>2026-04-16T13:55:53.085Z</time></trkpt><trkpt lat="44.126915" lon="12.05752"><ele>88.0</ele><time>2026-04-16T13:55:56.085Z</time></trkpt><trkpt lat="44.1268533" lon="12.0574833"><ele>88.0</ele><time>2026-04-16T13:55:59.085Z</time></trkpt><trkpt lat="44.1267833" lon="12.057445"><ele>88.0</ele><time>2026-04-16T13:56:02.086Z</time></trkpt><trkpt lat="44.1267133" lon="12.0573933"><ele>88.0</ele><time>2026-04-16T13:56:05.085Z</time></trkpt><trkpt lat="44.126655" lon="12.0573583"><ele>88.0</ele><time>2026-04-16T13:56:08.085Z</time></trkpt><trkpt lat="44.1265917" lon="12.05731"><ele>88.0</ele><time>2026-04-16T13:56:12.085Z</time></trkpt><trkpt lat="44.126535" lon="12.05723"><ele>88.0</ele><time>2026-04-16T13:56:16.085Z</time></trkpt><trkpt lat="44.1264967" lon="12.0571483"><ele>88.16666666666666</ele><time>2026-04-16T13:56:19.085Z</time></trkpt><trkpt lat="44.1264583" lon="12.057035"><ele>88.33333333333333</ele><time>2026-04-16T13:56:22.085Z</time></trkpt><trkpt lat="44.126415" lon="12.0569217"><ele>88.5</ele><time>2026-04-16T13:56:25.085Z</time></trkpt><trkpt lat="44.1263867" lon="12.0567983"><ele>88.66666666666667</ele><time>2026-04-16T13:56:28.085Z</time></trkpt><trkpt lat="44.1263717" lon="12.0566933"><ele>88.83333333333334</ele><time>2026-04-16T13:56:32.085Z</time></trkpt><trkpt lat="44.1263483" lon="12.0566033"><ele>89.0</ele><time>2026-04-16T13:56:36.085Z</time></trkpt><trkpt lat="44.1263033" lon="12.0565217"><ele>90.28571428571428</ele><time>2026-04-16T13:56:40.085Z</time></trkpt><trkpt lat="44.1262783" lon="12.0564217"><ele>91.57142857142857</ele><time>2026-04-16T13:56:43.085Z</time></trkpt><trkpt lat="44.1262567" lon="12.0563367"><ele>92.85714285714286</ele><time>2026-04-16T13:56:46.085Z</time></trkpt><trkpt lat="44.1262267" lon="12.05625"><ele>94.14285714285714</ele><time>2026-04-16T13:56:50.085Z</time></trkpt><trkpt lat="44.1262067" lon="12.056145"><ele>95.42857142857143</ele><time>2026-04-16T13:56:54.085Z</time></trkpt><trkpt lat="44.1261583" lon="12.0560433"><ele>96.71428571428571</ele><time>2026-04-16T13:56:58.085Z</time></trkpt><trkpt lat="44.12612" lon="12.055955"><ele>98.0</ele><time>2026-04-16T13:57:01.086Z</time></trkpt><trkpt lat="44.126075" lon="12.0558617"><ele>99.66666666666666</ele><time>2026-04-16T13:57:04.085Z</time></trkpt><trkpt lat="44.126035" lon="12.0557583"><ele>101.33333333333333</ele><time>2026-04-16T13:57:07.085Z</time></trkpt><trkpt lat="44.1260017" lon="12.0556583"><ele>103.0</ele><time>2026-04-16T13:57:10.085Z</time></trkpt><trkpt lat="44.125965" lon="12.05555"><ele>104.66666666666666</ele><time>2026-04-16T13:57:13.085Z</time></trkpt><trkpt lat="44.1259417" lon="12.0554583"><ele>106.33333333333333</ele><time>2026-04-16T13:57:15.085Z</time></trkpt><trkpt lat="44.1259133" lon="12.0553767"><ele>108.0</ele><time>2026-04-16T13:57:17.085Z</time></trkpt><trkpt lat="44.12587" lon="12.0552733"><ele>108.0</ele><time>2026-04-16T13:57:20.085Z</time></trkpt><trkpt lat="44.125825" lon="12.0551883"><ele>108.0</ele><time>2026-04-16T13:57:23.085Z</time></trkpt><trkpt lat="44.125775" lon="12.0551183"><ele>108.0</ele><time>2026-04-16T13:57:26.085Z</time></trkpt><trkpt lat="44.1257167" lon="12.0550467"><ele>108.0</ele><time>2026-04-16T13:57:29.085Z</time></trkpt><trkpt lat="44.12567" lon="12.0549533"><ele>108.0</ele><time>2026-04-16T13:57:32.085Z</time></trkpt><trkpt lat="44.1256183" lon="12.0548683"><ele>108.0</ele><time>2026-04-16T13:57:35.085Z</time></trkpt><trkpt lat="44.1255633" lon="12.0548067"><ele>109.28571428571428</ele><time>2026-04-16T13:57:38.085Z</time></trkpt><trkpt lat="44.1255117" lon="12.05474"><ele>110.57142857142857</ele><time>2026-04-16T13:57:41.085Z</time></trkpt><trkpt lat="44.1254517" lon="12.054675"><ele>111.85714285714286</ele><time>2026-04-16T13:57:44.085Z</time></trkpt><trkpt lat="44.1253917" lon="12.0546033"><ele>113.14285714285714</ele><time>2026-04-16T13:57:47.085Z</time></trkpt><trkpt lat="44.12535" lon="12.054535"><ele>114.42857142857144</ele><time>2026-04-16T13:57:50.085Z</time></trkpt><trkpt lat="44.1253" lon="12.0544733"><ele>115.71428571428572</ele><time>2026-04-16T13:57:53.085Z</time></trkpt><trkpt lat="44.1252283" lon="12.0544233"><ele>117.0</ele><time>2026-04-16T13:57:57.085Z</time></trkpt><trkpt lat="44.12517" lon="12.0543883"><ele>117.0</ele><time>2026-04-16T13:58:00.085Z</time></trkpt><trkpt lat="44.1251083" lon="12.054355"><ele>117.00000000000001</ele><time>2026-04-16T13:58:03.085Z</time></trkpt><trkpt lat="44.1250267" lon="12.0543333"><ele>117.0</ele><time>2026-04-16T13:58:07.085Z</time></trkpt><trkpt lat="44.1249667" lon="12.054305"><ele>117.0</ele><time>2026-04-16T13:58:10.085Z</time></trkpt><trkpt lat="44.1248917" lon="12.0542833"><ele>117.00000000000001</ele><time>2026-04-16T13:58:14.086Z</time></trkpt><trkpt lat="44.124825" lon="12.0542783"><ele>117.0</ele><time>2026-04-16T13:58:19.085Z</time></trkpt><trkpt lat="44.1247683" lon="12.0543267"><ele>117.0</ele><time>2026-04-16T13:58:25.085Z</time></trkpt><trkpt lat="44.124725" lon="12.054415"><ele>118.0</ele><time>2026-04-16T13:58:31.085Z</time></trkpt><trkpt lat="44.1246783" lon="12.05449"><ele>119.00000000000001</ele><time>2026-04-16T13:58:35.085Z</time></trkpt><trkpt lat="44.1246267" lon="12.054555"><ele>120.0</ele><time>2026-04-16T13:58:38.086Z</time></trkpt><trkpt lat="44.12456" lon="12.05461"><ele>121.0</ele><time>2026-04-16T13:58:41.085Z</time></trkpt><trkpt lat="44.12448" lon="12.0546433"><ele>122.00000000000001</ele><time>2026-04-16T13:58:44.086Z</time></trkpt><trkpt lat="44.124415" lon="12.0546517"><ele>123.0</ele><time>2026-04-16T13:58:46.085Z</time></trkpt><trkpt lat="44.12434" lon="12.0546583"><ele>124.0</ele><time>2026-04-16T13:58:48.085Z</time></trkpt><trkpt lat="44.1242667" lon="12.05466"><ele>124.0</ele><time>2026-04-16T13:58:50.085Z</time></trkpt><trkpt lat="44.12419" lon="12.0546417"><ele>124.00000000000001</ele><time>2026-04-16T13:58:52.085Z</time></trkpt><trkpt lat="44.1241217" lon="12.0546283"><ele>124.0</ele><time>2026-04-16T13:58:54.085Z</time></trkpt><trkpt lat="44.1240317" lon="12.0546067"><ele>124.0</ele><time>2026-04-16T13:58:57.085Z</time></trkpt><trkpt lat="44.1239683" lon="12.0545817"><ele>124.00000000000001</ele><time>2026-04-16T13:59:00.085Z</time></trkpt><trkpt lat="44.123905" lon="12.0545433"><ele>124.0</ele><time>2026-04-16T13:59:03.085Z</time></trkpt><trkpt lat="44.1238417" lon="12.0545267"><ele>124.0</ele><time>2026-04-16T13:59:06.085Z</time></trkpt><trkpt lat="44.1237633" lon="12.0545183"><ele>125.33333333333334</ele><time>2026-04-16T13:59:09.085Z</time></trkpt><trkpt lat="44.1236833" lon="12.054525"><ele>126.66666666666667</ele><time>2026-04-16T13:59:13.085Z</time></trkpt><trkpt lat="44.123615" lon="12.0545617"><ele>128.0</ele><time>2026-04-16T13:59:16.085Z</time></trkpt><trkpt lat="44.1235417" lon="12.0546167"><ele>129.33333333333334</ele><time>2026-04-16T13:59:19.085Z</time></trkpt><trkpt lat="44.1234733" lon="12.054665"><ele>130.66666666666666</ele><time>2026-04-16T13:59:22.085Z</time></trkpt><trkpt lat="44.1234117" lon="12.054735"><ele>132.0</ele><time>2026-04-16T13:59:25.085Z</time></trkpt><trkpt lat="44.1233517" lon="12.054815"><ele>132.0</ele><time>2026-04-16T13:59:28.085Z</time></trkpt><trkpt lat="44.123295" lon="12.054865"><ele>132.0</ele><time>2026-04-16T13:59:30.085Z</time></trkpt><trkpt lat="44.123235" lon="12.0549083"><ele>132.0</ele><time>2026-04-16T13:59:33.085Z</time></trkpt><trkpt lat="44.1231717" lon="12.0549433"><ele>132.0</ele><time>2026-04-16T13:59:37.085Z</time></trkpt><trkpt lat="44.1231067" lon="12.0549467"><ele>132.0</ele><time>2026-04-16T13:59:40.085Z</time></trkpt><trkpt lat="44.12302" lon="12.0549233"><ele>132.0</ele><time>2026-04-16T13:59:43.085Z</time></trkpt><trkpt lat="44.1229533" lon="12.05488"><ele>132.0</ele><time>2026-04-16T13:59:46.085Z</time></trkpt><trkpt lat="44.1229" lon="12.0547967"><ele>132.33333333333334</ele><time>2026-04-16T13:59:49.085Z</time></trkpt><trkpt lat="44.12284" lon="12.0547133"><ele>132.66666666666666</ele><time>2026-04-16T13:59:52.085Z</time></trkpt><trkpt lat="44.1227883" lon="12.0546217"><ele>133.0</ele><time>2026-04-16T13:59:55.085Z</time></trkpt><trkpt lat="44.1227367" lon="12.0545367"><ele>133.33333333333331</ele><time>2026-04-16T13:59:58.085Z</time></trkpt><trkpt lat="44.1226867" lon="12.0544467"><ele>133.66666666666666</ele><time>2026-04-16T14:00:01.085Z</time></trkpt><trkpt lat="44.1226367" lon="12.054365"><ele>134.0</ele><time>2026-04-16T14:00:04.085Z</time></trkpt><trkpt lat="44.1225833" lon="12.0542683"><ele>134.0</ele><time>2026-04-16T14:00:07.086Z</time></trkpt><trkpt lat="44.122525" lon="12.0541717"><ele>134.0</ele><time>2026-04-16T14:00:10.085Z</time></trkpt><trkpt lat="44.1224717" lon="12.0540767"><ele>134.0</ele><time>2026-04-16T14:00:13.085Z</time></trkpt><trkpt lat="44.1224233" lon="12.054"><ele>134.0</ele><time>2026-04-16T14:00:16.085Z</time></trkpt><trkpt lat="44.1223783" lon="12.0539117"><ele>134.0</ele><time>2026-04-16T14:00:19.085Z</time></trkpt><trkpt lat="44.12233" lon="12.05384"><ele>134.0</ele><time>2026-04-16T14:00:22.085Z</time></trkpt><trkpt lat="44.1222933" lon="12.0537667"><ele>134.66666666666666</ele><time>2026-04-16T14:00:25.085Z</time></trkpt><trkpt lat="44.12225" lon="12.0536717"><ele>135.33333333333331</ele><time>2026-04-16T14:00:29.085Z</time></trkpt><trkpt lat="44.1222033" lon="12.0535883"><ele>136.0</ele><time>2026-04-16T14:00:32.085Z</time></trkpt><trkpt lat="44.12215" lon="12.0534983"><ele>136.66666666666666</ele><time>2026-04-16T14:00:35.085Z</time></trkpt><trkpt lat="44.1221" lon="12.0534217"><ele>137.33333333333334</ele><time>2026-04-16T14:00:38.085Z</time></trkpt><trkpt lat="44.1220433" lon="12.0533433"><ele>138.0</ele><time>2026-04-16T14:00:41.086Z</time></trkpt><trkpt lat="44.121985" lon="12.0532433"><ele>138.28571428571428</ele><time>2026-04-16T14:00:44.085Z</time></trkpt><trkpt lat="44.1219367" lon="12.0531417"><ele>138.57142857142858</ele><time>2026-04-16T14:00:47.085Z</time></trkpt><trkpt lat="44.1219083" lon="12.0530617"><ele>138.85714285714286</ele><time>2026-04-16T14:00:49.085Z</time></trkpt><trkpt lat="44.1218733" lon="12.0529733"><ele>139.14285714285714</ele><time>2026-04-16T14:00:51.085Z</time></trkpt><trkpt lat="44.1218383" lon="12.0528883"><ele>139.42857142857144</ele><time>2026-04-16T14:00:53.085Z</time></trkpt><trkpt lat="44.12182" lon="12.052795"><ele>139.71428571428572</ele><time>2026-04-16T14:00:55.085Z</time></trkpt><trkpt lat="44.1218067" lon="12.0527033"><ele>140.0</ele><time>2026-04-16T14:00:57.085Z</time></trkpt><trkpt lat="44.1217917" lon="12.0525983"><ele>140.0</ele><time>2026-04-16T14:00:59.085Z</time></trkpt><trkpt lat="44.1217833" lon="12.052495"><ele>140.0</ele><time>2026-04-16T14:01:01.085Z</time></trkpt><trkpt lat="44.12177" lon="12.0523817"><ele>140.0</ele><time>2026-04-16T14:01:03.085Z</time></trkpt><trkpt lat="44.1217683" lon="12.0522817"><ele>140.0</ele><time>2026-04-16T14:01:05.085Z</time></trkpt><trkpt lat="44.1217783" lon="12.052165"><ele>140.0</ele><time>2026-04-16T14:01:07.085Z</time></trkpt><trkpt lat="44.1217817" lon="12.0520567"><ele>140.0</ele><time>2026-04-16T14:01:09.085Z</time></trkpt><trkpt lat="44.12179" lon="12.0519533"><ele>140.14285714285714</ele><time>2026-04-16T14:01:11.085Z</time></trkpt><trkpt lat="44.121805" lon="12.051845"><ele>140.28571428571428</ele><time>2026-04-16T14:01:13.085Z</time></trkpt><trkpt lat="44.12181" lon="12.0517467"><ele>140.42857142857144</ele><time>2026-04-16T14:01:15.086Z</time></trkpt><trkpt lat="44.1218233" lon="12.0516417"><ele>140.57142857142856</ele><time>2026-04-16T14:01:17.085Z</time></trkpt><trkpt lat="44.12184" lon="12.05154"><ele>140.71428571428572</ele><time>2026-04-16T14:01:19.085Z</time></trkpt><trkpt lat="44.1218533" lon="12.0514433"><ele>140.85714285714286</ele><time>2026-04-16T14:01:21.086Z</time></trkpt><trkpt lat="44.1218583" lon="12.051355"><ele>141.0</ele><time>2026-04-16T14:01:23.085Z</time></trkpt><trkpt lat="44.1218733" lon="12.0512633"><ele>141.28571428571428</ele><time>2026-04-16T14:01:25.085Z</time></trkpt><trkpt lat="44.12187" lon="12.0511717"><ele>141.57142857142856</ele><time>2026-04-16T14:01:27.085Z</time></trkpt><trkpt lat="44.1218783" lon="12.05108"><ele>141.85714285714283</ele><time>2026-04-16T14:01:29.086Z</time></trkpt><trkpt lat="44.1218983" lon="12.0509633"><ele>142.14285714285714</ele><time>2026-04-16T14:01:32.085Z</time></trkpt><trkpt lat="44.12191" lon="12.0508333"><ele>142.42857142857142</ele><time>2026-04-16T14:01:35.085Z</time></trkpt><trkpt lat="44.121915" lon="12.0507333"><ele>142.7142857142857</ele><time>2026-04-16T14:01:37.085Z</time></trkpt><trkpt lat="44.121925" lon="12.050645"><ele>143.0</ele><time>2026-04-16T14:01:39.085Z</time></trkpt><trkpt lat="44.1219433" lon="12.0505567"><ele>143.33333333333331</ele><time>2026-04-16T14:01:41.085Z</time></trkpt><trkpt lat="44.121965" lon="12.050455"><ele>143.66666666666666</ele><time>2026-04-16T14:01:43.085Z</time></trkpt><trkpt lat="44.121995" lon="12.05036"><ele>144.0</ele><time>2026-04-16T14:01:45.086Z</time></trkpt><trkpt lat="44.1220233" lon="12.05025"><ele>144.33333333333334</ele><time>2026-04-16T14:01:47.085Z</time></trkpt><trkpt lat="44.12206" lon="12.05014"><ele>144.66666666666669</ele><time>2026-04-16T14:01:49.085Z</time></trkpt><trkpt lat="44.1221117" lon="12.050045"><ele>145.0</ele><time>2026-04-16T14:01:51.085Z</time></trkpt><trkpt lat="44.122165" lon="12.0499433"><ele>145.16666666666669</ele><time>2026-04-16T14:01:53.085Z</time></trkpt><trkpt lat="44.1222167" lon="12.0498517"><ele>145.33333333333334</ele><time>2026-04-16T14:01:55.085Z</time></trkpt><trkpt lat="44.12227" lon="12.0497633"><ele>145.5</ele><time>2026-04-16T14:01:57.085Z</time></trkpt><trkpt lat="44.1223167" lon="12.04968"><ele>145.66666666666666</ele><time>2026-04-16T14:01:59.085Z</time></trkpt><trkpt lat="44.12236" lon="12.0496"><ele>145.83333333333331</ele><time>2026-04-16T14:02:01.085Z</time></trkpt><trkpt lat="44.1224033" lon="12.04952"><ele>146.0</ele><time>2026-04-16T14:02:03.085Z</time></trkpt><trkpt lat="44.1224467" lon="12.0494367"><ele>145.4</ele><time>2026-04-16T14:02:05.085Z</time></trkpt><trkpt lat="44.122495" lon="12.04935"><ele>144.8</ele><time>2026-04-16T14:02:07.085Z</time></trkpt><trkpt lat="44.12254" lon="12.0492383"><ele>144.20000000000002</ele><time>2026-04-16T14:02:09.085Z</time></trkpt><trkpt lat="44.1225783" lon="12.0491233"><ele>143.6</ele><time>2026-04-16T14:02:11.085Z</time></trkpt><trkpt lat="44.1226183" lon="12.0490117"><ele>143.0</ele><time>2026-04-16T14:02:13.086Z</time></trkpt><trkpt lat="44.1226633" lon="12.0488833"><ele>143.0</ele><time>2026-04-16T14:02:15.085Z</time></trkpt><trkpt lat="44.1227033" lon="12.0487733"><ele>143.0</ele><time>2026-04-16T14:02:17.085Z</time></trkpt><trkpt lat="44.1227383" lon="12.04867"><ele>143.0</ele><time>2026-04-16T14:02:19.085Z</time></trkpt><trkpt lat="44.1227717" lon="12.04856"><ele>143.0</ele><time>2026-04-16T14:02:21.086Z</time></trkpt><trkpt lat="44.122805" lon="12.048455"><ele>143.0</ele><time>2026-04-16T14:02:23.085Z</time></trkpt><trkpt lat="44.122835" lon="12.04835"><ele>143.0</ele><time>2026-04-16T14:02:25.085Z</time></trkpt><trkpt lat="44.1228483" lon="12.0482433"><ele>143.4</ele><time>2026-04-16T14:02:27.086Z</time></trkpt><trkpt lat="44.1228517" lon="12.0481167"><ele>143.8</ele><time>2026-04-16T14:02:29.085Z</time></trkpt><trkpt lat="44.1228517" lon="12.04798"><ele>144.2</ele><time>2026-04-16T14:02:31.085Z</time></trkpt><trkpt lat="44.1228383" lon="12.0478533"><ele>144.6</ele><time>2026-04-16T14:02:33.085Z</time></trkpt><trkpt lat="44.122825" lon="12.047725"><ele>145.0</ele><time>2026-04-16T14:02:35.086Z</time></trkpt><trkpt lat="44.122795" lon="12.0476083"><ele>145.0</ele><time>2026-04-16T14:02:37.086Z</time></trkpt><trkpt lat="44.1227683" lon="12.0474917"><ele>145.0</ele><time>2026-04-16T14:02:39.085Z</time></trkpt><trkpt lat="44.1227283" lon="12.047385"><ele>145.0</ele><time>2026-04-16T14:02:41.085Z</time></trkpt><trkpt lat="44.1226833" lon="12.0472817"><ele>145.0</ele><time>2026-04-16T14:02:43.085Z</time></trkpt><trkpt lat="44.1226433" lon="12.0471917"><ele>145.0</ele><time>2026-04-16T14:02:45.085Z</time></trkpt><trkpt lat="44.1225967" lon="12.04711"><ele>145.0</ele><time>2026-04-16T14:02:47.085Z</time></trkpt><trkpt lat="44.1225383" lon="12.0470233"><ele>145.16666666666669</ele><time>2026-04-16T14:02:50.085Z</time></trkpt><trkpt lat="44.1224783" lon="12.0469383"><ele>145.33333333333334</ele><time>2026-04-16T14:02:54.085Z</time></trkpt><trkpt lat="44.1224383" lon="12.0468617"><ele>145.5</ele><time>2026-04-16T14:02:56.085Z</time></trkpt><trkpt lat="44.1223967" lon="12.04678"><ele>145.66666666666666</ele><time>2026-04-16T14:02:59.085Z</time></trkpt><trkpt lat="44.12235" lon="12.0467017"><ele>145.83333333333331</ele><time>2026-04-16T14:03:02.085Z</time></trkpt><trkpt lat="44.1223117" lon="12.04662"><ele>146.0</ele><time>2026-04-16T14:03:05.085Z</time></trkpt><trkpt lat="44.1222717" lon="12.0465033"><ele>147.0</ele><time>2026-04-16T14:03:08.085Z</time></trkpt><trkpt lat="44.1222433" lon="12.0464217"><ele>148.0</ele><time>2026-04-16T14:03:11.085Z</time></trkpt><trkpt lat="44.12221" lon="12.0463433"><ele>149.0</ele><time>2026-04-16T14:03:14.085Z</time></trkpt><trkpt lat="44.12218" lon="12.04625"><ele>150.0</ele><time>2026-04-16T14:03:17.085Z</time></trkpt><trkpt lat="44.1221517" lon="12.046135"><ele>151.0</ele><time>2026-04-16T14:03:20.085Z</time></trkpt><trkpt lat="44.122125" lon="12.0460267"><ele>152.0</ele><time>2026-04-16T14:03:23.085Z</time></trkpt><trkpt lat="44.1221083" lon="12.04594"><ele>153.0</ele><time>2026-04-16T14:03:25.085Z</time></trkpt><trkpt lat="44.1220983" lon="12.0458533"><ele>153.33333333333334</ele><time>2026-04-16T14:03:27.085Z</time></trkpt><trkpt lat="44.1220917" lon="12.0457417"><ele>153.66666666666666</ele><time>2026-04-16T14:03:30.085Z</time></trkpt><trkpt lat="44.12207" lon="12.04564"><ele>154.0</ele><time>2026-04-16T14:03:33.085Z</time></trkpt><trkpt lat="44.122055" lon="12.045535"><ele>154.33333333333331</ele><time>2026-04-16T14:03:36.085Z</time></trkpt><trkpt lat="44.1220433" lon="12.04543"><ele>154.66666666666666</ele><time>2026-04-16T14:03:39.085Z</time></trkpt><trkpt lat="44.1220317" lon="12.0453317"><ele>155.0</ele><time>2026-04-16T14:03:42.086Z</time></trkpt><trkpt lat="44.122035" lon="12.0452217"><ele>155.0</ele><time>2026-04-16T14:03:45.085Z</time></trkpt><trkpt lat="44.12204" lon="12.0451117"><ele>155.0</ele><time>2026-04-16T14:03:48.085Z</time></trkpt><trkpt lat="44.12205" lon="12.0450217"><ele>155.0</ele><time>2026-04-16T14:03:51.085Z</time></trkpt><trkpt lat="44.1220733" lon="12.0449333"><ele>155.0</ele><time>2026-04-16T14:03:54.085Z</time></trkpt><trkpt lat="44.1221033" lon="12.04483"><ele>155.0</ele><time>2026-04-16T14:03:57.085Z</time></trkpt><trkpt lat="44.122115" lon="12.0447383"><ele>155.0</ele><time>2026-04-16T14:04:00.085Z</time></trkpt><trkpt lat="44.12213" lon="12.0446517"><ele>155.0</ele><time>2026-04-16T14:04:03.085Z</time></trkpt><trkpt lat="44.12216" lon="12.0445583"><ele>154.16666666666666</ele><time>2026-04-16T14:04:07.085Z</time></trkpt><trkpt lat="44.122175" lon="12.04442"><ele>153.33333333333331</ele><time>2026-04-16T14:04:13.085Z</time></trkpt><trkpt lat="44.1221883" lon="12.0443217"><ele>152.5</ele><time>2026-04-16T14:04:16.085Z</time></trkpt><trkpt lat="44.1222167" lon="12.0442133"><ele>151.66666666666666</ele><time>2026-04-16T14:04:20.085Z</time></trkpt><trkpt lat="44.1222267" lon="12.0441217"><ele>150.83333333333334</ele><time>2026-04-16T14:04:23.085Z</time></trkpt><trkpt lat="44.1222567" lon="12.044005"><ele>150.0</ele><time>2026-04-16T14:04:27.086Z</time></trkpt><trkpt lat="44.1222817" lon="12.0439133"><ele>149.0</ele><time>2026-04-16T14:04:30.085Z</time></trkpt><trkpt lat="44.12231" lon="12.04382"><ele>148.0</ele><time>2026-04-16T14:04:33.086Z</time></trkpt><trkpt lat="44.12233" lon="12.04373"><ele>147.0</ele><time>2026-04-16T14:04:36.085Z</time></trkpt><trkpt lat="44.1223467" lon="12.0436133"><ele>146.0</ele><time>2026-04-16T14:04:40.085Z</time></trkpt><trkpt lat="44.1223633" lon="12.0435233"><ele>145.0</ele><time>2026-04-16T14:04:43.085Z</time></trkpt><trkpt lat="44.12239" lon="12.0434183"><ele>144.0</ele><time>2026-04-16T14:04:46.085Z</time></trkpt><trkpt lat="44.1224167" lon="12.0433067"><ele>147.5</ele><time>2026-04-16T14:04:49.085Z</time></trkpt><trkpt lat="44.1224367" lon="12.0432083"><ele>151.0</ele><time>2026-04-16T14:04:52.085Z</time></trkpt><trkpt lat="44.1224617" lon="12.043065"><ele>154.5</ele><time>2026-04-16T14:04:58.085Z</time></trkpt><trkpt lat="44.12248" lon="12.042955"><ele>158.0</ele><time>2026-04-16T14:05:01.085Z</time></trkpt><trkpt lat="44.1224967" lon="12.0428383"><ele>161.5</ele><time>2026-04-16T14:05:04.085Z</time></trkpt><trkpt lat="44.1225067" lon="12.0427283"><ele>165.0</ele><time>2026-04-16T14:05:07.085Z</time></trkpt><trkpt lat="44.1225283" lon="12.0426117"><ele>165.0</ele><time>2026-04-16T14:05:10.085Z</time></trkpt><trkpt lat="44.1225433" lon="12.0425167"><ele>165.0</ele><time>2026-04-16T14:05:12.085Z</time></trkpt><trkpt lat="44.1225683" lon="12.04242"><ele>165.0</ele><time>2026-04-16T14:05:15.085Z</time></trkpt><trkpt lat="44.12259" lon="12.042305"><ele>165.0</ele><time>2026-04-16T14:05:19.085Z</time></trkpt><trkpt lat="44.1226067" lon="12.0422167"><ele>165.0</ele><time>2026-04-16T14:05:21.085Z</time></trkpt><trkpt lat="44.122625" lon="12.042095"><ele>165.0</ele><time>2026-04-16T14:05:24.085Z</time></trkpt><trkpt lat="44.1226517" lon="12.0419767"><ele>165.16666666666666</ele><time>2026-04-16T14:05:27.085Z</time></trkpt><trkpt lat="44.122665" lon="12.0418667"><ele>165.33333333333334</ele><time>2026-04-16T14:05:30.085Z</time></trkpt><trkpt lat="44.1226867" lon="12.041755"><ele>165.5</ele><time>2026-04-16T14:05:33.085Z</time></trkpt><trkpt lat="44.1227183" lon="12.041635"><ele>165.66666666666669</ele><time>2026-04-16T14:05:36.085Z</time></trkpt><trkpt lat="44.12274" lon="12.0415267"><ele>165.83333333333334</ele><time>2026-04-16T14:05:39.085Z</time></trkpt><trkpt lat="44.1227817" lon="12.0414317"><ele>166.0</ele><time>2026-04-16T14:05:42.085Z</time></trkpt><trkpt lat="44.1228083" lon="12.0413217"><ele>165.66666666666669</ele><time>2026-04-16T14:05:45.085Z</time></trkpt><trkpt lat="44.1228333" lon="12.0412067"><ele>165.33333333333334</ele><time>2026-04-16T14:05:48.085Z</time></trkpt><trkpt lat="44.1228433" lon="12.0410883"><ele>165.0</ele><time>2026-04-16T14:05:51.085Z</time></trkpt><trkpt lat="44.1228733" lon="12.04097"><ele>164.66666666666666</ele><time>2026-04-16T14:05:54.085Z</time></trkpt><trkpt lat="44.122895" lon="12.0408867"><ele>164.33333333333331</ele><time>2026-04-16T14:05:56.085Z</time></trkpt><trkpt lat="44.1229233" lon="12.0407967"><ele>164.0</ele><time>2026-04-16T14:05:58.085Z</time></trkpt><trkpt lat="44.1229583" lon="12.0406817"><ele>163.16666666666666</ele><time>2026-04-16T14:06:01.085Z</time></trkpt><trkpt lat="44.12299" lon="12.040575"><ele>162.33333333333331</ele><time>2026-04-16T14:06:04.085Z</time></trkpt><trkpt lat="44.1230167" lon="12.0404617"><ele>161.5</ele><time>2026-04-16T14:06:07.085Z</time></trkpt><trkpt lat="44.1230467" lon="12.0403667"><ele>160.66666666666666</ele><time>2026-04-16T14:06:10.085Z</time></trkpt><trkpt lat="44.1230833" lon="12.04025"><ele>159.83333333333334</ele><time>2026-04-16T14:06:13.085Z</time></trkpt><trkpt lat="44.1231217" lon="12.0401417"><ele>159.0</ele><time>2026-04-16T14:06:16.085Z</time></trkpt><trkpt lat="44.1231517" lon="12.040055"><ele>157.83333333333334</ele><time>2026-04-16T14:06:18.085Z</time></trkpt><trkpt lat="44.1231867" lon="12.0399517"><ele>156.66666666666666</ele><time>2026-04-16T14:06:20.086Z</time></trkpt><trkpt lat="44.1232167" lon="12.0398483"><ele>155.5</ele><time>2026-04-16T14:06:22.085Z</time></trkpt><trkpt lat="44.12325" lon="12.0397417"><ele>154.33333333333331</ele><time>2026-04-16T14:06:24.085Z</time></trkpt><trkpt lat="44.1232933" lon="12.0396317"><ele>153.16666666666666</ele><time>2026-04-16T14:06:26.085Z</time></trkpt><trkpt lat="44.123335" lon="12.0395217"><ele>152.0</ele><time>2026-04-16T14:06:28.085Z</time></trkpt><trkpt lat="44.1233767" lon="12.0394117"><ele>154.33333333333331</ele><time>2026-04-16T14:06:30.085Z</time></trkpt><trkpt lat="44.1234267" lon="12.0393067"><ele>156.66666666666666</ele><time>2026-04-16T14:06:32.085Z</time></trkpt><trkpt lat="44.12346" lon="12.03923"><ele>159.0</ele><time>2026-04-16T14:06:33.085Z</time></trkpt><trkpt lat="44.1235067" lon="12.0390983"><ele>161.33333333333334</ele><time>2026-04-16T14:06:35.085Z</time></trkpt><trkpt lat="44.1235417" lon="12.03898"><ele>163.66666666666669</ele><time>2026-04-16T14:06:37.085Z</time></trkpt><trkpt lat="44.123585" lon="12.0388767"><ele>166.0</ele><time>2026-04-16T14:06:39.085Z</time></trkpt><trkpt lat="44.12363" lon="12.038765"><ele>166.0</ele><time>2026-04-16T14:06:41.085Z</time></trkpt><trkpt lat="44.1236533" lon="12.03867"><ele>166.0</ele><time>2026-04-16T14:06:43.085Z</time></trkpt><trkpt lat="44.1236833" lon="12.0385817"><ele>166.0</ele><time>2026-04-16T14:06:45.085Z</time></trkpt><trkpt lat="44.123735" lon="12.0384767"><ele>166.0</ele><time>2026-04-16T14:06:48.085Z</time></trkpt><trkpt lat="44.1237767" lon="12.0383883"><ele>166.0</ele><time>2026-04-16T14:06:50.085Z</time></trkpt><trkpt lat="44.12382" lon="12.0383117"><ele>166.0</ele><time>2026-04-16T14:06:52.085Z</time></trkpt><trkpt lat="44.1238533" lon="12.0382317"><ele>166.0</ele><time>2026-04-16T14:06:54.085Z</time></trkpt><trkpt lat="44.123885" lon="12.038155"><ele>164.85714285714286</ele><time>2026-04-16T14:06:56.085Z</time></trkpt><trkpt lat="44.1239367" lon="12.03805"><ele>163.71428571428572</ele><time>2026-04-16T14:06:59.085Z</time></trkpt><trkpt lat="44.1239667" lon="12.03797"><ele>162.57142857142858</ele><time>2026-04-16T14:07:01.085Z</time></trkpt><trkpt lat="44.124005" lon="12.0378933"><ele>161.42857142857144</ele><time>2026-04-16T14:07:03.086Z</time></trkpt><trkpt lat="44.124045" lon="12.03782"><ele>160.28571428571428</ele><time>2026-04-16T14:07:05.085Z</time></trkpt><trkpt lat="44.1240817" lon="12.037735"><ele>159.14285714285717</ele><time>2026-04-16T14:07:07.085Z</time></trkpt><trkpt lat="44.1241367" lon="12.0376433"><ele>158.0</ele><time>2026-04-16T14:07:10.085Z</time></trkpt><trkpt lat="44.12419" lon="12.0375733"><ele>160.71428571428572</ele><time>2026-04-16T14:07:13.085Z</time></trkpt><trkpt lat="44.1242483" lon="12.037505"><ele>163.42857142857144</ele><time>2026-04-16T14:07:17.085Z</time></trkpt><trkpt lat="44.1242967" lon="12.037425"><ele>166.14285714285717</ele><time>2026-04-16T14:07:21.085Z</time></trkpt><trkpt lat="44.124345" lon="12.0373667"><ele>168.85714285714286</ele><time>2026-04-16T14:07:24.085Z</time></trkpt><trkpt lat="44.1243933" lon="12.03731"><ele>171.57142857142856</ele><time>2026-04-16T14:07:27.085Z</time></trkpt><trkpt lat="44.124455" lon="12.037245"><ele>174.2857142857143</ele><time>2026-04-16T14:07:31.085Z</time></trkpt><trkpt lat="44.1245117" lon="12.037195"><ele>177.0</ele><time>2026-04-16T14:07:34.085Z</time></trkpt><trkpt lat="44.124585" lon="12.03713"><ele>177.0</ele><time>2026-04-16T14:07:37.085Z</time></trkpt><trkpt lat="44.1246433" lon="12.03706"><ele>177.0</ele><time>2026-04-16T14:07:40.085Z</time></trkpt><trkpt lat="44.12472" lon="12.0369967"><ele>177.0</ele><time>2026-04-16T14:07:43.085Z</time></trkpt><trkpt lat="44.1247767" lon="12.03695"><ele>177.0</ele><time>2026-04-16T14:07:46.085Z</time></trkpt><trkpt lat="44.124835" lon="12.0368733"><ele>177.0</ele><time>2026-04-16T14:07:50.085Z</time></trkpt><trkpt lat="44.1248933" lon="12.0367967"><ele>177.0</ele><time>2026-04-16T14:07:54.085Z</time></trkpt><trkpt lat="44.1249467" lon="12.0367417"><ele>179.66666666666666</ele><time>2026-04-16T14:07:57.085Z</time></trkpt><trkpt lat="44.1250167" lon="12.0366667"><ele>182.33333333333331</ele><time>2026-04-16T14:08:01.085Z</time></trkpt><trkpt lat="44.1250783" lon="12.0366"><ele>185.0</ele><time>2026-04-16T14:08:04.085Z</time></trkpt><trkpt lat="44.1251333" lon="12.03654"><ele>187.66666666666666</ele><time>2026-04-16T14:08:07.085Z</time></trkpt><trkpt lat="44.1252033" lon="12.03648"><ele>190.33333333333331</ele><time>2026-04-16T14:08:11.085Z</time></trkpt><trkpt lat="44.1252633" lon="12.0364267"><ele>193.0</ele><time>2026-04-16T14:08:14.085Z</time></trkpt><trkpt lat="44.12532" lon="12.0363467"><ele>193.49999999999997</ele><time>2026-04-16T14:08:17.085Z</time></trkpt><trkpt lat="44.12538" lon="12.03629"><ele>194.0</ele><time>2026-04-16T14:08:20.085Z</time></trkpt><trkpt lat="44.1254433" lon="12.0362467"><ele>194.5</ele><time>2026-04-16T14:08:23.085Z</time></trkpt><trkpt lat="44.1255183" lon="12.0361967"><ele>195.0</ele><time>2026-04-16T14:08:26.085Z</time></trkpt><trkpt lat="44.1255967" lon="12.03615"><ele>195.49999999999997</ele><time>2026-04-16T14:08:29.085Z</time></trkpt><trkpt lat="44.125675" lon="12.0361"><ele>196.0</ele><time>2026-04-16T14:08:32.086Z</time></trkpt><trkpt lat="44.1257417" lon="12.036055"><ele>196.99999999999997</ele><time>2026-04-16T14:08:35.085Z</time></trkpt><trkpt lat="44.12583" lon="12.0360067"><ele>198.0</ele><time>2026-04-16T14:08:38.086Z</time></trkpt><trkpt lat="44.125915" lon="12.0359467"><ele>199.0</ele><time>2026-04-16T14:08:41.085Z</time></trkpt><trkpt lat="44.1259917" lon="12.0358833"><ele>200.0</ele><time>2026-04-16T14:08:44.085Z</time></trkpt><trkpt lat="44.12607" lon="12.035825"><ele>200.99999999999997</ele><time>2026-04-16T14:08:47.085Z</time></trkpt><trkpt lat="44.1261267" lon="12.0357867"><ele>202.0</ele><time>2026-04-16T14:08:49.085Z</time></trkpt><trkpt lat="44.1262" lon="12.0357283"><ele>203.16666666666666</ele><time>2026-04-16T14:08:52.086Z</time></trkpt><trkpt lat="44.1262767" lon="12.0356567"><ele>204.33333333333331</ele><time>2026-04-16T14:08:55.085Z</time></trkpt><trkpt lat="44.1263483" lon="12.03559"><ele>205.5</ele><time>2026-04-16T14:08:58.085Z</time></trkpt><trkpt lat="44.126425" lon="12.0355317"><ele>206.66666666666669</ele><time>2026-04-16T14:09:01.085Z</time></trkpt><trkpt lat="44.1264867" lon="12.03547"><ele>207.83333333333334</ele><time>2026-04-16T14:09:04.085Z</time></trkpt><trkpt lat="44.1265517" lon="12.0354183"><ele>209.0</ele><time>2026-04-16T14:09:07.085Z</time></trkpt><trkpt lat="44.1266067" lon="12.03537"><ele>209.00000000000003</ele><time>2026-04-16T14:09:10.085Z</time></trkpt><trkpt lat="44.126675" lon="12.0352967"><ele>209.0</ele><time>2026-04-16T14:09:13.085Z</time></trkpt><trkpt lat="44.1267417" lon="12.0352483"><ele>209.0</ele><time>2026-04-16T14:09:16.085Z</time></trkpt><trkpt lat="44.126805" lon="12.035205"><ele>209.0</ele><time>2026-04-16T14:09:19.085Z</time></trkpt><trkpt lat="44.12687" lon="12.035125"><ele>209.00000000000003</ele><time>2026-04-16T14:09:22.085Z</time></trkpt><trkpt lat="44.1269333" lon="12.035045"><ele>209.0</ele><time>2026-04-16T14:09:25.085Z</time></trkpt><trkpt lat="44.1270183" lon="12.03495"><ele>210.00000000000003</ele><time>2026-04-16T14:09:29.085Z</time></trkpt><trkpt lat="44.1270833" lon="12.034885"><ele>211.0</ele><time>2026-04-16T14:09:32.085Z</time></trkpt><trkpt lat="44.12716" lon="12.0348167"><ele>212.0</ele><time>2026-04-16T14:09:35.085Z</time></trkpt><trkpt lat="44.1272117" lon="12.0347567"><ele>213.0</ele><time>2026-04-16T14:09:37.085Z</time></trkpt><trkpt lat="44.1272667" lon="12.0347017"><ele>214.00000000000003</ele><time>2026-04-16T14:09:39.085Z</time></trkpt><trkpt lat="44.127335" lon="12.0346317"><ele>215.0</ele><time>2026-04-16T14:09:42.085Z</time></trkpt><trkpt lat="44.12741" lon="12.034565"><ele>215.00000000000003</ele><time>2026-04-16T14:09:45.085Z</time></trkpt><trkpt lat="44.12747" lon="12.0345"><ele>215.0</ele><time>2026-04-16T14:09:48.085Z</time></trkpt><trkpt lat="44.1275483" lon="12.0344417"><ele>215.0</ele><time>2026-04-16T14:09:51.085Z</time></trkpt><trkpt lat="44.1276183" lon="12.0343917"><ele>215.0</ele><time>2026-04-16T14:09:54.085Z</time></trkpt><trkpt lat="44.1276917" lon="12.0343517"><ele>215.00000000000003</ele><time>2026-04-16T14:09:57.085Z</time></trkpt><trkpt lat="44.12777" lon="12.03431"><ele>215.0</ele><time>2026-04-16T14:10:00.085Z</time></trkpt><trkpt lat="44.127865" lon="12.0342667"><ele>215.00000000000003</ele><time>2026-04-16T14:10:04.085Z</time></trkpt><trkpt lat="44.1279367" lon="12.03424"><ele>215.0</ele><time>2026-04-16T14:10:07.086Z</time></trkpt><trkpt lat="44.12802" lon="12.0342367"><ele>215.0</ele><time>2026-04-16T14:10:10.085Z</time></trkpt><trkpt lat="44.1281083" lon="12.0342383"><ele>215.0</ele><time>2026-04-16T14:10:13.085Z</time></trkpt><trkpt lat="44.1281833" lon="12.03426"><ele>215.00000000000003</ele><time>2026-04-16T14:10:15.085Z</time></trkpt><trkpt lat="44.1282533" lon="12.03428"><ele>215.0</ele><time>2026-04-16T14:10:17.085Z</time></trkpt><trkpt lat="44.1283267" lon="12.0343067"><ele>215.2</ele><time>2026-04-16T14:10:19.085Z</time></trkpt><trkpt lat="44.1284067" lon="12.0343467"><ele>215.4</ele><time>2026-04-16T14:10:21.085Z</time></trkpt><trkpt lat="44.1285033" lon="12.0343867"><ele>215.60000000000002</ele><time>2026-04-16T14:10:23.085Z</time></trkpt><trkpt lat="44.1286017" lon="12.0344183"><ele>215.8</ele><time>2026-04-16T14:10:25.085Z</time></trkpt><trkpt lat="44.1286983" lon="12.0344583"><ele>216.0</ele><time>2026-04-16T14:10:27.085Z</time></trkpt><trkpt lat="44.128805" lon="12.0345133"><ele>216.0</ele><time>2026-04-16T14:10:29.086Z</time></trkpt><trkpt lat="44.128905" lon="12.03457"><ele>216.00000000000003</ele><time>2026-04-16T14:10:31.085Z</time></trkpt><trkpt lat="44.1290117" lon="12.03462"><ele>216.00000000000003</ele><time>2026-04-16T14:10:33.085Z</time></trkpt><trkpt lat="44.12911" lon="12.0346667"><ele>216.0</ele><time>2026-04-16T14:10:35.085Z</time></trkpt><trkpt lat="44.1292167" lon="12.034715"><ele>216.0</ele><time>2026-04-16T14:10:37.085Z</time></trkpt><trkpt lat="44.1293183" lon="12.0347467"><ele>216.4</ele><time>2026-04-16T14:10:39.085Z</time></trkpt><trkpt lat="44.1294183" lon="12.03477"><ele>216.8</ele><time>2026-04-16T14:10:41.085Z</time></trkpt><trkpt lat="44.1295217" lon="12.0347933"><ele>217.20000000000002</ele><time>2026-04-16T14:10:43.085Z</time></trkpt><trkpt lat="44.1296233" lon="12.0348383"><ele>217.60000000000002</ele><time>2026-04-16T14:10:45.085Z</time></trkpt><trkpt lat="44.1297283" lon="12.034875"><ele>218.0</ele><time>2026-04-16T14:10:47.085Z</time></trkpt><trkpt lat="44.129845" lon="12.0349083"><ele>218.25</ele><time>2026-04-16T14:10:49.085Z</time></trkpt><trkpt lat="44.1299633" lon="12.03495"><ele>218.5</ele><time>2026-04-16T14:10:51.085Z</time></trkpt><trkpt lat="44.1300767" lon="12.0349917"><ele>218.75</ele><time>2026-04-16T14:10:53.085Z</time></trkpt><trkpt lat="44.130185" lon="12.035045"><ele>219.0</ele><time>2026-04-16T14:10:55.086Z</time></trkpt><trkpt lat="44.1302983" lon="12.0351083"><ele>217.5</ele><time>2026-04-16T14:10:57.085Z</time></trkpt><trkpt lat="44.1304117" lon="12.0351433"><ele>216.0</ele><time>2026-04-16T14:10:59.085Z</time></trkpt><trkpt lat="44.1305333" lon="12.035185"><ele>214.5</ele><time>2026-04-16T14:11:01.085Z</time></trkpt><trkpt lat="44.1306" lon="12.0352067"><ele>213.0</ele><time>2026-04-16T14:11:02.085Z</time></trkpt><trkpt lat="44.130665" lon="12.035235"><ele>211.5</ele><time>2026-04-16T14:11:03.085Z</time></trkpt><trkpt lat="44.1307333" lon="12.0352633"><ele>210.0</ele><time>2026-04-16T14:11:04.085Z</time></trkpt><trkpt lat="44.1308017" lon="12.0352917"><ele>210.0</ele><time>2026-04-16T14:11:05.085Z</time></trkpt><trkpt lat="44.1308667" lon="12.0353183"><ele>210.0</ele><time>2026-04-16T14:11:06.085Z</time></trkpt><trkpt lat="44.1309333" lon="12.0353467"><ele>210.0</ele><time>2026-04-16T14:11:07.085Z</time></trkpt><trkpt lat="44.131" lon="12.0353683"><ele>210.0</ele><time>2026-04-16T14:11:08.085Z</time></trkpt><trkpt lat="44.13107" lon="12.035385"><ele>210.0</ele><time>2026-04-16T14:11:09.086Z</time></trkpt><trkpt lat="44.1311383" lon="12.0354033"><ele>210.0</ele><time>2026-04-16T14:11:10.085Z</time></trkpt><trkpt lat="44.13121" lon="12.03542"><ele>210.0</ele><time>2026-04-16T14:11:11.085Z</time></trkpt><trkpt lat="44.131285" lon="12.035435"><ele>210.0</ele><time>2026-04-16T14:11:12.085Z</time></trkpt><trkpt lat="44.1313617" lon="12.0354533"><ele>210.0</ele><time>2026-04-16T14:11:13.086Z</time></trkpt><trkpt lat="44.1314417" lon="12.035465"><ele>210.0</ele><time>2026-04-16T14:11:14.086Z</time></trkpt><trkpt lat="44.131525" lon="12.0354817"><ele>210.0</ele><time>2026-04-16T14:11:15.085Z</time></trkpt><trkpt lat="44.1316133" lon="12.035495"><ele>210.0</ele><time>2026-04-16T14:11:16.085Z</time></trkpt><trkpt lat="44.1317067" lon="12.035515"><ele>210.0</ele><time>2026-04-16T14:11:17.085Z</time></trkpt><trkpt lat="44.1318033" lon="12.03553"><ele>208.6</ele><time>2026-04-16T14:11:18.085Z</time></trkpt><trkpt lat="44.1319067" lon="12.0355517"><ele>207.2</ele><time>2026-04-16T14:11:19.085Z</time></trkpt><trkpt lat="44.1320167" lon="12.0355733"><ele>205.8</ele><time>2026-04-16T14:11:20.085Z</time></trkpt><trkpt lat="44.1321217" lon="12.0355867"><ele>204.4</ele><time>2026-04-16T14:11:21.085Z</time></trkpt><trkpt lat="44.1322283" lon="12.0356067"><ele>203.0</ele><time>2026-04-16T14:11:22.085Z</time></trkpt><trkpt lat="44.1323433" lon="12.035625"><ele>201.25</ele><time>2026-04-16T14:11:23.085Z</time></trkpt><trkpt lat="44.1324533" lon="12.0356433"><ele>199.5</ele><time>2026-04-16T14:11:24.085Z</time></trkpt><trkpt lat="44.1325683" lon="12.0356517"><ele>197.75</ele><time>2026-04-16T14:11:25.085Z</time></trkpt><trkpt lat="44.132685" lon="12.0356633"><ele>196.0</ele><time>2026-04-16T14:11:26.085Z</time></trkpt><trkpt lat="44.1328" lon="12.0356867"><ele>196.0</ele><time>2026-04-16T14:11:27.085Z</time></trkpt><trkpt lat="44.1329233" lon="12.0357117"><ele>196.0</ele><time>2026-04-16T14:11:28.085Z</time></trkpt><trkpt lat="44.133045" lon="12.0357333"><ele>196.0</ele><time>2026-04-16T14:11:29.085Z</time></trkpt><trkpt lat="44.1331667" lon="12.0357633"><ele>196.0</ele><time>2026-04-16T14:11:30.085Z</time></trkpt><trkpt lat="44.1332833" lon="12.03579"><ele>194.60000000000002</ele><time>2026-04-16T14:11:31.085Z</time></trkpt><trkpt lat="44.133395" lon="12.035825"><ele>193.2</ele><time>2026-04-16T14:11:32.085Z</time></trkpt><trkpt lat="44.133505" lon="12.0358717"><ele>191.8</ele><time>2026-04-16T14:11:33.086Z</time></trkpt><trkpt lat="44.1336067" lon="12.0359283"><ele>190.39999999999998</ele><time>2026-04-16T14:11:34.085Z</time></trkpt><trkpt lat="44.133705" lon="12.0359967"><ele>189.0</ele><time>2026-04-16T14:11:35.085Z</time></trkpt><trkpt lat="44.1338017" lon="12.03609"><ele>189.0</ele><time>2026-04-16T14:11:36.085Z</time></trkpt><trkpt lat="44.1338917" lon="12.0361817"><ele>189.0</ele><time>2026-04-16T14:11:37.085Z</time></trkpt><trkpt lat="44.1339817" lon="12.0362767"><ele>189.0</ele><time>2026-04-16T14:11:38.085Z</time></trkpt><trkpt lat="44.134075" lon="12.0363783"><ele>189.0</ele><time>2026-04-16T14:11:39.085Z</time></trkpt><trkpt lat="44.1341667" lon="12.0364733"><ele>187.79999999999998</ele><time>2026-04-16T14:11:40.085Z</time></trkpt><trkpt lat="44.13425" lon="12.0365583"><ele>186.6</ele><time>2026-04-16T14:11:41.085Z</time></trkpt><trkpt lat="44.1343383" lon="12.03665"><ele>185.4</ele><time>2026-04-16T14:11:42.085Z</time></trkpt><trkpt lat="44.1344283" lon="12.0367333"><ele>184.2</ele><time>2026-04-16T14:11:43.085Z</time></trkpt><trkpt lat="44.134515" lon="12.036805"><ele>183.0</ele><time>2026-04-16T14:11:44.085Z</time></trkpt><trkpt lat="44.1346033" lon="12.036885"><ele>183.0</ele><time>2026-04-16T14:11:45.085Z</time></trkpt><trkpt lat="44.1346917" lon="12.03696"><ele>183.0</ele><time>2026-04-16T14:11:46.085Z</time></trkpt><trkpt lat="44.1347817" lon="12.0370417"><ele>183.0</ele><time>2026-04-16T14:11:47.085Z</time></trkpt><trkpt lat="44.1348783" lon="12.0371167"><ele>183.0</ele><time>2026-04-16T14:11:48.085Z</time></trkpt><trkpt lat="44.13498" lon="12.0371983"><ele>183.0</ele><time>2026-04-16T14:11:49.085Z</time></trkpt><trkpt lat="44.1350733" lon="12.0372833"><ele>182.2</ele><time>2026-04-16T14:11:50.085Z</time></trkpt><trkpt lat="44.1351667" lon="12.03736"><ele>181.4</ele><time>2026-04-16T14:11:51.085Z</time></trkpt><trkpt lat="44.1352583" lon="12.0374417"><ele>180.6</ele><time>2026-04-16T14:11:52.085Z</time></trkpt><trkpt lat="44.135345" lon="12.0375383"><ele>179.79999999999998</ele><time>2026-04-16T14:11:53.085Z</time></trkpt><trkpt lat="44.1354383" lon="12.0376267"><ele>179.0</ele><time>2026-04-16T14:11:54.085Z</time></trkpt><trkpt lat="44.135535" lon="12.037705"><ele>178.6</ele><time>2026-04-16T14:11:55.085Z</time></trkpt><trkpt lat="44.1356233" lon="12.0377817"><ele>178.2</ele><time>2026-04-16T14:11:56.085Z</time></trkpt><trkpt lat="44.135715" lon="12.037865"><ele>177.79999999999998</ele><time>2026-04-16T14:11:57.085Z</time></trkpt><trkpt lat="44.1358117" lon="12.0379417"><ele>177.39999999999998</ele><time>2026-04-16T14:11:58.086Z</time></trkpt><trkpt lat="44.1359067" lon="12.038025"><ele>177.0</ele><time>2026-04-16T14:11:59.085Z</time></trkpt><trkpt lat="44.1359983" lon="12.0381017"><ele>176.8</ele><time>2026-04-16T14:12:00.085Z</time></trkpt><trkpt lat="44.1360983" lon="12.0381867"><ele>176.6</ele><time>2026-04-16T14:12:01.085Z</time></trkpt><trkpt lat="44.1361933" lon="12.0382633"><ele>176.4</ele><time>2026-04-16T14:12:02.085Z</time></trkpt><trkpt lat="44.1362883" lon="12.0383533"><ele>176.20000000000002</ele><time>2026-04-16T14:12:03.085Z</time></trkpt><trkpt lat="44.136375" lon="12.0384383"><ele>176.0</ele><time>2026-04-16T14:12:04.086Z</time></trkpt><trkpt lat="44.13646" lon="12.0385267"><ele>174.4</ele><time>2026-04-16T14:12:05.085Z</time></trkpt><trkpt lat="44.1365417" lon="12.0386117"><ele>172.8</ele><time>2026-04-16T14:12:06.085Z</time></trkpt><trkpt lat="44.13662" lon="12.0387"><ele>171.20000000000002</ele><time>2026-04-16T14:12:07.085Z</time></trkpt><trkpt lat="44.1366967" lon="12.0387817"><ele>169.60000000000002</ele><time>2026-04-16T14:12:08.085Z</time></trkpt><trkpt lat="44.1367767" lon="12.0388617"><ele>168.0</ele><time>2026-04-16T14:12:09.086Z</time></trkpt><trkpt lat="44.1368617" lon="12.0389433"><ele>168.0</ele><time>2026-04-16T14:12:10.085Z</time></trkpt><trkpt lat="44.1369433" lon="12.0390367"><ele>168.0</ele><time>2026-04-16T14:12:11.085Z</time></trkpt><trkpt lat="44.1370233" lon="12.0391333"><ele>168.0</ele><time>2026-04-16T14:12:12.085Z</time></trkpt><trkpt lat="44.1371017" lon="12.0392333"><ele>168.0</ele><time>2026-04-16T14:12:13.085Z</time></trkpt><trkpt lat="44.1371717" lon="12.0393433"><ele>168.0</ele><time>2026-04-16T14:12:14.085Z</time></trkpt><trkpt lat="44.137245" lon="12.0394433"><ele>167.2</ele><time>2026-04-16T14:12:15.085Z</time></trkpt><trkpt lat="44.137315" lon="12.0395467"><ele>166.4</ele><time>2026-04-16T14:12:16.085Z</time></trkpt><trkpt lat="44.13739" lon="12.0396317"><ele>165.6</ele><time>2026-04-16T14:12:17.085Z</time></trkpt><trkpt lat="44.1374683" lon="12.03969"><ele>164.79999999999998</ele><time>2026-04-16T14:12:18.085Z</time></trkpt><trkpt lat="44.1375583" lon="12.03974"><ele>164.0</ele><time>2026-04-16T14:12:19.085Z</time></trkpt><trkpt lat="44.13764" lon="12.0397767"><ele>164.0</ele><time>2026-04-16T14:12:20.085Z</time></trkpt><trkpt lat="44.137725" lon="12.039815"><ele>164.0</ele><time>2026-04-16T14:12:21.085Z</time></trkpt><trkpt lat="44.1378067" lon="12.0398517"><ele>164.0</ele><time>2026-04-16T14:12:22.085Z</time></trkpt><trkpt lat="44.137885" lon="12.03989"><ele>164.0</ele><time>2026-04-16T14:12:23.086Z</time></trkpt><trkpt lat="44.137955" lon="12.0399183"><ele>164.0</ele><time>2026-04-16T14:12:24.086Z</time></trkpt><trkpt lat="44.1380333" lon="12.0399567"><ele>164.0</ele><time>2026-04-16T14:12:25.085Z</time></trkpt><trkpt lat="44.1381133" lon="12.0399917"><ele>163.33333333333331</ele><time>2026-04-16T14:12:26.086Z</time></trkpt><trkpt lat="44.1381917" lon="12.0400167"><ele>162.66666666666666</ele><time>2026-04-16T14:12:27.085Z</time></trkpt><trkpt lat="44.1382717" lon="12.04005"><ele>162.0</ele><time>2026-04-16T14:12:28.085Z</time></trkpt><trkpt lat="44.1383417" lon="12.0400733"><ele>161.33333333333334</ele><time>2026-04-16T14:12:29.085Z</time></trkpt><trkpt lat="44.13842" lon="12.0401"><ele>160.66666666666669</ele><time>2026-04-16T14:12:30.085Z</time></trkpt><trkpt lat="44.1385033" lon="12.040135"><ele>160.0</ele><time>2026-04-16T14:12:31.085Z</time></trkpt><trkpt lat="44.1385933" lon="12.0401767"><ele>160.0</ele><time>2026-04-16T14:12:32.085Z</time></trkpt><trkpt lat="44.1386733" lon="12.0402267"><ele>160.0</ele><time>2026-04-16T14:12:33.085Z</time></trkpt><trkpt lat="44.138745" lon="12.040275"><ele>160.0</ele><time>2026-04-16T14:12:34.085Z</time></trkpt><trkpt lat="44.1388183" lon="12.040315"><ele>160.0</ele><time>2026-04-16T14:12:35.085Z</time></trkpt><trkpt lat="44.1388867" lon="12.0403467"><ele>160.0</ele><time>2026-04-16T14:12:36.085Z</time></trkpt><trkpt lat="44.1389483" lon="12.040365"><ele>160.0</ele><time>2026-04-16T14:12:37.085Z</time></trkpt><trkpt lat="44.1390667" lon="12.04043"><ele>157.8</ele><time>2026-04-16T14:12:39.085Z</time></trkpt><trkpt lat="44.1391717" lon="12.0405233"><ele>155.6</ele><time>2026-04-16T14:12:41.085Z</time></trkpt><trkpt lat="44.139285" lon="12.0406217"><ele>153.4</ele><time>2026-04-16T14:12:43.085Z</time></trkpt><trkpt lat="44.1393417" lon="12.0406767"><ele>151.2</ele><time>2026-04-16T14:12:44.085Z</time></trkpt><trkpt lat="44.1394067" lon="12.040735"><ele>149.0</ele><time>2026-04-16T14:12:45.085Z</time></trkpt><trkpt lat="44.13947" lon="12.040785"><ele>149.16666666666666</ele><time>2026-04-16T14:12:46.085Z</time></trkpt><trkpt lat="44.1395317" lon="12.0408233"><ele>149.33333333333331</ele><time>2026-04-16T14:12:47.085Z</time></trkpt><trkpt lat="44.13965" lon="12.040905"><ele>149.5</ele><time>2026-04-16T14:12:49.085Z</time></trkpt><trkpt lat="44.1397167" lon="12.040945"><ele>149.66666666666666</ele><time>2026-04-16T14:12:50.085Z</time></trkpt><trkpt lat="44.1397883" lon="12.040985"><ele>149.83333333333334</ele><time>2026-04-16T14:12:51.085Z</time></trkpt><trkpt lat="44.1398617" lon="12.0410283"><ele>150.0</ele><time>2026-04-16T14:12:52.085Z</time></trkpt><trkpt lat="44.1399417" lon="12.041085"><ele>149.57142857142856</ele><time>2026-04-16T14:12:53.085Z</time></trkpt><trkpt lat="44.1400217" lon="12.0411417"><ele>149.14285714285714</ele><time>2026-04-16T14:12:54.085Z</time></trkpt><trkpt lat="44.140095" lon="12.041195"><ele>148.71428571428572</ele><time>2026-04-16T14:12:55.085Z</time></trkpt><trkpt lat="44.140165" lon="12.041245"><ele>148.28571428571428</ele><time>2026-04-16T14:12:56.085Z</time></trkpt><trkpt lat="44.1402267" lon="12.041285"><ele>147.85714285714286</ele><time>2026-04-16T14:12:57.086Z</time></trkpt><trkpt lat="44.140285" lon="12.041325"><ele>147.42857142857142</ele><time>2026-04-16T14:12:58.085Z</time></trkpt><trkpt lat="44.1403417" lon="12.0413683"><ele>147.0</ele><time>2026-04-16T14:12:59.086Z</time></trkpt><trkpt lat="44.140445" lon="12.0414483"><ele>147.0</ele><time>2026-04-16T14:13:01.085Z</time></trkpt><trkpt lat="44.1405033" lon="12.0414867"><ele>147.0</ele><time>2026-04-16T14:13:02.085Z</time></trkpt><trkpt lat="44.140565" lon="12.0415233"><ele>147.0</ele><time>2026-04-16T14:13:03.085Z</time></trkpt><trkpt lat="44.1406233" lon="12.0415567"><ele>147.0</ele><time>2026-04-16T14:13:04.085Z</time></trkpt><trkpt lat="44.1406833" lon="12.0415883"><ele>147.0</ele><time>2026-04-16T14:13:05.085Z</time></trkpt><trkpt lat="44.140745" lon="12.0416183"><ele>147.0</ele><time>2026-04-16T14:13:06.085Z</time></trkpt><trkpt lat="44.140805" lon="12.041645"><ele>147.0</ele><time>2026-04-16T14:13:07.085Z</time></trkpt><trkpt lat="44.1408683" lon="12.04167"><ele>145.0</ele><time>2026-04-16T14:13:08.085Z</time></trkpt><trkpt lat="44.1409433" lon="12.0416983"><ele>143.0</ele><time>2026-04-16T14:13:09.085Z</time></trkpt><trkpt lat="44.14101" lon="12.0417267"><ele>141.0</ele><time>2026-04-16T14:13:10.085Z</time></trkpt><trkpt lat="44.14108" lon="12.0417567"><ele>139.0</ele><time>2026-04-16T14:13:11.085Z</time></trkpt><trkpt lat="44.1411533" lon="12.04178"><ele>137.0</ele><time>2026-04-16T14:13:12.085Z</time></trkpt><trkpt lat="44.14123" lon="12.0418067"><ele>135.0</ele><time>2026-04-16T14:13:13.085Z</time></trkpt><trkpt lat="44.1413083" lon="12.041825"><ele>135.0</ele><time>2026-04-16T14:13:14.085Z</time></trkpt><trkpt lat="44.141385" lon="12.04184"><ele>135.0</ele><time>2026-04-16T14:13:15.085Z</time></trkpt><trkpt lat="44.1414567" lon="12.0418583"><ele>135.0</ele><time>2026-04-16T14:13:16.085Z</time></trkpt><trkpt lat="44.141535" lon="12.0418833"><ele>135.0</ele><time>2026-04-16T14:13:17.085Z</time></trkpt><trkpt lat="44.1416117" lon="12.04191"><ele>135.0</ele><time>2026-04-16T14:13:18.085Z</time></trkpt><trkpt lat="44.1416883" lon="12.04193"><ele>135.0</ele><time>2026-04-16T14:13:19.085Z</time></trkpt><trkpt lat="44.1417683" lon="12.04195"><ele>134.33333333333334</ele><time>2026-04-16T14:13:20.085Z</time></trkpt><trkpt lat="44.141845" lon="12.041965"><ele>133.66666666666666</ele><time>2026-04-16T14:13:21.085Z</time></trkpt><trkpt lat="44.1419233" lon="12.0419783"><ele>133.0</ele><time>2026-04-16T14:13:22.085Z</time></trkpt><trkpt lat="44.1420017" lon="12.0420017"><ele>132.33333333333331</ele><time>2026-04-16T14:13:23.085Z</time></trkpt><trkpt lat="44.14207" lon="12.0420483"><ele>131.66666666666666</ele><time>2026-04-16T14:13:24.085Z</time></trkpt><trkpt lat="44.14214" lon="12.04212"><ele>131.0</ele><time>2026-04-16T14:13:25.086Z</time></trkpt><trkpt lat="44.1422083" lon="12.0421983"><ele>131.0</ele><time>2026-04-16T14:13:26.085Z</time></trkpt><trkpt lat="44.1422817" lon="12.04228"><ele>131.0</ele><time>2026-04-16T14:13:27.085Z</time></trkpt><trkpt lat="44.1423533" lon="12.04237"><ele>131.0</ele><time>2026-04-16T14:13:28.085Z</time></trkpt><trkpt lat="44.1424233" lon="12.0424533"><ele>131.0</ele><time>2026-04-16T14:13:29.085Z</time></trkpt><trkpt lat="44.14249" lon="12.042535"><ele>131.0</ele><time>2026-04-16T14:13:30.086Z</time></trkpt><trkpt lat="44.142555" lon="12.042615"><ele>129.5</ele><time>2026-04-16T14:13:31.085Z</time></trkpt><trkpt lat="44.1426167" lon="12.0426917"><ele>128.0</ele><time>2026-04-16T14:13:32.085Z</time></trkpt><trkpt lat="44.1426817" lon="12.04277"><ele>126.5</ele><time>2026-04-16T14:13:33.085Z</time></trkpt><trkpt lat="44.1427417" lon="12.0428433"><ele>125.0</ele><time>2026-04-16T14:13:34.085Z</time></trkpt><trkpt lat="44.1428067" lon="12.0429117"><ele>123.49999999999999</ele><time>2026-04-16T14:13:35.085Z</time></trkpt><trkpt lat="44.14287" lon="12.0429867"><ele>122.0</ele><time>2026-04-16T14:13:36.085Z</time></trkpt><trkpt lat="44.14293" lon="12.0430567"><ele>121.99999999999999</ele><time>2026-04-16T14:13:37.085Z</time></trkpt><trkpt lat="44.1429917" lon="12.0431233"><ele>122.0</ele><time>2026-04-16T14:13:38.085Z</time></trkpt><trkpt lat="44.1430533" lon="12.043185"><ele>121.99999999999999</ele><time>2026-04-16T14:13:39.085Z</time></trkpt><trkpt lat="44.14311" lon="12.0432483"><ele>121.99999999999999</ele><time>2026-04-16T14:13:40.086Z</time></trkpt><trkpt lat="44.1431567" lon="12.0433167"><ele>122.0</ele><time>2026-04-16T14:13:41.086Z</time></trkpt><trkpt lat="44.1431967" lon="12.0433983"><ele>121.99999999999999</ele><time>2026-04-16T14:13:42.085Z</time></trkpt><trkpt lat="44.14322" lon="12.0434867"><ele>121.99999999999999</ele><time>2026-04-16T14:13:43.085Z</time></trkpt><trkpt lat="44.1432417" lon="12.0436433"><ele>121.83333333333333</ele><time>2026-04-16T14:13:45.085Z</time></trkpt><trkpt lat="44.1432433" lon="12.04377"><ele>121.66666666666666</ele><time>2026-04-16T14:13:47.085Z</time></trkpt><trkpt lat="44.1432533" lon="12.0438683"><ele>121.5</ele><time>2026-04-16T14:13:49.085Z</time></trkpt><trkpt lat="44.1432583" lon="12.0439567"><ele>121.33333333333334</ele><time>2026-04-16T14:13:51.086Z</time></trkpt><trkpt lat="44.1432567" lon="12.0441"><ele>121.16666666666667</ele><time>2026-04-16T14:13:53.085Z</time></trkpt><trkpt lat="44.14326" lon="12.0441883"><ele>121.0</ele><time>2026-04-16T14:13:54.085Z</time></trkpt><trkpt lat="44.143225" lon="12.0442883"><ele>120.83333333333334</ele><time>2026-04-16T14:13:56.085Z</time></trkpt><trkpt lat="44.1431967" lon="12.044375"><ele>120.66666666666667</ele><time>2026-04-16T14:13:57.085Z</time></trkpt><trkpt lat="44.14312" lon="12.04444"><ele>120.5</ele><time>2026-04-16T14:13:59.085Z</time></trkpt><trkpt lat="44.1430083" lon="12.044435"><ele>120.33333333333334</ele><time>2026-04-16T14:14:01.085Z</time></trkpt><trkpt lat="44.1429383" lon="12.044405"><ele>120.16666666666667</ele><time>2026-04-16T14:14:02.085Z</time></trkpt><trkpt lat="44.1428733" lon="12.0443767"><ele>120.0</ele><time>2026-04-16T14:14:03.085Z</time></trkpt><trkpt lat="44.1428067" lon="12.0443517"><ele>120.0</ele><time>2026-04-16T14:14:04.086Z</time></trkpt><trkpt lat="44.1426933" lon="12.04431"><ele>120.0</ele><time>2026-04-16T14:14:06.085Z</time></trkpt><trkpt lat="44.1425817" lon="12.0442767"><ele>120.0</ele><time>2026-04-16T14:14:08.085Z</time></trkpt><trkpt lat="44.1424767" lon="12.0442517"><ele>120.0</ele><time>2026-04-16T14:14:10.085Z</time></trkpt><trkpt lat="44.14237" lon="12.0442283"><ele>120.0</ele><time>2026-04-16T14:14:12.085Z</time></trkpt><trkpt lat="44.1422533" lon="12.0441967"><ele>120.0</ele><time>2026-04-16T14:14:14.085Z</time></trkpt><trkpt lat="44.1421883" lon="12.04419"><ele>120.0</ele><time>2026-04-16T14:14:15.085Z</time></trkpt><trkpt lat="44.1420717" lon="12.0441733"><ele>120.0</ele><time>2026-04-16T14:14:17.085Z</time></trkpt><trkpt lat="44.1419683" lon="12.0441683"><ele>120.0</ele><time>2026-04-16T14:14:19.085Z</time></trkpt><trkpt lat="44.1418717" lon="12.0441967"><ele>120.0</ele><time>2026-04-16T14:14:21.085Z</time></trkpt><trkpt lat="44.1417767" lon="12.0442417"><ele>120.0</ele><time>2026-04-16T14:14:23.085Z</time></trkpt><trkpt lat="44.1416667" lon="12.0443033"><ele>120.0</ele><time>2026-04-16T14:14:25.085Z</time></trkpt><trkpt lat="44.1415717" lon="12.0443767"><ele>120.0</ele><time>2026-04-16T14:14:27.085Z</time></trkpt><trkpt lat="44.1414933" lon="12.0444383"><ele>120.0</ele><time>2026-04-16T14:14:29.085Z</time></trkpt><trkpt lat="44.141415" lon="12.0444967"><ele>120.0</ele><time>2026-04-16T14:14:31.085Z</time></trkpt><trkpt lat="44.141345" lon="12.0445617"><ele>120.0</ele><time>2026-04-16T14:14:33.085Z</time></trkpt><trkpt lat="44.1412683" lon="12.044625"><ele>120.0</ele><time>2026-04-16T14:14:35.085Z</time></trkpt><trkpt lat="44.1412133" lon="12.04471"><ele>120.0</ele><time>2026-04-16T14:14:37.085Z</time></trkpt><trkpt lat="44.1411783" lon="12.0447983"><ele>120.0</ele><time>2026-04-16T14:14:39.085Z</time></trkpt><trkpt lat="44.1411267" lon="12.0448867"><ele>120.0</ele><time>2026-04-16T14:14:41.085Z</time></trkpt><trkpt lat="44.1410683" lon="12.044975"><ele>120.0</ele><time>2026-04-16T14:14:43.085Z</time></trkpt><trkpt lat="44.1409917" lon="12.045065"><ele>120.0</ele><time>2026-04-16T14:14:45.085Z</time></trkpt><trkpt lat="44.1409067" lon="12.0451567"><ele>120.0</ele><time>2026-04-16T14:14:47.085Z</time></trkpt><trkpt lat="44.1408217" lon="12.0452267"><ele>120.0</ele><time>2026-04-16T14:14:49.085Z</time></trkpt><trkpt lat="44.140715" lon="12.0452783"><ele>120.0</ele><time>2026-04-16T14:14:51.085Z</time></trkpt><trkpt lat="44.1406167" lon="12.0453133"><ele>120.0</ele><time>2026-04-16T14:14:53.085Z</time></trkpt><trkpt lat="44.1404967" lon="12.0453583"><ele>120.0</ele><time>2026-04-16T14:14:55.085Z</time></trkpt><trkpt lat="44.1404283" lon="12.0453817"><ele>120.0</ele><time>2026-04-16T14:14:56.085Z</time></trkpt><trkpt lat="44.1403633" lon="12.0454083"><ele>120.0</ele><time>2026-04-16T14:14:57.085Z</time></trkpt><trkpt lat="44.1402983" lon="12.0454333"><ele>120.0</ele><time>2026-04-16T14:14:58.086Z</time></trkpt><trkpt lat="44.140225" lon="12.0454567"><ele>120.0</ele><time>2026-04-16T14:14:59.085Z</time></trkpt><trkpt lat="44.14015" lon="12.045485"><ele>120.0</ele><time>2026-04-16T14:15:00.085Z</time></trkpt><trkpt lat="44.1400767" lon="12.04551"><ele>120.0</ele><time>2026-04-16T14:15:01.085Z</time></trkpt><trkpt lat="44.14001" lon="12.04555"><ele>120.0</ele><time>2026-04-16T14:15:02.085Z</time></trkpt><trkpt lat="44.13994" lon="12.04561"><ele>120.0</ele><time>2026-04-16T14:15:03.085Z</time></trkpt><trkpt lat="44.139875" lon="12.0456933"><ele>120.0</ele><time>2026-04-16T14:15:04.085Z</time></trkpt><trkpt lat="44.1398167" lon="12.0457983"><ele>120.0</ele><time>2026-04-16T14:15:05.085Z</time></trkpt><trkpt lat="44.1397683" lon="12.0459217"><ele>120.0</ele><time>2026-04-16T14:15:06.085Z</time></trkpt><trkpt lat="44.1397317" lon="12.0460633"><ele>118.0</ele><time>2026-04-16T14:15:07.085Z</time></trkpt><trkpt lat="44.1397033" lon="12.04622"><ele>116.0</ele><time>2026-04-16T14:15:08.085Z</time></trkpt><trkpt lat="44.1396767" lon="12.0463817"><ele>114.0</ele><time>2026-04-16T14:15:09.085Z</time></trkpt><trkpt lat="44.1396467" lon="12.046545"><ele>112.0</ele><time>2026-04-16T14:15:10.085Z</time></trkpt><trkpt lat="44.1396117" lon="12.04671"><ele>110.8</ele><time>2026-04-16T14:15:11.086Z</time></trkpt><trkpt lat="44.13958" lon="12.0468733"><ele>109.6</ele><time>2026-04-16T14:15:12.085Z</time></trkpt><trkpt lat="44.1395533" lon="12.0470333"><ele>108.39999999999999</ele><time>2026-04-16T14:15:13.085Z</time></trkpt><trkpt lat="44.1395283" lon="12.0471717"><ele>107.19999999999999</ele><time>2026-04-16T14:15:14.085Z</time></trkpt><trkpt lat="44.1395033" lon="12.0472983"><ele>106.0</ele><time>2026-04-16T14:15:15.085Z</time></trkpt><trkpt lat="44.139485" lon="12.0474183"><ele>105.71428571428572</ele><time>2026-04-16T14:15:16.085Z</time></trkpt><trkpt lat="44.1394633" lon="12.0475217"><ele>105.42857142857142</ele><time>2026-04-16T14:15:17.085Z</time></trkpt><trkpt lat="44.1394267" lon="12.0476117"><ele>105.14285714285714</ele><time>2026-04-16T14:15:18.085Z</time></trkpt><trkpt lat="44.1393833" lon="12.0476833"><ele>104.85714285714286</ele><time>2026-04-16T14:15:19.086Z</time></trkpt><trkpt lat="44.1393317" lon="12.0477383"><ele>104.57142857142858</ele><time>2026-04-16T14:15:20.085Z</time></trkpt><trkpt lat="44.1392633" lon="12.04775"><ele>104.28571428571428</ele><time>2026-04-16T14:15:21.085Z</time></trkpt><trkpt lat="44.13919" lon="12.047735"><ele>104.0</ele><time>2026-04-16T14:15:22.085Z</time></trkpt><trkpt lat="44.13913" lon="12.0476967"><ele>103.99999999999999</ele><time>2026-04-16T14:15:23.085Z</time></trkpt><trkpt lat="44.13907" lon="12.0476667"><ele>104.0</ele><time>2026-04-16T14:15:24.085Z</time></trkpt><trkpt lat="44.1389667" lon="12.0476183"><ele>104.0</ele><time>2026-04-16T14:15:26.086Z</time></trkpt><trkpt lat="44.1388733" lon="12.0475967"><ele>104.0</ele><time>2026-04-16T14:15:28.085Z</time></trkpt><trkpt lat="44.13878" lon="12.047575"><ele>103.99999999999999</ele><time>2026-04-16T14:15:30.085Z</time></trkpt><trkpt lat="44.1386983" lon="12.0475433"><ele>104.0</ele><time>2026-04-16T14:15:32.085Z</time></trkpt><trkpt lat="44.1386083" lon="12.04752"><ele>104.0</ele><time>2026-04-16T14:15:34.085Z</time></trkpt><trkpt lat="44.1385183" lon="12.0475"><ele>104.0</ele><time>2026-04-16T14:15:36.085Z</time></trkpt><trkpt lat="44.13843" lon="12.04748"><ele>104.0</ele><time>2026-04-16T14:15:38.085Z</time></trkpt><trkpt lat="44.1383317" lon="12.0474933"><ele>104.0</ele><time>2026-04-16T14:15:40.085Z</time></trkpt><trkpt lat="44.1382383" lon="12.047535"><ele>104.0</ele><time>2026-04-16T14:15:42.085Z</time></trkpt><trkpt lat="44.138155" lon="12.0476217"><ele>104.80000000000001</ele><time>2026-04-16T14:15:44.085Z</time></trkpt><trkpt lat="44.1380833" lon="12.0477317"><ele>105.60000000000001</ele><time>2026-04-16T14:15:46.086Z</time></trkpt><trkpt lat="44.1380117" lon="12.0478383"><ele>106.4</ele><time>2026-04-16T14:15:48.085Z</time></trkpt><trkpt lat="44.1379267" lon="12.04794"><ele>107.2</ele><time>2026-04-16T14:15:50.085Z</time></trkpt><trkpt lat="44.1378617" lon="12.0480367"><ele>108.0</ele><time>2026-04-16T14:15:52.085Z</time></trkpt><trkpt lat="44.1377917" lon="12.04814"><ele>108.0</ele><time>2026-04-16T14:15:54.085Z</time></trkpt><trkpt lat="44.1377333" lon="12.0482317"><ele>108.00000000000001</ele><time>2026-04-16T14:15:56.085Z</time></trkpt><trkpt lat="44.1376767" lon="12.0483267"><ele>108.00000000000001</ele><time>2026-04-16T14:15:58.085Z</time></trkpt><trkpt lat="44.1376183" lon="12.04842"><ele>108.0</ele><time>2026-04-16T14:16:00.086Z</time></trkpt><trkpt lat="44.1375467" lon="12.048515"><ele>108.0</ele><time>2026-04-16T14:16:02.085Z</time></trkpt><trkpt lat="44.137455" lon="12.048615"><ele>108.2</ele><time>2026-04-16T14:16:04.085Z</time></trkpt><trkpt lat="44.1373767" lon="12.0487217"><ele>108.4</ele><time>2026-04-16T14:16:06.085Z</time></trkpt><trkpt lat="44.13731" lon="12.0488117"><ele>108.60000000000001</ele><time>2026-04-16T14:16:08.085Z</time></trkpt><trkpt lat="44.1372267" lon="12.048905"><ele>108.80000000000001</ele><time>2026-04-16T14:16:10.085Z</time></trkpt><trkpt lat="44.1371367" lon="12.048995"><ele>109.0</ele><time>2026-04-16T14:16:12.085Z</time></trkpt><trkpt lat="44.13705" lon="12.0490717"><ele>108.6</ele><time>2026-04-16T14:16:14.085Z</time></trkpt><trkpt lat="44.13696" lon="12.04914"><ele>108.2</ele><time>2026-04-16T14:16:16.085Z</time></trkpt><trkpt lat="44.13687" lon="12.049185"><ele>107.79999999999998</ele><time>2026-04-16T14:16:18.085Z</time></trkpt><trkpt lat="44.1367783" lon="12.0492383"><ele>107.39999999999999</ele><time>2026-04-16T14:16:20.085Z</time></trkpt><trkpt lat="44.1366883" lon="12.049295"><ele>107.0</ele><time>2026-04-16T14:16:22.085Z</time></trkpt><trkpt lat="44.13661" lon="12.0493467"><ele>107.39999999999999</ele><time>2026-04-16T14:16:24.085Z</time></trkpt><trkpt lat="44.1365183" lon="12.0493867"><ele>107.79999999999998</ele><time>2026-04-16T14:16:26.085Z</time></trkpt><trkpt lat="44.1364133" lon="12.0494267"><ele>108.2</ele><time>2026-04-16T14:16:28.085Z</time></trkpt><trkpt lat="44.136295" lon="12.04948"><ele>108.6</ele><time>2026-04-16T14:16:30.085Z</time></trkpt><trkpt lat="44.1362317" lon="12.04951"><ele>109.0</ele><time>2026-04-16T14:16:31.085Z</time></trkpt><trkpt lat="44.1361667" lon="12.049535"><ele>109.00000000000001</ele><time>2026-04-16T14:16:32.085Z</time></trkpt><trkpt lat="44.1360983" lon="12.049555"><ele>109.0</ele><time>2026-04-16T14:16:33.085Z</time></trkpt><trkpt lat="44.1359967" lon="12.049615"><ele>109.0</ele><time>2026-04-16T14:16:35.085Z</time></trkpt><trkpt lat="44.13594" lon="12.049665"><ele>109.0</ele><time>2026-04-16T14:16:36.085Z</time></trkpt><trkpt lat="44.1358817" lon="12.0497317"><ele>109.00000000000001</ele><time>2026-04-16T14:16:37.085Z</time></trkpt><trkpt lat="44.1358267" lon="12.0498133"><ele>109.0</ele><time>2026-04-16T14:16:38.085Z</time></trkpt><trkpt lat="44.1357733" lon="12.0499033"><ele>108.0</ele><time>2026-04-16T14:16:39.085Z</time></trkpt><trkpt lat="44.135715" lon="12.04999"><ele>107.0</ele><time>2026-04-16T14:16:40.085Z</time></trkpt><trkpt lat="44.1356567" lon="12.0500817"><ele>106.0</ele><time>2026-04-16T14:16:41.085Z</time></trkpt><trkpt lat="44.13559" lon="12.05017"><ele>105.0</ele><time>2026-04-16T14:16:42.085Z</time></trkpt><trkpt lat="44.13552" lon="12.0502633"><ele>104.0</ele><time>2026-04-16T14:16:43.085Z</time></trkpt><trkpt lat="44.1354417" lon="12.05034"><ele>103.99999999999999</ele><time>2026-04-16T14:16:44.085Z</time></trkpt><trkpt lat="44.1353583" lon="12.0503883"><ele>104.0</ele><time>2026-04-16T14:16:45.085Z</time></trkpt><trkpt lat="44.1352783" lon="12.05042"><ele>104.0</ele><time>2026-04-16T14:16:46.085Z</time></trkpt><trkpt lat="44.1351983" lon="12.05044"><ele>104.0</ele><time>2026-04-16T14:16:47.085Z</time></trkpt><trkpt lat="44.1351267" lon="12.050455"><ele>103.99999999999999</ele><time>2026-04-16T14:16:48.086Z</time></trkpt><trkpt lat="44.135015" lon="12.050465"><ele>104.0</ele><time>2026-04-16T14:16:50.085Z</time></trkpt><trkpt lat="44.1349383" lon="12.0504583"><ele>104.49999999999999</ele><time>2026-04-16T14:16:52.085Z</time></trkpt><trkpt lat="44.1348683" lon="12.0504683"><ele>105.0</ele><time>2026-04-16T14:16:54.086Z</time></trkpt><trkpt lat="44.1348" lon="12.0504867"><ele>105.5</ele><time>2026-04-16T14:16:57.085Z</time></trkpt><trkpt lat="44.134725" lon="12.0505133"><ele>106.0</ele><time>2026-04-16T14:17:00.085Z</time></trkpt><trkpt lat="44.134635" lon="12.0505317"><ele>106.49999999999999</ele><time>2026-04-16T14:17:03.085Z</time></trkpt><trkpt lat="44.1345433" lon="12.0505417"><ele>107.0</ele><time>2026-04-16T14:17:06.085Z</time></trkpt><trkpt lat="44.134455" lon="12.05055"><ele>106.99999999999999</ele><time>2026-04-16T14:17:09.086Z</time></trkpt><trkpt lat="44.134385" lon="12.0505683"><ele>107.0</ele><time>2026-04-16T14:17:12.085Z</time></trkpt><trkpt lat="44.1343183" lon="12.0505833"><ele>107.0</ele><time>2026-04-16T14:17:15.085Z</time></trkpt><trkpt lat="44.1342433" lon="12.0505983"><ele>107.0</ele><time>2026-04-16T14:17:18.085Z</time></trkpt><trkpt lat="44.13416" lon="12.0506217"><ele>106.99999999999999</ele><time>2026-04-16T14:17:21.085Z</time></trkpt><trkpt lat="44.1340967" lon="12.0506333"><ele>107.0</ele><time>2026-04-16T14:17:23.085Z</time></trkpt><trkpt lat="44.13401" lon="12.0506483"><ele>107.33333333333333</ele><time>2026-04-16T14:17:26.085Z</time></trkpt><trkpt lat="44.13394" lon="12.050675"><ele>107.66666666666666</ele><time>2026-04-16T14:17:28.085Z</time></trkpt><trkpt lat="44.13386" lon="12.0507133"><ele>108.0</ele><time>2026-04-16T14:17:31.085Z</time></trkpt><trkpt lat="44.1337917" lon="12.0507817"><ele>108.33333333333334</ele><time>2026-04-16T14:17:34.086Z</time></trkpt><trkpt lat="44.13374" lon="12.0508533"><ele>108.66666666666667</ele><time>2026-04-16T14:17:37.085Z</time></trkpt><trkpt lat="44.1337033" lon="12.050955"><ele>109.0</ele><time>2026-04-16T14:17:40.085Z</time></trkpt><trkpt lat="44.1336733" lon="12.0510717"><ele>109.33333333333334</ele><time>2026-04-16T14:17:43.085Z</time></trkpt><trkpt lat="44.133665" lon="12.0511883"><ele>109.66666666666667</ele><time>2026-04-16T14:17:45.085Z</time></trkpt><trkpt lat="44.1336583" lon="12.0513067"><ele>110.0</ele><time>2026-04-16T14:17:47.085Z</time></trkpt><trkpt lat="44.1336667" lon="12.051415"><ele>110.33333333333334</ele><time>2026-04-16T14:17:49.085Z</time></trkpt><trkpt lat="44.1336683" lon="12.05153"><ele>110.66666666666667</ele><time>2026-04-16T14:17:51.085Z</time></trkpt><trkpt lat="44.1336633" lon="12.0516633"><ele>111.0</ele><time>2026-04-16T14:17:53.085Z</time></trkpt><trkpt lat="44.1336633" lon="12.0518017"><ele>111.25</ele><time>2026-04-16T14:17:55.085Z</time></trkpt><trkpt lat="44.1336583" lon="12.0519517"><ele>111.5</ele><time>2026-04-16T14:17:57.085Z</time></trkpt><trkpt lat="44.1336433" lon="12.05211"><ele>111.75</ele><time>2026-04-16T14:17:59.085Z</time></trkpt><trkpt lat="44.13361" lon="12.0522767"><ele>112.0</ele><time>2026-04-16T14:18:01.085Z</time></trkpt><trkpt lat="44.1335633" lon="12.05243"><ele>111.8</ele><time>2026-04-16T14:18:03.085Z</time></trkpt><trkpt lat="44.1335367" lon="12.0525733"><ele>111.6</ele><time>2026-04-16T14:18:05.085Z</time></trkpt><trkpt lat="44.13351" lon="12.0527183"><ele>111.39999999999999</ele><time>2026-04-16T14:18:07.085Z</time></trkpt><trkpt lat="44.1334667" lon="12.0528717"><ele>111.19999999999999</ele><time>2026-04-16T14:18:09.085Z</time></trkpt><trkpt lat="44.133415" lon="12.0530067"><ele>111.0</ele><time>2026-04-16T14:18:11.085Z</time></trkpt><trkpt lat="44.1333517" lon="12.0531267"><ele>111.0</ele><time>2026-04-16T14:18:13.085Z</time></trkpt><trkpt lat="44.1332783" lon="12.0532533"><ele>111.0</ele><time>2026-04-16T14:18:15.085Z</time></trkpt><trkpt lat="44.1332" lon="12.0533767"><ele>111.0</ele><time>2026-04-16T14:18:17.085Z</time></trkpt><trkpt lat="44.13313" lon="12.0535"><ele>111.0</ele><time>2026-04-16T14:18:19.086Z</time></trkpt><trkpt lat="44.1330633" lon="12.05364"><ele>111.19999999999999</ele><time>2026-04-16T14:18:21.085Z</time></trkpt><trkpt lat="44.1330217" lon="12.0537967"><ele>111.39999999999999</ele><time>2026-04-16T14:18:23.085Z</time></trkpt><trkpt lat="44.1330133" lon="12.053965"><ele>111.6</ele><time>2026-04-16T14:18:25.085Z</time></trkpt><trkpt lat="44.1330133" lon="12.0541433"><ele>111.8</ele><time>2026-04-16T14:18:27.085Z</time></trkpt><trkpt lat="44.1330183" lon="12.0542383"><ele>112.0</ele><time>2026-04-16T14:18:28.085Z</time></trkpt><trkpt lat="44.13302" lon="12.054345"><ele>112.0</ele><time>2026-04-16T14:18:29.085Z</time></trkpt><trkpt lat="44.1330233" lon="12.0544367"><ele>111.99999999999999</ele><time>2026-04-16T14:18:30.085Z</time></trkpt><trkpt lat="44.1330317" lon="12.0546133"><ele>111.99999999999999</ele><time>2026-04-16T14:18:32.085Z</time></trkpt><trkpt lat="44.1330467" lon="12.0547867"><ele>112.0</ele><time>2026-04-16T14:18:34.085Z</time></trkpt><trkpt lat="44.1330567" lon="12.0548817"><ele>112.0</ele><time>2026-04-16T14:18:35.085Z</time></trkpt><trkpt lat="44.1330733" lon="12.0549967"><ele>111.66666666666667</ele><time>2026-04-16T14:18:36.085Z</time></trkpt><trkpt lat="44.1330833" lon="12.05511"><ele>111.33333333333334</ele><time>2026-04-16T14:18:37.085Z</time></trkpt><trkpt lat="44.133095" lon="12.055215"><ele>111.0</ele><time>2026-04-16T14:18:38.085Z</time></trkpt><trkpt lat="44.1331017" lon="12.0553267"><ele>110.66666666666666</ele><time>2026-04-16T14:18:39.085Z</time></trkpt><trkpt lat="44.1331133" lon="12.055425"><ele>110.33333333333333</ele><time>2026-04-16T14:18:40.085Z</time></trkpt><trkpt lat="44.13313" lon="12.055525"><ele>110.0</ele><time>2026-04-16T14:18:41.085Z</time></trkpt><trkpt lat="44.133155" lon="12.055625"><ele>109.99999999999999</ele><time>2026-04-16T14:18:42.085Z</time></trkpt><trkpt lat="44.1331833" lon="12.0557217"><ele>110.0</ele><time>2026-04-16T14:18:43.085Z</time></trkpt><trkpt lat="44.133215" lon="12.0558167"><ele>110.0</ele><time>2026-04-16T14:18:44.086Z</time></trkpt><trkpt lat="44.1332483" lon="12.05593"><ele>110.0</ele><time>2026-04-16T14:18:45.085Z</time></trkpt><trkpt lat="44.1332867" lon="12.056045"><ele>109.99999999999999</ele><time>2026-04-16T14:18:46.085Z</time></trkpt><trkpt lat="44.13334" lon="12.0561633"><ele>110.0</ele><time>2026-04-16T14:18:47.085Z</time></trkpt><trkpt lat="44.1333967" lon="12.0562833"><ele>108.99999999999999</ele><time>2026-04-16T14:18:48.085Z</time></trkpt><trkpt lat="44.1334317" lon="12.0563933"><ele>108.0</ele><time>2026-04-16T14:18:49.085Z</time></trkpt><trkpt lat="44.13346" lon="12.0565033"><ele>107.0</ele><time>2026-04-16T14:18:50.085Z</time></trkpt><trkpt lat="44.1334717" lon="12.0566"><ele>106.0</ele><time>2026-04-16T14:18:51.085Z</time></trkpt><trkpt lat="44.1334617" lon="12.0566933"><ele>104.99999999999999</ele><time>2026-04-16T14:18:52.085Z</time></trkpt><trkpt lat="44.13343" lon="12.0567917"><ele>104.0</ele><time>2026-04-16T14:18:53.085Z</time></trkpt><trkpt lat="44.13339" lon="12.0568867"><ele>102.49999999999999</ele><time>2026-04-16T14:18:54.085Z</time></trkpt><trkpt lat="44.13334" lon="12.056985"><ele>101.0</ele><time>2026-04-16T14:18:55.085Z</time></trkpt><trkpt lat="44.133295" lon="12.0570783"><ele>99.5</ele><time>2026-04-16T14:18:56.085Z</time></trkpt><trkpt lat="44.1332633" lon="12.05717"><ele>98.0</ele><time>2026-04-16T14:18:57.085Z</time></trkpt><trkpt lat="44.1332417" lon="12.0572617"><ele>96.5</ele><time>2026-04-16T14:18:58.085Z</time></trkpt><trkpt lat="44.1332333" lon="12.05735"><ele>95.0</ele><time>2026-04-16T14:18:59.085Z</time></trkpt><trkpt lat="44.1332767" lon="12.0575167"><ele>93.14285714285714</ele><time>2026-04-16T14:19:01.085Z</time></trkpt><trkpt lat="44.1333283" lon="12.057585"><ele>91.28571428571429</ele><time>2026-04-16T14:19:02.085Z</time></trkpt><trkpt lat="44.1333817" lon="12.0576417"><ele>89.42857142857142</ele><time>2026-04-16T14:19:03.085Z</time></trkpt><trkpt lat="44.1334383" lon="12.0576967"><ele>87.57142857142857</ele><time>2026-04-16T14:19:04.086Z</time></trkpt><trkpt lat="44.133495" lon="12.0577517"><ele>85.71428571428571</ele><time>2026-04-16T14:19:05.085Z</time></trkpt><trkpt lat="44.1335467" lon="12.0578217"><ele>83.85714285714285</ele><time>2026-04-16T14:19:06.085Z</time></trkpt><trkpt lat="44.1335867" lon="12.0579"><ele>82.0</ele><time>2026-04-16T14:19:07.085Z</time></trkpt><trkpt lat="44.13361" lon="12.0579967"><ele>82.0</ele><time>2026-04-16T14:19:08.085Z</time></trkpt><trkpt lat="44.1336183" lon="12.0581083"><ele>82.0</ele><time>2026-04-16T14:19:09.085Z</time></trkpt><trkpt lat="44.133605" lon="12.0582217"><ele>82.0</ele><time>2026-04-16T14:19:10.085Z</time></trkpt><trkpt lat="44.1335683" lon="12.0583267"><ele>82.0</ele><time>2026-04-16T14:19:11.085Z</time></trkpt><trkpt lat="44.1335117" lon="12.0584167"><ele>82.0</ele><time>2026-04-16T14:19:12.085Z</time></trkpt><trkpt lat="44.1334417" lon="12.05849"><ele>82.0</ele><time>2026-04-16T14:19:13.086Z</time></trkpt><trkpt lat="44.1333633" lon="12.0585467"><ele>80.33333333333333</ele><time>2026-04-16T14:19:14.085Z</time></trkpt><trkpt lat="44.1332817" lon="12.0585967"><ele>78.66666666666666</ele><time>2026-04-16T14:19:15.085Z</time></trkpt><trkpt lat="44.1332" lon="12.0586467"><ele>77.0</ele><time>2026-04-16T14:19:16.085Z</time></trkpt><trkpt lat="44.13312" lon="12.0587017"><ele>75.33333333333333</ele><time>2026-04-16T14:19:17.085Z</time></trkpt><trkpt lat="44.1330517" lon="12.05876"><ele>73.66666666666667</ele><time>2026-04-16T14:19:18.085Z</time></trkpt><trkpt lat="44.1329833" lon="12.0588133"><ele>72.0</ele><time>2026-04-16T14:19:19.085Z</time></trkpt><trkpt lat="44.1329183" lon="12.0588667"><ele>72.0</ele><time>2026-04-16T14:19:20.085Z</time></trkpt><trkpt lat="44.132855" lon="12.05892"><ele>72.0</ele><time>2026-04-16T14:19:21.085Z</time></trkpt><trkpt lat="44.1327967" lon="12.0589767"><ele>72.0</ele><time>2026-04-16T14:19:22.085Z</time></trkpt><trkpt lat="44.132735" lon="12.0590367"><ele>72.0</ele><time>2026-04-16T14:19:23.085Z</time></trkpt><trkpt lat="44.1326733" lon="12.0590867"><ele>72.0</ele><time>2026-04-16T14:19:24.086Z</time></trkpt><trkpt lat="44.132605" lon="12.0591433"><ele>72.0</ele><time>2026-04-16T14:19:25.085Z</time></trkpt><trkpt lat="44.1325333" lon="12.0591967"><ele>71.16666666666667</ele><time>2026-04-16T14:19:26.085Z</time></trkpt><trkpt lat="44.1324617" lon="12.0592583"><ele>70.33333333333333</ele><time>2026-04-16T14:19:27.085Z</time></trkpt><trkpt lat="44.13239" lon="12.0593167"><ele>69.5</ele><time>2026-04-16T14:19:28.085Z</time></trkpt><trkpt lat="44.1323167" lon="12.059375"><ele>68.66666666666666</ele><time>2026-04-16T14:19:29.085Z</time></trkpt><trkpt lat="44.132245" lon="12.059425"><ele>67.83333333333333</ele><time>2026-04-16T14:19:30.085Z</time></trkpt><trkpt lat="44.1321717" lon="12.0594717"><ele>67.0</ele><time>2026-04-16T14:19:31.085Z</time></trkpt><trkpt lat="44.1320983" lon="12.05951"><ele>67.0</ele><time>2026-04-16T14:19:32.085Z</time></trkpt><trkpt lat="44.1320233" lon="12.0595417"><ele>67.0</ele><time>2026-04-16T14:19:33.085Z</time></trkpt><trkpt lat="44.13195" lon="12.0595583"><ele>67.0</ele><time>2026-04-16T14:19:34.085Z</time></trkpt><trkpt lat="44.131885" lon="12.059585"><ele>67.0</ele><time>2026-04-16T14:19:35.085Z</time></trkpt><trkpt lat="44.1318117" lon="12.0596117"><ele>67.0</ele><time>2026-04-16T14:19:36.085Z</time></trkpt><trkpt lat="44.1317383" lon="12.0596367"><ele>67.0</ele><time>2026-04-16T14:19:37.085Z</time></trkpt><trkpt lat="44.1316667" lon="12.05965"><ele>67.0</ele><time>2026-04-16T14:19:38.085Z</time></trkpt><trkpt lat="44.1315967" lon="12.0596617"><ele>67.0</ele><time>2026-04-16T14:19:39.085Z</time></trkpt><trkpt lat="44.1315233" lon="12.0596633"><ele>67.0</ele><time>2026-04-16T14:19:40.085Z</time></trkpt><trkpt lat="44.1314467" lon="12.0596683"><ele>67.0</ele><time>2026-04-16T14:19:41.085Z</time></trkpt><trkpt lat="44.131375" lon="12.0596683"><ele>67.0</ele><time>2026-04-16T14:19:42.085Z</time></trkpt><trkpt lat="44.1312617" lon="12.0596817"><ele>67.0</ele><time>2026-04-16T14:19:44.085Z</time></trkpt><trkpt lat="44.131155" lon="12.0597533"><ele>67.0</ele><time>2026-04-16T14:19:46.085Z</time></trkpt><trkpt lat="44.13105" lon="12.0598217"><ele>67.0</ele><time>2026-04-16T14:19:48.085Z</time></trkpt><trkpt lat="44.1309767" lon="12.059935"><ele>67.0</ele><time>2026-04-16T14:19:50.085Z</time></trkpt><trkpt lat="44.1308867" lon="12.0600133"><ele>67.0</ele><time>2026-04-16T14:19:52.085Z</time></trkpt><trkpt lat="44.1307783" lon="12.060085"><ele>66.5</ele><time>2026-04-16T14:19:54.085Z</time></trkpt><trkpt lat="44.130675" lon="12.0601633"><ele>66.0</ele><time>2026-04-16T14:19:56.085Z</time></trkpt><trkpt lat="44.1306183" lon="12.0602033"><ele>65.5</ele><time>2026-04-16T14:19:57.085Z</time></trkpt><trkpt lat="44.13054" lon="12.0603217"><ele>65.0</ele><time>2026-04-16T14:19:59.085Z</time></trkpt><trkpt lat="44.1304767" lon="12.0603667"><ele>64.5</ele><time>2026-04-16T14:20:00.085Z</time></trkpt><trkpt lat="44.1304033" lon="12.0604017"><ele>64.0</ele><time>2026-04-16T14:20:01.085Z</time></trkpt><trkpt lat="44.1303417" lon="12.06044"><ele>63.99999999999999</ele><time>2026-04-16T14:20:02.085Z</time></trkpt><trkpt lat="44.13027" lon="12.060485"><ele>64.0</ele><time>2026-04-16T14:20:03.085Z</time></trkpt><trkpt lat="44.130205" lon="12.0605117"><ele>64.0</ele><time>2026-04-16T14:20:04.085Z</time></trkpt><trkpt lat="44.13014" lon="12.06056"><ele>64.0</ele><time>2026-04-16T14:20:05.085Z</time></trkpt><trkpt lat="44.1300817" lon="12.0606167"><ele>63.99999999999999</ele><time>2026-04-16T14:20:06.085Z</time></trkpt><trkpt lat="44.1300283" lon="12.0606833"><ele>64.0</ele><time>2026-04-16T14:20:07.085Z</time></trkpt><trkpt lat="44.12995" lon="12.060795"><ele>63.857142857142854</ele><time>2026-04-16T14:20:09.085Z</time></trkpt><trkpt lat="44.12991" lon="12.0608767"><ele>63.71428571428571</ele><time>2026-04-16T14:20:11.085Z</time></trkpt><trkpt lat="44.1299083" lon="12.0609683"><ele>63.57142857142857</ele><time>2026-04-16T14:20:16.086Z</time></trkpt><trkpt lat="44.1298833" lon="12.0610583"><ele>63.42857142857143</ele><time>2026-04-16T14:20:19.085Z</time></trkpt><trkpt lat="44.1298783" lon="12.0611617"><ele>63.285714285714285</ele><time>2026-04-16T14:20:21.085Z</time></trkpt><trkpt lat="44.1298633" lon="12.0612767"><ele>63.14285714285714</ele><time>2026-04-16T14:20:23.085Z</time></trkpt><trkpt lat="44.1298433" lon="12.06139"><ele>63.0</ele><time>2026-04-16T14:20:25.085Z</time></trkpt><trkpt lat="44.1298433" lon="12.0615267"><ele>61.8</ele><time>2026-04-16T14:20:27.085Z</time></trkpt><trkpt lat="44.1298333" lon="12.06166"><ele>60.599999999999994</ele><time>2026-04-16T14:20:29.085Z</time></trkpt><trkpt lat="44.1298183" lon="12.0618"><ele>59.400000000000006</ele><time>2026-04-16T14:20:31.085Z</time></trkpt><trkpt lat="44.1297833" lon="12.0619467"><ele>58.2</ele><time>2026-04-16T14:20:33.085Z</time></trkpt><trkpt lat="44.129755" lon="12.06209"><ele>57.0</ele><time>2026-04-16T14:20:35.085Z</time></trkpt><trkpt lat="44.1297517" lon="12.0622233"><ele>57.0</ele><time>2026-04-16T14:20:37.085Z</time></trkpt><trkpt lat="44.1297233" lon="12.0623367"><ele>57.0</ele><time>2026-04-16T14:20:39.086Z</time></trkpt><trkpt lat="44.129665" lon="12.0624133"><ele>57.0</ele><time>2026-04-16T14:20:41.085Z</time></trkpt><trkpt lat="44.129595" lon="12.0624867"><ele>57.0</ele><time>2026-04-16T14:20:43.086Z</time></trkpt><trkpt lat="44.1295017" lon="12.0625433"><ele>57.0</ele><time>2026-04-16T14:20:45.085Z</time></trkpt><trkpt lat="44.129395" lon="12.0625633"><ele>55.75</ele><time>2026-04-16T14:20:47.085Z</time></trkpt><trkpt lat="44.12928" lon="12.06258"><ele>54.5</ele><time>2026-04-16T14:20:49.085Z</time></trkpt><trkpt lat="44.12917" lon="12.0625933"><ele>53.25</ele><time>2026-04-16T14:20:51.085Z</time></trkpt><trkpt lat="44.1290517" lon="12.0626167"><ele>52.0</ele><time>2026-04-16T14:20:53.085Z</time></trkpt><trkpt lat="44.1289383" lon="12.0626417"><ele>52.0</ele><time>2026-04-16T14:20:55.085Z</time></trkpt><trkpt lat="44.1288367" lon="12.0626733"><ele>52.0</ele><time>2026-04-16T14:20:57.085Z</time></trkpt><trkpt lat="44.1287333" lon="12.0626933"><ele>52.0</ele><time>2026-04-16T14:20:59.085Z</time></trkpt><trkpt lat="44.1286133" lon="12.062715"><ele>52.0</ele><time>2026-04-16T14:21:01.085Z</time></trkpt><trkpt lat="44.128505" lon="12.062725"><ele>52.0</ele><time>2026-04-16T14:21:03.085Z</time></trkpt><trkpt lat="44.1283883" lon="12.0627217"><ele>52.0</ele><time>2026-04-16T14:21:05.086Z</time></trkpt><trkpt lat="44.1283233" lon="12.0627317"><ele>52.0</ele><time>2026-04-16T14:21:06.085Z</time></trkpt><trkpt lat="44.1282133" lon="12.0627467"><ele>52.0</ele><time>2026-04-16T14:21:08.085Z</time></trkpt><trkpt lat="44.1280933" lon="12.062765"><ele>52.0</ele><time>2026-04-16T14:21:10.085Z</time></trkpt><trkpt lat="44.1279817" lon="12.06279"><ele>52.0</ele><time>2026-04-16T14:21:12.085Z</time></trkpt><trkpt lat="44.12787" lon="12.0628"><ele>52.2</ele><time>2026-04-16T14:21:14.085Z</time></trkpt><trkpt lat="44.1277717" lon="12.06279"><ele>52.400000000000006</ele><time>2026-04-16T14:21:16.085Z</time></trkpt><trkpt lat="44.1276767" lon="12.0628"><ele>52.599999999999994</ele><time>2026-04-16T14:21:18.085Z</time></trkpt><trkpt lat="44.1275767" lon="12.0627917"><ele>52.8</ele><time>2026-04-16T14:21:20.085Z</time></trkpt><trkpt lat="44.1274783" lon="12.062765"><ele>53.0</ele><time>2026-04-16T14:21:22.085Z</time></trkpt><trkpt lat="44.1273783" lon="12.0627183"><ele>53.2</ele><time>2026-04-16T14:21:24.085Z</time></trkpt><trkpt lat="44.1272783" lon="12.062675"><ele>53.4</ele><time>2026-04-16T14:21:26.084Z</time></trkpt><trkpt lat="44.1271833" lon="12.0626367"><ele>53.60000000000001</ele><time>2026-04-16T14:21:28.084Z</time></trkpt><trkpt lat="44.1270867" lon="12.0626083"><ele>53.800000000000004</ele><time>2026-04-16T14:21:30.084Z</time></trkpt><trkpt lat="44.1270017" lon="12.0626067"><ele>54.0</ele><time>2026-04-16T14:21:32.084Z</time></trkpt><trkpt lat="44.12693" lon="12.0626167"><ele>54.0</ele><time>2026-04-16T14:21:34.085Z</time></trkpt><trkpt lat="44.1268817" lon="12.0627217"><ele>54.00000000000001</ele><time>2026-04-16T14:21:37.084Z</time></trkpt><trkpt lat="44.1268767" lon="12.0628317"><ele>54.00000000000001</ele><time>2026-04-16T14:21:39.084Z</time></trkpt><trkpt lat="44.1268733" lon="12.062965"><ele>54.0</ele><time>2026-04-16T14:21:41.084Z</time></trkpt><trkpt lat="44.1268717" lon="12.0631033"><ele>54.0</ele><time>2026-04-16T14:21:43.084Z</time></trkpt><trkpt lat="44.12688" lon="12.0632533"><ele>54.0</ele><time>2026-04-16T14:21:45.084Z</time></trkpt><trkpt lat="44.12689" lon="12.06341"><ele>54.00000000000001</ele><time>2026-04-16T14:21:47.084Z</time></trkpt><trkpt lat="44.1268983" lon="12.063555"><ele>54.00000000000001</ele><time>2026-04-16T14:21:49.084Z</time></trkpt><trkpt lat="44.12691" lon="12.0636783"><ele>54.0</ele><time>2026-04-16T14:21:51.084Z</time></trkpt><trkpt lat="44.1269233" lon="12.0638633"><ele>54.0</ele><time>2026-04-16T14:21:54.084Z</time></trkpt><trkpt lat="44.12692" lon="12.0639983"><ele>53.800000000000004</ele><time>2026-04-16T14:21:56.084Z</time></trkpt><trkpt lat="44.1269167" lon="12.064145"><ele>53.60000000000001</ele><time>2026-04-16T14:21:58.084Z</time></trkpt><trkpt lat="44.1269167" lon="12.0642783"><ele>53.4</ele><time>2026-04-16T14:22:00.084Z</time></trkpt><trkpt lat="44.1269133" lon="12.0644567"><ele>53.2</ele><time>2026-04-16T14:22:02.084Z</time></trkpt><trkpt lat="44.126925" lon="12.06461"><ele>53.0</ele><time>2026-04-16T14:22:04.084Z</time></trkpt><trkpt lat="44.126935" lon="12.0646983"><ele>53.0</ele><time>2026-04-16T14:22:05.084Z</time></trkpt><trkpt lat="44.1269367" lon="12.064855"><ele>53.0</ele><time>2026-04-16T14:22:07.084Z</time></trkpt><trkpt lat="44.1269417" lon="12.0649967"><ele>53.0</ele><time>2026-04-16T14:22:09.084Z</time></trkpt><trkpt lat="44.1269483" lon="12.0651433"><ele>53.0</ele><time>2026-04-16T14:22:11.084Z</time></trkpt><trkpt lat="44.12695" lon="12.0652983"><ele>53.0</ele><time>2026-04-16T14:22:13.084Z</time></trkpt><trkpt lat="44.126965" lon="12.0654583"><ele>53.16666666666667</ele><time>2026-04-16T14:22:15.085Z</time></trkpt><trkpt lat="44.1269717" lon="12.0655467"><ele>53.333333333333336</ele><time>2026-04-16T14:22:16.085Z</time></trkpt><trkpt lat="44.1269717" lon="12.065675"><ele>53.5</ele><time>2026-04-16T14:22:18.084Z</time></trkpt><trkpt lat="44.1269583" lon="12.0657967"><ele>53.66666666666667</ele><time>2026-04-16T14:22:20.084Z</time></trkpt><trkpt lat="44.1269533" lon="12.0659167"><ele>53.833333333333336</ele><time>2026-04-16T14:22:22.084Z</time></trkpt><trkpt lat="44.1269483" lon="12.0660483"><ele>54.0</ele><time>2026-04-16T14:22:24.084Z</time></trkpt><trkpt lat="44.1269517" lon="12.0662"><ele>54.0</ele><time>2026-04-16T14:22:26.084Z</time></trkpt><trkpt lat="44.1269467" lon="12.0663583"><ele>54.00000000000001</ele><time>2026-04-16T14:22:28.084Z</time></trkpt><trkpt lat="44.1269467" lon="12.0665067"><ele>54.00000000000001</ele><time>2026-04-16T14:22:30.084Z</time></trkpt><trkpt lat="44.1269567" lon="12.0666433"><ele>54.0</ele><time>2026-04-16T14:22:32.084Z</time></trkpt><trkpt lat="44.126965" lon="12.0667833"><ele>54.0</ele><time>2026-04-16T14:22:34.084Z</time></trkpt><trkpt lat="44.1269767" lon="12.066925"><ele>54.0</ele><time>2026-04-16T14:22:36.084Z</time></trkpt><trkpt lat="44.1269883" lon="12.067085"><ele>54.0</ele><time>2026-04-16T14:22:38.084Z</time></trkpt><trkpt lat="44.1269967" lon="12.0671767"><ele>54.0</ele><time>2026-04-16T14:22:39.084Z</time></trkpt><trkpt lat="44.1270017" lon="12.0672683"><ele>54.0</ele><time>2026-04-16T14:22:40.084Z</time></trkpt><trkpt lat="44.127015" lon="12.0673583"><ele>54.0</ele><time>2026-04-16T14:22:41.085Z</time></trkpt><trkpt lat="44.1270167" lon="12.067455"><ele>54.0</ele><time>2026-04-16T14:22:42.084Z</time></trkpt><trkpt lat="44.1270233" lon="12.0675783"><ele>54.0</ele><time>2026-04-16T14:22:43.085Z</time></trkpt><trkpt lat="44.1270183" lon="12.067695"><ele>54.0</ele><time>2026-04-16T14:22:44.084Z</time></trkpt><trkpt lat="44.1270133" lon="12.0678117"><ele>54.0</ele><time>2026-04-16T14:22:45.084Z</time></trkpt><trkpt lat="44.127015" lon="12.06793"><ele>54.0</ele><time>2026-04-16T14:22:46.084Z</time></trkpt><trkpt lat="44.1270117" lon="12.0680183"><ele>54.0</ele><time>2026-04-16T14:22:47.084Z</time></trkpt><trkpt lat="44.126995" lon="12.0681183"><ele>54.0</ele><time>2026-04-16T14:22:48.085Z</time></trkpt><trkpt lat="44.1269783" lon="12.0682217"><ele>53.400000000000006</ele><time>2026-04-16T14:22:49.084Z</time></trkpt><trkpt lat="44.1269733" lon="12.0683367"><ele>52.800000000000004</ele><time>2026-04-16T14:22:50.084Z</time></trkpt><trkpt lat="44.1269667" lon="12.0684367"><ele>52.2</ele><time>2026-04-16T14:22:51.084Z</time></trkpt><trkpt lat="44.1269567" lon="12.0685267"><ele>51.599999999999994</ele><time>2026-04-16T14:22:52.084Z</time></trkpt><trkpt lat="44.126945" lon="12.0686917"><ele>51.0</ele><time>2026-04-16T14:22:54.084Z</time></trkpt><trkpt lat="44.12693" lon="12.0688567"><ele>51.0</ele><time>2026-04-16T14:22:56.084Z</time></trkpt><trkpt lat="44.126915" lon="12.069025"><ele>51.0</ele><time>2026-04-16T14:22:58.084Z</time></trkpt><trkpt lat="44.1269083" lon="12.06918"><ele>51.0</ele><time>2026-04-16T14:23:00.084Z</time></trkpt><trkpt lat="44.1269017" lon="12.0693367"><ele>51.0</ele><time>2026-04-16T14:23:02.084Z</time></trkpt><trkpt lat="44.1268917" lon="12.0695067"><ele>51.0</ele><time>2026-04-16T14:23:04.084Z</time></trkpt><trkpt lat="44.1268717" lon="12.0696783"><ele>51.0</ele><time>2026-04-16T14:23:06.084Z</time></trkpt><trkpt lat="44.1268617" lon="12.069775"><ele>51.0</ele><time>2026-04-16T14:23:07.084Z</time></trkpt><trkpt lat="44.1268533" lon="12.0698733"><ele>51.0</ele><time>2026-04-16T14:23:08.084Z</time></trkpt><trkpt lat="44.12684" lon="12.0700433"><ele>51.0</ele><time>2026-04-16T14:23:10.084Z</time></trkpt><trkpt lat="44.1268317" lon="12.0702017"><ele>51.0</ele><time>2026-04-16T14:23:12.084Z</time></trkpt><trkpt lat="44.1268167" lon="12.0703433"><ele>51.0</ele><time>2026-04-16T14:23:14.084Z</time></trkpt><trkpt lat="44.1267933" lon="12.07047"><ele>51.0</ele><time>2026-04-16T14:23:16.084Z</time></trkpt><trkpt lat="44.1267717" lon="12.07058"><ele>51.0</ele><time>2026-04-16T14:23:18.084Z</time></trkpt><trkpt lat="44.1267683" lon="12.0707133"><ele>51.0</ele><time>2026-04-16T14:23:20.084Z</time></trkpt><trkpt lat="44.12675" lon="12.0708683"><ele>51.0</ele><time>2026-04-16T14:23:22.084Z</time></trkpt><trkpt lat="44.1267267" lon="12.071005"><ele>51.0</ele><time>2026-04-16T14:23:24.084Z</time></trkpt><trkpt lat="44.1267183" lon="12.0711633"><ele>51.0</ele><time>2026-04-16T14:23:26.085Z</time></trkpt><trkpt lat="44.1267133" lon="12.071255"><ele>51.0</ele><time>2026-04-16T14:23:27.084Z</time></trkpt><trkpt lat="44.126715" lon="12.0714317"><ele>51.0</ele><time>2026-04-16T14:23:29.084Z</time></trkpt><trkpt lat="44.1267317" lon="12.0715183"><ele>50.599999999999994</ele><time>2026-04-16T14:23:30.084Z</time></trkpt><trkpt lat="44.1267733" lon="12.0716817"><ele>50.2</ele><time>2026-04-16T14:23:32.084Z</time></trkpt><trkpt lat="44.1268083" lon="12.0718117"><ele>49.8</ele><time>2026-04-16T14:23:34.084Z</time></trkpt><trkpt lat="44.1268767" lon="12.0718933"><ele>49.400000000000006</ele><time>2026-04-16T14:23:36.084Z</time></trkpt><trkpt lat="44.126945" lon="12.0719333"><ele>49.0</ele><time>2026-04-16T14:23:38.084Z</time></trkpt><trkpt lat="44.12702" lon="12.071975"><ele>49.0</ele><time>2026-04-16T14:23:40.084Z</time></trkpt><trkpt lat="44.1271" lon="12.0719733"><ele>49.0</ele><time>2026-04-16T14:23:43.084Z</time></trkpt><trkpt lat="44.12718" lon="12.0719067"><ele>49.0</ele><time>2026-04-16T14:23:45.084Z</time></trkpt><trkpt lat="44.1272783" lon="12.07186"><ele>49.0</ele><time>2026-04-16T14:23:47.084Z</time></trkpt><trkpt lat="44.1273417" lon="12.0718483"><ele>49.0</ele><time>2026-04-16T14:23:48.084Z</time></trkpt><trkpt lat="44.1270267" lon="12.0718083"><ele>49.0</ele><time>2026-04-16T14:23:53.642Z</time></trkpt><trkpt lat="44.12692" lon="12.071775"><ele>49.0</ele><time>2026-04-16T14:23:56.587Z</time></trkpt><trkpt lat="44.1278733" lon="12.0721133"><ele>49.0</ele><time>2026-04-16T14:23:58.087Z</time></trkpt><trkpt lat="44.1279317" lon="12.0721483"><ele>49.0</ele><time>2026-04-16T14:23:59.087Z</time></trkpt><trkpt lat="44.128045" lon="12.0722183"><ele>49.0</ele><time>2026-04-16T14:24:01.087Z</time></trkpt><trkpt lat="44.1281367" lon="12.072275"><ele>49.0</ele><time>2026-04-16T14:24:03.087Z</time></trkpt><trkpt lat="44.128235" lon="12.07234"><ele>49.0</ele><time>2026-04-16T14:24:05.087Z</time></trkpt><trkpt lat="44.128325" lon="12.0724117"><ele>49.0</ele><time>2026-04-16T14:24:07.087Z</time></trkpt><trkpt lat="44.128415" lon="12.0724867"><ele>49.0</ele><time>2026-04-16T14:24:09.087Z</time></trkpt><trkpt lat="44.1285" lon="12.0725033"><ele>49.0</ele><time>2026-04-16T14:24:11.087Z</time></trkpt><trkpt lat="44.128565" lon="12.07244"><ele>49.0</ele><time>2026-04-16T14:24:13.087Z</time></trkpt><trkpt lat="44.1286183" lon="12.0723217"><ele>49.0</ele><time>2026-04-16T14:24:15.087Z</time></trkpt><trkpt lat="44.1286633" lon="12.0721983"><ele>49.0</ele><time>2026-04-16T14:24:17.087Z</time></trkpt><trkpt lat="44.1287083" lon="12.072065"><ele>49.0</ele><time>2026-04-16T14:24:19.087Z</time></trkpt><trkpt lat="44.1287583" lon="12.0719417"><ele>49.0</ele><time>2026-04-16T14:24:21.087Z</time></trkpt><trkpt lat="44.1288217" lon="12.07184"><ele>49.0</ele><time>2026-04-16T14:24:23.087Z</time></trkpt><trkpt lat="44.1289033" lon="12.071735"><ele>49.0</ele><time>2026-04-16T14:24:25.087Z</time></trkpt><trkpt lat="44.12898" lon="12.0716333"><ele>48.2</ele><time>2026-04-16T14:24:27.087Z</time></trkpt><trkpt lat="44.1290633" lon="12.07154"><ele>47.400000000000006</ele><time>2026-04-16T14:24:29.087Z</time></trkpt><trkpt lat="44.1291483" lon="12.0714583"><ele>46.6</ele><time>2026-04-16T14:24:31.088Z</time></trkpt><trkpt lat="44.1292417" lon="12.0713733"><ele>45.8</ele><time>2026-04-16T14:24:33.087Z</time></trkpt><trkpt lat="44.1293383" lon="12.0712883"><ele>45.0</ele><time>2026-04-16T14:24:35.087Z</time></trkpt><trkpt lat="44.1294367" lon="12.0712033"><ele>45.0</ele><time>2026-04-16T14:24:37.087Z</time></trkpt><trkpt lat="44.1295417" lon="12.071125"><ele>45.0</ele><time>2026-04-16T14:24:39.087Z</time></trkpt><trkpt lat="44.1296467" lon="12.0710683"><ele>45.0</ele><time>2026-04-16T14:24:41.087Z</time></trkpt><trkpt lat="44.1297533" lon="12.0710367"><ele>45.0</ele><time>2026-04-16T14:24:43.087Z</time></trkpt><trkpt lat="44.1298467" lon="12.0710533"><ele>45.0</ele><time>2026-04-16T14:24:45.087Z</time></trkpt><trkpt lat="44.12992" lon="12.071115"><ele>45.166666666666664</ele><time>2026-04-16T14:24:47.087Z</time></trkpt><trkpt lat="44.1299867" lon="12.071195"><ele>45.333333333333336</ele><time>2026-04-16T14:24:49.087Z</time></trkpt><trkpt lat="44.1300383" lon="12.0712733"><ele>45.5</ele><time>2026-04-16T14:24:51.087Z</time></trkpt><trkpt lat="44.1300733" lon="12.071365"><ele>45.66666666666667</ele><time>2026-04-16T14:24:53.087Z</time></trkpt><trkpt lat="44.1301217" lon="12.0714567"><ele>45.833333333333336</ele><time>2026-04-16T14:24:55.087Z</time></trkpt><trkpt lat="44.1301733" lon="12.0715583"><ele>46.0</ele><time>2026-04-16T14:24:57.087Z</time></trkpt><trkpt lat="44.13022" lon="12.071655"><ele>46.16666666666667</ele><time>2026-04-16T14:24:59.087Z</time></trkpt><trkpt lat="44.1302667" lon="12.071755"><ele>46.333333333333336</ele><time>2026-04-16T14:25:01.087Z</time></trkpt><trkpt lat="44.1303083" lon="12.0718517"><ele>46.5</ele><time>2026-04-16T14:25:03.087Z</time></trkpt><trkpt lat="44.1303433" lon="12.0719417"><ele>46.666666666666664</ele><time>2026-04-16T14:25:05.087Z</time></trkpt><trkpt lat="44.1303717" lon="12.0720417"><ele>46.83333333333333</ele><time>2026-04-16T14:25:07.087Z</time></trkpt><trkpt lat="44.1304083" lon="12.0721333"><ele>47.0</ele><time>2026-04-16T14:25:09.087Z</time></trkpt><trkpt lat="44.13045" lon="12.072225"><ele>47.0</ele><time>2026-04-16T14:25:11.087Z</time></trkpt><trkpt lat="44.130495" lon="12.072315"><ele>47.0</ele><time>2026-04-16T14:25:13.088Z</time></trkpt><trkpt lat="44.1305317" lon="12.0724267"><ele>47.0</ele><time>2026-04-16T14:25:15.087Z</time></trkpt><trkpt lat="44.13057" lon="12.072515"><ele>47.0</ele><time>2026-04-16T14:25:17.087Z</time></trkpt><trkpt lat="44.1306233" lon="12.07261"><ele>47.0</ele><time>2026-04-16T14:25:19.087Z</time></trkpt><trkpt lat="44.1306633" lon="12.072695"><ele>47.0</ele><time>2026-04-16T14:25:21.088Z</time></trkpt><trkpt lat="44.1307" lon="12.0727767"><ele>47.666666666666664</ele><time>2026-04-16T14:25:23.087Z</time></trkpt><trkpt lat="44.13074" lon="12.0728617"><ele>48.33333333333333</ele><time>2026-04-16T14:25:25.087Z</time></trkpt><trkpt lat="44.130775" lon="12.0729467"><ele>49.0</ele><time>2026-04-16T14:25:27.087Z</time></trkpt><trkpt lat="44.1308133" lon="12.07303"><ele>49.666666666666664</ele><time>2026-04-16T14:25:29.087Z</time></trkpt><trkpt lat="44.1308533" lon="12.0731233"><ele>50.333333333333336</ele><time>2026-04-16T14:25:31.088Z</time></trkpt><trkpt lat="44.1308983" lon="12.0732167"><ele>51.0</ele><time>2026-04-16T14:25:33.087Z</time></trkpt><trkpt lat="44.1309467" lon="12.0733167"><ele>51.199999999999996</ele><time>2026-04-16T14:25:35.087Z</time></trkpt><trkpt lat="44.1310033" lon="12.073425"><ele>51.4</ele><time>2026-04-16T14:25:37.087Z</time></trkpt><trkpt lat="44.1310633" lon="12.073535"><ele>51.6</ele><time>2026-04-16T14:25:39.087Z</time></trkpt><trkpt lat="44.131125" lon="12.0736433"><ele>51.8</ele><time>2026-04-16T14:25:41.087Z</time></trkpt><trkpt lat="44.1311817" lon="12.073755"><ele>52.0</ele><time>2026-04-16T14:25:43.087Z</time></trkpt><trkpt lat="44.1312417" lon="12.073865"><ele>52.0</ele><time>2026-04-16T14:25:45.088Z</time></trkpt><trkpt lat="44.1313017" lon="12.0739767"><ele>52.0</ele><time>2026-04-16T14:25:47.087Z</time></trkpt><trkpt lat="44.1313717" lon="12.0740817"><ele>52.0</ele><time>2026-04-16T14:25:49.087Z</time></trkpt><trkpt lat="44.1314383" lon="12.0741917"><ele>52.0</ele><time>2026-04-16T14:25:51.087Z</time></trkpt><trkpt lat="44.131505" lon="12.0743133"><ele>52.0</ele><time>2026-04-16T14:25:53.088Z</time></trkpt><trkpt lat="44.131565" lon="12.0744467"><ele>52.33333333333333</ele><time>2026-04-16T14:25:55.087Z</time></trkpt><trkpt lat="44.1315883" lon="12.0745283"><ele>52.666666666666664</ele><time>2026-04-16T14:25:56.087Z</time></trkpt><trkpt lat="44.13164" lon="12.0746583"><ele>53.0</ele><time>2026-04-16T14:25:58.087Z</time></trkpt><trkpt lat="44.131685" lon="12.07479"><ele>53.33333333333333</ele><time>2026-04-16T14:26:00.087Z</time></trkpt><trkpt lat="44.1317117" lon="12.0748783"><ele>53.666666666666664</ele><time>2026-04-16T14:26:01.087Z</time></trkpt><trkpt lat="44.1317533" lon="12.0750017"><ele>54.0</ele><time>2026-04-16T14:26:03.087Z</time></trkpt><trkpt lat="44.1317933" lon="12.0751267"><ele>54.6</ele><time>2026-04-16T14:26:05.087Z</time></trkpt><trkpt lat="44.131835" lon="12.0752533"><ele>55.2</ele><time>2026-04-16T14:26:07.087Z</time></trkpt><trkpt lat="44.1318667" lon="12.075385"><ele>55.800000000000004</ele><time>2026-04-16T14:26:09.087Z</time></trkpt><trkpt lat="44.1319033" lon="12.075515"><ele>56.400000000000006</ele><time>2026-04-16T14:26:11.087Z</time></trkpt><trkpt lat="44.1319467" lon="12.0756467"><ele>57.0</ele><time>2026-04-16T14:26:13.087Z</time></trkpt><trkpt lat="44.1319867" lon="12.0757817"><ele>57.8</ele><time>2026-04-16T14:26:15.087Z</time></trkpt><trkpt lat="44.13203" lon="12.0759183"><ele>58.6</ele><time>2026-04-16T14:26:17.087Z</time></trkpt><trkpt lat="44.1320717" lon="12.0760467"><ele>59.39999999999999</ele><time>2026-04-16T14:26:19.087Z</time></trkpt><trkpt lat="44.1321117" lon="12.0761717"><ele>60.199999999999996</ele><time>2026-04-16T14:26:21.087Z</time></trkpt><trkpt lat="44.1321583" lon="12.0762933"><ele>61.0</ele><time>2026-04-16T14:26:23.087Z</time></trkpt><trkpt lat="44.132205" lon="12.0764167"><ele>61.0</ele><time>2026-04-16T14:26:25.087Z</time></trkpt><trkpt lat="44.132245" lon="12.0765467"><ele>60.99999999999999</ele><time>2026-04-16T14:26:27.087Z</time></trkpt><trkpt lat="44.132285" lon="12.0766767"><ele>60.99999999999999</ele><time>2026-04-16T14:26:29.087Z</time></trkpt><trkpt lat="44.13233" lon="12.0768117"><ele>61.0</ele><time>2026-04-16T14:26:31.087Z</time></trkpt><trkpt lat="44.1323717" lon="12.0769517"><ele>61.0</ele><time>2026-04-16T14:26:33.087Z</time></trkpt><trkpt lat="44.1324133" lon="12.0770883"><ele>60.4</ele><time>2026-04-16T14:26:35.087Z</time></trkpt><trkpt lat="44.1324483" lon="12.077225"><ele>59.8</ele><time>2026-04-16T14:26:37.087Z</time></trkpt><trkpt lat="44.1324833" lon="12.0773633"><ele>59.199999999999996</ele><time>2026-04-16T14:26:39.087Z</time></trkpt><trkpt lat="44.1325117" lon="12.0775133"><ele>58.599999999999994</ele><time>2026-04-16T14:26:41.087Z</time></trkpt><trkpt lat="44.1325467" lon="12.07766"><ele>58.0</ele><time>2026-04-16T14:26:43.087Z</time></trkpt><trkpt lat="44.1325767" lon="12.0778"><ele>58.0</ele><time>2026-04-16T14:26:45.088Z</time></trkpt><trkpt lat="44.1326133" lon="12.0779317"><ele>58.0</ele><time>2026-04-16T14:26:47.087Z</time></trkpt><trkpt lat="44.132655" lon="12.078055"><ele>58.0</ele><time>2026-04-16T14:26:49.087Z</time></trkpt><trkpt lat="44.1327067" lon="12.0781833"><ele>58.0</ele><time>2026-04-16T14:26:51.087Z</time></trkpt><trkpt lat="44.1327517" lon="12.078325"><ele>58.0</ele><time>2026-04-16T14:26:53.087Z</time></trkpt><trkpt lat="44.13279" lon="12.0784733"><ele>58.25</ele><time>2026-04-16T14:26:55.087Z</time></trkpt><trkpt lat="44.1328267" lon="12.0786233"><ele>58.5</ele><time>2026-04-16T14:26:57.087Z</time></trkpt><trkpt lat="44.1328683" lon="12.0787667"><ele>58.75</ele><time>2026-04-16T14:26:59.087Z</time></trkpt><trkpt lat="44.1329133" lon="12.0789117"><ele>59.0</ele><time>2026-04-16T14:27:01.087Z</time></trkpt><trkpt lat="44.1329533" lon="12.0790667"><ele>59.0</ele><time>2026-04-16T14:27:03.087Z</time></trkpt><trkpt lat="44.132985" lon="12.0792067"><ele>59.00000000000001</ele><time>2026-04-16T14:27:05.087Z</time></trkpt><trkpt lat="44.1330233" lon="12.0793333"><ele>59.00000000000001</ele><time>2026-04-16T14:27:07.087Z</time></trkpt><trkpt lat="44.1330633" lon="12.0794583"><ele>59.0</ele><time>2026-04-16T14:27:09.087Z</time></trkpt><trkpt lat="44.13311" lon="12.0796"><ele>59.0</ele><time>2026-04-16T14:27:11.087Z</time></trkpt><trkpt lat="44.1331333" lon="12.0796833"><ele>59.0</ele><time>2026-04-16T14:27:12.088Z</time></trkpt><trkpt lat="44.1331567" lon="12.0797717"><ele>59.0</ele><time>2026-04-16T14:27:13.087Z</time></trkpt><trkpt lat="44.133185" lon="12.0798617"><ele>59.0</ele><time>2026-04-16T14:27:14.087Z</time></trkpt><trkpt lat="44.13321" lon="12.07995"><ele>59.0</ele><time>2026-04-16T14:27:15.087Z</time></trkpt><trkpt lat="44.1332383" lon="12.0800433"><ele>59.0</ele><time>2026-04-16T14:27:16.087Z</time></trkpt><trkpt lat="44.13327" lon="12.080135"><ele>59.0</ele><time>2026-04-16T14:27:17.087Z</time></trkpt><trkpt lat="44.133305" lon="12.0802233"><ele>59.0</ele><time>2026-04-16T14:27:18.087Z</time></trkpt><trkpt lat="44.133335" lon="12.080315"><ele>59.0</ele><time>2026-04-16T14:27:19.088Z</time></trkpt><trkpt lat="44.13338" lon="12.080475"><ele>59.00000000000001</ele><time>2026-04-16T14:27:21.087Z</time></trkpt><trkpt lat="44.1334183" lon="12.0806183"><ele>59.00000000000001</ele><time>2026-04-16T14:27:23.087Z</time></trkpt><trkpt lat="44.1334567" lon="12.0807517"><ele>59.0</ele><time>2026-04-16T14:27:25.087Z</time></trkpt><trkpt lat="44.1334933" lon="12.0808517"><ele>59.0</ele><time>2026-04-16T14:27:27.087Z</time></trkpt><trkpt lat="44.13353" lon="12.080965"><ele>59.00000000000001</ele><time>2026-04-16T14:27:30.088Z</time></trkpt><trkpt lat="44.1335617" lon="12.0810683"><ele>59.0</ele><time>2026-04-16T14:27:33.087Z</time></trkpt><trkpt lat="44.1335717" lon="12.08117"><ele>59.0</ele><time>2026-04-16T14:27:36.087Z</time></trkpt><trkpt lat="44.1335983" lon="12.08126"><ele>59.0</ele><time>2026-04-16T14:27:39.087Z</time></trkpt><trkpt lat="44.1336" lon="12.0813567"><ele>59.00000000000001</ele><time>2026-04-16T14:27:43.087Z</time></trkpt><trkpt lat="44.133635" lon="12.0814667"><ele>59.0</ele><time>2026-04-16T14:27:46.087Z</time></trkpt><trkpt lat="44.133685" lon="12.0815433"><ele>59.400000000000006</ele><time>2026-04-16T14:27:48.087Z</time></trkpt><trkpt lat="44.13373" lon="12.0816467"><ele>59.800000000000004</ele><time>2026-04-16T14:27:50.087Z</time></trkpt><trkpt lat="44.1337783" lon="12.08178"><ele>60.199999999999996</ele><time>2026-04-16T14:27:52.087Z</time></trkpt><trkpt lat="44.1338233" lon="12.0819233"><ele>60.599999999999994</ele><time>2026-04-16T14:27:54.087Z</time></trkpt><trkpt lat="44.133865" lon="12.0820683"><ele>61.0</ele><time>2026-04-16T14:27:56.087Z</time></trkpt><trkpt lat="44.1339083" lon="12.08222"><ele>61.0</ele><time>2026-04-16T14:27:58.087Z</time></trkpt><trkpt lat="44.1339483" lon="12.0823633"><ele>60.99999999999999</ele><time>2026-04-16T14:28:00.087Z</time></trkpt><trkpt lat="44.133975" lon="12.0825017"><ele>60.99999999999999</ele><time>2026-04-16T14:28:02.087Z</time></trkpt><trkpt lat="44.1339983" lon="12.082635"><ele>61.0</ele><time>2026-04-16T14:28:04.087Z</time></trkpt><trkpt lat="44.1340367" lon="12.08277"><ele>61.0</ele><time>2026-04-16T14:28:06.087Z</time></trkpt><trkpt lat="44.13408" lon="12.0829017"><ele>60.8</ele><time>2026-04-16T14:28:08.087Z</time></trkpt><trkpt lat="44.1341117" lon="12.0830383"><ele>60.599999999999994</ele><time>2026-04-16T14:28:10.087Z</time></trkpt><trkpt lat="44.13415" lon="12.0831633"><ele>60.4</ele><time>2026-04-16T14:28:12.087Z</time></trkpt><trkpt lat="44.13419" lon="12.083295"><ele>60.2</ele><time>2026-04-16T14:28:14.087Z</time></trkpt><trkpt lat="44.1342283" lon="12.083415"><ele>60.0</ele><time>2026-04-16T14:28:16.087Z</time></trkpt><trkpt lat="44.13427" lon="12.0835367"><ele>60.4</ele><time>2026-04-16T14:28:18.087Z</time></trkpt><trkpt lat="44.1343067" lon="12.0836583"><ele>60.8</ele><time>2026-04-16T14:28:20.087Z</time></trkpt><trkpt lat="44.1343483" lon="12.08378"><ele>61.2</ele><time>2026-04-16T14:28:22.087Z</time></trkpt><trkpt lat="44.1343983" lon="12.0838783"><ele>61.6</ele><time>2026-04-16T14:28:24.088Z</time></trkpt><trkpt lat="44.1344483" lon="12.0839667"><ele>62.0</ele><time>2026-04-16T14:28:26.087Z</time></trkpt><trkpt lat="44.1345117" lon="12.0840717"><ele>62.8</ele><time>2026-04-16T14:28:29.088Z</time></trkpt><trkpt lat="44.1345867" lon="12.0842017"><ele>63.6</ele><time>2026-04-16T14:28:31.087Z</time></trkpt><trkpt lat="44.1346717" lon="12.0843467"><ele>64.39999999999999</ele><time>2026-04-16T14:28:33.087Z</time></trkpt><trkpt lat="44.1347167" lon="12.0844217"><ele>65.2</ele><time>2026-04-16T14:28:34.087Z</time></trkpt><trkpt lat="44.1347633" lon="12.0844983"><ele>66.0</ele><time>2026-04-16T14:28:35.087Z</time></trkpt><trkpt lat="44.1348167" lon="12.0845783"><ele>66.0</ele><time>2026-04-16T14:28:36.087Z</time></trkpt><trkpt lat="44.1348683" lon="12.0846533"><ele>66.0</ele><time>2026-04-16T14:28:37.087Z</time></trkpt><trkpt lat="44.1349217" lon="12.0847317"><ele>66.0</ele><time>2026-04-16T14:28:38.087Z</time></trkpt><trkpt lat="44.1349733" lon="12.0848"><ele>66.0</ele><time>2026-04-16T14:28:39.087Z</time></trkpt><trkpt lat="44.1350233" lon="12.0848683"><ele>66.0</ele><time>2026-04-16T14:28:40.087Z</time></trkpt><trkpt lat="44.1350717" lon="12.0849333"><ele>66.0</ele><time>2026-04-16T14:28:41.087Z</time></trkpt><trkpt lat="44.1351183" lon="12.0849933"><ele>66.0</ele><time>2026-04-16T14:28:42.087Z</time></trkpt><trkpt lat="44.13517" lon="12.0850567"><ele>65.5</ele><time>2026-04-16T14:28:43.087Z</time></trkpt><trkpt lat="44.1352167" lon="12.0851183"><ele>65.0</ele><time>2026-04-16T14:28:44.087Z</time></trkpt><trkpt lat="44.1352667" lon="12.0851783"><ele>64.5</ele><time>2026-04-16T14:28:45.087Z</time></trkpt><trkpt lat="44.1353167" lon="12.0852367"><ele>64.0</ele><time>2026-04-16T14:28:46.087Z</time></trkpt><trkpt lat="44.135405" lon="12.0853383"><ele>63.5</ele><time>2026-04-16T14:28:48.088Z</time></trkpt><trkpt lat="44.1355" lon="12.085435"><ele>63.0</ele><time>2026-04-16T14:28:50.087Z</time></trkpt><trkpt lat="44.1355983" lon="12.0855367"><ele>63.0</ele><time>2026-04-16T14:28:52.087Z</time></trkpt><trkpt lat="44.1356517" lon="12.0855883"><ele>63.0</ele><time>2026-04-16T14:28:53.087Z</time></trkpt><trkpt lat="44.1357433" lon="12.0856917"><ele>63.0</ele><time>2026-04-16T14:28:55.087Z</time></trkpt><trkpt lat="44.1358367" lon="12.0857817"><ele>63.0</ele><time>2026-04-16T14:28:57.087Z</time></trkpt><trkpt lat="44.135935" lon="12.0858767"><ele>63.0</ele><time>2026-04-16T14:28:59.087Z</time></trkpt><trkpt lat="44.1360283" lon="12.08598"><ele>62.75</ele><time>2026-04-16T14:29:01.087Z</time></trkpt><trkpt lat="44.13612" lon="12.0860833"><ele>62.5</ele><time>2026-04-16T14:29:03.087Z</time></trkpt><trkpt lat="44.1362133" lon="12.086175"><ele>62.25</ele><time>2026-04-16T14:29:05.087Z</time></trkpt><trkpt lat="44.1363017" lon="12.0862633"><ele>62.0</ele><time>2026-04-16T14:29:07.087Z</time></trkpt><trkpt lat="44.13639" lon="12.086355"><ele>62.0</ele><time>2026-04-16T14:29:09.087Z</time></trkpt><trkpt lat="44.1364783" lon="12.08646"><ele>62.0</ele><time>2026-04-16T14:29:11.087Z</time></trkpt><trkpt lat="44.1365683" lon="12.0865633"><ele>62.0</ele><time>2026-04-16T14:29:13.087Z</time></trkpt><trkpt lat="44.1366617" lon="12.0866583"><ele>62.0</ele><time>2026-04-16T14:29:15.087Z</time></trkpt><trkpt lat="44.13675" lon="12.0867617"><ele>62.0</ele><time>2026-04-16T14:29:17.087Z</time></trkpt><trkpt lat="44.1367983" lon="12.0868217"><ele>62.0</ele><time>2026-04-16T14:29:18.087Z</time></trkpt><trkpt lat="44.1368867" lon="12.0869267"><ele>62.0</ele><time>2026-04-16T14:29:20.087Z</time></trkpt><trkpt lat="44.136975" lon="12.0870383"><ele>62.0</ele><time>2026-04-16T14:29:22.087Z</time></trkpt><trkpt lat="44.1370233" lon="12.0871017"><ele>62.0</ele><time>2026-04-16T14:29:23.087Z</time></trkpt><trkpt lat="44.1371183" lon="12.0872033"><ele>62.0</ele><time>2026-04-16T14:29:25.087Z</time></trkpt><trkpt lat="44.137215" lon="12.08729"><ele>62.0</ele><time>2026-04-16T14:29:27.087Z</time></trkpt><trkpt lat="44.1373117" lon="12.0873833"><ele>62.0</ele><time>2026-04-16T14:29:29.087Z</time></trkpt><trkpt lat="44.1374067" lon="12.0874733"><ele>62.0</ele><time>2026-04-16T14:29:31.087Z</time></trkpt><trkpt lat="44.1375083" lon="12.087555"><ele>62.0</ele><time>2026-04-16T14:29:33.087Z</time></trkpt><trkpt lat="44.1376" lon="12.087645"><ele>62.0</ele><time>2026-04-16T14:29:35.087Z</time></trkpt><trkpt lat="44.1376833" lon="12.0877467"><ele>62.0</ele><time>2026-04-16T14:29:37.087Z</time></trkpt><trkpt lat="44.13777" lon="12.08785"><ele>62.0</ele><time>2026-04-16T14:29:39.087Z</time></trkpt><trkpt lat="44.1378583" lon="12.0879417"><ele>62.0</ele><time>2026-04-16T14:29:41.087Z</time></trkpt><trkpt lat="44.1379467" lon="12.0880233"><ele>62.0</ele><time>2026-04-16T14:29:43.088Z</time></trkpt><trkpt lat="44.13803" lon="12.088095"><ele>62.0</ele><time>2026-04-16T14:29:45.088Z</time></trkpt><trkpt lat="44.1381167" lon="12.0881767"><ele>62.0</ele><time>2026-04-16T14:29:47.087Z</time></trkpt><trkpt lat="44.1382083" lon="12.08826"><ele>62.0</ele><time>2026-04-16T14:29:49.087Z</time></trkpt><trkpt lat="44.1383017" lon="12.088355"><ele>62.0</ele><time>2026-04-16T14:29:51.087Z</time></trkpt><trkpt lat="44.1383933" lon="12.0884633"><ele>61.5</ele><time>2026-04-16T14:29:53.087Z</time></trkpt><trkpt lat="44.1384833" lon="12.08856"><ele>61.0</ele><time>2026-04-16T14:29:55.087Z</time></trkpt><trkpt lat="44.138575" lon="12.0886583"><ele>60.5</ele><time>2026-04-16T14:29:57.087Z</time></trkpt><trkpt lat="44.1386717" lon="12.08875"><ele>60.0</ele><time>2026-04-16T14:29:59.087Z</time></trkpt><trkpt lat="44.138755" lon="12.0888383"><ele>60.0</ele><time>2026-04-16T14:30:01.087Z</time></trkpt><trkpt lat="44.138845" lon="12.0889317"><ele>60.0</ele><time>2026-04-16T14:30:03.087Z</time></trkpt><trkpt lat="44.1389333" lon="12.0890333"><ele>60.0</ele><time>2026-04-16T14:30:05.087Z</time></trkpt><trkpt lat="44.13902" lon="12.0891317"><ele>60.0</ele><time>2026-04-16T14:30:07.088Z</time></trkpt><trkpt lat="44.139105" lon="12.0892367"><ele>60.0</ele><time>2026-04-16T14:30:09.087Z</time></trkpt><trkpt lat="44.13919" lon="12.0893417"><ele>60.0</ele><time>2026-04-16T14:30:11.087Z</time></trkpt><trkpt lat="44.1392833" lon="12.0894433"><ele>60.0</ele><time>2026-04-16T14:30:13.087Z</time></trkpt><trkpt lat="44.13937" lon="12.0895433"><ele>60.0</ele><time>2026-04-16T14:30:15.087Z</time></trkpt><trkpt lat="44.139455" lon="12.089645"><ele>60.0</ele><time>2026-04-16T14:30:17.087Z</time></trkpt><trkpt lat="44.1395283" lon="12.0897383"><ele>60.0</ele><time>2026-04-16T14:30:19.087Z</time></trkpt><trkpt lat="44.1396033" lon="12.089845"><ele>60.0</ele><time>2026-04-16T14:30:21.087Z</time></trkpt><trkpt lat="44.1396783" lon="12.0899533"><ele>60.0</ele><time>2026-04-16T14:30:23.088Z</time></trkpt><trkpt lat="44.1397467" lon="12.090065"><ele>60.0</ele><time>2026-04-16T14:30:25.087Z</time></trkpt><trkpt lat="44.1398167" lon="12.09018"><ele>61.0</ele><time>2026-04-16T14:30:27.087Z</time></trkpt><trkpt lat="44.139885" lon="12.0903083"><ele>62.0</ele><time>2026-04-16T14:30:29.087Z</time></trkpt><trkpt lat="44.1399467" lon="12.090425"><ele>63.0</ele><time>2026-04-16T14:30:31.087Z</time></trkpt><trkpt lat="44.14" lon="12.09055"><ele>64.0</ele><time>2026-04-16T14:30:33.087Z</time></trkpt><trkpt lat="44.1400417" lon="12.0906883"><ele>65.0</ele><time>2026-04-16T14:30:35.088Z</time></trkpt><trkpt lat="44.1400933" lon="12.0908183"><ele>65.4</ele><time>2026-04-16T14:30:37.087Z</time></trkpt><trkpt lat="44.140145" lon="12.0909367"><ele>65.8</ele><time>2026-04-16T14:30:39.087Z</time></trkpt><trkpt lat="44.140195" lon="12.0910783"><ele>66.2</ele><time>2026-04-16T14:30:41.087Z</time></trkpt><trkpt lat="44.1402433" lon="12.0912"><ele>66.6</ele><time>2026-04-16T14:30:43.087Z</time></trkpt><trkpt lat="44.1402833" lon="12.091325"><ele>67.0</ele><time>2026-04-16T14:30:45.087Z</time></trkpt><trkpt lat="44.1403333" lon="12.09145"><ele>67.0</ele><time>2026-04-16T14:30:47.087Z</time></trkpt><trkpt lat="44.1403783" lon="12.09157"><ele>67.0</ele><time>2026-04-16T14:30:49.087Z</time></trkpt><trkpt lat="44.1404367" lon="12.0917083"><ele>67.0</ele><time>2026-04-16T14:30:51.087Z</time></trkpt><trkpt lat="44.1405" lon="12.0918683"><ele>67.0</ele><time>2026-04-16T14:30:53.087Z</time></trkpt><trkpt lat="44.1405383" lon="12.091945"><ele>67.0</ele><time>2026-04-16T14:30:54.087Z</time></trkpt><trkpt lat="44.1405683" lon="12.0920367"><ele>67.0</ele><time>2026-04-16T14:30:55.087Z</time></trkpt><trkpt lat="44.140605" lon="12.0921217"><ele>67.0</ele><time>2026-04-16T14:30:56.087Z</time></trkpt><trkpt lat="44.1406383" lon="12.0922083"><ele>67.0</ele><time>2026-04-16T14:30:57.087Z</time></trkpt><trkpt lat="44.1406733" lon="12.09229"><ele>67.0</ele><time>2026-04-16T14:30:58.087Z</time></trkpt><trkpt lat="44.140705" lon="12.0923733"><ele>67.0</ele><time>2026-04-16T14:30:59.087Z</time></trkpt><trkpt lat="44.1407533" lon="12.0924617"><ele>67.0</ele><time>2026-04-16T14:31:00.087Z</time></trkpt><trkpt lat="44.14079" lon="12.0925383"><ele>67.0</ele><time>2026-04-16T14:31:01.088Z</time></trkpt><trkpt lat="44.140825" lon="12.0926217"><ele>66.57142857142857</ele><time>2026-04-16T14:31:02.087Z</time></trkpt><trkpt lat="44.1408567" lon="12.0927033"><ele>66.14285714285714</ele><time>2026-04-16T14:31:03.087Z</time></trkpt><trkpt lat="44.1408883" lon="12.0927867"><ele>65.71428571428571</ele><time>2026-04-16T14:31:04.087Z</time></trkpt><trkpt lat="44.140925" lon="12.0928767"><ele>65.28571428571428</ele><time>2026-04-16T14:31:05.087Z</time></trkpt><trkpt lat="44.1409617" lon="12.09296"><ele>64.85714285714285</ele><time>2026-04-16T14:31:06.087Z</time></trkpt><trkpt lat="44.1409983" lon="12.0930467"><ele>64.42857142857143</ele><time>2026-04-16T14:31:07.087Z</time></trkpt><trkpt lat="44.1410333" lon="12.0931383"><ele>64.0</ele><time>2026-04-16T14:31:08.087Z</time></trkpt><trkpt lat="44.1410617" lon="12.0932233"><ele>64.28571428571428</ele><time>2026-04-16T14:31:09.087Z</time></trkpt><trkpt lat="44.1410933" lon="12.0933067"><ele>64.57142857142857</ele><time>2026-04-16T14:31:10.087Z</time></trkpt><trkpt lat="44.1411267" lon="12.09339"><ele>64.85714285714286</ele><time>2026-04-16T14:31:11.087Z</time></trkpt><trkpt lat="44.1411617" lon="12.0934733"><ele>65.14285714285714</ele><time>2026-04-16T14:31:12.087Z</time></trkpt><trkpt lat="44.1411983" lon="12.09356"><ele>65.42857142857143</ele><time>2026-04-16T14:31:13.088Z</time></trkpt><trkpt lat="44.1412267" lon="12.0936517"><ele>65.71428571428571</ele><time>2026-04-16T14:31:14.087Z</time></trkpt><trkpt lat="44.14126" lon="12.0937433"><ele>66.0</ele><time>2026-04-16T14:31:15.087Z</time></trkpt><trkpt lat="44.141295" lon="12.09383"><ele>66.0</ele><time>2026-04-16T14:31:16.088Z</time></trkpt><trkpt lat="44.1413317" lon="12.0939167"><ele>66.0</ele><time>2026-04-16T14:31:17.087Z</time></trkpt><trkpt lat="44.1413683" lon="12.094005"><ele>66.0</ele><time>2026-04-16T14:31:18.087Z</time></trkpt><trkpt lat="44.1414067" lon="12.094095"><ele>66.0</ele><time>2026-04-16T14:31:19.087Z</time></trkpt><trkpt lat="44.1414467" lon="12.0941817"><ele>66.0</ele><time>2026-04-16T14:31:20.087Z</time></trkpt><trkpt lat="44.141485" lon="12.09427"><ele>66.0</ele><time>2026-04-16T14:31:21.087Z</time></trkpt><trkpt lat="44.1415183" lon="12.0943667"><ele>66.0</ele><time>2026-04-16T14:31:22.087Z</time></trkpt><trkpt lat="44.1415483" lon="12.094465"><ele>65.0</ele><time>2026-04-16T14:31:23.087Z</time></trkpt><trkpt lat="44.1415817" lon="12.0945467"><ele>64.0</ele><time>2026-04-16T14:31:24.088Z</time></trkpt><trkpt lat="44.141615" lon="12.0946417"><ele>63.0</ele><time>2026-04-16T14:31:25.087Z</time></trkpt><trkpt lat="44.1416567" lon="12.094735"><ele>62.0</ele><time>2026-04-16T14:31:26.087Z</time></trkpt><trkpt lat="44.1416933" lon="12.0948317"><ele>61.0</ele><time>2026-04-16T14:31:27.087Z</time></trkpt><trkpt lat="44.1417367" lon="12.0949283"><ele>60.0</ele><time>2026-04-16T14:31:28.087Z</time></trkpt><trkpt lat="44.1417767" lon="12.0950083"><ele>60.0</ele><time>2026-04-16T14:31:29.087Z</time></trkpt><trkpt lat="44.141815" lon="12.095095"><ele>60.0</ele><time>2026-04-16T14:31:30.087Z</time></trkpt><trkpt lat="44.1418517" lon="12.0951883"><ele>60.0</ele><time>2026-04-16T14:31:31.087Z</time></trkpt><trkpt lat="44.1418933" lon="12.0952733"><ele>60.0</ele><time>2026-04-16T14:31:32.087Z</time></trkpt><trkpt lat="44.1419367" lon="12.0953633"><ele>60.0</ele><time>2026-04-16T14:31:33.087Z</time></trkpt><trkpt lat="44.1419733" lon="12.0954517"><ele>60.0</ele><time>2026-04-16T14:31:34.087Z</time></trkpt><trkpt lat="44.1420133" lon="12.095565"><ele>60.0</ele><time>2026-04-16T14:31:35.087Z</time></trkpt><trkpt lat="44.14205" lon="12.0956767"><ele>60.0</ele><time>2026-04-16T14:31:36.087Z</time></trkpt><trkpt lat="44.142095" lon="12.09577"><ele>60.0</ele><time>2026-04-16T14:31:37.087Z</time></trkpt><trkpt lat="44.1421433" lon="12.0958633"><ele>60.0</ele><time>2026-04-16T14:31:38.087Z</time></trkpt><trkpt lat="44.142195" lon="12.0959567"><ele>60.0</ele><time>2026-04-16T14:31:39.087Z</time></trkpt><trkpt lat="44.1422467" lon="12.0960533"><ele>60.0</ele><time>2026-04-16T14:31:40.087Z</time></trkpt><trkpt lat="44.1422967" lon="12.0961533"><ele>60.0</ele><time>2026-04-16T14:31:41.087Z</time></trkpt><trkpt lat="44.1423433" lon="12.0962533"><ele>60.0</ele><time>2026-04-16T14:31:42.087Z</time></trkpt><trkpt lat="44.1423817" lon="12.0963483"><ele>60.0</ele><time>2026-04-16T14:31:43.087Z</time></trkpt><trkpt lat="44.1424217" lon="12.0964483"><ele>60.0</ele><time>2026-04-16T14:31:44.087Z</time></trkpt><trkpt lat="44.1424633" lon="12.0965483"><ele>60.0</ele><time>2026-04-16T14:31:45.087Z</time></trkpt><trkpt lat="44.1425083" lon="12.09665"><ele>60.0</ele><time>2026-04-16T14:31:46.087Z</time></trkpt><trkpt lat="44.142545" lon="12.09675"><ele>59.285714285714285</ele><time>2026-04-16T14:31:47.087Z</time></trkpt><trkpt lat="44.14258" lon="12.0968433"><ele>58.57142857142857</ele><time>2026-04-16T14:31:48.087Z</time></trkpt><trkpt lat="44.1426167" lon="12.096935"><ele>57.857142857142854</ele><time>2026-04-16T14:31:49.087Z</time></trkpt><trkpt lat="44.14265" lon="12.0970233"><ele>57.14285714285714</ele><time>2026-04-16T14:31:50.087Z</time></trkpt><trkpt lat="44.142685" lon="12.0971117"><ele>56.42857142857143</ele><time>2026-04-16T14:31:51.087Z</time></trkpt><trkpt lat="44.1427133" lon="12.0972"><ele>55.71428571428571</ele><time>2026-04-16T14:31:52.087Z</time></trkpt><trkpt lat="44.1427467" lon="12.0972917"><ele>55.0</ele><time>2026-04-16T14:31:53.087Z</time></trkpt><trkpt lat="44.1427717" lon="12.0973833"><ele>55.6</ele><time>2026-04-16T14:31:54.087Z</time></trkpt><trkpt lat="44.1427667" lon="12.0975533"><ele>56.2</ele><time>2026-04-16T14:31:56.087Z</time></trkpt><trkpt lat="44.1427233" lon="12.097705"><ele>56.8</ele><time>2026-04-16T14:31:58.087Z</time></trkpt><trkpt lat="44.1426717" lon="12.0978133"><ele>57.4</ele><time>2026-04-16T14:32:00.087Z</time></trkpt><trkpt lat="44.1426367" lon="12.097925"><ele>58.0</ele><time>2026-04-16T14:32:02.087Z</time></trkpt><trkpt lat="44.1425933" lon="12.09803"><ele>57.99999999999999</ele><time>2026-04-16T14:32:04.087Z</time></trkpt><trkpt lat="44.1425617" lon="12.0981283"><ele>58.0</ele><time>2026-04-16T14:32:06.087Z</time></trkpt><trkpt lat="44.14254" lon="12.0982333"><ele>58.0</ele><time>2026-04-16T14:32:08.087Z</time></trkpt><trkpt lat="44.1425217" lon="12.0983367"><ele>58.0</ele><time>2026-04-16T14:32:10.087Z</time></trkpt><trkpt lat="44.1425167" lon="12.0984567"><ele>57.99999999999999</ele><time>2026-04-16T14:32:12.087Z</time></trkpt><trkpt lat="44.1424917" lon="12.0985717"><ele>58.0</ele><time>2026-04-16T14:32:14.087Z</time></trkpt><trkpt lat="44.1424583" lon="12.0987067"><ele>58.0</ele><time>2026-04-16T14:32:16.087Z</time></trkpt><trkpt lat="44.1424167" lon="12.0988717"><ele>58.0</ele><time>2026-04-16T14:32:18.087Z</time></trkpt><trkpt lat="44.1423917" lon="12.0989767"><ele>58.0</ele><time>2026-04-16T14:32:19.087Z</time></trkpt><trkpt lat="44.1423667" lon="12.0990917"><ele>58.0</ele><time>2026-04-16T14:32:20.087Z</time></trkpt><trkpt lat="44.1423533" lon="12.0992267"><ele>58.0</ele><time>2026-04-16T14:32:21.088Z</time></trkpt><trkpt lat="44.1423517" lon="12.0993717"><ele>56.75</ele><time>2026-04-16T14:32:22.087Z</time></trkpt><trkpt lat="44.142365" lon="12.099525"><ele>55.5</ele><time>2026-04-16T14:32:23.087Z</time></trkpt><trkpt lat="44.14239" lon="12.0996817"><ele>54.25</ele><time>2026-04-16T14:32:24.087Z</time></trkpt><trkpt lat="44.1424283" lon="12.0998367"><ele>53.0</ele><time>2026-04-16T14:32:25.087Z</time></trkpt><trkpt lat="44.14246" lon="12.099995"><ele>52.4</ele><time>2026-04-16T14:32:26.087Z</time></trkpt><trkpt lat="44.1425" lon="12.1001517"><ele>51.8</ele><time>2026-04-16T14:32:27.087Z</time></trkpt><trkpt lat="44.1425333" lon="12.1003017"><ele>51.2</ele><time>2026-04-16T14:32:28.087Z</time></trkpt><trkpt lat="44.1425617" lon="12.1004433"><ele>50.6</ele><time>2026-04-16T14:32:29.087Z</time></trkpt><trkpt lat="44.142585" lon="12.1005867"><ele>50.0</ele><time>2026-04-16T14:32:30.087Z</time></trkpt><trkpt lat="44.1426067" lon="12.1007"><ele>50.00000000000001</ele><time>2026-04-16T14:32:31.087Z</time></trkpt><trkpt lat="44.14262" lon="12.1007917"><ele>50.0</ele><time>2026-04-16T14:32:32.087Z</time></trkpt><trkpt lat="44.1426117" lon="12.1009033"><ele>50.0</ele><time>2026-04-16T14:32:34.087Z</time></trkpt><trkpt lat="44.14258" lon="12.101055"><ele>50.0</ele><time>2026-04-16T14:32:50.087Z</time></trkpt><trkpt lat="44.14255" lon="12.1011417"><ele>50.00000000000001</ele><time>2026-04-16T14:32:55.087Z</time></trkpt><trkpt lat="44.1425217" lon="12.1012467"><ele>50.0</ele><time>2026-04-16T14:32:58.087Z</time></trkpt><trkpt lat="44.1425067" lon="12.10135"><ele>50.00000000000001</ele><time>2026-04-16T14:33:01.087Z</time></trkpt><trkpt lat="44.1424817" lon="12.1014433"><ele>50.0</ele><time>2026-04-16T14:33:04.087Z</time></trkpt><trkpt lat="44.14246" lon="12.1015483"><ele>50.0</ele><time>2026-04-16T14:33:07.087Z</time></trkpt><trkpt lat="44.142425" lon="12.101645"><ele>50.0</ele><time>2026-04-16T14:33:10.087Z</time></trkpt><trkpt lat="44.1423917" lon="12.1017367"><ele>50.00000000000001</ele><time>2026-04-16T14:33:13.087Z</time></trkpt><trkpt lat="44.142355" lon="12.1018183"><ele>50.0</ele><time>2026-04-16T14:33:16.087Z</time></trkpt><trkpt lat="44.142315" lon="12.1019167"><ele>50.833333333333336</ele><time>2026-04-16T14:33:19.087Z</time></trkpt><trkpt lat="44.1423033" lon="12.1020117"><ele>51.66666666666667</ele><time>2026-04-16T14:33:21.087Z</time></trkpt><trkpt lat="44.1423" lon="12.1021067"><ele>52.5</ele><time>2026-04-16T14:33:23.087Z</time></trkpt><trkpt lat="44.1423033" lon="12.102215"><ele>53.33333333333333</ele><time>2026-04-16T14:33:27.087Z</time></trkpt><trkpt lat="44.1423817" lon="12.10227"><ele>54.166666666666664</ele><time>2026-04-16T14:33:30.087Z</time></trkpt><trkpt lat="44.14245" lon="12.10234"><ele>55.0</ele><time>2026-04-16T14:33:32.088Z</time></trkpt><trkpt lat="44.14252" lon="12.102405"><ele>56.166666666666664</ele><time>2026-04-16T14:33:34.087Z</time></trkpt><trkpt lat="44.1426" lon="12.10244"><ele>57.33333333333333</ele><time>2026-04-16T14:33:36.087Z</time></trkpt><trkpt lat="44.14268" lon="12.1024833"><ele>58.5</ele><time>2026-04-16T14:33:38.087Z</time></trkpt><trkpt lat="44.1427633" lon="12.102545"><ele>59.66666666666667</ele><time>2026-04-16T14:33:40.087Z</time></trkpt><trkpt lat="44.142835" lon="12.1026083"><ele>60.833333333333336</ele><time>2026-04-16T14:33:42.087Z</time></trkpt><trkpt lat="44.14291" lon="12.1026633"><ele>62.0</ele><time>2026-04-16T14:33:44.087Z</time></trkpt><trkpt lat="44.1429917" lon="12.1027117"><ele>62.0</ele><time>2026-04-16T14:33:46.087Z</time></trkpt><trkpt lat="44.1430833" lon="12.1027617"><ele>62.0</ele><time>2026-04-16T14:33:48.087Z</time></trkpt><trkpt lat="44.1431733" lon="12.1028117"><ele>62.0</ele><time>2026-04-16T14:33:50.087Z</time></trkpt><trkpt lat="44.143265" lon="12.1028517"><ele>62.0</ele><time>2026-04-16T14:33:52.087Z</time></trkpt><trkpt lat="44.1433567" lon="12.1028967"><ele>62.0</ele><time>2026-04-16T14:33:54.087Z</time></trkpt><trkpt lat="44.1434483" lon="12.102955"><ele>60.8</ele><time>2026-04-16T14:33:56.087Z</time></trkpt><trkpt lat="44.143555" lon="12.1030117"><ele>59.6</ele><time>2026-04-16T14:33:58.087Z</time></trkpt><trkpt lat="44.1436633" lon="12.1030567"><ele>58.39999999999999</ele><time>2026-04-16T14:34:00.087Z</time></trkpt><trkpt lat="44.1437683" lon="12.1030967"><ele>57.199999999999996</ele><time>2026-04-16T14:34:02.087Z</time></trkpt><trkpt lat="44.14386" lon="12.1031233"><ele>56.0</ele><time>2026-04-16T14:34:04.087Z</time></trkpt><trkpt lat="44.143955" lon="12.1031383"><ele>55.4</ele><time>2026-04-16T14:34:06.087Z</time></trkpt><trkpt lat="44.1440567" lon="12.103135"><ele>54.8</ele><time>2026-04-16T14:34:08.087Z</time></trkpt><trkpt lat="44.1441617" lon="12.1031267"><ele>54.199999999999996</ele><time>2026-04-16T14:34:10.087Z</time></trkpt><trkpt lat="44.1442733" lon="12.1031217"><ele>53.599999999999994</ele><time>2026-04-16T14:34:12.087Z</time></trkpt><trkpt lat="44.14437" lon="12.103105"><ele>53.0</ele><time>2026-04-16T14:34:14.087Z</time></trkpt><trkpt lat="44.1444767" lon="12.1030717"><ele>53.0</ele><time>2026-04-16T14:34:16.087Z</time></trkpt><trkpt lat="44.1445983" lon="12.103045"><ele>53.0</ele><time>2026-04-16T14:34:18.087Z</time></trkpt><trkpt lat="44.14471" lon="12.1030183"><ele>53.0</ele><time>2026-04-16T14:34:20.087Z</time></trkpt><trkpt lat="44.1448367" lon="12.1029967"><ele>53.0</ele><time>2026-04-16T14:34:22.087Z</time></trkpt><trkpt lat="44.1449033" lon="12.1029767"><ele>53.0</ele><time>2026-04-16T14:34:23.087Z</time></trkpt><trkpt lat="44.1449733" lon="12.10295"><ele>52.833333333333336</ele><time>2026-04-16T14:34:24.087Z</time></trkpt><trkpt lat="44.1450383" lon="12.1029217"><ele>52.66666666666667</ele><time>2026-04-16T14:34:25.087Z</time></trkpt><trkpt lat="44.1451083" lon="12.1028883"><ele>52.5</ele><time>2026-04-16T14:34:26.088Z</time></trkpt><trkpt lat="44.145175" lon="12.1028533"><ele>52.33333333333333</ele><time>2026-04-16T14:34:27.087Z</time></trkpt><trkpt lat="44.1452517" lon="12.1028167"><ele>52.166666666666664</ele><time>2026-04-16T14:34:28.087Z</time></trkpt><trkpt lat="44.145335" lon="12.102785"><ele>52.0</ele><time>2026-04-16T14:34:29.087Z</time></trkpt><trkpt lat="44.1454217" lon="12.1027433"><ele>52.0</ele><time>2026-04-16T14:34:30.087Z</time></trkpt><trkpt lat="44.1455017" lon="12.1027033"><ele>52.0</ele><time>2026-04-16T14:34:31.087Z</time></trkpt><trkpt lat="44.145585" lon="12.10267"><ele>52.0</ele><time>2026-04-16T14:34:32.087Z</time></trkpt><trkpt lat="44.14568" lon="12.1026433"><ele>52.0</ele><time>2026-04-16T14:34:33.087Z</time></trkpt><trkpt lat="44.1457783" lon="12.1026267"><ele>52.0</ele><time>2026-04-16T14:34:34.087Z</time></trkpt><trkpt lat="44.14586" lon="12.1026117"><ele>51.83333333333333</ele><time>2026-04-16T14:34:35.087Z</time></trkpt><trkpt lat="44.1459317" lon="12.1025917"><ele>51.666666666666664</ele><time>2026-04-16T14:34:36.087Z</time></trkpt><trkpt lat="44.1460033" lon="12.1025667"><ele>51.5</ele><time>2026-04-16T14:34:37.087Z</time></trkpt><trkpt lat="44.1460667" lon="12.1025383"><ele>51.33333333333333</ele><time>2026-04-16T14:34:38.087Z</time></trkpt><trkpt lat="44.1461367" lon="12.1024983"><ele>51.166666666666664</ele><time>2026-04-16T14:34:39.087Z</time></trkpt><trkpt lat="44.1462" lon="12.1024583"><ele>51.0</ele><time>2026-04-16T14:34:40.087Z</time></trkpt><trkpt lat="44.1462883" lon="12.1024"><ele>50.8</ele><time>2026-04-16T14:34:42.087Z</time></trkpt><trkpt lat="44.1463983" lon="12.102325"><ele>50.599999999999994</ele><time>2026-04-16T14:34:44.087Z</time></trkpt><trkpt lat="44.1465067" lon="12.102265"><ele>50.4</ele><time>2026-04-16T14:34:46.087Z</time></trkpt><trkpt lat="44.1466167" lon="12.1022067"><ele>50.2</ele><time>2026-04-16T14:34:48.087Z</time></trkpt><trkpt lat="44.1466917" lon="12.1021917"><ele>50.0</ele><time>2026-04-16T14:34:49.087Z</time></trkpt><trkpt lat="44.1435167" lon="12.1029917"><ele>49.0</ele><time>2026-04-16T14:34:52.087Z</time></trkpt><trkpt lat="44.1459317" lon="12.1020567"><ele>50.0</ele><time>2026-04-16T14:34:53.088Z</time></trkpt><trkpt lat="44.1466883" lon="12.1020533"><ele>50.0</ele><time>2026-04-16T14:34:54.087Z</time></trkpt><trkpt lat="44.14679" lon="12.1020217"><ele>50.0</ele><time>2026-04-16T14:34:55.087Z</time></trkpt><trkpt lat="44.1469917" lon="12.1020383"><ele>50.0</ele><time>2026-04-16T14:34:57.088Z</time></trkpt><trkpt lat="44.147075" lon="12.102"><ele>50.0</ele><time>2026-04-16T14:34:59.087Z</time></trkpt><trkpt lat="44.1471" lon="12.1018967"><ele>50.0</ele><time>2026-04-16T14:35:03.087Z</time></trkpt><trkpt lat="44.1471267" lon="12.1018"><ele>50.0</ele><time>2026-04-16T14:35:05.087Z</time></trkpt><trkpt lat="44.14715" lon="12.1016617"><ele>50.0</ele><time>2026-04-16T14:35:07.087Z</time></trkpt><trkpt lat="44.1471767" lon="12.1014967"><ele>50.0</ele><time>2026-04-16T14:35:09.087Z</time></trkpt><trkpt lat="44.1471933" lon="12.1013333"><ele>50.0</ele><time>2026-04-16T14:35:11.087Z</time></trkpt><trkpt lat="44.1472" lon="12.101165"><ele>49.8</ele><time>2026-04-16T14:35:13.087Z</time></trkpt><trkpt lat="44.1472083" lon="12.100985"><ele>49.6</ele><time>2026-04-16T14:35:15.087Z</time></trkpt><trkpt lat="44.1472117" lon="12.1008967"><ele>49.400000000000006</ele><time>2026-04-16T14:35:16.087Z</time></trkpt><trkpt lat="44.1472117" lon="12.10074"><ele>49.2</ele><time>2026-04-16T14:35:18.087Z</time></trkpt><trkpt lat="44.147205" lon="12.1006067"><ele>49.0</ele><time>2026-04-16T14:35:20.087Z</time></trkpt><trkpt lat="44.1472167" lon="12.100475"><ele>48.2</ele><time>2026-04-16T14:35:22.087Z</time></trkpt><trkpt lat="44.1472733" lon="12.1003983"><ele>47.400000000000006</ele><time>2026-04-16T14:35:24.087Z</time></trkpt><trkpt lat="44.1473483" lon="12.1003617"><ele>46.6</ele><time>2026-04-16T14:35:26.087Z</time></trkpt><trkpt lat="44.1474367" lon="12.100315"><ele>45.8</ele><time>2026-04-16T14:35:28.087Z</time></trkpt><trkpt lat="44.14754" lon="12.100265"><ele>45.0</ele><time>2026-04-16T14:35:30.087Z</time></trkpt><trkpt lat="44.14766" lon="12.1002283"><ele>44.8</ele><time>2026-04-16T14:35:32.087Z</time></trkpt><trkpt lat="44.1477767" lon="12.1001667"><ele>44.6</ele><time>2026-04-16T14:35:34.087Z</time></trkpt><trkpt lat="44.1478917" lon="12.1001283"><ele>44.400000000000006</ele><time>2026-04-16T14:35:36.087Z</time></trkpt><trkpt lat="44.1479633" lon="12.100115"><ele>44.2</ele><time>2026-04-16T14:35:37.087Z</time></trkpt><trkpt lat="44.1480733" lon="12.10006"><ele>44.0</ele><time>2026-04-16T14:35:39.088Z</time></trkpt><trkpt lat="44.148075" lon="12.09991"><ele>43.666666666666664</ele><time>2026-04-16T14:35:41.087Z</time></trkpt><trkpt lat="44.1480733" lon="12.09974"><ele>43.33333333333333</ele><time>2026-04-16T14:35:43.088Z</time></trkpt><trkpt lat="44.1480717" lon="12.0996483"><ele>43.0</ele><time>2026-04-16T14:35:44.087Z</time></trkpt><trkpt lat="44.1480667" lon="12.09955"><ele>42.666666666666664</ele><time>2026-04-16T14:35:45.087Z</time></trkpt><trkpt lat="44.1480617" lon="12.099455"><ele>42.333333333333336</ele><time>2026-04-16T14:35:46.087Z</time></trkpt><trkpt lat="44.1480617" lon="12.09935"><ele>42.0</ele><time>2026-04-16T14:35:47.087Z</time></trkpt><trkpt lat="44.14806" lon="12.09925"><ele>42.0</ele><time>2026-04-16T14:35:48.087Z</time></trkpt><trkpt lat="44.1480583" lon="12.0991517"><ele>42.0</ele><time>2026-04-16T14:35:49.087Z</time></trkpt><trkpt lat="44.1480533" lon="12.0990533"><ele>42.0</ele><time>2026-04-16T14:35:50.087Z</time></trkpt><trkpt lat="44.1480483" lon="12.098955"><ele>42.0</ele><time>2026-04-16T14:35:51.087Z</time></trkpt><trkpt lat="44.1480433" lon="12.0988567"><ele>42.0</ele><time>2026-04-16T14:35:52.087Z</time></trkpt><trkpt lat="44.148035" lon="12.0987533"><ele>42.0</ele><time>2026-04-16T14:35:53.087Z</time></trkpt><trkpt lat="44.148025" lon="12.0986517"><ele>42.0</ele><time>2026-04-16T14:35:54.087Z</time></trkpt><trkpt lat="44.1480217" lon="12.09856"><ele>42.0</ele><time>2026-04-16T14:35:55.087Z</time></trkpt><trkpt lat="44.1480217" lon="12.09847"><ele>42.0</ele><time>2026-04-16T14:35:56.087Z</time></trkpt><trkpt lat="44.1480167" lon="12.0983167"><ele>42.0</ele><time>2026-04-16T14:35:58.088Z</time></trkpt><trkpt lat="44.1479983" lon="12.0982017"><ele>42.0</ele><time>2026-04-16T14:36:00.087Z</time></trkpt><trkpt lat="44.1479633" lon="12.0980767"><ele>42.0</ele><time>2026-04-16T14:36:02.087Z</time></trkpt><trkpt lat="44.1479117" lon="12.0979833"><ele>42.0</ele><time>2026-04-16T14:36:04.087Z</time></trkpt><trkpt lat="44.1478583" lon="12.0978817"><ele>42.0</ele><time>2026-04-16T14:36:06.087Z</time></trkpt><trkpt lat="44.1477983" lon="12.09777"><ele>42.0</ele><time>2026-04-16T14:36:08.087Z</time></trkpt><trkpt lat="44.147735" lon="12.09763"><ele>42.0</ele><time>2026-04-16T14:36:10.087Z</time></trkpt><trkpt lat="44.1477083" lon="12.09755"><ele>42.0</ele><time>2026-04-16T14:36:11.087Z</time></trkpt><trkpt lat="44.147685" lon="12.0974667"><ele>42.0</ele><time>2026-04-16T14:36:12.087Z</time></trkpt><trkpt lat="44.1476667" lon="12.0973817"><ele>42.0</ele><time>2026-04-16T14:36:13.087Z</time></trkpt><trkpt lat="44.1476467" lon="12.097295"><ele>42.333333333333336</ele><time>2026-04-16T14:36:14.087Z</time></trkpt><trkpt lat="44.1476233" lon="12.0972083"><ele>42.666666666666664</ele><time>2026-04-16T14:36:15.087Z</time></trkpt><trkpt lat="44.1475933" lon="12.0971267"><ele>43.0</ele><time>2026-04-16T14:36:16.087Z</time></trkpt><trkpt lat="44.1475567" lon="12.0970467"><ele>43.33333333333333</ele><time>2026-04-16T14:36:17.087Z</time></trkpt><trkpt lat="44.1474767" lon="12.09694"><ele>43.666666666666664</ele><time>2026-04-16T14:36:19.087Z</time></trkpt><trkpt lat="44.1473767" lon="12.0969083"><ele>44.0</ele><time>2026-04-16T14:36:21.087Z</time></trkpt><trkpt lat="44.1473117" lon="12.0968867"><ele>44.400000000000006</ele><time>2026-04-16T14:36:22.087Z</time></trkpt><trkpt lat="44.1472033" lon="12.0968467"><ele>44.8</ele><time>2026-04-16T14:36:24.087Z</time></trkpt><trkpt lat="44.1471183" lon="12.0967717"><ele>45.2</ele><time>2026-04-16T14:36:26.087Z</time></trkpt><trkpt lat="44.1470883" lon="12.0966767"><ele>45.599999999999994</ele><time>2026-04-16T14:36:28.087Z</time></trkpt><trkpt lat="44.1471017" lon="12.0965717"><ele>46.0</ele><time>2026-04-16T14:36:30.087Z</time></trkpt><trkpt lat="44.1471317" lon="12.09645"><ele>46.0</ele><time>2026-04-16T14:36:32.087Z</time></trkpt><trkpt lat="44.14717" lon="12.0963283"><ele>46.0</ele><time>2026-04-16T14:36:34.087Z</time></trkpt><trkpt lat="44.1472133" lon="12.0962033"><ele>46.0</ele><time>2026-04-16T14:36:36.087Z</time></trkpt><trkpt lat="44.14726" lon="12.0960583"><ele>46.0</ele><time>2026-04-16T14:36:38.087Z</time></trkpt><trkpt lat="44.1473083" lon="12.0959033"><ele>46.0</ele><time>2026-04-16T14:36:40.087Z</time></trkpt><trkpt lat="44.14736" lon="12.0957517"><ele>45.599999999999994</ele><time>2026-04-16T14:36:42.087Z</time></trkpt><trkpt lat="44.147405" lon="12.0956033"><ele>45.2</ele><time>2026-04-16T14:36:44.087Z</time></trkpt><trkpt lat="44.14745" lon="12.09545"><ele>44.8</ele><time>2026-04-16T14:36:46.087Z</time></trkpt><trkpt lat="44.147505" lon="12.0952917"><ele>44.400000000000006</ele><time>2026-04-16T14:36:48.088Z</time></trkpt><trkpt lat="44.14753" lon="12.0952083"><ele>44.0</ele><time>2026-04-16T14:36:49.087Z</time></trkpt><trkpt lat="44.147555" lon="12.095125"><ele>44.0</ele><time>2026-04-16T14:36:50.087Z</time></trkpt><trkpt lat="44.1475833" lon="12.0950383"><ele>44.0</ele><time>2026-04-16T14:36:51.087Z</time></trkpt><trkpt lat="44.14764" lon="12.0948833"><ele>44.0</ele><time>2026-04-16T14:36:53.087Z</time></trkpt><trkpt lat="44.1476983" lon="12.0947267"><ele>44.0</ele><time>2026-04-16T14:36:55.087Z</time></trkpt><trkpt lat="44.1477317" lon="12.0946417"><ele>44.0</ele><time>2026-04-16T14:36:56.087Z</time></trkpt><trkpt lat="44.1477617" lon="12.09455"><ele>44.0</ele><time>2026-04-16T14:36:57.087Z</time></trkpt><trkpt lat="44.14779" lon="12.094465"><ele>44.0</ele><time>2026-04-16T14:36:58.088Z</time></trkpt><trkpt lat="44.1478183" lon="12.09438"><ele>44.0</ele><time>2026-04-16T14:36:59.087Z</time></trkpt><trkpt lat="44.1478417" lon="12.0942983"><ele>44.0</ele><time>2026-04-16T14:37:00.087Z</time></trkpt><trkpt lat="44.1478667" lon="12.094215"><ele>44.0</ele><time>2026-04-16T14:37:01.088Z</time></trkpt><trkpt lat="44.1479117" lon="12.0940533"><ele>44.0</ele><time>2026-04-16T14:37:03.087Z</time></trkpt><trkpt lat="44.147965" lon="12.0939"><ele>43.25</ele><time>2026-04-16T14:37:05.087Z</time></trkpt><trkpt lat="44.1480133" lon="12.0937483"><ele>42.5</ele><time>2026-04-16T14:37:07.087Z</time></trkpt><trkpt lat="44.1480717" lon="12.0936083"><ele>41.75</ele><time>2026-04-16T14:37:09.087Z</time></trkpt><trkpt lat="44.1481233" lon="12.0934583"><ele>41.0</ele><time>2026-04-16T14:37:11.088Z</time></trkpt><trkpt lat="44.1481683" lon="12.0933017"><ele>39.5</ele><time>2026-04-16T14:37:13.087Z</time></trkpt><trkpt lat="44.148215" lon="12.0931533"><ele>38.0</ele><time>2026-04-16T14:37:15.087Z</time></trkpt><trkpt lat="44.1482667" lon="12.093"><ele>36.5</ele><time>2026-04-16T14:37:17.087Z</time></trkpt><trkpt lat="44.14833" lon="12.0928617"><ele>35.0</ele><time>2026-04-16T14:37:19.087Z</time></trkpt><trkpt lat="44.1484133" lon="12.0927617"><ele>35.0</ele><time>2026-04-16T14:37:21.087Z</time></trkpt><trkpt lat="44.1485233" lon="12.0926867"><ele>35.0</ele><time>2026-04-16T14:37:23.087Z</time></trkpt><trkpt lat="44.1486333" lon="12.0926433"><ele>35.0</ele><time>2026-04-16T14:37:25.088Z</time></trkpt><trkpt lat="44.1487383" lon="12.0926117"><ele>35.0</ele><time>2026-04-16T14:37:27.087Z</time></trkpt><trkpt lat="44.1488633" lon="12.0925683"><ele>35.0</ele><time>2026-04-16T14:37:29.087Z</time></trkpt><trkpt lat="44.1489283" lon="12.0925433"><ele>35.0</ele><time>2026-04-16T14:37:30.087Z</time></trkpt><trkpt lat="44.148995" lon="12.09252"><ele>35.0</ele><time>2026-04-16T14:37:31.087Z</time></trkpt><trkpt lat="44.14906" lon="12.0924983"><ele>35.0</ele><time>2026-04-16T14:37:32.087Z</time></trkpt><trkpt lat="44.1491233" lon="12.0924767"><ele>35.0</ele><time>2026-04-16T14:37:33.087Z</time></trkpt><trkpt lat="44.149235" lon="12.0924383"><ele>35.0</ele><time>2026-04-16T14:37:35.087Z</time></trkpt><trkpt lat="44.1493417" lon="12.0924017"><ele>34.4</ele><time>2026-04-16T14:37:37.087Z</time></trkpt><trkpt lat="44.149475" lon="12.0923483"><ele>33.8</ele><time>2026-04-16T14:37:39.087Z</time></trkpt><trkpt lat="44.14955" lon="12.0923233"><ele>33.2</ele><time>2026-04-16T14:37:40.088Z</time></trkpt><trkpt lat="44.1496233" lon="12.0923067"><ele>32.6</ele><time>2026-04-16T14:37:41.088Z</time></trkpt><trkpt lat="44.1497" lon="12.0923017"><ele>32.0</ele><time>2026-04-16T14:37:42.087Z</time></trkpt><trkpt lat="44.14979" lon="12.0923"><ele>31.833333333333332</ele><time>2026-04-16T14:37:43.087Z</time></trkpt><trkpt lat="44.1498767" lon="12.0923"><ele>31.666666666666664</ele><time>2026-04-16T14:37:44.087Z</time></trkpt><trkpt lat="44.14996" lon="12.092305"><ele>31.5</ele><time>2026-04-16T14:37:45.087Z</time></trkpt><trkpt lat="44.150045" lon="12.09232"><ele>31.333333333333336</ele><time>2026-04-16T14:37:46.087Z</time></trkpt><trkpt lat="44.15013" lon="12.0923333"><ele>31.166666666666668</ele><time>2026-04-16T14:37:47.087Z</time></trkpt><trkpt lat="44.150215" lon="12.0923467"><ele>31.0</ele><time>2026-04-16T14:37:48.087Z</time></trkpt><trkpt lat="44.1502983" lon="12.0923533"><ele>31.0</ele><time>2026-04-16T14:37:49.087Z</time></trkpt><trkpt lat="44.150375" lon="12.09235"><ele>31.000000000000004</ele><time>2026-04-16T14:37:50.087Z</time></trkpt><trkpt lat="44.15045" lon="12.0923483"><ele>31.0</ele><time>2026-04-16T14:37:51.087Z</time></trkpt><trkpt lat="44.150515" lon="12.0923483"><ele>31.0</ele><time>2026-04-16T14:37:52.087Z</time></trkpt><trkpt lat="44.1505817" lon="12.0923483"><ele>31.000000000000004</ele><time>2026-04-16T14:37:53.087Z</time></trkpt><trkpt lat="44.15065" lon="12.0923483"><ele>31.0</ele><time>2026-04-16T14:37:54.088Z</time></trkpt><trkpt lat="44.1507233" lon="12.0923567"><ele>31.0</ele><time>2026-04-16T14:37:55.087Z</time></trkpt><trkpt lat="44.1507967" lon="12.0923633"><ele>31.000000000000004</ele><time>2026-04-16T14:37:56.087Z</time></trkpt><trkpt lat="44.1508717" lon="12.092355"><ele>31.0</ele><time>2026-04-16T14:37:57.087Z</time></trkpt><trkpt lat="44.1509467" lon="12.0923483"><ele>31.0</ele><time>2026-04-16T14:37:58.087Z</time></trkpt><trkpt lat="44.1510283" lon="12.092345"><ele>31.0</ele><time>2026-04-16T14:37:59.087Z</time></trkpt><trkpt lat="44.1511083" lon="12.0923467"><ele>31.000000000000004</ele><time>2026-04-16T14:38:00.087Z</time></trkpt><trkpt lat="44.1511833" lon="12.0923633"><ele>31.0</ele><time>2026-04-16T14:38:01.087Z</time></trkpt><trkpt lat="44.1512517" lon="12.0923867"><ele>31.0</ele><time>2026-04-16T14:38:02.087Z</time></trkpt><trkpt lat="44.1513233" lon="12.0924183"><ele>31.000000000000004</ele><time>2026-04-16T14:38:03.087Z</time></trkpt><trkpt lat="44.151395" lon="12.0924533"><ele>31.0</ele><time>2026-04-16T14:38:04.087Z</time></trkpt><trkpt lat="44.1514617" lon="12.0924967"><ele>31.0</ele><time>2026-04-16T14:38:05.087Z</time></trkpt><trkpt lat="44.1515233" lon="12.092545"><ele>31.000000000000004</ele><time>2026-04-16T14:38:06.087Z</time></trkpt><trkpt lat="44.1515883" lon="12.0925967"><ele>31.0</ele><time>2026-04-16T14:38:07.087Z</time></trkpt><trkpt lat="44.1516533" lon="12.0926517"><ele>31.0</ele><time>2026-04-16T14:38:08.087Z</time></trkpt><trkpt lat="44.1517067" lon="12.09271"><ele>31.42857142857143</ele><time>2026-04-16T14:38:09.088Z</time></trkpt><trkpt lat="44.1517567" lon="12.0927783"><ele>31.85714285714286</ele><time>2026-04-16T14:38:10.087Z</time></trkpt><trkpt lat="44.1518067" lon="12.0928417"><ele>32.285714285714285</ele><time>2026-04-16T14:38:11.087Z</time></trkpt><trkpt lat="44.1518617" lon="12.09291"><ele>32.714285714285715</ele><time>2026-04-16T14:38:12.087Z</time></trkpt><trkpt lat="44.1519167" lon="12.0929633"><ele>33.14285714285714</ele><time>2026-04-16T14:38:13.087Z</time></trkpt><trkpt lat="44.1519733" lon="12.093015"><ele>33.57142857142857</ele><time>2026-04-16T14:38:14.088Z</time></trkpt><trkpt lat="44.1520267" lon="12.0930667"><ele>34.0</ele><time>2026-04-16T14:38:15.087Z</time></trkpt><trkpt lat="44.1521233" lon="12.093155"><ele>34.0</ele><time>2026-04-16T14:38:17.088Z</time></trkpt><trkpt lat="44.1521783" lon="12.0932"><ele>34.0</ele><time>2026-04-16T14:38:18.087Z</time></trkpt><trkpt lat="44.152235" lon="12.09325"><ele>34.0</ele><time>2026-04-16T14:38:19.087Z</time></trkpt><trkpt lat="44.15235" lon="12.0933183"><ele>34.0</ele><time>2026-04-16T14:38:21.087Z</time></trkpt><trkpt lat="44.1524083" lon="12.0933567"><ele>34.0</ele><time>2026-04-16T14:38:22.087Z</time></trkpt><trkpt lat="44.1524717" lon="12.0933933"><ele>34.0</ele><time>2026-04-16T14:38:23.087Z</time></trkpt><trkpt lat="44.1525333" lon="12.093425"><ele>34.16666666666667</ele><time>2026-04-16T14:38:24.087Z</time></trkpt><trkpt lat="44.1525967" lon="12.0934667"><ele>34.333333333333336</ele><time>2026-04-16T14:38:25.087Z</time></trkpt><trkpt lat="44.15266" lon="12.093505"><ele>34.5</ele><time>2026-04-16T14:38:26.087Z</time></trkpt><trkpt lat="44.1527233" lon="12.09354"><ele>34.666666666666664</ele><time>2026-04-16T14:38:27.087Z</time></trkpt><trkpt lat="44.152795" lon="12.0935867"><ele>34.83333333333333</ele><time>2026-04-16T14:38:28.087Z</time></trkpt><trkpt lat="44.1529167" lon="12.093635"><ele>35.0</ele><time>2026-04-16T14:38:30.087Z</time></trkpt><trkpt lat="44.15298" lon="12.0936467"><ele>35.0</ele><time>2026-04-16T14:38:31.087Z</time></trkpt><trkpt lat="44.1530433" lon="12.0936567"><ele>35.0</ele><time>2026-04-16T14:38:32.087Z</time></trkpt><trkpt lat="44.1531067" lon="12.0936717"><ele>35.0</ele><time>2026-04-16T14:38:33.087Z</time></trkpt><trkpt lat="44.153225" lon="12.0936983"><ele>35.0</ele><time>2026-04-16T14:38:35.087Z</time></trkpt><trkpt lat="44.1533333" lon="12.09375"><ele>35.0</ele><time>2026-04-16T14:38:37.087Z</time></trkpt><trkpt lat="44.1534517" lon="12.0937983"><ele>34.714285714285715</ele><time>2026-04-16T14:38:39.087Z</time></trkpt><trkpt lat="44.1535133" lon="12.0938217"><ele>34.42857142857143</ele><time>2026-04-16T14:38:40.087Z</time></trkpt><trkpt lat="44.1535817" lon="12.0938433"><ele>34.14285714285714</ele><time>2026-04-16T14:38:41.087Z</time></trkpt><trkpt lat="44.1536517" lon="12.0938717"><ele>33.85714285714286</ele><time>2026-04-16T14:38:42.087Z</time></trkpt><trkpt lat="44.15372" lon="12.0938983"><ele>33.57142857142857</ele><time>2026-04-16T14:38:43.087Z</time></trkpt><trkpt lat="44.1537867" lon="12.0939217"><ele>33.285714285714285</ele><time>2026-04-16T14:38:44.087Z</time></trkpt><trkpt lat="44.1538533" lon="12.0939433"><ele>33.0</ele><time>2026-04-16T14:38:45.087Z</time></trkpt><trkpt lat="44.1539183" lon="12.0939667"><ele>33.0</ele><time>2026-04-16T14:38:46.087Z</time></trkpt><trkpt lat="44.1539833" lon="12.09399"><ele>33.0</ele><time>2026-04-16T14:38:47.087Z</time></trkpt><trkpt lat="44.154045" lon="12.0940083"><ele>33.0</ele><time>2026-04-16T14:38:48.087Z</time></trkpt><trkpt lat="44.1541117" lon="12.09403"><ele>33.0</ele><time>2026-04-16T14:38:49.087Z</time></trkpt><trkpt lat="44.1541767" lon="12.0940483"><ele>33.0</ele><time>2026-04-16T14:38:50.087Z</time></trkpt><trkpt lat="44.15424" lon="12.09406"><ele>33.0</ele><time>2026-04-16T14:38:51.087Z</time></trkpt><trkpt lat="44.1543033" lon="12.09406"><ele>33.0</ele><time>2026-04-16T14:38:52.087Z</time></trkpt><trkpt lat="44.15441" lon="12.0939983"><ele>32.833333333333336</ele><time>2026-04-16T14:38:54.087Z</time></trkpt><trkpt lat="44.1544517" lon="12.0939283"><ele>32.666666666666664</ele><time>2026-04-16T14:38:55.087Z</time></trkpt><trkpt lat="44.1545133" lon="12.09377"><ele>32.5</ele><time>2026-04-16T14:38:57.087Z</time></trkpt><trkpt lat="44.154545" lon="12.0936883"><ele>32.33333333333333</ele><time>2026-04-16T14:38:58.087Z</time></trkpt><trkpt lat="44.1545767" lon="12.0936117"><ele>32.166666666666664</ele><time>2026-04-16T14:38:59.088Z</time></trkpt><trkpt lat="44.1546067" lon="12.0935333"><ele>32.0</ele><time>2026-04-16T14:39:00.088Z</time></trkpt><trkpt lat="44.154645" lon="12.09346"><ele>32.0</ele><time>2026-04-16T14:39:01.087Z</time></trkpt><trkpt lat="44.1546867" lon="12.0933933"><ele>32.0</ele><time>2026-04-16T14:39:02.087Z</time></trkpt><trkpt lat="44.1547667" lon="12.09327"><ele>32.0</ele><time>2026-04-16T14:39:04.087Z</time></trkpt><trkpt lat="44.1548167" lon="12.093215"><ele>32.0</ele><time>2026-04-16T14:39:05.087Z</time></trkpt><trkpt lat="44.15492" lon="12.09313"><ele>32.0</ele><time>2026-04-16T14:39:07.087Z</time></trkpt><trkpt lat="44.1550383" lon="12.0930667"><ele>32.2</ele><time>2026-04-16T14:39:09.087Z</time></trkpt><trkpt lat="44.15516" lon="12.093025"><ele>32.400000000000006</ele><time>2026-04-16T14:39:11.088Z</time></trkpt><trkpt lat="44.155275" lon="12.093025"><ele>32.599999999999994</ele><time>2026-04-16T14:39:13.087Z</time></trkpt><trkpt lat="44.1553383" lon="12.0930367"><ele>32.8</ele><time>2026-04-16T14:39:14.087Z</time></trkpt><trkpt lat="44.1554533" lon="12.0930867"><ele>33.0</ele><time>2026-04-16T14:39:16.087Z</time></trkpt><trkpt lat="44.1555633" lon="12.0931217"><ele>33.0</ele><time>2026-04-16T14:39:18.087Z</time></trkpt><trkpt lat="44.155645" lon="12.0931217"><ele>33.0</ele><time>2026-04-16T14:39:20.087Z</time></trkpt><trkpt lat="44.1557083" lon="12.0930417"><ele>33.0</ele><time>2026-04-16T14:39:22.087Z</time></trkpt><trkpt lat="44.155765" lon="12.0929117"><ele>33.0</ele><time>2026-04-16T14:39:24.087Z</time></trkpt><trkpt lat="44.15582" lon="12.092785"><ele>33.0</ele><time>2026-04-16T14:39:26.087Z</time></trkpt><trkpt lat="44.1558817" lon="12.0926783"><ele>33.199999999999996</ele><time>2026-04-16T14:39:28.087Z</time></trkpt><trkpt lat="44.1559567" lon="12.0926367"><ele>33.4</ele><time>2026-04-16T14:39:30.087Z</time></trkpt><trkpt lat="44.156035" lon="12.092665"><ele>33.599999999999994</ele><time>2026-04-16T14:39:32.087Z</time></trkpt><trkpt lat="44.1561333" lon="12.0927317"><ele>33.8</ele><time>2026-04-16T14:39:34.087Z</time></trkpt><trkpt lat="44.1561883" lon="12.0927783"><ele>34.0</ele><time>2026-04-16T14:39:35.087Z</time></trkpt><trkpt lat="44.1562917" lon="12.09286"><ele>34.0</ele><time>2026-04-16T14:39:37.087Z</time></trkpt><trkpt lat="44.1564033" lon="12.0929533"><ele>34.0</ele><time>2026-04-16T14:39:39.087Z</time></trkpt><trkpt lat="44.1564617" lon="12.092995"><ele>34.0</ele><time>2026-04-16T14:39:40.087Z</time></trkpt><trkpt lat="44.156525" lon="12.0930367"><ele>34.0</ele><time>2026-04-16T14:39:41.087Z</time></trkpt><trkpt lat="44.15659" lon="12.0930767"><ele>34.0</ele><time>2026-04-16T14:39:42.087Z</time></trkpt><trkpt lat="44.1566517" lon="12.0931183"><ele>34.0</ele><time>2026-04-16T14:39:43.087Z</time></trkpt><trkpt lat="44.1567117" lon="12.093165"><ele>33.71428571428571</ele><time>2026-04-16T14:39:44.087Z</time></trkpt><trkpt lat="44.1567733" lon="12.0932117"><ele>33.42857142857143</ele><time>2026-04-16T14:39:45.088Z</time></trkpt><trkpt lat="44.1568317" lon="12.0932567"><ele>33.14285714285714</ele><time>2026-04-16T14:39:46.088Z</time></trkpt><trkpt lat="44.15689" lon="12.0933"><ele>32.857142857142854</ele><time>2026-04-16T14:39:47.087Z</time></trkpt><trkpt lat="44.15695" lon="12.0933417"><ele>32.57142857142857</ele><time>2026-04-16T14:39:48.087Z</time></trkpt><trkpt lat="44.1570083" lon="12.0933867"><ele>32.285714285714285</ele><time>2026-04-16T14:39:49.087Z</time></trkpt><trkpt lat="44.1570667" lon="12.0934267"><ele>32.0</ele><time>2026-04-16T14:39:50.087Z</time></trkpt><trkpt lat="44.157125" lon="12.0934667"><ele>32.0</ele><time>2026-04-16T14:39:51.087Z</time></trkpt><trkpt lat="44.1571867" lon="12.0935083"><ele>31.999999999999996</ele><time>2026-04-16T14:39:52.087Z</time></trkpt><trkpt lat="44.1572467" lon="12.09356"><ele>32.0</ele><time>2026-04-16T14:39:53.087Z</time></trkpt><trkpt lat="44.1573083" lon="12.09361"><ele>32.0</ele><time>2026-04-16T14:39:54.087Z</time></trkpt><trkpt lat="44.1573667" lon="12.0936567"><ele>31.999999999999996</ele><time>2026-04-16T14:39:55.087Z</time></trkpt><trkpt lat="44.1574267" lon="12.0937083"><ele>32.0</ele><time>2026-04-16T14:39:56.087Z</time></trkpt><trkpt lat="44.157485" lon="12.093765"><ele>32.0</ele><time>2026-04-16T14:39:57.087Z</time></trkpt><trkpt lat="44.1575433" lon="12.0938067"><ele>31.857142857142854</ele><time>2026-04-16T14:39:58.087Z</time></trkpt><trkpt lat="44.1576067" lon="12.0938417"><ele>31.71428571428571</ele><time>2026-04-16T14:39:59.087Z</time></trkpt><trkpt lat="44.15767" lon="12.0938917"><ele>31.57142857142857</ele><time>2026-04-16T14:40:00.087Z</time></trkpt><trkpt lat="44.1577367" lon="12.093935"><ele>31.42857142857143</ele><time>2026-04-16T14:40:01.087Z</time></trkpt><trkpt lat="44.1578" lon="12.0939817"><ele>31.28571428571429</ele><time>2026-04-16T14:40:02.087Z</time></trkpt><trkpt lat="44.1578633" lon="12.0940317"><ele>31.142857142857146</ele><time>2026-04-16T14:40:03.087Z</time></trkpt><trkpt lat="44.1579233" lon="12.0940767"><ele>31.0</ele><time>2026-04-16T14:40:04.087Z</time></trkpt><trkpt lat="44.1579867" lon="12.0941233"><ele>31.142857142857146</ele><time>2026-04-16T14:40:05.087Z</time></trkpt><trkpt lat="44.1580483" lon="12.0941683"><ele>31.28571428571429</ele><time>2026-04-16T14:40:06.087Z</time></trkpt><trkpt lat="44.1581133" lon="12.0942117"><ele>31.42857142857143</ele><time>2026-04-16T14:40:07.087Z</time></trkpt><trkpt lat="44.15818" lon="12.094255"><ele>31.57142857142857</ele><time>2026-04-16T14:40:08.087Z</time></trkpt><trkpt lat="44.15824" lon="12.0943067"><ele>31.71428571428571</ele><time>2026-04-16T14:40:09.087Z</time></trkpt><trkpt lat="44.1582983" lon="12.0943467"><ele>31.857142857142854</ele><time>2026-04-16T14:40:10.087Z</time></trkpt><trkpt lat="44.15836" lon="12.0943867"><ele>32.0</ele><time>2026-04-16T14:40:11.087Z</time></trkpt><trkpt lat="44.1584767" lon="12.094465"><ele>31.999999999999996</ele><time>2026-04-16T14:40:13.087Z</time></trkpt><trkpt lat="44.1585433" lon="12.0945133"><ele>32.0</ele><time>2026-04-16T14:40:14.087Z</time></trkpt><trkpt lat="44.15861" lon="12.0945667"><ele>32.0</ele><time>2026-04-16T14:40:15.087Z</time></trkpt><trkpt lat="44.1586733" lon="12.09462"><ele>32.0</ele><time>2026-04-16T14:40:16.087Z</time></trkpt><trkpt lat="44.158735" lon="12.09467"><ele>31.999999999999996</ele><time>2026-04-16T14:40:17.087Z</time></trkpt><trkpt lat="44.158805" lon="12.0947183"><ele>32.0</ele><time>2026-04-16T14:40:18.087Z</time></trkpt><trkpt lat="44.158875" lon="12.094765"><ele>32.0</ele><time>2026-04-16T14:40:19.087Z</time></trkpt><trkpt lat="44.1589433" lon="12.09481"><ele>31.999999999999996</ele><time>2026-04-16T14:40:20.087Z</time></trkpt><trkpt lat="44.1590117" lon="12.0948533"><ele>32.0</ele><time>2026-04-16T14:40:21.087Z</time></trkpt><trkpt lat="44.159075" lon="12.094905"><ele>32.0</ele><time>2026-04-16T14:40:22.087Z</time></trkpt><trkpt lat="44.1591367" lon="12.09495"><ele>31.999999999999996</ele><time>2026-04-16T14:40:23.087Z</time></trkpt><trkpt lat="44.15921" lon="12.0950083"><ele>32.0</ele><time>2026-04-16T14:40:24.087Z</time></trkpt><trkpt lat="44.15927" lon="12.0950483"><ele>32.0</ele><time>2026-04-16T14:40:25.087Z</time></trkpt><trkpt lat="44.1593267" lon="12.095095"><ele>31.999999999999996</ele><time>2026-04-16T14:40:26.088Z</time></trkpt><trkpt lat="44.1593883" lon="12.0951333"><ele>32.0</ele><time>2026-04-16T14:40:27.087Z</time></trkpt><trkpt lat="44.1594467" lon="12.095175"><ele>32.0</ele><time>2026-04-16T14:40:28.087Z</time></trkpt><trkpt lat="44.1595583" lon="12.095255"><ele>32.0</ele><time>2026-04-16T14:40:30.087Z</time></trkpt><trkpt lat="44.159615" lon="12.0953"><ele>31.999999999999996</ele><time>2026-04-16T14:40:31.087Z</time></trkpt><trkpt lat="44.1596767" lon="12.0953467"><ele>32.0</ele><time>2026-04-16T14:40:32.087Z</time></trkpt><trkpt lat="44.1597417" lon="12.0953983"><ele>32.0</ele><time>2026-04-16T14:40:33.087Z</time></trkpt><trkpt lat="44.1598067" lon="12.0954433"><ele>31.999999999999996</ele><time>2026-04-16T14:40:34.088Z</time></trkpt><trkpt lat="44.1598733" lon="12.0954867"><ele>32.0</ele><time>2026-04-16T14:40:35.087Z</time></trkpt><trkpt lat="44.1599367" lon="12.0955283"><ele>32.0</ele><time>2026-04-16T14:40:36.087Z</time></trkpt><trkpt lat="44.1600017" lon="12.095575"><ele>31.999999999999996</ele><time>2026-04-16T14:40:37.087Z</time></trkpt><trkpt lat="44.1600667" lon="12.095625"><ele>32.0</ele><time>2026-04-16T14:40:38.088Z</time></trkpt><trkpt lat="44.1601283" lon="12.0956783"><ele>32.0</ele><time>2026-04-16T14:40:39.087Z</time></trkpt><trkpt lat="44.16019" lon="12.0957333"><ele>31.999999999999996</ele><time>2026-04-16T14:40:40.087Z</time></trkpt><trkpt lat="44.1602517" lon="12.095785"><ele>32.0</ele><time>2026-04-16T14:40:41.087Z</time></trkpt><trkpt lat="44.1603183" lon="12.09583"><ele>32.0</ele><time>2026-04-16T14:40:42.087Z</time></trkpt><trkpt lat="44.1603833" lon="12.0958767"><ele>32.0</ele><time>2026-04-16T14:40:43.087Z</time></trkpt><trkpt lat="44.1604533" lon="12.095925"><ele>31.999999999999996</ele><time>2026-04-16T14:40:44.087Z</time></trkpt><trkpt lat="44.1605217" lon="12.0959817"><ele>32.0</ele><time>2026-04-16T14:40:45.087Z</time></trkpt><trkpt lat="44.160595" lon="12.0960383"><ele>32.0</ele><time>2026-04-16T14:40:46.087Z</time></trkpt><trkpt lat="44.16066" lon="12.09609"><ele>31.999999999999996</ele><time>2026-04-16T14:40:47.087Z</time></trkpt><trkpt lat="44.1607217" lon="12.0961367"><ele>32.0</ele><time>2026-04-16T14:40:48.087Z</time></trkpt><trkpt lat="44.1607833" lon="12.096185"><ele>32.0</ele><time>2026-04-16T14:40:49.087Z</time></trkpt><trkpt lat="44.1608483" lon="12.0962283"><ele>31.999999999999996</ele><time>2026-04-16T14:40:50.087Z</time></trkpt><trkpt lat="44.1609117" lon="12.096275"><ele>32.0</ele><time>2026-04-16T14:40:51.087Z</time></trkpt><trkpt lat="44.1609733" lon="12.0963167"><ele>32.0</ele><time>2026-04-16T14:40:52.088Z</time></trkpt><trkpt lat="44.1610317" lon="12.096365"><ele>31.833333333333332</ele><time>2026-04-16T14:40:53.087Z</time></trkpt><trkpt lat="44.161095" lon="12.09641"><ele>31.666666666666664</ele><time>2026-04-16T14:40:54.087Z</time></trkpt><trkpt lat="44.1611583" lon="12.096455"><ele>31.5</ele><time>2026-04-16T14:40:55.087Z</time></trkpt><trkpt lat="44.1612233" lon="12.0965033"><ele>31.333333333333336</ele><time>2026-04-16T14:40:56.087Z</time></trkpt><trkpt lat="44.16129" lon="12.0965533"><ele>31.166666666666668</ele><time>2026-04-16T14:40:57.087Z</time></trkpt><trkpt lat="44.1613467" lon="12.096595"><ele>31.0</ele><time>2026-04-16T14:40:58.087Z</time></trkpt><trkpt lat="44.1614567" lon="12.09668"><ele>31.000000000000004</ele><time>2026-04-16T14:41:00.087Z</time></trkpt><trkpt lat="44.1615167" lon="12.0967233"><ele>31.0</ele><time>2026-04-16T14:41:01.087Z</time></trkpt><trkpt lat="44.1615717" lon="12.0967667"><ele>31.0</ele><time>2026-04-16T14:41:02.087Z</time></trkpt><trkpt lat="44.161685" lon="12.0968533"><ele>31.0</ele><time>2026-04-16T14:41:04.087Z</time></trkpt><trkpt lat="44.1617483" lon="12.096895"><ele>31.000000000000004</ele><time>2026-04-16T14:41:05.088Z</time></trkpt><trkpt lat="44.16181" lon="12.0969367"><ele>31.0</ele><time>2026-04-16T14:41:06.087Z</time></trkpt><trkpt lat="44.1619217" lon="12.0970183"><ele>31.142857142857146</ele><time>2026-04-16T14:41:08.087Z</time></trkpt><trkpt lat="44.1619783" lon="12.097065"><ele>31.28571428571429</ele><time>2026-04-16T14:41:09.087Z</time></trkpt><trkpt lat="44.1620367" lon="12.097105"><ele>31.42857142857143</ele><time>2026-04-16T14:41:10.087Z</time></trkpt><trkpt lat="44.1620933" lon="12.09715"><ele>31.57142857142857</ele><time>2026-04-16T14:41:11.087Z</time></trkpt><trkpt lat="44.162155" lon="12.0972"><ele>31.71428571428571</ele><time>2026-04-16T14:41:12.087Z</time></trkpt><trkpt lat="44.1622183" lon="12.0972467"><ele>31.857142857142854</ele><time>2026-04-16T14:41:13.087Z</time></trkpt><trkpt lat="44.16228" lon="12.09729"><ele>32.0</ele><time>2026-04-16T14:41:14.087Z</time></trkpt><trkpt lat="44.1623383" lon="12.097335"><ele>31.857142857142854</ele><time>2026-04-16T14:41:15.087Z</time></trkpt><trkpt lat="44.1623933" lon="12.0973867"><ele>31.71428571428571</ele><time>2026-04-16T14:41:16.087Z</time></trkpt><trkpt lat="44.16245" lon="12.0974317"><ele>31.57142857142857</ele><time>2026-04-16T14:41:17.087Z</time></trkpt><trkpt lat="44.1625083" lon="12.097475"><ele>31.42857142857143</ele><time>2026-04-16T14:41:18.087Z</time></trkpt><trkpt lat="44.1625683" lon="12.0975167"><ele>31.28571428571429</ele><time>2026-04-16T14:41:19.087Z</time></trkpt><trkpt lat="44.1626267" lon="12.0975567"><ele>31.142857142857146</ele><time>2026-04-16T14:41:20.087Z</time></trkpt><trkpt lat="44.1626917" lon="12.0976033"><ele>31.0</ele><time>2026-04-16T14:41:21.087Z</time></trkpt><trkpt lat="44.162755" lon="12.0976467"><ele>31.000000000000004</ele><time>2026-04-16T14:41:22.087Z</time></trkpt><trkpt lat="44.1628167" lon="12.09769"><ele>31.0</ele><time>2026-04-16T14:41:23.087Z</time></trkpt><trkpt lat="44.162875" lon="12.097735"><ele>31.0</ele><time>2026-04-16T14:41:24.087Z</time></trkpt><trkpt lat="44.162935" lon="12.097775"><ele>31.0</ele><time>2026-04-16T14:41:25.087Z</time></trkpt><trkpt lat="44.1629933" lon="12.0978167"><ele>31.000000000000004</ele><time>2026-04-16T14:41:26.087Z</time></trkpt><trkpt lat="44.163105" lon="12.0978983"><ele>31.0</ele><time>2026-04-16T14:41:28.087Z</time></trkpt><trkpt lat="44.1631617" lon="12.0979383"><ele>30.571428571428573</ele><time>2026-04-16T14:41:29.087Z</time></trkpt><trkpt lat="44.1632217" lon="12.0979783"><ele>30.142857142857146</ele><time>2026-04-16T14:41:30.087Z</time></trkpt><trkpt lat="44.16328" lon="12.0980217"><ele>29.714285714285715</ele><time>2026-04-16T14:41:31.087Z</time></trkpt><trkpt lat="44.1633367" lon="12.0980633"><ele>29.285714285714285</ele><time>2026-04-16T14:41:32.087Z</time></trkpt><trkpt lat="44.163395" lon="12.0981"><ele>28.857142857142858</ele><time>2026-04-16T14:41:33.087Z</time></trkpt><trkpt lat="44.163455" lon="12.0981367"><ele>28.42857142857143</ele><time>2026-04-16T14:41:34.087Z</time></trkpt><trkpt lat="44.1635133" lon="12.0981783"><ele>28.0</ele><time>2026-04-16T14:41:35.087Z</time></trkpt><trkpt lat="44.1635717" lon="12.09822"><ele>28.166666666666668</ele><time>2026-04-16T14:41:36.087Z</time></trkpt><trkpt lat="44.1636317" lon="12.0982617"><ele>28.333333333333336</ele><time>2026-04-16T14:41:37.087Z</time></trkpt><trkpt lat="44.16369" lon="12.0982983"><ele>28.5</ele><time>2026-04-16T14:41:38.087Z</time></trkpt><trkpt lat="44.16375" lon="12.0983383"><ele>28.666666666666664</ele><time>2026-04-16T14:41:39.087Z</time></trkpt><trkpt lat="44.16386" lon="12.0984117"><ele>28.833333333333332</ele><time>2026-04-16T14:41:41.087Z</time></trkpt><trkpt lat="44.163975" lon="12.0984933"><ele>29.0</ele><time>2026-04-16T14:41:43.087Z</time></trkpt><trkpt lat="44.1640917" lon="12.0985683"><ele>29.000000000000004</ele><time>2026-04-16T14:41:45.087Z</time></trkpt><trkpt lat="44.1641483" lon="12.0986083"><ele>29.0</ele><time>2026-04-16T14:41:46.087Z</time></trkpt><trkpt lat="44.1642083" lon="12.0986533"><ele>29.000000000000004</ele><time>2026-04-16T14:41:47.087Z</time></trkpt><trkpt lat="44.1642683" lon="12.0986967"><ele>29.000000000000004</ele><time>2026-04-16T14:41:48.087Z</time></trkpt><trkpt lat="44.1643333" lon="12.0987433"><ele>29.0</ele><time>2026-04-16T14:41:49.087Z</time></trkpt><trkpt lat="44.1643983" lon="12.0987933"><ele>29.000000000000004</ele><time>2026-04-16T14:41:50.087Z</time></trkpt><trkpt lat="44.16446" lon="12.0988417"><ele>29.000000000000004</ele><time>2026-04-16T14:41:51.087Z</time></trkpt><trkpt lat="44.164525" lon="12.0988933"><ele>28.999999999999996</ele><time>2026-04-16T14:41:52.088Z</time></trkpt><trkpt lat="44.1645983" lon="12.0989567"><ele>29.0</ele><time>2026-04-16T14:41:53.087Z</time></trkpt><trkpt lat="44.1646683" lon="12.09901"><ele>29.0</ele><time>2026-04-16T14:41:54.087Z</time></trkpt><trkpt lat="44.16473" lon="12.0990633"><ele>29.0</ele><time>2026-04-16T14:41:55.087Z</time></trkpt><trkpt lat="44.1647967" lon="12.0991133"><ele>28.999999999999996</ele><time>2026-04-16T14:41:56.087Z</time></trkpt><trkpt lat="44.16486" lon="12.0991583"><ele>29.0</ele><time>2026-04-16T14:41:57.087Z</time></trkpt><trkpt lat="44.1649283" lon="12.0991967"><ele>29.000000000000004</ele><time>2026-04-16T14:41:58.087Z</time></trkpt><trkpt lat="44.1649933" lon="12.099245"><ele>29.0</ele><time>2026-04-16T14:41:59.087Z</time></trkpt><trkpt lat="44.1650583" lon="12.0992983"><ele>29.000000000000004</ele><time>2026-04-16T14:42:00.087Z</time></trkpt><trkpt lat="44.1651233" lon="12.0993483"><ele>29.000000000000004</ele><time>2026-04-16T14:42:01.087Z</time></trkpt><trkpt lat="44.1651867" lon="12.0993983"><ele>29.0</ele><time>2026-04-16T14:42:02.087Z</time></trkpt><trkpt lat="44.165245" lon="12.099455"><ele>29.000000000000004</ele><time>2026-04-16T14:42:03.087Z</time></trkpt><trkpt lat="44.165305" lon="12.0994967"><ele>29.000000000000004</ele><time>2026-04-16T14:42:04.087Z</time></trkpt><trkpt lat="44.165365" lon="12.0995417"><ele>29.000000000000004</ele><time>2026-04-16T14:42:05.088Z</time></trkpt><trkpt lat="44.1654217" lon="12.099585"><ele>29.0</ele><time>2026-04-16T14:42:06.087Z</time></trkpt><trkpt lat="44.1654817" lon="12.09963"><ele>29.000000000000004</ele><time>2026-04-16T14:42:07.087Z</time></trkpt><trkpt lat="44.165545" lon="12.09968"><ele>29.000000000000004</ele><time>2026-04-16T14:42:08.087Z</time></trkpt><trkpt lat="44.165605" lon="12.099725"><ele>29.0</ele><time>2026-04-16T14:42:09.087Z</time></trkpt><trkpt lat="44.1656667" lon="12.0997683"><ele>29.000000000000004</ele><time>2026-04-16T14:42:10.087Z</time></trkpt><trkpt lat="44.165725" lon="12.0998067"><ele>29.000000000000004</ele><time>2026-04-16T14:42:11.088Z</time></trkpt><trkpt lat="44.1657833" lon="12.09985"><ele>29.333333333333332</ele><time>2026-04-16T14:42:12.087Z</time></trkpt><trkpt lat="44.165845" lon="12.0998933"><ele>29.666666666666664</ele><time>2026-04-16T14:42:13.087Z</time></trkpt><trkpt lat="44.1659033" lon="12.0999317"><ele>30.0</ele><time>2026-04-16T14:42:14.087Z</time></trkpt><trkpt lat="44.1659667" lon="12.09997"><ele>30.333333333333336</ele><time>2026-04-16T14:42:15.087Z</time></trkpt><trkpt lat="44.1660783" lon="12.1000283"><ele>30.666666666666668</ele><time>2026-04-16T14:42:17.087Z</time></trkpt><trkpt lat="44.1661733" lon="12.1000783"><ele>31.0</ele><time>2026-04-16T14:42:19.087Z</time></trkpt><trkpt lat="44.166265" lon="12.1001283"><ele>31.4</ele><time>2026-04-16T14:42:21.087Z</time></trkpt><trkpt lat="44.1663533" lon="12.100165"><ele>31.8</ele><time>2026-04-16T14:42:23.087Z</time></trkpt><trkpt lat="44.1664333" lon="12.100215"><ele>32.199999999999996</ele><time>2026-04-16T14:42:25.087Z</time></trkpt><trkpt lat="44.1664983" lon="12.1003267"><ele>32.6</ele><time>2026-04-16T14:42:27.087Z</time></trkpt><trkpt lat="44.16654" lon="12.100465"><ele>33.0</ele><time>2026-04-16T14:42:29.087Z</time></trkpt><trkpt lat="44.166565" lon="12.1005833"><ele>33.5</ele><time>2026-04-16T14:42:31.087Z</time></trkpt><trkpt lat="44.1666117" lon="12.1006683"><ele>34.0</ele><time>2026-04-16T14:42:33.087Z</time></trkpt><trkpt lat="44.1666867" lon="12.100745"><ele>34.5</ele><time>2026-04-16T14:42:35.087Z</time></trkpt><trkpt lat="44.1667833" lon="12.1007733"><ele>35.0</ele><time>2026-04-16T14:42:37.087Z</time></trkpt><trkpt lat="44.166865" lon="12.100735"><ele>35.5</ele><time>2026-04-16T14:42:39.088Z</time></trkpt><trkpt lat="44.166905" lon="12.1006383"><ele>36.0</ele><time>2026-04-16T14:42:41.087Z</time></trkpt><trkpt lat="44.166925" lon="12.1005317"><ele>36.0</ele><time>2026-04-16T14:42:43.087Z</time></trkpt><trkpt lat="44.1669" lon="12.1004117"><ele>36.0</ele><time>2026-04-16T14:42:45.087Z</time></trkpt><trkpt lat="44.1668717" lon="12.1002717"><ele>36.0</ele><time>2026-04-16T14:42:47.087Z</time></trkpt><trkpt lat="44.1668767" lon="12.100125"><ele>36.0</ele><time>2026-04-16T14:42:49.087Z</time></trkpt><trkpt lat="44.1669133" lon="12.0999883"><ele>36.0</ele><time>2026-04-16T14:42:51.087Z</time></trkpt><trkpt lat="44.1669717" lon="12.0998633"><ele>35.6</ele><time>2026-04-16T14:42:53.087Z</time></trkpt><trkpt lat="44.167035" lon="12.0997167"><ele>35.2</ele><time>2026-04-16T14:42:55.087Z</time></trkpt><trkpt lat="44.167105" lon="12.0995583"><ele>34.8</ele><time>2026-04-16T14:42:57.087Z</time></trkpt><trkpt lat="44.1671417" lon="12.09947"><ele>34.4</ele><time>2026-04-16T14:42:58.087Z</time></trkpt><trkpt lat="44.1671833" lon="12.0993883"><ele>34.0</ele><time>2026-04-16T14:42:59.087Z</time></trkpt><trkpt lat="44.167225" lon="12.0993083"><ele>34.0</ele><time>2026-04-16T14:43:00.087Z</time></trkpt><trkpt lat="44.1672683" lon="12.0992283"><ele>34.0</ele><time>2026-04-16T14:43:01.087Z</time></trkpt><trkpt lat="44.1673067" lon="12.0991583"><ele>34.0</ele><time>2026-04-16T14:43:02.087Z</time></trkpt><trkpt lat="44.167345" lon="12.0990883"><ele>34.0</ele><time>2026-04-16T14:43:03.087Z</time></trkpt><trkpt lat="44.1673883" lon="12.0990183"><ele>34.0</ele><time>2026-04-16T14:43:04.087Z</time></trkpt><trkpt lat="44.167465" lon="12.098885"><ele>34.0</ele><time>2026-04-16T14:43:06.087Z</time></trkpt><trkpt lat="44.1675383" lon="12.0987567"><ele>34.0</ele><time>2026-04-16T14:43:08.087Z</time></trkpt><trkpt lat="44.167575" lon="12.098685"><ele>34.0</ele><time>2026-04-16T14:43:09.087Z</time></trkpt><trkpt lat="44.1676183" lon="12.098615"><ele>34.0</ele><time>2026-04-16T14:43:10.088Z</time></trkpt><trkpt lat="44.167655" lon="12.0985433"><ele>34.0</ele><time>2026-04-16T14:43:11.087Z</time></trkpt><trkpt lat="44.16773" lon="12.098415"><ele>34.0</ele><time>2026-04-16T14:43:13.087Z</time></trkpt><trkpt lat="44.1677983" lon="12.098285"><ele>34.0</ele><time>2026-04-16T14:43:15.087Z</time></trkpt><trkpt lat="44.16787" lon="12.0981617"><ele>33.57142857142857</ele><time>2026-04-16T14:43:17.087Z</time></trkpt><trkpt lat="44.1679117" lon="12.098095"><ele>33.14285714285714</ele><time>2026-04-16T14:43:18.087Z</time></trkpt><trkpt lat="44.1679583" lon="12.0980333"><ele>32.714285714285715</ele><time>2026-04-16T14:43:19.087Z</time></trkpt><trkpt lat="44.168015" lon="12.0979817"><ele>32.285714285714285</ele><time>2026-04-16T14:43:20.088Z</time></trkpt><trkpt lat="44.1680817" lon="12.0979467"><ele>31.85714285714286</ele><time>2026-04-16T14:43:21.087Z</time></trkpt><trkpt lat="44.168145" lon="12.09794"><ele>31.42857142857143</ele><time>2026-04-16T14:43:22.087Z</time></trkpt><trkpt lat="44.1682133" lon="12.0979733"><ele>31.0</ele><time>2026-04-16T14:43:23.087Z</time></trkpt><trkpt lat="44.1682667" lon="12.0980267"><ele>31.000000000000004</ele><time>2026-04-16T14:43:24.088Z</time></trkpt><trkpt lat="44.16832" lon="12.09808"><ele>31.0</ele><time>2026-04-16T14:43:25.087Z</time></trkpt><trkpt lat="44.1683683" lon="12.0981417"><ele>31.0</ele><time>2026-04-16T14:43:26.087Z</time></trkpt><trkpt lat="44.16842" lon="12.0981967"><ele>31.0</ele><time>2026-04-16T14:43:27.087Z</time></trkpt><trkpt lat="44.1685117" lon="12.0983"><ele>31.000000000000004</ele><time>2026-04-16T14:43:29.087Z</time></trkpt><trkpt lat="44.1686117" lon="12.09838"><ele>31.0</ele><time>2026-04-16T14:43:31.087Z</time></trkpt><trkpt lat="44.1687233" lon="12.0984183"><ele>31.6</ele><time>2026-04-16T14:43:33.087Z</time></trkpt><trkpt lat="44.1688433" lon="12.0984067"><ele>32.2</ele><time>2026-04-16T14:43:35.087Z</time></trkpt><trkpt lat="44.16897" lon="12.09838"><ele>32.8</ele><time>2026-04-16T14:43:37.087Z</time></trkpt><trkpt lat="44.1690467" lon="12.098395"><ele>33.4</ele><time>2026-04-16T14:43:38.088Z</time></trkpt><trkpt lat="44.1691117" lon="12.0983917"><ele>34.0</ele><time>2026-04-16T14:43:39.087Z</time></trkpt><trkpt lat="44.1691967" lon="12.0984"><ele>34.0</ele><time>2026-04-16T14:43:40.087Z</time></trkpt><trkpt lat="44.1692783" lon="12.0984033"><ele>34.0</ele><time>2026-04-16T14:43:41.087Z</time></trkpt><trkpt lat="44.16936" lon="12.098395"><ele>34.0</ele><time>2026-04-16T14:43:42.087Z</time></trkpt><trkpt lat="44.1694417" lon="12.0984117"><ele>34.0</ele><time>2026-04-16T14:43:43.087Z</time></trkpt><trkpt lat="44.169525" lon="12.0984483"><ele>34.0</ele><time>2026-04-16T14:43:44.087Z</time></trkpt><trkpt lat="44.1696083" lon="12.0984967"><ele>34.0</ele><time>2026-04-16T14:43:45.087Z</time></trkpt><trkpt lat="44.169685" lon="12.09855"><ele>34.0</ele><time>2026-04-16T14:43:46.087Z</time></trkpt><trkpt lat="44.169745" lon="12.0986017"><ele>34.0</ele><time>2026-04-16T14:43:47.087Z</time></trkpt><trkpt lat="44.1698117" lon="12.0986583"><ele>34.0</ele><time>2026-04-16T14:43:48.087Z</time></trkpt><trkpt lat="44.169875" lon="12.0987117"><ele>34.0</ele><time>2026-04-16T14:43:49.087Z</time></trkpt><trkpt lat="44.1699283" lon="12.0987617"><ele>34.0</ele><time>2026-04-16T14:43:50.087Z</time></trkpt><trkpt lat="44.1700267" lon="12.0988433"><ele>34.0</ele><time>2026-04-16T14:43:52.087Z</time></trkpt><trkpt lat="44.1701217" lon="12.0989233"><ele>34.2</ele><time>2026-04-16T14:43:54.088Z</time></trkpt><trkpt lat="44.17021" lon="12.099005"><ele>34.4</ele><time>2026-04-16T14:43:56.087Z</time></trkpt><trkpt lat="44.1702967" lon="12.0990933"><ele>34.6</ele><time>2026-04-16T14:43:58.087Z</time></trkpt><trkpt lat="44.1703833" lon="12.09919"><ele>34.8</ele><time>2026-04-16T14:44:00.087Z</time></trkpt><trkpt lat="44.17047" lon="12.0992767"><ele>35.0</ele><time>2026-04-16T14:44:02.087Z</time></trkpt><trkpt lat="44.1705517" lon="12.0993917"><ele>35.0</ele><time>2026-04-16T14:44:04.087Z</time></trkpt><trkpt lat="44.1706367" lon="12.0995283"><ele>35.0</ele><time>2026-04-16T14:44:06.087Z</time></trkpt><trkpt lat="44.17068" lon="12.099605"><ele>35.0</ele><time>2026-04-16T14:44:07.087Z</time></trkpt><trkpt lat="44.1707583" lon="12.0996933"><ele>35.0</ele><time>2026-04-16T14:44:09.087Z</time></trkpt><trkpt lat="44.1708483" lon="12.0997983"><ele>35.0</ele><time>2026-04-16T14:44:11.087Z</time></trkpt><trkpt lat="44.17093" lon="12.099915"><ele>35.2</ele><time>2026-04-16T14:44:13.087Z</time></trkpt><trkpt lat="44.171015" lon="12.1000217"><ele>35.4</ele><time>2026-04-16T14:44:15.087Z</time></trkpt><trkpt lat="44.1711067" lon="12.1001417"><ele>35.6</ele><time>2026-04-16T14:44:17.087Z</time></trkpt><trkpt lat="44.17115" lon="12.100215"><ele>35.8</ele><time>2026-04-16T14:44:18.087Z</time></trkpt><trkpt lat="44.1711983" lon="12.1002883"><ele>36.0</ele><time>2026-04-16T14:44:19.087Z</time></trkpt><trkpt lat="44.1712467" lon="12.1003683"><ele>36.0</ele><time>2026-04-16T14:44:20.087Z</time></trkpt><trkpt lat="44.1712933" lon="12.1004617"><ele>36.0</ele><time>2026-04-16T14:44:21.087Z</time></trkpt><trkpt lat="44.17134" lon="12.1005467"><ele>36.0</ele><time>2026-04-16T14:44:22.087Z</time></trkpt><trkpt lat="44.171385" lon="12.10061"><ele>36.0</ele><time>2026-04-16T14:44:23.087Z</time></trkpt><trkpt lat="44.171475" lon="12.1007183"><ele>36.0</ele><time>2026-04-16T14:44:25.087Z</time></trkpt><trkpt lat="44.1715767" lon="12.1008267"><ele>35.714285714285715</ele><time>2026-04-16T14:44:27.087Z</time></trkpt><trkpt lat="44.1716283" lon="12.1009017"><ele>35.42857142857143</ele><time>2026-04-16T14:44:28.087Z</time></trkpt><trkpt lat="44.171675" lon="12.10097"><ele>35.14285714285714</ele><time>2026-04-16T14:44:29.088Z</time></trkpt><trkpt lat="44.1717233" lon="12.1010367"><ele>34.85714285714286</ele><time>2026-04-16T14:44:30.087Z</time></trkpt><trkpt lat="44.1717683" lon="12.1010983"><ele>34.57142857142857</ele><time>2026-04-16T14:44:31.087Z</time></trkpt><trkpt lat="44.1718117" lon="12.1011633"><ele>34.285714285714285</ele><time>2026-04-16T14:44:32.087Z</time></trkpt><trkpt lat="44.1718617" lon="12.1012267"><ele>34.0</ele><time>2026-04-16T14:44:33.087Z</time></trkpt><trkpt lat="44.17191" lon="12.1012917"><ele>33.99999999999999</ele><time>2026-04-16T14:44:34.087Z</time></trkpt><trkpt lat="44.171955" lon="12.1013567"><ele>34.0</ele><time>2026-04-16T14:44:35.088Z</time></trkpt><trkpt lat="44.1720017" lon="12.1014217"><ele>34.0</ele><time>2026-04-16T14:44:36.087Z</time></trkpt><trkpt lat="44.1720483" lon="12.10149"><ele>34.0</ele><time>2026-04-16T14:44:37.087Z</time></trkpt><trkpt lat="44.172095" lon="12.101555"><ele>34.0</ele><time>2026-04-16T14:44:38.087Z</time></trkpt><trkpt lat="44.1721433" lon="12.10163"><ele>33.99999999999999</ele><time>2026-04-16T14:44:39.087Z</time></trkpt><trkpt lat="44.17219" lon="12.1017017"><ele>34.0</ele><time>2026-04-16T14:44:40.087Z</time></trkpt><trkpt lat="44.172235" lon="12.1017667"><ele>33.99999999999999</ele><time>2026-04-16T14:44:41.087Z</time></trkpt><trkpt lat="44.1722783" lon="12.101835"><ele>34.0</ele><time>2026-04-16T14:44:42.087Z</time></trkpt><trkpt lat="44.1723233" lon="12.1019"><ele>34.0</ele><time>2026-04-16T14:44:43.087Z</time></trkpt><trkpt lat="44.1723733" lon="12.10197"><ele>34.0</ele><time>2026-04-16T14:44:44.087Z</time></trkpt><trkpt lat="44.1724217" lon="12.1020383"><ele>34.0</ele><time>2026-04-16T14:44:45.087Z</time></trkpt><trkpt lat="44.17247" lon="12.1021017"><ele>33.99999999999999</ele><time>2026-04-16T14:44:46.087Z</time></trkpt><trkpt lat="44.172525" lon="12.10217"><ele>34.0</ele><time>2026-04-16T14:44:47.087Z</time></trkpt><trkpt lat="44.172575" lon="12.1022367"><ele>33.857142857142854</ele><time>2026-04-16T14:44:48.087Z</time></trkpt><trkpt lat="44.1726267" lon="12.1023083"><ele>33.714285714285715</ele><time>2026-04-16T14:44:49.087Z</time></trkpt><trkpt lat="44.1726783" lon="12.1023817"><ele>33.57142857142857</ele><time>2026-04-16T14:44:50.087Z</time></trkpt><trkpt lat="44.172725" lon="12.1024467"><ele>33.42857142857143</ele><time>2026-04-16T14:44:51.088Z</time></trkpt><trkpt lat="44.1727767" lon="12.1025183"><ele>33.285714285714285</ele><time>2026-04-16T14:44:52.088Z</time></trkpt><trkpt lat="44.1728267" lon="12.10259"><ele>33.14285714285714</ele><time>2026-04-16T14:44:53.087Z</time></trkpt><trkpt lat="44.1728767" lon="12.102655"><ele>33.0</ele><time>2026-04-16T14:44:54.087Z</time></trkpt><trkpt lat="44.17293" lon="12.1027217"><ele>33.0</ele><time>2026-04-16T14:44:55.087Z</time></trkpt><trkpt lat="44.1729817" lon="12.1027933"><ele>33.0</ele><time>2026-04-16T14:44:56.087Z</time></trkpt><trkpt lat="44.173035" lon="12.10286"><ele>33.0</ele><time>2026-04-16T14:44:57.087Z</time></trkpt><trkpt lat="44.173085" lon="12.1029233"><ele>33.0</ele><time>2026-04-16T14:44:58.087Z</time></trkpt><trkpt lat="44.1731367" lon="12.10299"><ele>33.0</ele><time>2026-04-16T14:44:59.087Z</time></trkpt><trkpt lat="44.17319" lon="12.1030533"><ele>33.0</ele><time>2026-04-16T14:45:00.088Z</time></trkpt><trkpt lat="44.1732433" lon="12.10312"><ele>33.0</ele><time>2026-04-16T14:45:01.087Z</time></trkpt><trkpt lat="44.1732933" lon="12.103185"><ele>33.199999999999996</ele><time>2026-04-16T14:45:02.087Z</time></trkpt><trkpt lat="44.17339" lon="12.1033067"><ele>33.4</ele><time>2026-04-16T14:45:04.087Z</time></trkpt><trkpt lat="44.1734367" lon="12.1033667"><ele>33.599999999999994</ele><time>2026-04-16T14:45:05.087Z</time></trkpt><trkpt lat="44.1734833" lon="12.10343"><ele>33.8</ele><time>2026-04-16T14:45:06.087Z</time></trkpt><trkpt lat="44.173575" lon="12.1035567"><ele>34.0</ele><time>2026-04-16T14:45:08.087Z</time></trkpt><trkpt lat="44.173625" lon="12.10362"><ele>34.0</ele><time>2026-04-16T14:45:09.088Z</time></trkpt><trkpt lat="44.1736783" lon="12.103685"><ele>34.0</ele><time>2026-04-16T14:45:10.087Z</time></trkpt><trkpt lat="44.17373" lon="12.1037467"><ele>34.0</ele><time>2026-04-16T14:45:11.087Z</time></trkpt><trkpt lat="44.1737833" lon="12.103815"><ele>34.0</ele><time>2026-04-16T14:45:12.087Z</time></trkpt><trkpt lat="44.1738317" lon="12.1038767"><ele>34.0</ele><time>2026-04-16T14:45:13.087Z</time></trkpt><trkpt lat="44.1738833" lon="12.10395"><ele>34.0</ele><time>2026-04-16T14:45:14.087Z</time></trkpt><trkpt lat="44.17395" lon="12.10409"><ele>34.0</ele><time>2026-04-16T14:45:16.087Z</time></trkpt><trkpt lat="44.1739933" lon="12.1042517"><ele>34.0</ele><time>2026-04-16T14:45:18.087Z</time></trkpt><trkpt lat="44.1740117" lon="12.1043367"><ele>34.0</ele><time>2026-04-16T14:45:19.087Z</time></trkpt><trkpt lat="44.1740383" lon="12.104495"><ele>34.0</ele><time>2026-04-16T14:45:21.087Z</time></trkpt><trkpt lat="44.1740433" lon="12.104585"><ele>34.0</ele><time>2026-04-16T14:45:22.087Z</time></trkpt><trkpt lat="44.1740617" lon="12.1046783"><ele>34.0</ele><time>2026-04-16T14:45:23.087Z</time></trkpt><trkpt lat="44.1740917" lon="12.1047717"><ele>33.833333333333336</ele><time>2026-04-16T14:45:24.087Z</time></trkpt><trkpt lat="44.1741233" lon="12.1048683"><ele>33.66666666666667</ele><time>2026-04-16T14:45:25.087Z</time></trkpt><trkpt lat="44.1741567" lon="12.104965"><ele>33.5</ele><time>2026-04-16T14:45:26.088Z</time></trkpt><trkpt lat="44.17419" lon="12.105045"><ele>33.333333333333336</ele><time>2026-04-16T14:45:27.087Z</time></trkpt><trkpt lat="44.1742367" lon="12.105115"><ele>33.166666666666664</ele><time>2026-04-16T14:45:28.087Z</time></trkpt><trkpt lat="44.174335" lon="12.105235"><ele>33.0</ele><time>2026-04-16T14:45:30.087Z</time></trkpt><trkpt lat="44.17438" lon="12.1053033"><ele>33.0</ele><time>2026-04-16T14:45:31.087Z</time></trkpt><trkpt lat="44.174415" lon="12.1053767"><ele>33.0</ele><time>2026-04-16T14:45:32.087Z</time></trkpt><trkpt lat="44.1744733" lon="12.1055183"><ele>33.0</ele><time>2026-04-16T14:45:34.087Z</time></trkpt><trkpt lat="44.1745333" lon="12.1056683"><ele>33.0</ele><time>2026-04-16T14:45:36.087Z</time></trkpt><trkpt lat="44.1746" lon="12.10582"><ele>33.0</ele><time>2026-04-16T14:45:38.087Z</time></trkpt><trkpt lat="44.174665" lon="12.1059683"><ele>33.0</ele><time>2026-04-16T14:45:40.087Z</time></trkpt><trkpt lat="44.17472" lon="12.1061117"><ele>33.0</ele><time>2026-04-16T14:45:42.087Z</time></trkpt><trkpt lat="44.1747783" lon="12.1062433"><ele>33.0</ele><time>2026-04-16T14:45:44.087Z</time></trkpt><trkpt lat="44.1748417" lon="12.10639"><ele>33.0</ele><time>2026-04-16T14:45:46.087Z</time></trkpt><trkpt lat="44.1749033" lon="12.1065283"><ele>33.199999999999996</ele><time>2026-04-16T14:45:48.088Z</time></trkpt><trkpt lat="44.1749583" lon="12.106655"><ele>33.4</ele><time>2026-04-16T14:45:50.087Z</time></trkpt><trkpt lat="44.1750183" lon="12.1067783"><ele>33.599999999999994</ele><time>2026-04-16T14:45:52.087Z</time></trkpt><trkpt lat="44.1750667" lon="12.10691"><ele>33.8</ele><time>2026-04-16T14:45:54.087Z</time></trkpt><trkpt lat="44.17512" lon="12.10702"><ele>34.0</ele><time>2026-04-16T14:45:56.088Z</time></trkpt><trkpt lat="44.1751783" lon="12.1071133"><ele>34.0</ele><time>2026-04-16T14:45:58.087Z</time></trkpt><trkpt lat="44.17524" lon="12.1071667"><ele>34.0</ele><time>2026-04-16T14:46:00.087Z</time></trkpt><trkpt lat="44.17533" lon="12.10713"><ele>34.0</ele><time>2026-04-16T14:46:02.087Z</time></trkpt><trkpt lat="44.1753967" lon="12.1070083"><ele>34.0</ele><time>2026-04-16T14:46:04.087Z</time></trkpt><trkpt lat="44.17547" lon="12.1068633"><ele>34.0</ele><time>2026-04-16T14:46:06.087Z</time></trkpt><trkpt lat="44.1755067" lon="12.106785"><ele>34.0</ele><time>2026-04-16T14:46:07.087Z</time></trkpt><trkpt lat="44.175535" lon="12.1067033"><ele>34.0</ele><time>2026-04-16T14:46:08.087Z</time></trkpt><trkpt lat="44.1755933" lon="12.1065533"><ele>34.0</ele><time>2026-04-16T14:46:10.087Z</time></trkpt><trkpt lat="44.1756417" lon="12.1064183"><ele>34.0</ele><time>2026-04-16T14:46:12.087Z</time></trkpt><trkpt lat="44.1756917" lon="12.10628"><ele>34.0</ele><time>2026-04-16T14:46:14.087Z</time></trkpt><trkpt lat="44.175745" lon="12.1061583"><ele>33.6</ele><time>2026-04-16T14:46:16.087Z</time></trkpt><trkpt lat="44.17582" lon="12.1060683"><ele>33.2</ele><time>2026-04-16T14:46:18.087Z</time></trkpt><trkpt lat="44.1759117" lon="12.1060567"><ele>32.800000000000004</ele><time>2026-04-16T14:46:20.087Z</time></trkpt><trkpt lat="44.1760083" lon="12.10615"><ele>32.4</ele><time>2026-04-16T14:46:22.087Z</time></trkpt><trkpt lat="44.1761083" lon="12.1062367"><ele>32.0</ele><time>2026-04-16T14:46:24.087Z</time></trkpt><trkpt lat="44.1762183" lon="12.1063033"><ele>32.0</ele><time>2026-04-16T14:46:26.087Z</time></trkpt><trkpt lat="44.1763267" lon="12.1063917"><ele>32.0</ele><time>2026-04-16T14:46:28.087Z</time></trkpt><trkpt lat="44.1764367" lon="12.1064867"><ele>32.0</ele><time>2026-04-16T14:46:30.087Z</time></trkpt><trkpt lat="44.1764917" lon="12.10654"><ele>32.0</ele><time>2026-04-16T14:46:31.087Z</time></trkpt><trkpt lat="44.1765467" lon="12.1065917"><ele>32.0</ele><time>2026-04-16T14:46:32.087Z</time></trkpt><trkpt lat="44.1766467" lon="12.1066883"><ele>31.999999999999996</ele><time>2026-04-16T14:46:34.087Z</time></trkpt><trkpt lat="44.17676" lon="12.106765"><ele>32.0</ele><time>2026-04-16T14:46:36.087Z</time></trkpt><trkpt lat="44.17682" lon="12.1068133"><ele>32.0</ele><time>2026-04-16T14:46:37.087Z</time></trkpt><trkpt lat="44.1768783" lon="12.1068683"><ele>32.0</ele><time>2026-04-16T14:46:38.088Z</time></trkpt><trkpt lat="44.1769367" lon="12.1069217"><ele>31.999999999999996</ele><time>2026-04-16T14:46:39.087Z</time></trkpt><trkpt lat="44.1769883" lon="12.1069767"><ele>32.0</ele><time>2026-04-16T14:46:40.087Z</time></trkpt><trkpt lat="44.177045" lon="12.107035"><ele>32.0</ele><time>2026-04-16T14:46:41.087Z</time></trkpt><trkpt lat="44.177105" lon="12.1070933"><ele>31.999999999999996</ele><time>2026-04-16T14:46:42.087Z</time></trkpt><trkpt lat="44.1771617" lon="12.107145"><ele>32.0</ele><time>2026-04-16T14:46:43.087Z</time></trkpt><trkpt lat="44.17722" lon="12.107195"><ele>32.0</ele><time>2026-04-16T14:46:44.087Z</time></trkpt><trkpt lat="44.1772767" lon="12.1072483"><ele>31.999999999999996</ele><time>2026-04-16T14:46:45.087Z</time></trkpt><trkpt lat="44.1773317" lon="12.107305"><ele>32.0</ele><time>2026-04-16T14:46:46.087Z</time></trkpt><trkpt lat="44.17739" lon="12.1073683"><ele>32.0</ele><time>2026-04-16T14:46:47.087Z</time></trkpt><trkpt lat="44.1774467" lon="12.1074267"><ele>31.857142857142854</ele><time>2026-04-16T14:46:48.087Z</time></trkpt><trkpt lat="44.1775083" lon="12.1074933"><ele>31.71428571428571</ele><time>2026-04-16T14:46:49.088Z</time></trkpt><trkpt lat="44.1775667" lon="12.1075483"><ele>31.57142857142857</ele><time>2026-04-16T14:46:50.087Z</time></trkpt><trkpt lat="44.177625" lon="12.1076133"><ele>31.42857142857143</ele><time>2026-04-16T14:46:51.087Z</time></trkpt><trkpt lat="44.1776767" lon="12.107675"><ele>31.28571428571429</ele><time>2026-04-16T14:46:52.087Z</time></trkpt><trkpt lat="44.177735" lon="12.1077367"><ele>31.142857142857146</ele><time>2026-04-16T14:46:53.087Z</time></trkpt><trkpt lat="44.177785" lon="12.1077967"><ele>31.0</ele><time>2026-04-16T14:46:54.087Z</time></trkpt><trkpt lat="44.1778383" lon="12.107855"><ele>31.0</ele><time>2026-04-16T14:46:55.087Z</time></trkpt><trkpt lat="44.177895" lon="12.1079167"><ele>31.000000000000004</ele><time>2026-04-16T14:46:56.087Z</time></trkpt><trkpt lat="44.1779467" lon="12.10797"><ele>31.0</ele><time>2026-04-16T14:46:57.088Z</time></trkpt><trkpt lat="44.1780017" lon="12.1080267"><ele>31.0</ele><time>2026-04-16T14:46:58.087Z</time></trkpt><trkpt lat="44.1780583" lon="12.1080817"><ele>31.000000000000004</ele><time>2026-04-16T14:46:59.087Z</time></trkpt><trkpt lat="44.1781183" lon="12.1081433"><ele>31.0</ele><time>2026-04-16T14:47:00.087Z</time></trkpt><trkpt lat="44.1781767" lon="12.1082"><ele>31.0</ele><time>2026-04-16T14:47:01.087Z</time></trkpt><trkpt lat="44.1782333" lon="12.1082533"><ele>30.857142857142858</ele><time>2026-04-16T14:47:02.087Z</time></trkpt><trkpt lat="44.17829" lon="12.108305"><ele>30.714285714285715</ele><time>2026-04-16T14:47:03.087Z</time></trkpt><trkpt lat="44.1783467" lon="12.108355"><ele>30.571428571428573</ele><time>2026-04-16T14:47:04.087Z</time></trkpt><trkpt lat="44.1784033" lon="12.1084033"><ele>30.42857142857143</ele><time>2026-04-16T14:47:05.087Z</time></trkpt><trkpt lat="44.17846" lon="12.1084533"><ele>30.285714285714285</ele><time>2026-04-16T14:47:06.087Z</time></trkpt><trkpt lat="44.1785117" lon="12.1085067"><ele>30.142857142857146</ele><time>2026-04-16T14:47:07.087Z</time></trkpt><trkpt lat="44.1785667" lon="12.10856"><ele>30.0</ele><time>2026-04-16T14:47:08.087Z</time></trkpt><trkpt lat="44.178625" lon="12.10861"><ele>30.0</ele><time>2026-04-16T14:47:09.087Z</time></trkpt><trkpt lat="44.17868" lon="12.1086617"><ele>30.0</ele><time>2026-04-16T14:47:10.088Z</time></trkpt><trkpt lat="44.1787383" lon="12.108715"><ele>30.0</ele><time>2026-04-16T14:47:11.087Z</time></trkpt><trkpt lat="44.178795" lon="12.1087683"><ele>30.0</ele><time>2026-04-16T14:47:12.087Z</time></trkpt><trkpt lat="44.17885" lon="12.1088167"><ele>30.0</ele><time>2026-04-16T14:47:13.087Z</time></trkpt><trkpt lat="44.1789567" lon="12.10891"><ele>30.0</ele><time>2026-04-16T14:47:15.087Z</time></trkpt><trkpt lat="44.17906" lon="12.1089883"><ele>29.857142857142858</ele><time>2026-04-16T14:47:17.087Z</time></trkpt><trkpt lat="44.1791217" lon="12.10904"><ele>29.714285714285715</ele><time>2026-04-16T14:47:18.087Z</time></trkpt><trkpt lat="44.1791817" lon="12.109095"><ele>29.571428571428573</ele><time>2026-04-16T14:47:19.087Z</time></trkpt><trkpt lat="44.179245" lon="12.10916"><ele>29.42857142857143</ele><time>2026-04-16T14:47:20.087Z</time></trkpt><trkpt lat="44.179305" lon="12.1092183"><ele>29.285714285714285</ele><time>2026-04-16T14:47:21.087Z</time></trkpt><trkpt lat="44.17936" lon="12.109285"><ele>29.142857142857146</ele><time>2026-04-16T14:47:22.087Z</time></trkpt><trkpt lat="44.1794167" lon="12.1093533"><ele>29.000000000000004</ele><time>2026-04-16T14:47:23.087Z</time></trkpt><trkpt lat="44.179475" lon="12.1094067"><ele>28.85714285714286</ele><time>2026-04-16T14:47:24.087Z</time></trkpt><trkpt lat="44.179535" lon="12.1094617"><ele>28.714285714285715</ele><time>2026-04-16T14:47:25.087Z</time></trkpt><trkpt lat="44.1795967" lon="12.1095183"><ele>28.571428571428573</ele><time>2026-04-16T14:47:26.087Z</time></trkpt><trkpt lat="44.1796533" lon="12.10957"><ele>28.42857142857143</ele><time>2026-04-16T14:47:27.087Z</time></trkpt><trkpt lat="44.1797083" lon="12.1096233"><ele>28.285714285714285</ele><time>2026-04-16T14:47:28.087Z</time></trkpt><trkpt lat="44.1797633" lon="12.1096833"><ele>28.142857142857142</ele><time>2026-04-16T14:47:29.088Z</time></trkpt><trkpt lat="44.1798167" lon="12.1097333"><ele>28.0</ele><time>2026-04-16T14:47:30.087Z</time></trkpt><trkpt lat="44.1799283" lon="12.1098333"><ele>28.000000000000004</ele><time>2026-04-16T14:47:32.087Z</time></trkpt><trkpt lat="44.1800433" lon="12.1099067"><ele>28.0</ele><time>2026-04-16T14:47:34.087Z</time></trkpt><trkpt lat="44.1801" lon="12.1099467"><ele>28.0</ele><time>2026-04-16T14:47:35.087Z</time></trkpt><trkpt lat="44.18016" lon="12.10999"><ele>28.0</ele><time>2026-04-16T14:47:36.087Z</time></trkpt><trkpt lat="44.1802217" lon="12.1100417"><ele>28.000000000000004</ele><time>2026-04-16T14:47:37.087Z</time></trkpt><trkpt lat="44.18028" lon="12.1100867"><ele>28.0</ele><time>2026-04-16T14:47:38.087Z</time></trkpt><trkpt lat="44.1803917" lon="12.1101617"><ele>28.4</ele><time>2026-04-16T14:47:40.087Z</time></trkpt><trkpt lat="44.1805" lon="12.1102483"><ele>28.799999999999997</ele><time>2026-04-16T14:47:42.088Z</time></trkpt><trkpt lat="44.1806017" lon="12.1103383"><ele>29.2</ele><time>2026-04-16T14:47:44.087Z</time></trkpt><trkpt lat="44.180655" lon="12.1103867"><ele>29.6</ele><time>2026-04-16T14:47:45.087Z</time></trkpt><trkpt lat="44.1807617" lon="12.1104783"><ele>30.0</ele><time>2026-04-16T14:47:47.087Z</time></trkpt><trkpt lat="44.1808183" lon="12.1105217"><ele>29.833333333333332</ele><time>2026-04-16T14:47:48.088Z</time></trkpt><trkpt lat="44.180875" lon="12.11056"><ele>29.666666666666664</ele><time>2026-04-16T14:47:49.087Z</time></trkpt><trkpt lat="44.1809383" lon="12.1105967"><ele>29.5</ele><time>2026-04-16T14:47:50.087Z</time></trkpt><trkpt lat="44.1810467" lon="12.11068"><ele>29.333333333333332</ele><time>2026-04-16T14:47:52.087Z</time></trkpt><trkpt lat="44.1811067" lon="12.1107267"><ele>29.166666666666664</ele><time>2026-04-16T14:47:53.087Z</time></trkpt><trkpt lat="44.1811667" lon="12.1107767"><ele>29.0</ele><time>2026-04-16T14:47:54.087Z</time></trkpt><trkpt lat="44.18123" lon="12.1108233"><ele>28.999999999999996</ele><time>2026-04-16T14:47:55.087Z</time></trkpt><trkpt lat="44.1812917" lon="12.110865"><ele>29.0</ele><time>2026-04-16T14:47:56.087Z</time></trkpt><trkpt lat="44.1813533" lon="12.1109083"><ele>29.0</ele><time>2026-04-16T14:47:57.087Z</time></trkpt><trkpt lat="44.18142" lon="12.1109533"><ele>29.0</ele><time>2026-04-16T14:47:58.087Z</time></trkpt><trkpt lat="44.1814767" lon="12.1109983"><ele>28.999999999999996</ele><time>2026-04-16T14:47:59.087Z</time></trkpt><trkpt lat="44.1815317" lon="12.1110417"><ele>29.0</ele><time>2026-04-16T14:48:00.087Z</time></trkpt><trkpt lat="44.1816417" lon="12.111105"><ele>28.833333333333332</ele><time>2026-04-16T14:48:02.087Z</time></trkpt><trkpt lat="44.1817" lon="12.111145"><ele>28.666666666666664</ele><time>2026-04-16T14:48:03.087Z</time></trkpt><trkpt lat="44.1818067" lon="12.1112233"><ele>28.5</ele><time>2026-04-16T14:48:05.087Z</time></trkpt><trkpt lat="44.18191" lon="12.1113067"><ele>28.333333333333336</ele><time>2026-04-16T14:48:07.087Z</time></trkpt><trkpt lat="44.1819667" lon="12.1113667"><ele>28.166666666666668</ele><time>2026-04-16T14:48:08.087Z</time></trkpt><trkpt lat="44.1820283" lon="12.1114183"><ele>28.0</ele><time>2026-04-16T14:48:09.087Z</time></trkpt><trkpt lat="44.1820883" lon="12.1114633"><ele>28.0</ele><time>2026-04-16T14:48:10.087Z</time></trkpt><trkpt lat="44.1821483" lon="12.1115067"><ele>28.0</ele><time>2026-04-16T14:48:11.087Z</time></trkpt><trkpt lat="44.182205" lon="12.1115583"><ele>28.0</ele><time>2026-04-16T14:48:12.087Z</time></trkpt><trkpt lat="44.1822667" lon="12.1116017"><ele>28.0</ele><time>2026-04-16T14:48:13.087Z</time></trkpt><trkpt lat="44.1823283" lon="12.111645"><ele>28.0</ele><time>2026-04-16T14:48:14.087Z</time></trkpt><trkpt lat="44.1823917" lon="12.1116967"><ele>28.0</ele><time>2026-04-16T14:48:15.087Z</time></trkpt><trkpt lat="44.1824517" lon="12.11175"><ele>28.0</ele><time>2026-04-16T14:48:16.087Z</time></trkpt><trkpt lat="44.1825117" lon="12.1118017"><ele>27.799999999999997</ele><time>2026-04-16T14:48:17.087Z</time></trkpt><trkpt lat="44.1826283" lon="12.111885"><ele>27.599999999999998</ele><time>2026-04-16T14:48:19.087Z</time></trkpt><trkpt lat="44.1826867" lon="12.1119267"><ele>27.400000000000002</ele><time>2026-04-16T14:48:20.087Z</time></trkpt><trkpt lat="44.1828033" lon="12.1120067"><ele>27.200000000000003</ele><time>2026-04-16T14:48:22.087Z</time></trkpt><trkpt lat="44.182865" lon="12.11205"><ele>27.0</ele><time>2026-04-16T14:48:23.088Z</time></trkpt><trkpt lat="44.1829233" lon="12.1121017"><ele>27.0</ele><time>2026-04-16T14:48:24.087Z</time></trkpt><trkpt lat="44.18298" lon="12.11215"><ele>27.0</ele><time>2026-04-16T14:48:25.087Z</time></trkpt><trkpt lat="44.183085" lon="12.1122383"><ele>27.0</ele><time>2026-04-16T14:48:27.087Z</time></trkpt><trkpt lat="44.1831383" lon="12.1122883"><ele>27.0</ele><time>2026-04-16T14:48:28.088Z</time></trkpt><trkpt lat="44.1831967" lon="12.11233"><ele>27.0</ele><time>2026-04-16T14:48:29.088Z</time></trkpt><trkpt lat="44.1833083" lon="12.1124033"><ele>27.0</ele><time>2026-04-16T14:48:31.087Z</time></trkpt><trkpt lat="44.1834117" lon="12.11247"><ele>27.0</ele><time>2026-04-16T14:48:33.087Z</time></trkpt><trkpt lat="44.1835167" lon="12.11256"><ele>27.0</ele><time>2026-04-16T14:48:35.087Z</time></trkpt><trkpt lat="44.1836233" lon="12.1126417"><ele>27.0</ele><time>2026-04-16T14:48:37.087Z</time></trkpt><trkpt lat="44.1837317" lon="12.1127083"><ele>27.0</ele><time>2026-04-16T14:48:39.087Z</time></trkpt><trkpt lat="44.1838283" lon="12.1127817"><ele>27.0</ele><time>2026-04-16T14:48:41.087Z</time></trkpt><trkpt lat="44.1839083" lon="12.11288"><ele>27.0</ele><time>2026-04-16T14:48:43.087Z</time></trkpt><trkpt lat="44.1839883" lon="12.1129783"><ele>27.0</ele><time>2026-04-16T14:48:45.087Z</time></trkpt><trkpt lat="44.1840583" lon="12.1131067"><ele>27.0</ele><time>2026-04-16T14:48:47.087Z</time></trkpt><trkpt lat="44.1841483" lon="12.1132217"><ele>27.0</ele><time>2026-04-16T14:48:49.087Z</time></trkpt><trkpt lat="44.1842567" lon="12.1132333"><ele>27.0</ele><time>2026-04-16T14:48:51.087Z</time></trkpt><trkpt lat="44.1843667" lon="12.113235"><ele>27.0</ele><time>2026-04-16T14:48:53.087Z</time></trkpt><trkpt lat="44.1844733" lon="12.1132917"><ele>27.0</ele><time>2026-04-16T14:48:55.087Z</time></trkpt><trkpt lat="44.184585" lon="12.11338"><ele>27.0</ele><time>2026-04-16T14:48:57.087Z</time></trkpt><trkpt lat="44.1846883" lon="12.11345"><ele>27.0</ele><time>2026-04-16T14:48:59.087Z</time></trkpt><trkpt lat="44.184785" lon="12.1135333"><ele>27.0</ele><time>2026-04-16T14:49:01.087Z</time></trkpt><trkpt lat="44.1848733" lon="12.113625"><ele>27.0</ele><time>2026-04-16T14:49:03.087Z</time></trkpt><trkpt lat="44.1849683" lon="12.11371"><ele>27.0</ele><time>2026-04-16T14:49:05.087Z</time></trkpt><trkpt lat="44.1850283" lon="12.1138"><ele>27.0</ele><time>2026-04-16T14:49:07.087Z</time></trkpt><trkpt lat="44.185025" lon="12.1139033"><ele>27.0</ele><time>2026-04-16T14:49:09.087Z</time></trkpt><trkpt lat="44.1849967" lon="12.1140217"><ele>27.0</ele><time>2026-04-16T14:49:11.087Z</time></trkpt><trkpt lat="44.18495" lon="12.11412"><ele>27.0</ele><time>2026-04-16T14:49:13.088Z</time></trkpt><trkpt lat="44.18492" lon="12.1142233"><ele>27.0</ele><time>2026-04-16T14:49:15.087Z</time></trkpt><trkpt lat="44.184935" lon="12.11434"><ele>27.166666666666668</ele><time>2026-04-16T14:49:18.087Z</time></trkpt><trkpt lat="44.1850083" lon="12.11442"><ele>27.333333333333336</ele><time>2026-04-16T14:49:21.087Z</time></trkpt><trkpt lat="44.185065" lon="12.114485"><ele>27.5</ele><time>2026-04-16T14:49:24.087Z</time></trkpt><trkpt lat="44.1850583" lon="12.114585"><ele>27.666666666666668</ele><time>2026-04-16T14:49:28.087Z</time></trkpt><trkpt lat="44.1850467" lon="12.1146867"><ele>27.833333333333336</ele><time>2026-04-16T14:49:32.087Z</time></trkpt><trkpt lat="44.184955" lon="12.1148"><ele>28.0</ele><time>2026-04-16T14:49:54.087Z</time></trkpt><trkpt lat="44.18494" lon="12.114965"><ele>29.0</ele><time>2026-04-16T14:50:11.085Z</time></trkpt><trkpt lat="44.1849583" lon="12.1150733"><ele>29.0</ele><time>2026-04-16T14:50:12.085Z</time></trkpt><trkpt lat="44.1849553" lon="12.1148944"><ele>28.0</ele><time>2026-04-16T14:50:13.124Z</time></trkpt><trkpt lat="44.1849646" lon="12.1149868"><ele>29.0</ele><time>2026-04-16T14:50:17.087Z</time></trkpt><trkpt lat="44.1850237" lon="12.1149419"><ele>29.0</ele><time>2026-04-16T14:50:50.116Z</time></trkpt></trkseg></trk></gpx>